# Wetter Temperatur Luftdruck Luftfeuchtigkeit Sichtweite Windgeschwindigkeit Windrichtung Zeit
1 Rain 1 1007 100 4200 3 150 09:58 29.01.2020
2 Rain 1 1007 100 4200 3 150 09:40 29.01.2020
3 Rain 1 1007 100 4200 3 150 09:20 29.01.2020
4 Rain 1 1007 100 4200 3 150 09:20 29.01.2020
5 Rain 0 1007 100 4100 3 140 08:56 29.01.2020
6 Mist 0 1007 95 4200 3 130 08:38 29.01.2020
7 Mist 0 1007 95 4200 3 130 08:38 29.01.2020
8 Mist 0 1007 97 4200 3 150 08:18 29.01.2020
9 Mist 0 1007 97 4300 2 170 07:43 29.01.2020
10 Mist 0 1007 97 4300 2 170 07:23 29.01.2020
11 Snow 0 1007 100 2200 2 160 06:38 29.01.2020
12 Snow 0 1007 100 2200 2 160 06:20 29.01.2020
13 Snow 0 1007 100 2100 3 130 05:54 29.01.2020
14 Snow 0 1007 100 1700 2 140 05:35 29.01.2020
15 Snow 0 1007 100 2100 2 140 04:39 29.01.2020
16 Snow 0 1007 100 2300 2 130 04:18 29.01.2020
17 Snow -1 1008 100 1100 2 110 02:40 29.01.2020
18 Snow -1 1008 100 800 3 100 01:44 29.01.2020
19 Drizzle -1 1008 100 1200 2 140 00:41 29.01.2020
20 Drizzle -1 1008 100 1200 2 140 00:23 29.01.2020
21 Snow -2 1008 100 2500 3 90 23:41 28.01.2020
22 Snow -2 1008 100 2500 3 90 23:21 28.01.2020
23 Snow -2 1008 100 2700 3 90 22:57 28.01.2020
24 Snow -2 1008 100 2700 3 80 22:39 28.01.2020
25 Snow -2 1008 100 2700 3 80 22:20 28.01.2020
26 Snow -2 1009 92 3000 3 90 21:42 28.01.2020
27 Snow -2 1009 92 3000 3 90 21:20 28.01.2020
28 Snow -3 1009 92 2900 4 90 20:57 28.01.2020
29 Snow -3 1009 92 3400 4 80 20:39 28.01.2020
30 Snow -3 1009 92 3400 4 80 20:21 28.01.2020
31 Snow -3 1009 100 7000 2 130 19:39 28.01.2020
32 Snow -3 1009 100 7000 2 130 19:20 28.01.2020
33 Snow -3 1009 86 8000 3 130 18:58 28.01.2020
34 Snow -3 1009 100 10000 2 130 18:39 28.01.2020
35 Snow -3 1009 100 10000 2 130 18:21 28.01.2020
36 Snow -3 1009 100 10000 2 130 17:57 28.01.2020
37 Snow -3 1009 92 4900 3 130 17:37 28.01.2020
38 Snow -3 1009 92 4900 3 130 17:19 28.01.2020
39 Snow -3 1009 92 4900 3 130 17:19 28.01.2020
40 Snow -3 1009 92 4100 4 110 16:46 28.01.2020
41 Snow -3 1009 92 4100 4 110 16:27 28.01.2020
42 Snow -3 1009 92 4100 4 110 16:27 28.01.2020
43 Snow -3 1010 92 4800 4 120 15:59 28.01.2020
44 Snow -4 1010 92 3800 4 120 15:41 28.01.2020
45 Snow -4 1010 92 2600 4 120 15:18 28.01.2020
46 Snow -4 1010 92 2600 4 120 14:45 28.01.2020
47 Snow -4 1010 92 3400 4 120 14:20 28.01.2020
48 Snow -4 1010 85 4200 4 120 13:57 28.01.2020
49 Snow -4 1010 85 4700 4 120 13:38 28.01.2020
50 Snow -4 1010 85 4700 4 120 13:19 28.01.2020
51 Snow -4 1010 92 3800 5 130 12:41 28.01.2020
52 Snow -4 1010 92 3800 5 130 12:22 28.01.2020
53 Snow -4 1011 92 4000 5 120 11:48 28.01.2020
54 Snow -4 1011 92 4800 5 120 11:23 28.01.2020
55 Snow -5 1011 92 10000 6 130 10:58 28.01.2020
56 Snow -5 1011 85 7000 5 120 10:39 28.01.2020
57 Snow -5 1011 85 7000 5 120 10:20 28.01.2020
58 Snow -5 1012 92 3000 4 130 09:43 28.01.2020
59 Snow -5 1012 92 3800 5 120 09:21 28.01.2020
60 Snow -6 1012 92 4400 5 130 08:57 28.01.2020
61 Snow -6 1012 92 3400 6 120 08:39 28.01.2020
62 Snow -6 1012 92 3400 6 120 08:18 28.01.2020
63 Snow -6 1012 85 4000 5 120 07:37 28.01.2020
64 Snow -6 1012 85 4000 5 120 07:37 28.01.2020
65 Snow -6 1012 92 4100 6 120 06:50 28.01.2020
66 Snow -6 1012 92 4100 6 120 06:26 28.01.2020
67 Snow -6 1012 85 5000 5 120 05:54 28.01.2020
68 Snow -6 1012 92 3000 4 130 05:26 28.01.2020
69 Snow -6 1013 92 4300 5 110 04:28 28.01.2020
70 Snow -6 1013 92 2100 6 120 02:58 28.01.2020
71 Snow -6 1013 85 2200 6 120 02:25 28.01.2020
72 Snow -6 1014 92 2000 5 120 01:57 28.01.2020
73 Snow -6 1014 92 2000 5 120 01:57 28.01.2020
74 Snow -6 1014 92 3000 5 120 01:26 28.01.2020
75 Snow -5 1014 85 2200 5 120 00:51 28.01.2020
76 Snow -5 1015 85 2200 5 120 00:29 28.01.2020
77 Snow -5 1015 67 4500 5 130 23:51 27.01.2020
78 Snow -5 1015 67 10000 5 110 23:30 27.01.2020
79 Clouds -5 1015 62 10000 5 100 22:56 27.01.2020
80 Snow -4 1015 68 6000 5 120 22:38 27.01.2020
81 Snow -4 1015 68 6000 5 120 22:18 27.01.2020
82 Snow -4 1015 67 10000 5 110 21:54 27.01.2020
83 Clouds -4 1015 62 10000 6 100 21:36 27.01.2020
84 Clouds -3 1015 62 10000 6 100 21:18 27.01.2020
85 Clouds -3 1015 62 10000 5 100 20:43 27.01.2020
86 Clouds -3 1015 62 10000 5 100 20:22 27.01.2020
87 Clouds -3 1015 62 10000 5 100 19:59 27.01.2020
88 Clouds -3 1015 62 10000 7 90 19:41 27.01.2020
89 Clouds -3 1015 62 10000 7 90 19:22 27.01.2020
90 Clouds -3 1015 62 10000 6 90 18:56 27.01.2020
91 Clouds -3 1015 62 10000 6 80 18:38 27.01.2020
92 Clouds -3 1015 68 10000 5 80 18:19 27.01.2020
93 Clouds -2 1015 63 10000 4 80 17:39 27.01.2020
94 Clouds -2 1015 63 10000 4 80 17:21 27.01.2020
95 Clouds -2 1015 63 10000 4 80 16:59 27.01.2020
96 Clouds -2 1014 63 10000 5 70 16:41 27.01.2020
97 Clouds -2 1014 63 10000 5 70 16:23 27.01.2020
98 Clouds -2 1014 68 10000 3 60 15:55 27.01.2020
99 Clouds -2 1014 68 10000 3 60 15:37 27.01.2020
100 Clouds -2 1014 68 10000 3 50 15:18 27.01.2020
101 Clouds -1 1014 68 10000 4 30 14:42 27.01.2020
102 Clouds -1 1014 74 10000 3 80 14:22 27.01.2020
103 Clouds -1 1014 68 10000 3 40 13:58 27.01.2020
104 Clouds -1 1013 63 10000 3 20 13:39 27.01.2020
105 Clouds -1 1013 63 10000 3 20 13:19 27.01.2020
106 Clouds -1 1013 63 10000 3 10 12:54 27.01.2020
107 Clouds 0 1013 58 10000 3 10 12:36 27.01.2020
108 Clouds 0 1013 58 10000 3 10 12:18 27.01.2020
109 Clouds 0 1013 63 10000 4 10 11:41 27.01.2020
110 Clouds 0 1013 63 10000 4 10 11:20 27.01.2020
111 Clouds 0 1012 68 10000 5 350 10:43 27.01.2020
112 Clouds 0 1012 68 10000 5 350 10:24 27.01.2020
113 Clouds 0 1012 68 10000 4 330 09:56 27.01.2020
114 Clouds 0 1011 80 10000 4 30 09:38 27.01.2020
115 Clouds 0 1012 74 10000 5 330 09:18 27.01.2020
116 Clouds 0 1011 80 10000 5 350 08:42 27.01.2020
117 Clouds 0 1011 80 10000 5 350 08:20 27.01.2020
118 Clouds 0 1011 80 10000 5 10 07:54 27.01.2020
119 Clouds 0 1011 80 10000 5 10 07:54 27.01.2020
120 Clouds 0 1010 86 10000 6 360 07:33 27.01.2020
121 Clouds 0 1009 92 10000 5 360 06:52 27.01.2020
122 Snow 1 1009 89 5000 4 330 06:24 27.01.2020
123 Clouds 2 1008 87 10000 5 340 05:22 27.01.2020
124 Clouds 2 1006 93 10000 5 300 03:47 27.01.2020
125 Rain 3 1005 93 9000 4 300 02:36 27.01.2020
126 Rain 2 1004 93 10000 7 280 01:29 27.01.2020
127 Rain 2 1004 93 10000 8 280 00:44 27.01.2020
128 Clouds 2 1004 93 10000 8 280 00:26 27.01.2020
129 Clouds 2 1004 93 10000 8 280 00:00 27.01.2020
130 Clouds 2 1004 93 10000 8 280 23:59 26.01.2020
131 Clouds 2 1003 93 10000 8 280 23:41 26.01.2020
132 Clouds 2 1003 93 10000 8 280 23:41 26.01.2020
133 Clouds 2 1003 93 10000 8 280 23:41 26.01.2020
134 Clouds 2 1003 93 10000 8 270 23:19 26.01.2020
135 Clouds 2 1003 93 10000 8 270 22:54 26.01.2020
136 Clouds 1 1003 100 9000 8 270 22:36 26.01.2020
137 Clouds 1 1003 100 9000 8 270 22:18 26.01.2020
138 Snow 1 1003 100 7000 8 270 21:55 26.01.2020
139 Snow 1 1003 94 2900 8 260 21:37 26.01.2020
140 Snow 1 1003 94 2900 8 260 21:18 26.01.2020
141 Snow 1 1003 94 6000 9 260 20:55 26.01.2020
142 Snow 1 1003 94 2600 9 260 20:36 26.01.2020
143 Snow 0 1003 92 2200 9 250 20:18 26.01.2020
144 Snow 0 1003 92 2200 9 250 19:56 26.01.2020
145 Snow 0 1004 92 2900 9 240 19:36 26.01.2020
146 Snow 0 1004 92 2900 9 240 19:18 26.01.2020
147 Snow -1 1004 92 7000 9 240 18:41 26.01.2020
148 Snow -1 1004 92 7000 9 240 18:22 26.01.2020
149 Snow -1 1005 92 8000 8 230 17:58 26.01.2020
150 Snow -1 1005 92 3900 7 220 17:39 26.01.2020
151 Snow -1 1005 92 3900 7 220 17:19 26.01.2020
152 Snow -1 1006 92 2100 7 230 16:58 26.01.2020
153 Snow -1 1007 86 4200 7 230 16:39 26.01.2020
154 Snow -1 1007 86 4200 7 230 16:39 26.01.2020
155 Snow 0 1007 86 4200 7 230 16:20 26.01.2020
156 Snow -1 988 72 0 1.79 157 15:57 26.01.2020
157 Snow 0 988 71 0 1.34 157 15:39 26.01.2020
158 Snow 0 987 37 0 6.49 241 15:18 26.01.2020
159 Snow 0 989 72 0 0.45 157 14:40 26.01.2020
160 Clouds 0 988 37 0 5.13 251 14:20 26.01.2020
161 Clouds 0 988 35 0 5.13 251 13:55 26.01.2020
162 Clouds -1 990 70 0 0.89 157 13:37 26.01.2020
163 Clouds 0 990 69 0 5.15 248 13:18 26.01.2020
164 Clouds -1 990 69 0 0.89 157 12:41 26.01.2020
165 Clouds -1 990 69 0 5.15 248 12:23 26.01.2020
166 Clouds -1 991 68 0 2.24 157 11:57 26.01.2020
167 Clouds 0 989 27 0 5.15 248 11:39 26.01.2020
168 Clouds -1 1010 74 10000 6 290 11:19 26.01.2020
169 Clouds -1 1010 74 10000 6 290 10:58 26.01.2020
170 Clouds -1 1010 74 10000 6 290 10:38 26.01.2020
171 Clouds -1 1010 74 10000 6 290 10:20 26.01.2020
172 Clouds -1 1010 74 10000 7 290 09:58 26.01.2020
173 Clouds -1 1009 74 10000 6 290 09:39 26.01.2020
174 Clouds -1 1009 74 10000 6 290 09:39 26.01.2020
175 Clouds -1 1009 74 10000 6 290 09:21 26.01.2020
176 Clouds -1 1009 74 10000 5 290 08:43 26.01.2020
177 Clouds -1 1009 74 10000 5 290 08:23 26.01.2020
178 Clouds -1 1008 74 10000 7 300 07:58 26.01.2020
179 Clouds -1 1008 79 10000 6 300 07:39 26.01.2020
180 Clouds -1 1008 79 10000 6 300 07:21 26.01.2020
181 Clouds -1 1007 79 10000 5 300 06:31 26.01.2020
182 Clouds -1 1006 74 10000 7 310 05:32 26.01.2020
183 Clouds -1 1006 74 10000 6 290 04:45 26.01.2020
184 Clouds -1 1004 86 10000 6 290 02:58 26.01.2020
185 Clouds -1 1003 86 10000 6 300 01:57 26.01.2020
186 Clouds -1 1003 86 10000 6 300 01:37 26.01.2020
187 Snow -1 1003 86 10000 6 300 01:18 26.01.2020
188 Clouds -1 1002 80 10000 6 310 00:38 26.01.2020
189 Clouds -1 1002 80 10000 6 310 00:20 26.01.2020
190 Snow 0 987 62 0 0.89 180 23:37 25.01.2020
191 Snow 0 987 63 0 1.79 308 23:18 25.01.2020
192 Snow 0 986 63 0 3.13 182 23:18 25.01.2020
193 Snow 0 986 64 0 1.79 237 22:41 25.01.2020
194 Snow 0 980 36 0 7.23 307 22:20 25.01.2020
195 Snow 0 985 58 0 1.79 194 21:57 25.01.2020
196 Snow 0 985 58 0 2.24 183 21:39 25.01.2020
197 Snow 0 984 58 0 2.68 187 21:21 25.01.2020
198 Snow 0 984 59 0 3.13 188 20:45 25.01.2020
199 Snow -2 1001 87 0 7.41 308 20:26 25.01.2020
200 Clouds -2 998 79 0 6.8 301 19:57 25.01.2020
201 Clouds 0 983 57 0 3.58 164 19:38 25.01.2020
202 Clouds 0 983 57 0 2.68 195 19:19 25.01.2020
203 Clouds 0 983 57 0 3.58 164 18:56 25.01.2020
204 Clouds 0 983 57 0 2.68 171 18:37 25.01.2020
205 Clouds 0 983 57 0 3.58 164 18:19 25.01.2020
206 Clouds 0 982 58 0 4.02 177 17:39 25.01.2020
207 Snow 1 982 58 0 3.58 180 17:19 25.01.2020
208 Snow 0 981 59 0 1.79 181 16:56 25.01.2020
209 Snow 0 981 61 0 2.68 211 16:38 25.01.2020
210 Snow 0 981 62 0 2.68 180 16:19 25.01.2020
211 Snow 1 980 63 0 2.24 179 15:46 25.01.2020
212 Snow 1 980 63 0 3.58 180 15:25 25.01.2020
213 Snow 1 980 64 0 1.79 180 14:57 25.01.2020
214 Rain 1 980 66 0 1.79 349 14:39 25.01.2020
215 Rain 3 979 73 0 6.26 180 14:18 25.01.2020
216 Snow 3 979 72 0 4.02 180 13:41 25.01.2020
217 Snow 3 979 72 0 4.92 183 13:22 25.01.2020
218 Clouds 2 994 100 9000 7 250 12:43 25.01.2020
219 Clouds 2 994 100 9000 7 250 12:23 25.01.2020
220 Clouds 2 994 85 10000 6 250 11:45 25.01.2020
221 Clouds 2 994 86 10000 6 250 11:22 25.01.2020
222 Snow 2 995 86 10000 6 250 10:58 25.01.2020
223 Snow 2 995 86 9000 6 250 10:40 25.01.2020
224 Snow 2 995 86 9000 6 250 10:20 25.01.2020
225 Clouds 2 996 86 10000 6 250 09:41 25.01.2020
226 Clouds 2 996 86 10000 6 250 09:22 25.01.2020
227 Clouds 2 996 86 10000 7 260 08:44 25.01.2020
228 Clouds 2 996 86 10000 7 260 08:22 25.01.2020
229 Clouds 2 996 85 10000 6 270 07:49 25.01.2020
230 Clouds 1 996 85 9000 5 270 06:51 25.01.2020
231 Snow 1 996 85 6000 5 290 06:28 25.01.2020
232 Snow 2 996 85 9000 6 290 05:47 25.01.2020
233 Rain 2 996 93 8000 7 280 04:50 25.01.2020
234 Rain 3 995 93 10000 6 290 03:51 25.01.2020
235 Rain 3 996 93 9000 6 290 03:19 25.01.2020
236 Rain 3 995 100 10000 6 280 02:20 25.01.2020
237 Rain 3 995 93 10000 6 250 01:48 25.01.2020
238 Snow 2 996 97 5000 4 250 00:44 25.01.2020
239 Snow 2 996 97 5000 4 250 00:26 25.01.2020
240 Rain 2 996 100 10000 4 250 23:58 24.01.2020
241 Rain 2 996 100 8000 5 260 23:40 24.01.2020
242 Rain 2 996 100 8000 5 260 23:22 24.01.2020
243 Rain 2 997 100 9000 5 250 22:44 24.01.2020
244 Rain 2 997 100 9000 5 250 22:25 24.01.2020
245 Rain 2 997 100 9000 4 250 21:56 24.01.2020
246 Rain 2 997 100 4900 5 260 21:37 24.01.2020
247 Rain 2 997 96 6000 4 260 21:18 24.01.2020
248 Rain 1 997 97 3900 5 250 20:42 24.01.2020
249 Rain 1 997 97 3900 5 250 20:21 24.01.2020
250 Snow 1 997 97 5000 5 260 19:57 24.01.2020
251 Clouds 1 997 100 4000 5 260 19:39 24.01.2020
252 Clouds 1 997 100 4000 5 260 19:21 24.01.2020
253 Snow 1 998 97 3900 7 250 18:43 24.01.2020
254 Snow 1 998 97 3900 7 250 18:43 24.01.2020
255 Snow 1 998 97 3900 7 250 18:24 24.01.2020
256 Snow 1 998 97 5000 5 250 17:56 24.01.2020
257 Clouds 1 998 97 4900 6 260 17:38 24.01.2020
258 Clouds 1 998 97 3600 6 250 17:18 24.01.2020
259 Snow 1 998 97 7000 6 250 16:39 24.01.2020
260 Snow 1 998 97 7000 6 250 16:39 24.01.2020
261 Snow 1 998 97 7000 6 250 16:21 24.01.2020
262 Snow 1 998 97 7000 6 250 16:21 24.01.2020
263 Snow 1 998 97 3300 6 250 15:55 24.01.2020
264 Snow 1 999 97 5000 7 250 15:37 24.01.2020
265 Snow 0 999 97 3700 7 250 15:18 24.01.2020
266 Clouds 0 999 97 9000 7 250 14:41 24.01.2020
267 Clouds 0 999 96 9000 7 250 14:22 24.01.2020
268 Clouds 0 999 96 10000 8 250 13:44 24.01.2020
269 Clouds 0 999 96 10000 8 250 13:24 24.01.2020
270 Clouds 0 1000 96 10000 9 250 12:45 24.01.2020
271 Clouds -1 1000 96 10000 8 240 12:23 24.01.2020
272 Snow -1 1000 92 9000 7 240 11:59 24.01.2020
273 Snow -1 1001 92 10000 7 250 11:40 24.01.2020
274 Snow -1 1001 92 10000 7 250 11:18 24.01.2020
275 Snow -3 1001 100 4600 6 220 10:43 24.01.2020
276 Snow -3 1001 100 4600 6 220 10:21 24.01.2020
277 Snow -3 1002 100 1600 6 220 09:56 24.01.2020
278 Snow -3 1003 92 2300 6 220 09:37 24.01.2020
279 Snow -3 1003 92 2300 6 220 09:18 24.01.2020
280 Snow -3 1004 86 7000 7 230 08:40 24.01.2020
281 Snow -3 1004 86 7000 7 230 08:19 24.01.2020
282 Clouds -4 1004 85 10000 6 230 07:49 24.01.2020
283 Snow -4 1004 85 9000 6 230 07:28 24.01.2020
284 Snow -5 1005 85 3700 5 220 06:46 24.01.2020
285 Snow -5 1005 85 3700 5 220 06:28 24.01.2020
286 Snow -5 1006 85 10000 4 220 05:57 24.01.2020
287 Clouds -5 1007 85 10000 4 220 04:52 24.01.2020
288 Clouds -5 1009 85 10000 4 240 02:53 24.01.2020
289 Clouds -5 1009 85 10000 5 240 02:23 24.01.2020
290 Clouds -5 1009 85 10000 3 220 01:42 24.01.2020
291 Clouds -5 1010 85 10000 4 240 01:24 24.01.2020
292 Clouds -5 1010 79 10000 3 270 00:20 24.01.2020
293 Clouds -5 1010 79 10000 5 270 23:48 23.01.2020
294 Clouds -5 1010 73 10000 5 280 23:30 23.01.2020
295 Clouds -6 1010 73 10000 3 270 22:59 23.01.2020
296 Clouds -5 1010 73 10000 4 280 22:37 23.01.2020
297 Clouds -5 1010 73 10000 4 280 22:19 23.01.2020
298 Clouds -6 1010 73 10000 4 270 21:57 23.01.2020
299 Clouds -6 1010 73 10000 3 280 21:38 23.01.2020
300 Clouds -6 1010 73 10000 3 280 21:20 23.01.2020
301 Clouds -6 1010 73 10000 4 280 20:58 23.01.2020
302 Clouds -6 1010 79 10000 5 280 20:38 23.01.2020
303 Clouds -6 1010 79 10000 5 280 20:19 23.01.2020
304 Clouds -6 1010 73 10000 4 280 19:54 23.01.2020
305 Clouds -6 1010 73 10000 4 290 19:36 23.01.2020
306 Clouds -6 1010 73 10000 5 300 19:18 23.01.2020
307 Clouds -6 1010 67 10000 5 300 18:42 23.01.2020
308 Clouds -6 1010 67 10000 5 300 18:20 23.01.2020
309 Clouds -6 1010 62 10000 6 300 17:58 23.01.2020
310 Clouds -6 1009 57 10000 7 310 17:40 23.01.2020
311 Clouds -6 1009 57 10000 7 310 17:20 23.01.2020
312 Clouds -5 1009 62 10000 6 310 16:56 23.01.2020
313 Clouds -5 1009 62 10000 6 310 16:36 23.01.2020
314 Clouds -5 1009 62 10000 6 310 16:18 23.01.2020
315 Clouds -5 1008 62 10000 7 310 15:54 23.01.2020
316 Snow -5 1008 67 10000 6 310 15:36 23.01.2020
317 Snow -5 1008 67 10000 6 310 15:18 23.01.2020
318 Clouds -5 1007 67 10000 6 310 15:18 23.01.2020
319 Clouds -5 1007 67 10000 6 310 14:54 23.01.2020
320 Snow -5 1007 62 10000 7 320 14:36 23.01.2020
321 Snow -4 1007 57 10000 7 320 14:18 23.01.2020
322 Snow -4 1006 53 10000 7 320 13:39 23.01.2020
323 Snow -4 1006 53 10000 7 320 13:20 23.01.2020
324 Clouds -4 1006 57 10000 6 310 12:47 23.01.2020
325 Snow -4 1006 53 10000 7 340 12:25 23.01.2020
326 Clouds -4 1005 53 10000 6 310 11:59 23.01.2020
327 Clouds -4 1005 62 10000 6 310 11:39 23.01.2020
328 Snow -4 1005 73 9000 8 310 11:19 23.01.2020
329 Snow -4 1005 73 9000 8 310 10:45 23.01.2020
330 Snow -4 1005 73 10000 8 300 10:23 23.01.2020
331 Snow -4 1005 73 8000 4 300 09:59 23.01.2020
332 Snow -4 1005 73 10000 6 340 09:38 23.01.2020
333 Snow -4 1005 73 10000 6 340 09:20 23.01.2020
334 Snow -4 1004 67 10000 6 320 08:42 23.01.2020
335 Snow -4 1004 62 10000 6 320 08:24 23.01.2020
336 Snow -4 1004 62 10000 6 320 08:24 23.01.2020
337 Snow -4 1003 62 10000 6 320 07:48 23.01.2020
338 Snow -4 1003 62 10000 6 320 07:27 23.01.2020
339 Snow -4 1002 79 8000 6 330 06:54 23.01.2020
340 Snow -4 1002 79 7000 8 320 06:23 23.01.2020
341 Snow -3 1001 79 10000 6 320 05:58 23.01.2020
342 Snow -3 1001 79 10000 6 320 05:58 23.01.2020
343 Snow -3 1000 92 10000 7 320 04:24 23.01.2020
344 Snow -2 998 100 1600 5 320 02:35 23.01.2020
345 Snow -2 998 100 8000 4 300 01:44 23.01.2020
346 Clouds -2 998 79 10000 5 300 00:28 23.01.2020
347 Clouds -1 997 86 10000 5 300 23:54 22.01.2020
348 Clouds -1 997 86 10000 5 300 23:36 22.01.2020
349 Clouds -1 997 86 10000 5 300 23:18 22.01.2020
350 Snow -1 997 86 10000 6 300 22:41 22.01.2020
351 Snow -1 997 86 10000 6 300 22:23 22.01.2020
352 Snow -1 997 74 10000 8 310 21:42 22.01.2020
353 Clouds -1 996 86 10000 6 300 21:22 22.01.2020
354 Clouds -1 996 80 10000 6 300 20:59 22.01.2020
355 Clouds -1 996 86 10000 6 300 20:41 22.01.2020
356 Clouds -1 996 86 10000 6 300 20:23 22.01.2020
357 Snow -1 996 92 10000 5 310 19:57 22.01.2020
358 Clouds -1 995 92 10000 5 310 19:39 22.01.2020
359 Clouds -1 995 92 10000 6 310 19:19 22.01.2020
360 Clouds -1 995 92 10000 6 310 18:57 22.01.2020
361 Snow -1 995 100 10000 6 320 18:38 22.01.2020
362 Snow -1 995 100 10000 6 320 18:20 22.01.2020
363 Snow 0 994 86 10000 6 320 17:55 22.01.2020
364 Snow 0 994 86 10000 6 320 17:55 22.01.2020
365 Clouds 0 994 86 10000 6 310 17:37 22.01.2020
366 Clouds 0 994 86 10000 6 310 17:19 22.01.2020
367 Snow -1 993 100 5000 5 290 16:43 22.01.2020
368 Snow 0 993 100 5000 5 290 16:23 22.01.2020
369 Clouds 0 993 82 10000 4 280 15:59 22.01.2020
370 Clouds 1 993 82 10000 5 290 15:41 22.01.2020
371 Clouds 1 993 82 10000 5 290 15:22 22.01.2020
372 Clouds 1 993 82 10000 5 280 14:58 22.01.2020
373 Clouds 1 993 82 10000 5 290 14:37 22.01.2020
374 Snow 1 994 86 10000 5 280 14:19 22.01.2020
375 Snow 1 993 79 5000 6 280 13:55 22.01.2020
376 Snow 1 993 79 7000 6 280 13:36 22.01.2020
377 Snow 1 993 81 9000 6 280 13:18 22.01.2020
378 Snow 1 993 81 9000 6 280 12:56 22.01.2020
379 Snow 1 994 81 9000 7 270 12:37 22.01.2020
380 Snow 1 994 81 9000 7 270 12:18 22.01.2020
381 Snow 1 994 81 9000 5 260 11:56 22.01.2020
382 Snow 1 994 81 2700 6 270 11:37 22.01.2020
383 Snow 1 994 80 10000 7 270 11:18 22.01.2020
384 Clouds 1 995 80 10000 8 260 10:44 22.01.2020
385 Clouds 1 995 80 10000 8 260 10:21 22.01.2020
386 Clouds 1 995 74 10000 7 270 09:45 22.01.2020
387 Clouds 1 995 74 10000 8 270 09:26 22.01.2020
388 Clouds 1 995 79 10000 8 260 08:59 22.01.2020
389 Clouds 1 996 79 10000 7 260 08:40 22.01.2020
390 Clouds 0 996 79 10000 7 270 08:21 22.01.2020
391 Clouds 1 996 79 10000 7 270 07:58 22.01.2020
392 Clouds 1 996 79 10000 6 270 07:40 22.01.2020
393 Clouds 0 996 79 10000 6 270 07:21 22.01.2020
394 Clouds 1 997 74 10000 7 280 06:31 22.01.2020
395 Clouds 1 998 74 10000 5 270 05:42 22.01.2020
396 Clouds 1 998 78 10000 6 270 04:24 22.01.2020
397 Clouds 1 999 80 10000 6 270 03:26 22.01.2020
398 Clouds 1 999 74 10000 7 290 02:38 22.01.2020
399 Clouds 2 999 80 10000 8 300 00:46 22.01.2020
400 Clouds 2 1000 80 10000 7 290 00:27 22.01.2020
401 Clouds 3 1000 80 10000 7 300 23:55 21.01.2020
402 Clouds 3 999 80 10000 7 290 23:36 21.01.2020
403 Clouds 3 999 80 10000 7 290 23:18 21.01.2020
404 Clouds 3 999 80 10000 7 290 23:18 21.01.2020
405 Clouds 3 999 86 10000 9 290 23:18 21.01.2020
406 Clouds 3 999 86 10000 6 290 22:40 21.01.2020
407 Clouds 3 999 86 10000 6 290 22:20 21.01.2020
408 Clouds 4 999 93 10000 6 290 21:57 21.01.2020
409 Rain 4 999 86 10000 8 290 21:38 21.01.2020
410 Rain 4 999 86 10000 8 290 21:20 21.01.2020
411 Rain 4 998 93 10000 8 290 20:56 21.01.2020
412 Rain 4 998 93 9000 8 290 20:37 21.01.2020
413 Rain 4 998 93 9000 8 290 20:19 21.01.2020
414 Rain 4 998 93 10000 8 280 19:57 21.01.2020
415 Rain 3 998 93 10000 8 280 19:38 21.01.2020
416 Rain 3 999 100 10000 7 280 19:20 21.01.2020
417 Rain 3 998 100 10000 6 270 18:55 21.01.2020
418 Rain 3 999 100 10000 8 270 18:37 21.01.2020
419 Rain 3 999 100 10000 7 270 18:18 21.01.2020
420 Rain 3 999 100 10000 7 270 17:45 21.01.2020
421 Rain 3 999 100 10000 7 270 17:20 21.01.2020
422 Rain 3 1000 100 8000 8 260 16:59 21.01.2020
423 Drizzle 3 1000 100 8000 7 260 16:37 21.01.2020
424 Drizzle 3 1000 100 8000 7 260 16:19 21.01.2020
425 Drizzle 3 1001 100 4500 7 260 15:56 21.01.2020
426 Drizzle 3 1001 100 4500 8 260 15:36 21.01.2020
427 Drizzle 3 1001 100 4500 8 260 15:18 21.01.2020
428 Drizzle 3 1002 100 4300 8 260 14:38 21.01.2020
429 Drizzle 3 1002 100 9000 8 260 14:20 21.01.2020
430 Clouds 3 1003 100 10000 8 260 13:40 21.01.2020
431 Clouds 3 1004 100 9000 8 260 13:19 21.01.2020
432 Clouds 3 1004 100 9000 8 260 12:56 21.01.2020
433 Clouds 3 1004 93 10000 8 270 12:37 21.01.2020
434 Clouds 3 1005 93 10000 7 270 12:19 21.01.2020
435 Clouds 3 1005 93 10000 7 260 11:40 21.01.2020
436 Clouds 3 1005 93 10000 7 260 11:21 21.01.2020
437 Clouds 3 1005 93 10000 8 260 10:59 21.01.2020
438 Clouds 2 1005 100 10000 9 260 10:40 21.01.2020
439 Clouds 2 1005 100 10000 9 260 10:21 21.01.2020
440 Drizzle 2 1006 93 10000 9 260 09:42 21.01.2020
441 Drizzle 2 1006 93 10000 9 260 09:23 21.01.2020
442 Drizzle 2 1007 93 10000 9 260 08:55 21.01.2020
443 Snow 1 1007 100 10000 9 260 08:36 21.01.2020
444 Snow 1 1007 100 10000 9 260 08:18 21.01.2020
445 Snow 1 1008 100 10000 9 250 07:41 21.01.2020
446 Snow 1 1008 100 10000 9 250 07:22 21.01.2020
447 Snow 1 1008 97 5000 9 250 06:49 21.01.2020
448 Snow 1 1009 97 4700 8 250 06:30 21.01.2020
449 Snow 1 1009 100 5000 8 240 05:44 21.01.2020
450 Snow 1 1012 94 9000 8 250 04:41 21.01.2020
451 Clouds 1 1014 86 10000 8 250 02:58 21.01.2020
452 Snow 1 1016 86 10000 7 260 02:19 21.01.2020
453 Snow 1 1016 86 10000 7 260 01:28 21.01.2020
454 Snow 1 1017 86 10000 7 260 00:40 21.01.2020
455 Clouds 1 1018 86 10000 8 270 23:59 20.01.2020
456 Clouds 1 1018 86 10000 7 270 23:41 20.01.2020
457 Clouds 2 1018 80 10000 7 270 23:19 20.01.2020
458 Clouds 2 1018 80 10000 7 270 22:58 20.01.2020
459 Clouds 2 1019 82 10000 6 270 22:38 20.01.2020
460 Clouds 2 1019 82 10000 7 260 22:20 20.01.2020
461 Clouds 2 1019 82 10000 7 260 22:20 20.01.2020
462 Clouds 2 1019 82 10000 7 260 21:58 20.01.2020
463 Clouds 2 1019 82 10000 7 270 21:37 20.01.2020
464 Snow 2 1019 93 10000 7 270 21:19 20.01.2020
465 Snow 2 1019 93 10000 7 270 20:57 20.01.2020
466 Snow 2 1020 93 10000 7 260 20:38 20.01.2020
467 Snow 2 1020 93 10000 7 260 20:19 20.01.2020
468 Snow 2 1020 90 10000 7 260 19:56 20.01.2020
469 Snow 2 1020 90 10000 7 260 19:56 20.01.2020
470 Clouds 2 1020 93 10000 6 270 19:38 20.01.2020
471 Clouds 2 1020 93 10000 6 270 19:18 20.01.2020
472 Snow 2 1021 93 10000 6 270 18:45 20.01.2020
473 Snow 2 1021 93 10000 6 270 18:23 20.01.2020
474 Snow 2 1022 93 10000 6 270 17:59 20.01.2020
475 Snow 2 1022 93 10000 6 270 17:36 20.01.2020
476 Snow 2 1022 93 10000 6 270 17:18 20.01.2020
477 Rain 2 1022 93 10000 5 270 16:44 20.01.2020
478 Clouds 2 1022 93 10000 5 270 16:25 20.01.2020
479 Clouds 2 1022 93 10000 5 270 15:58 20.01.2020
480 Clouds 2 1022 93 10000 5 270 15:40 20.01.2020
481 Clouds 2 1022 93 10000 5 270 15:21 20.01.2020
482 Clouds 2 1023 93 10000 7 270 14:55 20.01.2020
483 Clouds 2 1023 93 10000 6 270 14:36 20.01.2020
484 Clouds 2 1023 96 10000 6 270 14:18 20.01.2020
485 Clouds 2 1023 93 10000 6 270 13:41 20.01.2020
486 Clouds 2 1023 93 10000 6 270 13:23 20.01.2020
487 Clouds 2 1023 86 10000 6 270 12:56 20.01.2020
488 Clouds 3 1023 86 10000 7 270 12:38 20.01.2020
489 Clouds 3 1023 86 10000 6 270 12:19 20.01.2020
490 Clouds 3 1023 86 10000 6 270 11:43 20.01.2020
491 Clouds 3 1023 86 10000 6 270 11:43 20.01.2020
492 Clouds 3 1023 86 10000 6 270 11:24 20.01.2020
493 Clouds 3 1024 86 10000 6 270 10:57 20.01.2020
494 Clouds 2 1024 93 10000 5 270 10:39 20.01.2020
495 Clouds 2 1024 93 10000 5 270 10:19 20.01.2020
496 Clouds 2 1024 93 10000 5 270 09:41 20.01.2020
497 Clouds 2 1024 93 10000 5 270 09:22 20.01.2020
498 Clouds 2 1024 93 10000 6 270 08:51 20.01.2020
499 Snow 2 1024 100 10000 6 270 08:31 20.01.2020
500 Clouds 2 1024 100 10000 6 260 07:55 20.01.2020
501 Snow 2 1024 92 10000 6 260 07:31 20.01.2020
502 Snow 1 1024 92 10000 6 260 06:59 20.01.2020
503 Snow 1 1024 92 10000 6 260 06:35 20.01.2020
504 Snow 1 1024 92 10000 6 260 05:56 20.01.2020
505 Snow 1 1024 92 10000 6 260 05:37 20.01.2020
506 Snow 1 1024 86 10000 6 260 05:18 20.01.2020
507 Snow 1 1025 86 9000 6 260 03:46 20.01.2020
508 Snow 1 1025 91 7000 6 260 01:58 20.01.2020
509 Snow 1 1025 86 10000 6 260 01:38 20.01.2020
510 Clouds 1 1025 86 10000 6 250 00:46 20.01.2020
511 Clouds 1 1025 86 10000 6 250 00:27 20.01.2020
512 Clouds 1 1025 86 10000 6 250 23:55 19.01.2020
513 Clouds 1 1025 86 10000 6 250 23:36 19.01.2020
514 Clouds 1 1025 86 10000 6 250 23:18 19.01.2020
515 Clouds 1 1025 86 10000 6 250 22:54 19.01.2020
516 Clouds 1 1025 86 10000 6 250 22:36 19.01.2020
517 Clouds 1 1025 86 10000 7 250 22:18 19.01.2020
518 Clouds 1 1025 86 10000 7 250 21:55 19.01.2020
519 Clouds 1 1025 86 10000 7 250 21:55 19.01.2020
520 Clouds 1 1025 86 10000 6 250 21:36 19.01.2020
521 Clouds 1 1025 86 10000 6 250 21:36 19.01.2020
522 Clouds 0 1026 86 10000 5 260 21:18 19.01.2020
523 Clouds 0 1026 86 10000 5 260 20:55 19.01.2020
524 Clouds 0 1026 86 10000 6 270 20:37 19.01.2020
525 Clouds 0 1026 86 10000 5 260 20:18 19.01.2020
526 Clouds 0 1026 86 10000 5 260 19:54 19.01.2020
527 Snow 0 1026 89 10000 4 250 19:36 19.01.2020
528 Snow 0 1026 89 10000 5 260 19:18 19.01.2020
529 -273 0 0 0 0 0 18:55 19.01.2020
530 Snow 0 1026 89 10000 6 250 18:36 19.01.2020
531 Snow 0 1026 89 10000 6 250 18:18 19.01.2020
532 Clouds 0 1026 89 10000 6 240 17:57 19.01.2020
533 Clouds 0 1026 89 10000 5 230 17:38 19.01.2020
534 Clouds 0 1026 92 10000 5 230 17:19 19.01.2020
535 Clouds 0 1026 92 10000 5 240 16:57 19.01.2020
536 Clouds 0 1026 92 10000 5 240 16:37 19.01.2020
537 Clouds -1 1026 92 10000 5 240 16:19 19.01.2020
538 Snow 0 1026 92 10000 6 240 15:55 19.01.2020
539 Snow 0 1026 92 10000 4 230 15:36 19.01.2020
540 Snow 0 1026 92 10000 4 230 15:18 19.01.2020
541 Clouds 0 1025 92 10000 5 240 14:41 19.01.2020
542 Clouds 0 1025 92 10000 5 240 14:41 19.01.2020
543 Clouds 0 1025 88 10000 5 240 14:21 19.01.2020
544 Clouds 0 1025 88 10000 6 240 13:59 19.01.2020
545 Clouds 0 1025 88 10000 5 240 13:40 19.01.2020
546 Clouds 0 1025 89 10000 5 240 13:22 19.01.2020
547 Clouds 0 1025 89 10000 5 240 12:59 19.01.2020
548 Clouds 0 1025 89 10000 5 230 12:41 19.01.2020
549 Clouds 0 1025 89 10000 5 230 12:23 19.01.2020
550 Clouds 0 1025 89 10000 6 250 11:57 19.01.2020
551 Clouds 0 1025 89 10000 7 250 11:39 19.01.2020
552 Clouds 0 1025 89 10000 7 250 11:18 19.01.2020
553 Clouds 0 1025 89 10000 7 250 10:54 19.01.2020
554 Clouds 0 1025 89 10000 7 260 10:36 19.01.2020
555 Clouds 0 1025 89 10000 7 260 10:18 19.01.2020
556 Clouds 0 1025 89 10000 5 250 09:41 19.01.2020
557 Clouds -1 1025 89 10000 5 250 09:23 19.01.2020
558 Clouds 0 1024 89 10000 6 250 08:57 19.01.2020
559 Clouds -1 1024 89 10000 5 250 08:38 19.01.2020
560 Clouds -1 1024 92 10000 5 250 08:20 19.01.2020
561 Clouds -1 1024 92 10000 5 250 07:40 19.01.2020
562 Clouds -1 1024 92 10000 5 250 07:21 19.01.2020
563 Clouds -1 1023 100 10000 6 250 06:44 19.01.2020
564 Clouds -1 1023 92 10000 5 250 04:41 19.01.2020
565 Clouds -1 1022 92 10000 6 250 02:37 19.01.2020
566 Clouds -1 1022 92 10000 5 250 02:19 19.01.2020
567 Clouds -2 1022 92 10000 5 250 01:24 19.01.2020
568 Clouds -2 1022 92 10000 5 250 01:24 19.01.2020
569 Clouds -2 1022 92 10000 6 270 00:45 19.01.2020
570 Clouds -2 1021 92 10000 7 260 00:27 19.01.2020
571 Clouds -2 1021 92 10000 7 260 23:55 18.01.2020
572 Clouds -2 1021 92 10000 6 240 23:37 18.01.2020
573 Clouds -2 1021 92 10000 6 240 23:18 18.01.2020
574 Clouds -3 1021 92 10000 6 240 22:55 18.01.2020
575 Clouds -3 1021 92 10000 6 240 22:36 18.01.2020
576 Clouds -2 1021 92 10000 5 230 22:18 18.01.2020
577 Clouds -2 1021 92 10000 5 230 21:56 18.01.2020
578 Clouds -2 1021 92 10000 5 230 21:36 18.01.2020
579 Clouds -2 1021 92 10000 5 230 21:18 18.01.2020
580 Clouds -2 1021 92 10000 4 220 20:42 18.01.2020
581 Clouds -2 1021 92 10000 4 220 20:20 18.01.2020
582 Clouds -2 1021 92 10000 5 230 19:55 18.01.2020
583 Clouds -2 1021 92 10000 5 210 19:36 18.01.2020
584 Clouds -2 1021 92 10000 5 210 19:36 18.01.2020
585 Clouds -2 1021 92 10000 5 210 19:18 18.01.2020
586 Clouds -1 1022 92 10000 4 210 18:41 18.01.2020
587 Clouds -1 1022 92 10000 4 210 18:21 18.01.2020
588 Clouds -1 1022 100 10000 5 210 17:41 18.01.2020
589 Clouds -1 1022 92 10000 4 220 17:21 18.01.2020
590 Clouds -1 1022 100 10000 5 210 17:21 18.01.2020
591 Clouds -1 1022 92 10000 4 220 16:59 18.01.2020
592 Clouds 0 1023 94 10000 4 230 16:41 18.01.2020
593 Clouds 0 1023 94 10000 4 230 16:22 18.01.2020
594 Clouds 0 1023 94 10000 4 220 15:58 18.01.2020
595 Clouds 0 1023 86 10000 4 220 15:40 18.01.2020
596 Clouds 0 1023 86 10000 4 220 15:22 18.01.2020
597 Clouds 1 1023 86 10000 4 230 14:44 18.01.2020
598 Clouds 1 1024 86 10000 3 220 14:24 18.01.2020
599 Clouds 2 1024 80 10000 4 230 13:59 18.01.2020
600 Clouds 2 1024 80 10000 4 220 13:41 18.01.2020
601 Clouds 2 1024 80 10000 4 220 13:21 18.01.2020
602 Clouds 2 1024 89 10000 5 230 12:55 18.01.2020
603 Clouds 2 1024 89 10000 5 230 12:55 18.01.2020
604 Clouds 2 1024 89 10000 4 230 12:37 18.01.2020
605 Clouds 2 1024 89 10000 4 230 12:19 18.01.2020
606 Clouds 2 1024 80 10000 5 240 11:44 18.01.2020
607 Clouds 2 1024 80 10000 5 240 11:21 18.01.2020
608 Clouds 2 1024 86 10000 4 230 10:56 18.01.2020
609 Clouds 1 1025 86 10000 5 240 10:38 18.01.2020
610 Clouds 1 1025 86 10000 6 240 10:18 18.01.2020
611 Clouds 1 1025 86 10000 6 240 09:42 18.01.2020
612 Clouds 1 1025 86 10000 6 240 09:20 18.01.2020
613 Clouds 1 1025 86 10000 7 240 08:55 18.01.2020
614 Clouds 1 1025 89 10000 5 230 08:36 18.01.2020
615 Clouds 1 1025 91 10000 5 230 08:18 18.01.2020
616 Clouds 1 1025 91 10000 6 250 07:40 18.01.2020
617 Clouds 1 1025 91 10000 6 250 07:21 18.01.2020
618 Clouds 1 1025 91 10000 6 250 06:45 18.01.2020
619 Clouds 1 1025 91 10000 6 260 05:55 18.01.2020
620 Clouds 2 1025 95 10000 6 240 04:29 18.01.2020
621 Clouds 2 1024 95 10000 4 250 02:50 18.01.2020
622 Clouds 2 1025 94 10000 5 250 01:51 18.01.2020
623 Clouds 2 1025 94 10000 4 240 01:20 18.01.2020
624 Clouds 2 1025 94 10000 5 250 00:36 18.01.2020
625 Clouds 2 1025 94 10000 5 250 00:18 18.01.2020
626 Clouds 2 1025 93 10000 5 250 23:40 17.01.2020
627 Clouds 2 1025 93 10000 5 250 23:19 17.01.2020
628 Clouds 3 1025 93 10000 4 250 22:44 17.01.2020
629 Clouds 2 1025 93 10000 4 250 22:21 17.01.2020
630 Clouds 2 1025 93 10000 5 260 21:58 17.01.2020
631 Clouds 2 1025 93 10000 5 260 21:40 17.01.2020
632 Clouds 2 1025 93 10000 5 260 21:22 17.01.2020
633 Clouds 2 1025 93 10000 5 260 20:57 17.01.2020
634 Clouds 2 1025 93 10000 5 260 20:37 17.01.2020
635 Clouds 2 1025 93 10000 5 260 20:19 17.01.2020
636 Clouds 2 1025 93 10000 5 260 19:55 17.01.2020
637 Clouds 2 1025 93 10000 6 260 19:37 17.01.2020
638 Clouds 3 1025 93 10000 6 260 19:18 17.01.2020
639 Clouds 3 1025 93 10000 5 260 18:45 17.01.2020
640 Clouds 3 1025 93 10000 5 260 18:27 17.01.2020
641 Clouds 3 1025 93 10000 6 260 17:56 17.01.2020
642 Clouds 3 1025 93 10000 6 250 17:38 17.01.2020
643 Clouds 3 1025 93 10000 5 250 17:20 17.01.2020
644 Clouds 3 1025 93 10000 6 250 16:43 17.01.2020
645 Clouds 3 1025 93 10000 6 250 16:20 17.01.2020
646 Clouds 3 1024 93 10000 5 250 15:49 17.01.2020
647 Clouds 3 1024 93 10000 5 250 15:28 17.01.2020
648 Clouds 4 1024 86 10000 5 250 14:59 17.01.2020
649 Clouds 4 1024 86 10000 5 260 14:40 17.01.2020
650 Clouds 4 1024 86 10000 5 260 14:22 17.01.2020
651 Clouds 4 1024 86 10000 4 270 13:42 17.01.2020
652 Clouds 4 1024 86 10000 4 270 13:22 17.01.2020
653 Rain 4 1024 93 10000 5 260 12:46 17.01.2020
654 Rain 4 1024 93 10000 5 260 12:23 17.01.2020
655 Clouds 4 1024 86 10000 5 260 11:41 17.01.2020
656 Clouds 4 1024 86 10000 5 260 11:20 17.01.2020
657 Clouds 4 1023 93 10000 5 270 10:56 17.01.2020
658 Clouds 4 1023 93 10000 5 270 10:38 17.01.2020
659 Clouds 4 1023 93 10000 5 270 10:20 17.01.2020
660 Clouds 3 1023 93 10000 4 260 09:44 17.01.2020
661 Clouds 3 1023 93 10000 4 260 09:21 17.01.2020
662 Clouds 3 1023 93 10000 4 260 08:58 17.01.2020
663 Clouds 3 1023 93 10000 4 260 08:40 17.01.2020
664 Clouds 3 1023 93 10000 5 260 08:21 17.01.2020
665 Clouds 3 1023 93 10000 5 260 07:48 17.01.2020
666 Clouds 3 1022 93 10000 5 270 07:29 17.01.2020
667 Clouds 3 1022 93 10000 5 270 06:56 17.01.2020
668 Clouds 3 1022 93 10000 5 260 06:36 17.01.2020
669 Clouds 3 1000 35 0 4.34 283 05:19 17.01.2020
670 Clouds 3 999 35 0 4.34 283 03:38 17.01.2020
671 Clouds 3 999 36 0 4.34 283 02:42 17.01.2020
672 Clouds 3 999 36 0 4.04 275 01:45 17.01.2020
673 Clouds 3 1000 84 0 3.74 271 01:27 17.01.2020
674 Clouds 2 1019 93 10000 6 250 00:43 17.01.2020
675 Clouds 2 1019 93 10000 6 250 00:20 17.01.2020
676 Clouds 3 1019 93 10000 6 250 23:42 16.01.2020
677 Clouds 2 1019 93 10000 6 250 23:24 16.01.2020
678 Rain 2 1018 93 10000 5 260 22:43 16.01.2020
679 Clouds 3 1018 86 10000 6 260 22:22 16.01.2020
680 Clouds 2 1018 86 10000 5 260 21:57 16.01.2020
681 Clouds 2 1018 93 10000 5 260 21:39 16.01.2020
682 Clouds 2 1018 93 10000 5 260 21:19 16.01.2020
683 Clouds 2 1017 93 10000 6 250 20:59 16.01.2020
684 Clouds 2 1017 93 9000 6 250 20:40 16.01.2020
685 Clouds 2 1017 93 9000 6 250 20:20 16.01.2020
686 Rain 2 1017 86 9000 7 260 19:57 16.01.2020
687 Rain 2 1017 86 10000 7 260 19:39 16.01.2020
688 Drizzle 2 1017 86 10000 6 260 19:20 16.01.2020
689 Drizzle 2 1017 86 10000 6 260 18:56 16.01.2020
690 Clouds 2 1016 86 10000 7 260 18:37 16.01.2020
691 Clouds 2 1016 86 10000 7 260 18:18 16.01.2020
692 Clouds 2 1016 86 10000 7 250 17:58 16.01.2020
693 Clouds 2 1016 86 10000 8 250 17:39 16.01.2020
694 Clouds 2 1016 86 10000 7 250 17:20 16.01.2020
695 Clouds 2 1016 86 10000 8 250 16:41 16.01.2020
696 Clouds 2 1016 86 10000 8 250 16:23 16.01.2020
697 Clouds 2 1015 86 10000 8 240 15:58 16.01.2020
698 Clouds 2 1015 86 10000 8 240 15:39 16.01.2020
699 Clouds 2 1015 86 10000 8 240 15:39 16.01.2020
700 Clouds 2 1015 86 10000 8 240 15:20 16.01.2020
701 Clouds 2 1015 86 10000 8 230 14:44 16.01.2020
702 Clouds 2 1015 93 10000 8 240 14:24 16.01.2020
703 Clouds 2 1015 93 10000 9 230 13:56 16.01.2020
704 Clouds 2 1014 93 10000 8 230 13:37 16.01.2020
705 Clouds 2 1014 93 10000 8 230 13:19 16.01.2020
706 Clouds 2 1014 93 10000 9 230 12:42 16.01.2020
707 Clouds 2 1015 93 10000 9 240 12:22 16.01.2020
708 Clouds 2 1015 93 10000 9 240 11:43 16.01.2020
709 Clouds 2 1015 93 10000 9 240 11:24 16.01.2020
710 Clouds 2 1015 93 10000 8 230 10:59 16.01.2020
711 Clouds 2 1015 93 10000 7 220 10:38 16.01.2020
712 Clouds 2 1015 93 10000 7 220 10:20 16.01.2020
713 Rain 2 1015 93 8000 7 220 09:56 16.01.2020
714 Clouds 3 1015 86 10000 7 220 09:37 16.01.2020
715 Clouds 3 1015 86 10000 7 220 09:37 16.01.2020
716 Clouds 3 1015 86 10000 7 220 09:18 16.01.2020
717 Clouds 2 1016 86 10000 6 220 08:44 16.01.2020
718 Clouds 2 1016 86 10000 6 220 08:23 16.01.2020
719 Clouds 2 1016 86 10000 7 230 07:44 16.01.2020
720 Clouds 2 1016 86 10000 7 230 07:25 16.01.2020
721 Clouds 3 1016 86 10000 7 230 06:59 16.01.2020
722 Clouds 3 1016 86 10000 7 230 06:37 16.01.2020
723 Clouds 3 1016 86 10000 8 230 05:58 16.01.2020
724 Clouds 3 1016 86 10000 8 240 05:39 16.01.2020
725 Clouds 3 1016 93 10000 9 230 04:37 16.01.2020
726 Clouds 3 1016 93 10000 9 230 04:37 16.01.2020
727 Clouds 3 1016 93 10000 9 230 04:37 16.01.2020
728 Drizzle 2 1016 93 7000 8 230 03:28 16.01.2020
729 Clouds 2 1016 93 9000 9 230 02:42 16.01.2020
730 Clouds 2 1016 86 10000 8 230 00:53 16.01.2020
731 Clouds 2 1016 86 10000 8 230 00:24 16.01.2020
732 Clouds 2 1016 93 10000 9 240 23:48 15.01.2020
733 Clouds 2 1016 93 10000 9 240 23:23 15.01.2020
734 Clouds 2 1016 93 10000 8 230 22:57 15.01.2020
735 Rain 2 1016 93 9000 8 230 22:39 15.01.2020
736 Rain 2 1016 93 9000 8 230 22:19 15.01.2020
737 Rain 2 1015 91 10000 8 230 21:57 15.01.2020
738 Rain 2 1015 91 10000 8 230 21:57 15.01.2020
739 Clouds 2 1015 91 10000 8 230 21:38 15.01.2020
740 Clouds 3 1015 91 10000 8 230 21:20 15.01.2020
741 Clouds 3 1015 91 10000 8 230 20:58 15.01.2020
742 Clouds 2 1016 91 10000 8 230 20:40 15.01.2020
743 Rain 3 1016 81 9000 9 230 20:20 15.01.2020
744 Rain 3 1016 81 9000 9 230 19:55 15.01.2020
745 Clouds 3 1015 81 10000 9 230 19:37 15.01.2020
746 Clouds 3 1016 81 10000 9 220 19:19 15.01.2020
747 Clouds 3 1016 81 10000 9 220 18:57 15.01.2020
748 Clouds 3 1016 81 10000 9 220 18:57 15.01.2020
749 Clouds 3 1016 81 10000 9 220 18:38 15.01.2020
750 Clouds 3 1016 81 10000 9 230 18:20 15.01.2020
751 Clouds 3 1016 81 10000 9 230 18:20 15.01.2020
752 Clouds 3 1016 81 10000 9 230 17:58 15.01.2020
753 Clouds 3 1016 81 10000 8 220 17:39 15.01.2020
754 Clouds 2 1016 84 10000 8 220 17:20 15.01.2020
755 Clouds 2 1017 84 10000 8 220 16:42 15.01.2020
756 Clouds 2 1017 84 10000 8 220 16:24 15.01.2020
757 Clouds 2 1017 80 10000 9 220 15:59 15.01.2020
758 Rain 2 1017 80 10000 8 220 15:41 15.01.2020
759 Rain 2 1017 80 10000 8 220 15:20 15.01.2020
760 Rain 2 1017 80 10000 8 220 14:45 15.01.2020
761 Clouds 2 1017 74 10000 8 220 14:21 15.01.2020
762 Clouds 2 1017 80 10000 8 220 13:58 15.01.2020
763 Clouds 2 1018 74 10000 8 220 13:40 15.01.2020
764 Clouds 2 1018 74 10000 7 220 13:22 15.01.2020
765 Clouds 2 1018 74 10000 7 220 12:55 15.01.2020
766 Clouds 2 1018 74 10000 8 220 12:36 15.01.2020
767 Clouds 2 1018 74 10000 7 220 12:18 15.01.2020
768 Clouds 2 1018 80 10000 7 210 11:38 15.01.2020
769 Clouds 2 1018 80 10000 7 210 11:20 15.01.2020
770 Clouds 2 1019 80 10000 8 210 10:48 15.01.2020
771 Clouds 2 1019 80 10000 7 210 10:28 15.01.2020
772 Clouds 1 1019 86 10000 8 220 09:59 15.01.2020
773 Clouds 1 1020 86 10000 7 220 09:41 15.01.2020
774 Clouds 1 1020 86 10000 7 220 09:21 15.01.2020
775 Clouds 1 1020 86 10000 7 220 08:44 15.01.2020
776 Clouds 1 1020 86 10000 7 220 08:44 15.01.2020
777 Clouds 0 1020 86 10000 7 220 08:26 15.01.2020
778 Clouds 0 1020 86 10000 7 210 07:54 15.01.2020
779 Clouds 0 1020 86 10000 7 220 07:33 15.01.2020
780 Clouds 0 1020 80 10000 7 220 06:54 15.01.2020
781 Clouds 0 1022 87 10000 3 210 06:28 15.01.2020
782 Clouds 0 1021 87 10000 5 200 05:32 15.01.2020
783 Clouds 0 1023 92 10000 4 200 03:20 15.01.2020
784 Clouds 0 1022 94 10000 4 230 01:48 15.01.2020
785 Clouds 0 1022 95 10000 4 230 01:22 15.01.2020
786 Clouds -1 1022 95 10000 3 220 00:37 15.01.2020
787 Clouds -1 1022 95 10000 3 220 00:19 15.01.2020
788 Clouds -1 1022 95 10000 4 250 23:47 14.01.2020
789 Clouds -1 1022 95 10000 4 250 23:28 14.01.2020
790 Clouds -1 1022 87 10000 4 240 22:58 14.01.2020
791 Clouds -1 1022 87 10000 5 240 22:40 14.01.2020
792 Clouds -1 1022 87 10000 5 240 22:19 14.01.2020
793 Clouds -1 1022 87 10000 5 240 21:57 14.01.2020
794 Clouds -1 1022 87 10000 5 250 21:39 14.01.2020
795 Clouds -1 1021 92 10000 5 240 21:19 14.01.2020
796 Clouds -1 1021 92 10000 5 240 20:54 14.01.2020
797 Clouds -1 1021 92 10000 5 240 20:54 14.01.2020
798 Clouds -1 1021 95 10000 5 230 20:36 14.01.2020
799 Clouds -1 1021 95 10000 5 230 20:18 14.01.2020
800 Clouds -1 1021 95 10000 5 230 19:55 14.01.2020
801 Clouds -1 1021 86 10000 4 220 19:37 14.01.2020
802 Clouds -1 1021 86 10000 4 220 19:18 14.01.2020
803 Clouds 0 1021 95 10000 5 230 19:18 14.01.2020
804 Clouds 0 1020 86 10000 5 270 18:41 14.01.2020
805 Clouds 0 1020 86 10000 5 270 18:20 14.01.2020
806 Clouds 0 1020 86 10000 5 270 17:58 14.01.2020
807 Clouds 1 1019 95 10000 4 220 17:37 14.01.2020
808 Clouds 1 1019 95 10000 4 210 17:18 14.01.2020
809 Clouds 1 1019 95 10000 4 210 16:43 14.01.2020
810 Clouds 1 1019 80 10000 4 220 16:23 14.01.2020
811 Clouds 1 1020 95 10000 4 270 15:58 14.01.2020
812 Snow 1 1019 80 10000 5 270 15:40 14.01.2020
813 Clouds 1 1019 74 10000 5 280 15:19 14.01.2020
814 Clouds 1 1019 74 10000 5 280 14:45 14.01.2020
815 Clouds 1 1019 74 10000 6 280 14:21 14.01.2020
816 Clouds 1 1019 74 10000 6 290 13:57 14.01.2020
817 Clouds 1 1018 74 10000 6 270 13:39 14.01.2020
818 Clouds 1 1017 74 10000 6 280 13:19 14.01.2020
819 Clouds 1 1017 80 10000 5 260 12:42 14.01.2020
820 Clouds 1 1017 80 10000 5 260 12:22 14.01.2020
821 Clouds 1 1017 80 10000 6 260 11:56 14.01.2020
822 Clouds 2 1017 80 10000 5 250 11:37 14.01.2020
823 Clouds 1 1017 80 10000 6 250 11:19 14.01.2020
824 Clouds 1 1017 80 10000 5 250 10:41 14.01.2020
825 Clouds 1 1017 80 10000 5 250 10:20 14.01.2020
826 Clouds 1 1017 80 10000 6 250 09:59 14.01.2020
827 Clouds 1 1017 80 10000 5 250 09:40 14.01.2020
828 Clouds 1 1017 80 10000 5 250 09:21 14.01.2020
829 Clouds 1 1016 89 10000 4 240 08:56 14.01.2020
830 Clouds 0 1016 89 10000 4 230 08:38 14.01.2020
831 Clouds 0 1016 90 10000 4 230 08:19 14.01.2020
832 Clouds 0 1016 91 10000 4 250 07:38 14.01.2020
833 Clouds 0 1015 91 10000 6 240 06:59 14.01.2020
834 Clouds 0 1015 91 10000 6 250 06:40 14.01.2020
835 Clouds 0 1015 91 10000 5 240 05:35 14.01.2020
836 Clouds 0 1015 91 10000 4 230 04:23 14.01.2020
837 Clouds 0 1015 91 10000 4 250 03:43 14.01.2020
838 Clouds 0 1015 91 10000 5 270 02:30 14.01.2020
839 Clouds -1 1015 92 10000 6 280 01:18 14.01.2020
840 Clouds 0 1014 92 10000 8 270 00:42 14.01.2020
841 Clouds 0 1014 93 10000 7 270 00:21 14.01.2020
842 Clouds 0 1013 93 10000 6 240 23:42 13.01.2020
843 Clouds 0 1013 92 10000 5 240 23:18 13.01.2020
844 Clouds 0 1013 92 10000 5 240 22:56 13.01.2020
845 Clear 0 1012 92 10000 6 250 22:37 13.01.2020
846 Clear 0 1012 92 10000 6 250 22:19 13.01.2020
847 Clouds 0 1012 92 10000 5 270 21:54 13.01.2020
848 Clouds 1 1012 92 10000 5 260 21:36 13.01.2020
849 Clouds 1 1012 92 10000 5 260 21:18 13.01.2020
850 Clouds 1 1011 86 10000 6 270 20:42 13.01.2020
851 Clouds 2 1011 86 10000 6 270 20:23 13.01.2020
852 Clouds 2 1011 86 10000 5 280 20:23 13.01.2020
853 Clouds 1 1011 86 10000 5 280 20:00 13.01.2020
854 Clouds 2 1011 86 10000 5 290 19:41 13.01.2020
855 Clouds 2 1011 86 10000 4 270 19:20 13.01.2020
856 Clouds 1 1011 86 10000 4 270 18:58 13.01.2020
857 Clouds 2 1011 92 10000 4 280 18:38 13.01.2020
858 Clouds 2 1011 92 10000 4 280 18:38 13.01.2020
859 Clouds 2 1010 86 10000 5 290 18:19 13.01.2020
860 Clouds 2 1010 86 10000 5 290 17:58 13.01.2020
861 Clouds 2 1010 92 10000 5 300 17:39 13.01.2020
862 Clouds 2 1009 88 10000 5 290 17:20 13.01.2020
863 Clouds 2 995 73 0 2.24 190 16:43 13.01.2020
864 Clouds 2 995 73 0 0.45 180 16:24 13.01.2020
865 Clouds 2 995 74 0 1.79 184 15:59 13.01.2020
866 Clouds 2 994 74 0 2.68 173 15:41 13.01.2020
867 Clouds 2 994 74 0 2.68 177 15:21 13.01.2020
868 Clouds 2 994 74 0 1.79 180 14:54 13.01.2020
869 Clouds 2 993 74 0 3.13 180 14:36 13.01.2020
870 Snow 2 993 74 0 1.79 189 14:18 13.01.2020
871 Snow 3 992 74 0 2.68 147 13:40 13.01.2020
872 Rain 2 992 74 0 1.79 180 13:22 13.01.2020
873 Rain 2 1005 93 10000 6 270 12:58 13.01.2020
874 Rain 2 1005 93 10000 6 270 12:40 13.01.2020
875 Snow 2 1005 93 10000 6 270 12:21 13.01.2020
876 Snow 2 1005 93 10000 6 270 11:54 13.01.2020
877 Clouds 2 1005 93 10000 6 270 11:36 13.01.2020
878 Clouds 2 1005 93 10000 6 270 11:18 13.01.2020
879 Clouds 2 1005 93 10000 6 270 11:18 13.01.2020
880 Clouds 2 1005 93 10000 6 270 10:55 13.01.2020
881 Rain 2 1005 93 10000 6 270 10:36 13.01.2020
882 Rain 2 1005 93 10000 6 270 10:18 13.01.2020
883 Clouds 2 1005 93 10000 6 270 09:40 13.01.2020
884 Rain 2 1005 93 10000 6 270 09:40 13.01.2020
885 Rain 2 1005 93 10000 6 270 09:22 13.01.2020
886 Rain 1 1004 93 10000 6 280 08:42 13.01.2020
887 Clouds 1 1004 100 10000 6 270 08:21 13.01.2020
888 Clouds 1 1004 100 10000 6 270 07:54 13.01.2020
889 Drizzle 1 1004 100 10000 6 250 07:35 13.01.2020
890 Drizzle 1 1004 100 9000 6 260 06:44 13.01.2020
891 Drizzle 1 1004 100 9000 6 260 06:22 13.01.2020
892 Snow 1 1004 100 5000 7 260 05:36 13.01.2020
893 Snow 1 1003 96 10000 6 250 04:25 13.01.2020
894 Snow 1 1004 96 5000 7 250 03:31 13.01.2020
895 Clouds 1 1004 96 9000 7 250 02:47 13.01.2020
896 Clouds 1 1004 96 9000 7 250 02:29 13.01.2020
897 Snow 1 1004 97 9000 7 250 01:23 13.01.2020
898 Snow 0 1004 97 7000 7 240 00:42 13.01.2020
899 Snow 0 1004 97 7000 7 240 00:24 13.01.2020
900 Snow 0 1004 97 5000 7 250 23:56 12.01.2020
901 Snow 0 1004 97 5000 7 250 23:37 12.01.2020
902 Snow 0 1004 95 5000 7 250 23:19 12.01.2020
903 Snow 0 1005 95 2200 7 240 22:42 12.01.2020
904 Snow 0 1005 95 2200 7 240 22:24 12.01.2020
905 Snow 0 1005 95 2100 6 240 21:57 12.01.2020
906 Snow 0 1005 95 3500 8 240 21:39 12.01.2020
907 Snow 0 1005 95 8000 9 240 21:20 12.01.2020
908 Snow 0 1005 95 8000 9 240 20:57 12.01.2020
909 Snow -1 1005 95 10000 8 240 20:39 12.01.2020
910 Snow -1 1006 89 10000 8 240 20:20 12.01.2020
911 Snow -1 1006 89 10000 8 240 19:56 12.01.2020
912 Snow -1 1006 100 4300 8 240 19:38 12.01.2020
913 Snow -1 1006 100 4300 8 240 19:38 12.01.2020
914 Snow -1 1006 100 4300 8 240 19:19 12.01.2020
915 Snow -1 1006 89 9000 8 240 18:57 12.01.2020
916 Clouds -1 1007 92 10000 9 240 18:39 12.01.2020
917 Clouds -1 1007 92 10000 9 240 18:21 12.01.2020
918 Clouds -1 1007 86 10000 9 240 17:57 12.01.2020
919 Clouds -1 1007 86 10000 9 240 17:38 12.01.2020
920 Clouds -1 1008 86 10000 9 240 17:19 12.01.2020
921 Clouds -1 1008 86 10000 9 240 16:55 12.01.2020
922 Clouds -1 1008 86 10000 9 250 16:37 12.01.2020
923 Clouds -1 1008 86 10000 9 250 16:18 12.01.2020
924 Clouds -1 1009 80 10000 8 240 15:42 12.01.2020
925 Clouds -1 1009 80 10000 8 240 15:24 12.01.2020
926 Clouds -1 1009 86 10000 8 240 14:57 12.01.2020
927 Clouds -1 1009 74 10000 8 240 14:38 12.01.2020
928 Clouds -1 1009 74 10000 8 240 14:19 12.01.2020
929 Clouds -1 1009 74 10000 8 230 13:43 12.01.2020
930 Clouds -1 1009 74 10000 8 230 13:24 12.01.2020
931 Clouds -2 1009 74 10000 7 210 12:58 12.01.2020
932 Clouds -2 1010 74 10000 6 220 12:39 12.01.2020
933 Clouds -2 1011 74 10000 6 230 12:20 12.01.2020
934 Clouds -2 1011 74 10000 6 230 11:58 12.01.2020
935 Clouds -2 1011 74 10000 6 210 11:39 12.01.2020
936 Clouds -2 1011 74 10000 6 210 11:20 12.01.2020
937 Clouds -3 1013 74 10000 6 230 10:41 12.01.2020
938 Clouds -3 1013 74 10000 6 230 10:22 12.01.2020
939 Clouds -4 1014 79 10000 5 230 09:57 12.01.2020
940 Clouds -4 1014 79 10000 5 240 09:39 12.01.2020
941 Clouds -4 1014 79 10000 5 240 09:20 12.01.2020
942 Clouds -5 1016 85 10000 5 230 08:45 12.01.2020
943 Clouds -5 1016 85 10000 5 230 08:21 12.01.2020
944 Clouds -6 1016 92 10000 5 230 07:42 12.01.2020
945 Clouds -6 1016 92 10000 5 230 07:24 12.01.2020
946 Clouds -5 1017 92 10000 4 220 06:48 12.01.2020
947 Clouds -5 1017 92 10000 4 220 06:30 12.01.2020
948 Clouds -6 1018 92 10000 4 210 05:37 12.01.2020
949 Clouds -6 1018 92 10000 3 210 04:51 12.01.2020
950 Clouds -6 1018 100 10000 3 200 03:27 12.01.2020
951 Clouds -6 1018 92 10000 2 260 02:34 12.01.2020
952 Clear -5 1018 92 10000 3 270 01:55 12.01.2020
953 Clear -6 1018 92 9000 3 250 01:29 12.01.2020
954 Clouds -5 1018 100 10000 3 310 00:44 12.01.2020
955 Clouds -5 1018 92 9000 3 300 00:21 12.01.2020
956 Clouds -5 1018 92 9000 3 300 23:55 11.01.2020
957 Clouds -5 1018 92 10000 1 310 23:37 11.01.2020
958 Clouds -5 1018 92 10000 1 310 23:18 11.01.2020
959 Fog -4 1018 92 9000 2 300 22:55 11.01.2020
960 Clouds -5 1017 100 10000 1 310 22:37 11.01.2020
961 Clouds -5 1017 100 10000 1 310 22:18 11.01.2020
962 Clear -4 1017 92 10000 2 330 21:42 11.01.2020
963 Clear -4 1017 92 10000 2 340 21:18 11.01.2020
964 Clear -4 1017 92 10000 2 340 20:55 11.01.2020
965 Clear -4 1017 92 10000 3 330 20:37 11.01.2020
966 Clouds -4 1017 92 10000 3 330 20:18 11.01.2020
967 Clouds -3 1016 92 10000 3 320 19:55 11.01.2020
968 Clouds -3 1016 92 10000 3 320 19:36 11.01.2020
969 Clouds -3 1016 92 10000 3 320 19:18 11.01.2020
970 Clouds -4 1016 92 10000 4 330 18:55 11.01.2020
971 Clouds -3 1016 92 10000 3 310 18:36 11.01.2020
972 Clouds -3 1016 92 10000 3 310 18:18 11.01.2020
973 Clouds -3 1016 92 10000 3 310 17:55 11.01.2020
974 Clouds -3 1015 92 10000 3 310 17:36 11.01.2020
975 Mist -2 1015 92 9000 3 320 17:18 11.01.2020
976 Clouds -3 1015 92 10000 3 310 17:18 11.01.2020
977 Mist -2 1015 92 7000 3 310 16:43 11.01.2020
978 Mist -2 1015 92 7000 3 310 16:23 11.01.2020
979 Clouds -1 1014 100 10000 2 310 15:43 11.01.2020
980 Clouds -1 1014 100 10000 2 310 15:24 11.01.2020
981 Clouds 0 1015 92 10000 3 320 14:59 11.01.2020
982 Clouds 0 1014 100 10000 3 350 14:41 11.01.2020
983 Clouds 0 1014 100 10000 3 350 14:22 11.01.2020
984 Clouds 0 1014 90 10000 3 350 13:55 11.01.2020
985 Clouds 0 1014 90 10000 2 360 13:37 11.01.2020
986 Clouds 0 1014 90 10000 2 360 13:19 11.01.2020
987 Snow 0 1013 90 5000 2 350 12:44 11.01.2020
988 Snow 0 1013 90 5000 2 350 12:26 11.01.2020
989 Snow 0 1013 90 6000 3 360 11:56 11.01.2020
990 Snow 0 1013 90 6000 3 10 11:37 11.01.2020
991 Snow 0 1013 93 8000 3 40 11:18 11.01.2020
992 Snow 0 1013 93 6000 3 10 11:18 11.01.2020
993 Snow 0 1013 93 6000 2 60 10:44 11.01.2020
994 Snow 0 1013 93 6000 2 60 10:24 11.01.2020
995 Snow 0 1013 93 2600 3 70 09:42 11.01.2020
996 Snow 0 1013 93 1700 3 50 09:21 11.01.2020
997 Snow 0 1012 93 2100 3 50 08:43 11.01.2020
998 Snow 0 1012 95 2100 3 50 08:23 11.01.2020
999 Snow 0 1012 95 2000 3 70 07:45 11.01.2020
1000 Snow 0 1012 95 2000 3 70 07:26 11.01.2020
1001 Snow 0 1012 95 6000 3 60 06:56 11.01.2020
1002 Snow 0 1012 95 2700 2 60 06:37 11.01.2020
1003 Clouds -1 1012 95 10000 2 70 05:18 11.01.2020
1004 Clouds 0 1012 95 9000 2 70 04:37 11.01.2020
1005 Clouds 0 1012 95 10000 2 100 04:19 11.01.2020
1006 Clouds 0 1013 92 10000 1 140 02:45 11.01.2020
1007 Clouds 0 1013 94 10000 2 170 01:45 11.01.2020
1008 Clouds 0 1013 92 10000 2 170 01:22 11.01.2020
1009 Clouds 0 1014 92 10000 2 200 00:51 11.01.2020
1010 Clouds 0 1014 92 10000 2 190 00:21 11.01.2020
1011 Clouds 1 1014 92 10000 1 0 23:56 10.01.2020
1012 Clouds 0 1014 92 10000 1 0 23:38 10.01.2020
1013 Clouds 0 1014 94 10000 1 0 23:20 10.01.2020
1014 Clouds 0 1014 94 10000 2 250 22:41 10.01.2020
1015 Clouds 0 1014 94 10000 2 250 22:22 10.01.2020
1016 Clouds 0 1014 94 10000 3 240 21:58 10.01.2020
1017 Clouds 0 1014 94 10000 4 250 21:40 10.01.2020
1018 Clouds 0 1014 94 10000 4 250 21:20 10.01.2020
1019 Clouds 0 1014 94 10000 3 260 20:56 10.01.2020
1020 Clouds 0 1014 94 10000 3 260 20:38 10.01.2020
1021 Clouds 1 1014 90 10000 3 260 20:19 10.01.2020
1022 Clouds 1 1013 90 10000 2 240 19:40 10.01.2020
1023 Clouds 1 1013 90 10000 2 240 19:40 10.01.2020
1024 Clouds 0 1013 90 10000 2 240 19:20 10.01.2020
1025 Clouds 0 1014 90 10000 4 260 18:55 10.01.2020
1026 Clouds 0 1014 90 10000 4 260 18:36 10.01.2020
1027 Clouds 0 1014 90 10000 4 260 18:18 10.01.2020
1028 Clouds 0 1014 90 10000 4 260 17:56 10.01.2020
1029 Clouds 1 1014 86 10000 5 250 17:37 10.01.2020
1030 Clouds 1 1014 86 10000 4 230 17:19 10.01.2020
1031 Clouds 1 1014 86 10000 4 230 17:19 10.01.2020
1032 Clouds 1 1014 86 10000 4 230 16:42 10.01.2020
1033 Clouds 1 1014 86 10000 4 230 16:21 10.01.2020
1034 Clouds 1 1014 80 10000 4 220 15:57 10.01.2020
1035 Clouds 1 1014 80 10000 3 220 15:38 10.01.2020
1036 Clouds 1 1014 80 10000 3 220 15:19 10.01.2020
1037 Clouds 1 1014 80 10000 4 260 14:58 10.01.2020
1038 Clouds 1 1014 80 10000 4 250 14:40 10.01.2020
1039 Clouds 1 1013 86 10000 5 250 14:19 10.01.2020
1040 Clouds 1 1013 86 10000 5 250 13:57 10.01.2020
1041 Clouds 1 1013 86 10000 4 250 13:37 10.01.2020
1042 Clouds 1 1013 86 10000 4 250 13:19 10.01.2020
1043 Clouds 1 1013 80 10000 5 260 12:56 10.01.2020
1044 Clouds 1 1013 86 10000 6 250 12:38 10.01.2020
1045 Clouds 1 1013 86 10000 5 250 12:18 10.01.2020
1046 Clouds 1 1013 86 10000 5 250 11:42 10.01.2020
1047 Clouds 1 1013 86 10000 5 250 11:22 10.01.2020
1048 Clouds 1 1013 86 10000 5 250 11:22 10.01.2020
1049 Clouds 2 1013 80 10000 6 250 10:59 10.01.2020
1050 Clouds 1 1013 80 10000 6 240 10:39 10.01.2020
1051 Clouds 1 1013 80 10000 6 240 10:21 10.01.2020
1052 Clouds 1 1014 86 10000 5 240 09:56 10.01.2020
1053 Clouds 1 1014 86 10000 6 250 09:37 10.01.2020
1054 Clouds 1 1014 86 10000 6 250 09:19 10.01.2020
1055 Clouds 1 1014 86 10000 6 250 09:19 10.01.2020
1056 Clouds 1 1014 86 10000 5 240 08:40 10.01.2020
1057 Clouds 1 1013 86 10000 5 250 08:22 10.01.2020
1058 Clouds 1 1013 86 10000 5 250 07:44 10.01.2020
1059 Clouds 1 1013 86 10000 5 250 07:24 10.01.2020
1060 Clouds 1 1013 86 10000 4 230 06:45 10.01.2020
1061 Clouds 1 1013 86 10000 4 230 06:25 10.01.2020
1062 Clouds 1 1013 86 10000 4 230 05:46 10.01.2020
1063 Clouds 1 1013 86 10000 5 240 03:37 10.01.2020
1064 Clouds 1 1013 86 10000 5 250 03:18 10.01.2020
1065 Clouds 1 1013 86 10000 5 250 02:47 10.01.2020
1066 Clouds 1 1013 86 10000 5 250 01:44 10.01.2020
1067 Clouds 1 1013 86 10000 5 240 01:26 10.01.2020
1068 Clouds 2 1013 86 10000 6 260 00:40 10.01.2020
1069 Clouds 2 1013 86 10000 5 250 23:58 09.01.2020
1070 Clouds 2 1013 86 10000 5 260 23:39 09.01.2020
1071 Clouds 2 1013 86 10000 5 260 23:20 09.01.2020
1072 Clouds 2 1013 86 10000 5 250 22:57 09.01.2020
1073 Clouds 2 1012 86 10000 5 250 22:39 09.01.2020
1074 Clouds 1 1012 86 10000 5 250 22:19 09.01.2020
1075 Clouds 1 1012 86 10000 5 250 21:57 09.01.2020
1076 Clouds 1 1012 86 10000 5 250 21:38 09.01.2020
1077 Clouds 1 1012 86 10000 5 250 21:19 09.01.2020
1078 Clouds 2 1012 86 10000 5 260 20:57 09.01.2020
1079 Clouds 2 1013 80 10000 4 270 20:39 09.01.2020
1080 Clouds 2 1013 80 10000 4 270 20:20 09.01.2020
1081 Clouds 2 1013 86 10000 4 270 19:57 09.01.2020
1082 Clouds 2 1012 90 10000 5 270 19:38 09.01.2020
1083 Clouds 2 1012 90 10000 5 270 19:19 09.01.2020
1084 Clouds 2 1012 80 10000 6 290 18:55 09.01.2020
1085 Clouds 2 1012 80 10000 7 280 18:36 09.01.2020
1086 Clouds 2 1012 80 10000 7 280 18:18 09.01.2020
1087 Clouds 2 1011 90 10000 6 250 17:41 09.01.2020
1088 Clouds 2 1011 91 10000 6 250 17:18 09.01.2020
1089 Clouds 2 1011 91 10000 5 260 16:55 09.01.2020
1090 Clouds 2 1011 91 10000 5 250 16:36 09.01.2020
1091 Clouds 2 1011 91 10000 5 250 16:18 09.01.2020
1092 Clouds 1 1010 91 10000 5 260 15:41 09.01.2020
1093 Clouds 2 1010 91 10000 5 260 15:19 09.01.2020
1094 Rain 2 1010 100 10000 5 250 14:55 09.01.2020
1095 Rain 2 1010 100 10000 5 260 14:36 09.01.2020
1096 Rain 2 1010 100 10000 5 260 14:18 09.01.2020
1097 Clouds 2 1010 100 10000 6 260 13:54 09.01.2020
1098 Clouds 2 1009 93 10000 5 260 13:36 09.01.2020
1099 Clouds 2 1009 93 10000 5 270 13:18 09.01.2020
1100 Clouds 1 1009 100 10000 6 260 12:41 09.01.2020
1101 Clouds 1 1009 100 10000 6 260 12:22 09.01.2020
1102 Rain 1 1009 88 10000 5 260 11:58 09.01.2020
1103 Rain 1 1009 88 10000 5 250 11:40 09.01.2020
1104 Rain 1 1009 97 10000 5 250 11:22 09.01.2020
1105 Snow 0 1009 97 9000 6 250 10:44 09.01.2020
1106 Clouds 0 1009 97 10000 6 260 10:23 09.01.2020
1107 Mist 0 1009 97 10000 7 250 09:59 09.01.2020
1108 Mist 0 1008 97 10000 6 250 09:40 09.01.2020
1109 Mist 0 1008 97 10000 6 250 09:21 09.01.2020
1110 Snow 0 1008 97 9000 6 250 08:55 09.01.2020
1111 Snow 0 1008 92 3500 6 240 08:37 09.01.2020
1112 Snow 0 1008 92 3500 6 240 08:19 09.01.2020
1113 Snow 0 1008 92 6000 6 230 07:42 09.01.2020
1114 Snow -1 1008 92 6000 6 230 07:24 09.01.2020
1115 Snow -1 1008 92 2300 6 220 06:39 09.01.2020
1116 Snow -1 1008 92 2300 6 220 06:20 09.01.2020
1117 Snow -1 1008 92 1300 5 220 05:50 09.01.2020
1118 Snow -1 1008 92 1300 5 220 05:50 09.01.2020
1119 Snow -1 1009 92 1600 6 210 04:45 09.01.2020
1120 Snow 0 1010 92 900 6 220 03:54 09.01.2020
1121 Snow 0 1010 92 2500 7 220 03:26 09.01.2020
1122 Snow 0 1010 85 10000 7 220 02:31 09.01.2020
1123 Snow 0 1011 85 10000 7 220 01:40 09.01.2020
1124 Clouds 0 1011 87 10000 7 220 00:44 09.01.2020
1125 Clouds 0 1011 87 10000 7 210 00:23 09.01.2020
1126 Clouds 1 1012 87 10000 7 220 23:58 08.01.2020
1127 Clouds 1 1012 87 10000 7 220 23:38 08.01.2020
1128 Clouds 1 1012 86 10000 7 220 23:19 08.01.2020
1129 Clouds 1 1013 74 10000 7 220 22:40 08.01.2020
1130 Clouds 1 1013 74 10000 7 220 22:40 08.01.2020
1131 Clouds 1 1013 74 10000 7 220 22:21 08.01.2020
1132 Clouds 1 1013 74 10000 7 220 21:58 08.01.2020
1133 Clouds 1 1013 74 10000 7 210 21:40 08.01.2020
1134 Clouds 1 1013 74 10000 7 210 21:20 08.01.2020
1135 Clouds 1 1014 86 10000 6 210 20:59 08.01.2020
1136 Clouds 1 1014 86 10000 6 210 20:40 08.01.2020
1137 Clouds 1 1014 85 10000 6 210 20:20 08.01.2020
1138 Clouds 1 1014 85 10000 6 210 20:20 08.01.2020
1139 Clouds 1 1015 85 10000 7 210 19:58 08.01.2020
1140 Clouds 1 1015 69 10000 6 210 19:38 08.01.2020
1141 Clouds 1 1015 69 10000 6 210 19:19 08.01.2020
1142 Clouds 1 1016 74 10000 5 200 18:57 08.01.2020
1143 Clouds 1 1016 74 10000 5 210 18:38 08.01.2020
1144 Clouds 1 1016 74 10000 5 210 18:18 08.01.2020
1145 Clouds 1 1017 74 10000 7 230 17:56 08.01.2020
1146 Clouds 1 1017 74 10000 7 230 17:37 08.01.2020
1147 Clouds 1 1017 74 10000 7 230 17:18 08.01.2020
1148 Clouds 1 1018 91 10000 6 230 17:18 08.01.2020
1149 Clouds 1 1018 91 10000 6 230 16:55 08.01.2020
1150 Snow 1 1018 91 10000 8 230 16:37 08.01.2020
1151 Snow 1 1018 91 10000 8 230 16:18 08.01.2020
1152 Snow 1 1018 91 10000 7 230 15:44 08.01.2020
1153 Snow 1 1018 91 10000 8 230 15:21 08.01.2020
1154 Snow 1 1018 91 10000 7 230 14:58 08.01.2020
1155 Snow 1 1018 91 10000 7 230 14:39 08.01.2020
1156 Snow 1 1018 90 10000 7 230 14:20 08.01.2020
1157 Snow 1 1019 90 8000 6 240 14:20 08.01.2020
1158 Snow 1 1019 90 8000 6 240 13:41 08.01.2020
1159 Snow 1 1019 90 4000 5 220 13:20 08.01.2020
1160 Snow 1 1019 90 6000 5 230 12:43 08.01.2020
1161 Clouds 1 1019 80 10000 6 240 12:20 08.01.2020
1162 Clouds 1 1019 80 10000 6 240 11:59 08.01.2020
1163 Clouds 1 1019 80 10000 6 240 11:41 08.01.2020
1164 Clouds 1 1019 80 10000 5 230 11:19 08.01.2020
1165 Clouds 1 1020 86 10000 6 240 10:57 08.01.2020
1166 Clouds 1 1020 92 10000 6 240 10:39 08.01.2020
1167 Clouds 1 1021 86 10000 4 240 10:19 08.01.2020
1168 Mist 0 1021 92 5000 5 230 09:42 08.01.2020
1169 Mist 0 1021 92 5000 5 230 09:20 08.01.2020
1170 Clouds 0 1021 92 10000 6 240 08:58 08.01.2020
1171 Clouds 0 1021 92 10000 6 240 08:39 08.01.2020
1172 Clouds 0 1021 95 10000 6 240 08:20 08.01.2020
1173 Clouds 0 1021 95 10000 5 230 07:51 08.01.2020
1174 Mist 0 1021 95 5000 5 240 07:33 08.01.2020
1175 Mist 0 1021 95 5000 6 240 06:58 08.01.2020
1176 Clouds 0 1021 95 9000 6 240 06:40 08.01.2020
1177 Drizzle 0 1021 95 4100 6 250 05:54 08.01.2020
1178 Drizzle 0 1021 94 4700 5 240 05:25 08.01.2020
1179 Mist 0 1021 94 4700 5 240 04:36 08.01.2020
1180 Mist 0 1022 94 4700 4 230 02:46 08.01.2020
1181 Clouds 0 1022 94 5000 5 230 02:28 08.01.2020
1182 Clouds 0 1022 95 10000 5 240 01:55 08.01.2020
1183 Clouds 0 1022 95 10000 5 240 01:29 08.01.2020
1184 Clouds 0 1022 95 10000 6 240 00:51 08.01.2020
1185 Clouds 0 1023 95 10000 5 230 00:22 08.01.2020
1186 Snow 0 1023 95 10000 4 230 23:46 07.01.2020
1187 Snow 0 1023 96 10000 4 230 23:20 07.01.2020
1188 Clouds 0 1023 92 10000 5 220 22:41 07.01.2020
1189 Clouds 0 1023 92 10000 5 220 22:21 07.01.2020
1190 Clouds 0 1023 92 10000 5 230 21:59 07.01.2020
1191 Clouds 0 1023 92 10000 5 230 21:59 07.01.2020
1192 Clouds -1 1023 92 10000 6 240 21:41 07.01.2020
1193 Clouds -1 1023 92 10000 6 240 21:21 07.01.2020
1194 Clouds -1 1024 92 10000 4 230 20:57 07.01.2020
1195 Clouds -1 1024 92 10000 4 250 20:39 07.01.2020
1196 Clouds -1 1024 92 10000 4 250 20:21 07.01.2020
1197 Clouds -1 1023 86 10000 5 250 19:56 07.01.2020
1198 Clouds -1 1023 92 10000 6 250 19:37 07.01.2020
1199 Clouds -1 1023 92 10000 6 250 19:18 07.01.2020
1200 Clouds -1 1023 92 10000 6 250 19:18 07.01.2020
1201 Clouds -1 1023 92 10000 6 250 19:18 07.01.2020
1202 Clouds -1 1023 86 10000 5 250 18:55 07.01.2020
1203 Snow 0 1023 86 10000 5 250 18:37 07.01.2020
1204 Snow 0 1023 86 10000 5 250 18:18 07.01.2020
1205 Snow -1 1023 86 10000 5 240 17:42 07.01.2020
1206 Snow -1 1023 86 10000 5 240 17:23 07.01.2020
1207 Snow -1 1023 86 10000 4 240 16:58 07.01.2020
1208 Clouds -1 1023 86 10000 5 240 16:39 07.01.2020
1209 Clouds -1 1023 86 10000 5 240 16:20 07.01.2020
1210 Clouds -1 1023 86 10000 5 230 15:59 07.01.2020
1211 Snow -1 1023 86 10000 4 240 15:41 07.01.2020
1212 Snow -1 1023 86 10000 4 240 15:23 07.01.2020
1213 Snow -1 1023 86 10000 5 230 14:57 07.01.2020
1214 Snow -1 1023 86 8000 5 240 14:37 07.01.2020
1215 Snow -1 1023 86 8000 5 240 14:19 07.01.2020
1216 Clouds -1 1023 80 10000 5 240 13:44 07.01.2020
1217 Clouds -1 1023 80 10000 5 240 13:20 07.01.2020
1218 Clouds -1 1022 80 10000 5 240 12:55 07.01.2020
1219 Clouds -1 1022 80 10000 5 240 12:36 07.01.2020
1220 Clouds -1 1022 80 10000 5 240 12:18 07.01.2020
1221 Clouds -2 1022 86 10000 5 240 11:41 07.01.2020
1222 Clouds -2 1022 86 10000 5 240 11:22 07.01.2020
1223 Clouds -2 1023 86 10000 5 250 10:55 07.01.2020
1224 Clouds -2 1022 79 10000 5 230 10:37 07.01.2020
1225 Clouds -2 1022 79 10000 5 230 10:19 07.01.2020
1226 Clouds -2 1022 79 10000 5 230 09:38 07.01.2020
1227 Clouds -1 1022 79 10000 5 230 09:20 07.01.2020
1228 Clouds -2 1022 79 10000 5 220 08:47 07.01.2020
1229 Clouds -2 1022 79 10000 5 220 08:28 07.01.2020
1230 Clouds -2 1022 79 10000 5 230 07:55 07.01.2020
1231 Clouds -2 1022 79 10000 4 230 07:35 07.01.2020
1232 Clouds -2 1022 79 10000 5 220 06:54 07.01.2020
1233 Clouds -2 1022 86 10000 5 220 06:35 07.01.2020
1234 Clouds -2 1022 79 10000 4 210 05:58 07.01.2020
1235 Clouds -2 1022 74 10000 4 220 05:39 07.01.2020
1236 Snow -2 1022 79 9000 5 220 03:44 07.01.2020
1237 Snow -2 1022 68 10000 5 220 02:47 07.01.2020
1238 Clouds -2 1022 68 10000 4 210 01:59 07.01.2020
1239 Clouds -2 1022 68 10000 4 220 01:35 07.01.2020
1240 Snow -2 1022 68 10000 4 220 00:55 07.01.2020
1241 Clouds -2 1022 68 10000 4 220 00:20 07.01.2020
1242 Clouds -2 1022 68 10000 4 220 23:56 06.01.2020
1243 Clouds -2 1022 68 10000 4 210 23:37 06.01.2020
1244 Clouds -2 1022 68 10000 4 210 23:19 06.01.2020
1245 Clouds -2 1022 68 10000 4 210 22:43 06.01.2020
1246 Clouds -2 1023 68 10000 4 210 22:24 06.01.2020
1247 Clouds -2 1023 68 10000 4 210 22:24 06.01.2020
1248 Clouds -2 1023 68 10000 5 210 21:58 06.01.2020
1249 Clouds -2 1023 68 10000 5 210 21:58 06.01.2020
1250 Clouds -2 1023 68 10000 4 210 21:39 06.01.2020
1251 Clouds -2 1023 68 10000 4 210 21:20 06.01.2020
1252 Clouds -2 1023 68 10000 4 210 21:20 06.01.2020
1253 Clouds -2 1023 68 10000 4 210 21:20 06.01.2020
1254 Clouds -2 1023 68 10000 4 200 20:57 06.01.2020
1255 Clouds -2 1023 68 10000 4 200 20:39 06.01.2020
1256 Clouds -2 1023 68 10000 4 200 20:20 06.01.2020
1257 Clouds -2 1023 74 10000 4 200 19:57 06.01.2020
1258 Clouds -2 1023 68 10000 4 210 19:38 06.01.2020
1259 Clouds -2 1023 68 10000 4 210 19:20 06.01.2020
1260 Clouds -1 1023 63 10000 4 210 18:48 06.01.2020
1261 Clouds -2 1024 68 10000 4 210 18:48 06.01.2020
1262 Clouds -2 1024 68 10000 4 210 18:23 06.01.2020
1263 Clouds -2 1024 68 10000 4 220 17:59 06.01.2020
1264 Clouds -1 1024 68 10000 4 210 17:39 06.01.2020
1265 Snow -1 1024 68 10000 4 230 17:19 06.01.2020
1266 Clouds -1 1024 63 10000 5 230 16:47 06.01.2020
1267 Clouds -1 1024 63 10000 5 230 16:27 06.01.2020
1268 Clouds -1 1024 63 10000 5 240 15:59 06.01.2020
1269 Clouds -1 1024 74 10000 4 260 15:41 06.01.2020
1270 Clouds -1 1024 74 10000 4 260 15:20 06.01.2020
1271 Clouds -1 1024 68 10000 5 260 14:59 06.01.2020
1272 Clouds -1 1023 68 10000 4 240 14:40 06.01.2020
1273 Clouds -1 1023 68 10000 4 240 14:20 06.01.2020
1274 Clouds 0 1024 68 10000 4 230 13:57 06.01.2020
1275 Clouds 0 1024 68 10000 4 230 13:57 06.01.2020
1276 Clouds 0 1024 74 10000 4 240 13:37 06.01.2020
1277 Clouds 0 1024 74 10000 4 240 13:19 06.01.2020
1278 Clouds -1 1024 80 10000 4 250 12:43 06.01.2020
1279 Clouds 0 1024 80 10000 4 250 12:21 06.01.2020
1280 Clouds 0 1024 80 10000 4 250 11:58 06.01.2020
1281 Clouds 0 1024 86 10000 4 240 11:39 06.01.2020
1282 Clouds 0 1024 86 10000 4 240 11:21 06.01.2020
1283 Clouds 0 1024 86 10000 4 210 10:57 06.01.2020
1284 Clouds -1 1024 86 10000 3 210 10:39 06.01.2020
1285 Clouds 0 1024 86 10000 3 210 10:20 06.01.2020
1286 Clouds -1 1024 86 10000 2 260 09:38 06.01.2020
1287 Clouds 0 1024 86 10000 2 260 09:19 06.01.2020
1288 Snow 0 1024 86 10000 2 260 08:46 06.01.2020
1289 Clouds 0 1024 86 10000 2 270 08:26 06.01.2020
1290 Clouds -1 1024 86 10000 2 310 07:53 06.01.2020
1291 Clouds -1 1024 92 10000 2 280 07:32 06.01.2020
1292 Snow -1 1023 86 10000 3 320 06:46 06.01.2020
1293 Snow -1 1023 86 10000 3 320 06:23 06.01.2020
1294 Snow 0 1022 86 10000 2 330 05:45 06.01.2020
1295 Snow 0 1022 86 10000 3 290 04:52 06.01.2020
1296 Snow -1 1022 86 10000 3 300 04:19 06.01.2020
1297 Snow -1 1021 92 10000 4 300 02:56 06.01.2020
1298 Clouds -1 1021 92 10000 4 300 02:24 06.01.2020
1299 Clouds -1 1021 92 10000 3 290 01:45 06.01.2020
1300 Snow -1 1021 92 10000 3 300 01:26 06.01.2020
1301 Clouds 0 1020 86 10000 4 290 00:42 06.01.2020
1302 Clouds 0 1020 86 10000 4 290 00:23 06.01.2020
1303 Snow 0 1019 86 10000 4 290 23:43 05.01.2020
1304 Snow 0 1019 86 10000 4 290 23:23 05.01.2020
1305 Snow 0 1019 80 10000 4 290 22:57 05.01.2020
1306 Snow 0 1019 80 9000 4 290 22:38 05.01.2020
1307 Snow 0 1019 80 9000 4 290 22:20 05.01.2020
1308 Clouds 0 1018 91 10000 5 280 21:55 05.01.2020
1309 Clouds 0 1018 91 10000 4 280 21:37 05.01.2020
1310 Clouds 0 1018 91 10000 4 280 21:19 05.01.2020
1311 Clouds 0 1018 91 10000 4 280 21:19 05.01.2020
1312 Clouds 0 1018 74 10000 4 270 20:55 05.01.2020
1313 Clouds 0 1017 74 10000 4 270 20:37 05.01.2020
1314 Clouds 0 1017 74 10000 4 270 20:19 05.01.2020
1315 Clouds 0 1017 80 10000 4 270 19:56 05.01.2020
1316 Clouds 0 1017 74 10000 4 260 19:37 05.01.2020
1317 Clouds 0 1017 74 10000 4 260 19:19 05.01.2020
1318 Clouds 0 1016 74 10000 4 260 18:54 05.01.2020
1319 Clouds 0 1016 74 10000 4 260 18:36 05.01.2020
1320 Clouds 0 1016 74 10000 4 260 18:36 05.01.2020
1321 Clouds 0 1016 74 10000 4 260 18:18 05.01.2020
1322 Clouds 0 1015 74 10000 4 270 17:55 05.01.2020
1323 Clouds 0 1015 74 10000 4 270 17:55 05.01.2020
1324 Clouds 0 1015 68 10000 4 280 17:37 05.01.2020
1325 Clouds 0 1015 68 10000 4 280 17:18 05.01.2020
1326 Clouds 0 1014 90 10000 4 290 16:55 05.01.2020
1327 Clouds 0 1014 90 10000 6 280 16:36 05.01.2020
1328 Clouds 0 1014 90 10000 5 290 16:18 05.01.2020
1329 Clouds 0 1013 90 10000 4 300 15:36 05.01.2020
1330 Clouds 0 1013 90 10000 4 300 15:36 05.01.2020
1331 Clouds 0 1013 90 10000 4 300 15:18 05.01.2020
1332 Clouds 0 1013 90 10000 5 300 14:54 05.01.2020
1333 Clouds 1 1012 90 10000 4 280 14:36 05.01.2020
1334 Clouds 1 1012 84 10000 4 280 14:18 05.01.2020
1335 Clouds 1 1011 74 10000 6 290 13:40 05.01.2020
1336 Clouds 1 1011 74 10000 6 290 13:40 05.01.2020
1337 Clouds 1 1011 74 10000 6 290 13:21 05.01.2020
1338 Clouds 1 1010 80 10000 5 270 12:58 05.01.2020
1339 Clouds 1 1009 80 10000 5 270 12:39 05.01.2020
1340 Clouds 1 1009 80 10000 5 270 12:21 05.01.2020
1341 Clouds 1 1009 80 10000 6 280 11:58 05.01.2020
1342 Clouds 1 1009 80 10000 6 280 11:39 05.01.2020
1343 Clouds 1 1009 80 10000 6 280 11:39 05.01.2020
1344 Clouds 2 1009 80 10000 6 260 11:19 05.01.2020
1345 Clouds 2 1009 80 10000 6 260 11:19 05.01.2020
1346 Clouds 1 1009 80 10000 5 250 10:56 05.01.2020
1347 Clouds 1 1008 81 10000 6 250 10:36 05.01.2020
1348 Clouds 1 1008 81 10000 6 250 10:36 05.01.2020
1349 Clouds 1 1008 81 10000 6 250 10:36 05.01.2020
1350 Clouds 1 1008 81 10000 6 250 10:18 05.01.2020
1351 Clouds 1 1008 81 10000 6 250 09:41 05.01.2020
1352 Clouds 1 1008 81 10000 6 250 09:21 05.01.2020
1353 Clouds 0 1007 81 10000 6 240 08:48 05.01.2020
1354 Clouds 1 1006 81 10000 5 250 08:29 05.01.2020
1355 Clouds 0 1006 78 10000 6 250 07:55 05.01.2020
1356 Clouds 0 1005 78 10000 5 240 07:36 05.01.2020
1357 Clouds 0 1005 78 10000 6 240 06:59 05.01.2020
1358 Clouds 0 1004 78 10000 5 240 05:58 05.01.2020
1359 Clouds 0 1003 78 10000 6 240 05:30 05.01.2020
1360 Clouds 0 1002 90 10000 6 240 04:43 05.01.2020
1361 Clouds 0 1002 90 10000 6 240 03:52 05.01.2020
1362 Clouds 1 1001 90 10000 5 250 02:46 05.01.2020
1363 Clouds 1 1001 90 10000 5 250 02:46 05.01.2020
1364 Clouds 1 1001 92 10000 6 260 02:23 05.01.2020
1365 Snow 1 1000 92 10000 5 250 01:48 05.01.2020
1366 Snow 0 1000 89 10000 7 240 01:18 05.01.2020
1367 Snow 0 999 89 10000 6 230 00:41 05.01.2020
1368 Clouds 0 999 89 10000 5 220 00:23 05.01.2020
1369 Clouds 1 999 89 10000 5 220 23:59 04.01.2020
1370 Clouds 1 999 89 10000 5 220 23:59 04.01.2020
1371 Clouds 1 998 89 10000 5 210 23:39 04.01.2020
1372 Clouds 1 998 79 10000 5 210 23:19 04.01.2020
1373 Clouds 0 998 79 10000 5 220 22:40 04.01.2020
1374 Clouds 0 998 79 10000 5 220 22:22 04.01.2020
1375 Clouds 0 998 92 10000 4 220 21:57 04.01.2020
1376 Clouds 0 998 92 10000 5 210 21:39 04.01.2020
1377 Clouds 0 998 92 10000 5 210 21:20 04.01.2020
1378 Clouds 0 998 92 10000 4 200 20:59 04.01.2020
1379 Clouds 0 998 79 10000 6 230 20:40 04.01.2020
1380 Clouds 0 998 90 10000 6 230 20:21 04.01.2020
1381 Snow 0 998 92 10000 6 220 19:56 04.01.2020
1382 Clouds 0 997 92 9000 6 230 19:38 04.01.2020
1383 Clouds 0 997 92 10000 6 230 19:19 04.01.2020
1384 Clouds 0 997 92 10000 6 230 18:54 04.01.2020
1385 Clouds -1 997 92 10000 6 230 18:36 04.01.2020
1386 Clouds -1 997 86 10000 5 220 18:18 04.01.2020
1387 Clouds 0 997 86 10000 6 220 17:41 04.01.2020
1388 Clouds -1 997 86 10000 6 220 17:23 04.01.2020
1389 Clouds -1 997 86 10000 7 230 16:58 04.01.2020
1390 Snow -1 997 86 9000 5 230 16:39 04.01.2020
1391 Snow 0 997 86 9000 5 230 16:21 04.01.2020
1392 Snow 0 997 86 8000 6 220 15:54 04.01.2020
1393 Snow 0 997 86 9000 6 220 15:36 04.01.2020
1394 Snow 0 997 86 9000 6 220 15:18 04.01.2020
1395 Snow 0 997 86 3700 4 210 14:42 04.01.2020
1396 Snow 0 997 92 1300 4 210 14:20 04.01.2020
1397 Snow 0 997 92 2100 3 200 13:59 04.01.2020
1398 Snow 0 997 92 900 4 220 13:38 04.01.2020
1399 Snow 0 997 92 900 4 220 13:19 04.01.2020
1400 Snow 0 998 92 1600 5 220 12:57 04.01.2020
1401 Snow 0 997 92 2400 4 210 12:39 04.01.2020
1402 Snow 0 997 92 2400 4 210 12:39 04.01.2020
1403 Snow 0 997 92 2400 4 210 12:18 04.01.2020
1404 Snow -1 998 86 9000 5 210 11:57 04.01.2020
1405 Clouds -1 999 86 10000 6 220 11:37 04.01.2020
1406 Clouds 0 999 86 10000 6 220 11:18 04.01.2020
1407 Clouds -1 999 86 10000 6 220 10:41 04.01.2020
1408 Clouds -1 999 86 10000 6 220 10:22 04.01.2020
1409 Clouds -1 1000 86 10000 5 210 09:48 04.01.2020
1410 Clouds -1 1000 86 10000 6 210 09:26 04.01.2020
1411 Clouds -1 1000 86 10000 5 210 08:49 04.01.2020
1412 Clouds -1 1001 86 10000 5 210 08:29 04.01.2020
1413 Clouds -1 1001 86 10000 6 230 07:59 04.01.2020
1414 Clouds -1 1001 86 10000 6 220 07:40 04.01.2020
1415 Clouds -1 1001 86 10000 5 230 06:46 04.01.2020
1416 Clouds -1 1002 86 10000 7 240 05:59 04.01.2020
1417 Clouds -1 1002 86 10000 7 230 05:18 04.01.2020
1418 Clouds -1 1002 86 10000 8 230 04:32 04.01.2020
1419 Clouds -1 1002 80 10000 7 220 03:39 04.01.2020
1420 Clouds -1 1002 80 10000 7 220 03:18 04.01.2020
1421 Clouds -1 1003 86 10000 7 240 02:20 04.01.2020
1422 Clouds -2 1002 92 10000 5 210 01:53 04.01.2020
1423 Clouds -1 1004 86 10000 7 230 01:30 04.01.2020
1424 Clouds -1 1004 86 10000 7 230 00:30 04.01.2020
1425 Clouds -1 1005 86 10000 7 230 23:59 03.01.2020
1426 Clouds -1 1005 86 10000 6 220 23:38 03.01.2020
1427 Clouds -1 1005 86 10000 6 220 23:20 03.01.2020
1428 Clouds -1 1005 86 10000 7 220 22:41 03.01.2020
1429 Clouds -1 1005 86 10000 7 220 22:20 03.01.2020
1430 Clouds -1 1006 86 10000 7 230 21:58 03.01.2020
1431 Clouds 0 1006 92 10000 7 230 21:38 03.01.2020
1432 Clouds 0 1006 92 10000 7 230 21:19 03.01.2020
1433 Clouds 0 1006 92 10000 7 220 20:58 03.01.2020
1434 Clouds 0 1006 92 10000 7 220 20:40 03.01.2020
1435 Clouds 0 1006 91 10000 7 230 20:18 03.01.2020
1436 Clouds 0 1007 91 10000 6 230 19:55 03.01.2020
1437 Clouds 0 1007 91 10000 6 230 19:55 03.01.2020
1438 Clouds 0 1007 91 10000 7 230 19:37 03.01.2020
1439 Clouds 0 1007 91 10000 7 230 19:18 03.01.2020
1440 Clouds 0 1007 91 10000 6 230 18:43 03.01.2020
1441 Clouds 0 1007 91 10000 7 230 18:24 03.01.2020
1442 Clouds 0 1007 91 10000 6 220 17:55 03.01.2020
1443 Clouds 0 1007 91 10000 6 220 17:37 03.01.2020
1444 Clouds 0 1007 91 10000 6 220 17:37 03.01.2020
1445 Clouds 1 1007 92 10000 6 220 17:18 03.01.2020
1446 Clouds 0 1007 92 10000 6 220 17:18 03.01.2020
1447 Clouds 1 1007 86 10000 6 220 16:42 03.01.2020
1448 Clouds 1 1007 86 10000 6 220 16:22 03.01.2020
1449 Clouds 1 1008 86 10000 7 230 15:44 03.01.2020
1450 Clouds 1 1008 86 10000 7 230 15:19 03.01.2020
1451 Clouds 1 1008 86 10000 6 220 14:59 03.01.2020
1452 Clouds 2 1008 86 10000 7 230 14:38 03.01.2020
1453 Clouds 2 1008 86 10000 7 230 14:19 03.01.2020
1454 Clouds 2 1008 90 10000 8 230 13:44 03.01.2020
1455 Clouds 2 1008 90 10000 8 230 13:44 03.01.2020
1456 Clouds 2 1008 90 10000 8 230 13:44 03.01.2020
1457 Clouds 2 1008 91 10000 8 230 13:24 03.01.2020
1458 Clouds 2 1008 91 10000 8 240 12:59 03.01.2020
1459 Clouds 2 1008 91 10000 8 240 12:39 03.01.2020
1460 Clouds 2 1008 91 10000 8 240 12:21 03.01.2020
1461 Clouds 2 1008 91 10000 8 240 11:45 03.01.2020
1462 Clouds 2 1009 94 10000 8 240 11:23 03.01.2020
1463 Clouds 2 1009 94 10000 8 230 10:46 03.01.2020
1464 Clouds 2 1009 94 10000 7 230 10:27 03.01.2020
1465 Clouds 2 1009 94 10000 8 240 09:58 03.01.2020
1466 Clouds 2 1010 94 10000 8 230 09:40 03.01.2020
1467 Clouds 1 1010 94 10000 8 230 09:22 03.01.2020
1468 Drizzle 2 1010 94 10000 7 230 08:57 03.01.2020
1469 Drizzle 1 1010 94 10000 7 230 08:38 03.01.2020
1470 Drizzle 2 1010 94 10000 7 230 08:19 03.01.2020
1471 Drizzle 2 1010 94 10000 8 240 07:40 03.01.2020
1472 Drizzle 1 1010 94 10000 8 240 07:19 03.01.2020
1473 Clouds 2 1010 94 10000 7 240 06:51 03.01.2020
1474 Clouds 1 1010 94 9000 7 240 06:33 03.01.2020
1475 Clouds 1 1009 100 9000 7 240 05:47 03.01.2020
1476 Clouds 1 1010 100 10000 7 250 04:27 03.01.2020
1477 Clouds 2 1010 100 10000 6 260 02:59 03.01.2020
1478 Clouds 2 1010 93 10000 6 250 02:41 03.01.2020
1479 Clouds 2 1010 93 10000 5 240 01:45 03.01.2020
1480 Clouds 2 1011 100 10000 5 240 00:53 03.01.2020
1481 Clouds 2 1011 93 10000 5 250 00:31 03.01.2020
1482 Clouds 2 1011 95 10000 5 260 23:58 02.01.2020
1483 Clouds 2 1010 93 10000 5 260 23:39 02.01.2020
1484 Clouds 2 1010 93 10000 5 260 23:19 02.01.2020
1485 Clouds 2 1010 96 10000 5 270 22:57 02.01.2020
1486 Clouds 2 1010 96 10000 5 280 22:39 02.01.2020
1487 Clouds 2 1010 96 10000 5 280 22:18 02.01.2020
1488 Drizzle 2 1010 93 10000 6 290 21:54 02.01.2020
1489 Drizzle 2 1009 96 10000 5 270 21:36 02.01.2020
1490 Drizzle 2 1009 96 10000 5 270 21:18 02.01.2020
1491 Drizzle 2 1010 96 10000 5 280 20:40 02.01.2020
1492 Drizzle 2 1010 92 10000 5 280 20:21 02.01.2020
1493 Drizzle 2 1009 92 9000 5 270 19:56 02.01.2020
1494 Drizzle 2 1009 92 9000 5 270 19:56 02.01.2020
1495 Drizzle 2 1009 92 9000 5 260 19:38 02.01.2020
1496 Drizzle 2 1009 92 9000 5 260 19:19 02.01.2020
1497 Drizzle 2 1009 92 9000 5 260 18:59 02.01.2020
1498 Drizzle 2 1009 92 9000 5 260 18:40 02.01.2020
1499 Drizzle 2 1009 92 9000 4 250 18:22 02.01.2020
1500 Drizzle 2 1009 92 9000 4 250 18:22 02.01.2020
1501 Drizzle 2 1009 92 9000 4 250 18:22 02.01.2020
1502 Drizzle 2 1009 92 9000 5 260 17:57 02.01.2020
1503 Drizzle 2 1008 92 9000 6 270 17:38 02.01.2020
1504 Drizzle 2 1008 92 9000 6 270 17:19 02.01.2020
1505 Drizzle 2 1008 92 9000 5 270 16:57 02.01.2020
1506 Clouds 2 1008 92 10000 6 280 16:38 02.01.2020
1507 Clouds 2 1008 92 10000 6 280 16:20 02.01.2020
1508 Clouds 2 1008 92 10000 6 280 15:56 02.01.2020
1509 Clouds 1 1007 92 10000 5 280 15:37 02.01.2020
1510 Clouds 1 1007 92 10000 6 280 15:19 02.01.2020
1511 Clouds 1 1007 92 10000 6 280 14:55 02.01.2020
1512 Clouds 1 1007 92 10000 6 260 14:36 02.01.2020
1513 Clouds 1 1006 89 10000 8 260 14:18 02.01.2020
1514 Clouds 1 1006 89 10000 8 260 13:47 02.01.2020
1515 Rain 1 1006 89 10000 7 260 13:29 02.01.2020
1516 Snow 1 1006 89 6000 7 260 12:45 02.01.2020
1517 Rain 1 1006 89 3800 7 260 12:25 02.01.2020
1518 Rain 1 1006 89 3800 7 260 12:25 02.01.2020
1519 Rain 1 1006 89 2800 6 260 11:44 02.01.2020
1520 Rain 1 1006 89 2800 6 260 11:26 02.01.2020
1521 Rain 1 1006 97 7000 7 260 10:58 02.01.2020
1522 Snow 0 1006 97 5000 7 250 10:39 02.01.2020
1523 Snow 0 1006 97 5000 7 250 10:19 02.01.2020
1524 Snow 0 1007 97 2300 7 250 09:42 02.01.2020
1525 Snow 0 1007 97 2300 7 250 09:24 02.01.2020
1526 Snow 0 1006 97 2200 7 240 08:45 02.01.2020
1527 Snow 0 1006 97 2200 7 240 08:45 02.01.2020
1528 Snow 0 1007 97 2200 7 250 08:27 02.01.2020
1529 Snow 0 1007 95 3700 8 240 07:50 02.01.2020
1530 Snow 0 1006 95 8000 7 240 07:30 02.01.2020
1531 Snow 0 1006 95 6000 7 240 06:45 02.01.2020
1532 Snow 0 1007 95 3600 7 240 06:26 02.01.2020
1533 Snow -1 1007 95 10000 7 240 05:21 02.01.2020
1534 Snow -1 1008 92 5000 6 240 04:31 02.01.2020
1535 Snow -1 1009 92 3300 5 230 02:37 02.01.2020
1536 Snow -1 1010 92 9000 6 240 01:58 02.01.2020
1537 Snow -1 1010 92 7000 5 220 01:33 02.01.2020
1538 Snow -1 1010 92 7000 5 220 01:33 02.01.2020
1539 Snow -2 1010 92 9000 5 220 00:57 02.01.2020
1540 Snow -2 1011 92 7000 6 240 00:33 02.01.2020
1541 Clouds -2 1011 92 7000 6 240 23:49 01.01.2020
1542 Clouds -2 1011 100 8000 6 240 23:27 01.01.2020
1543 Clouds -2 1011 92 7000 5 240 22:56 01.01.2020
1544 Clouds -2 1011 92 10000 6 240 22:38 01.01.2020
1545 Clouds -2 1011 92 10000 6 240 22:19 01.01.2020
1546 Clouds -2 1011 92 8000 6 250 21:56 01.01.2020
1547 Clouds -2 1012 92 9000 5 260 21:37 01.01.2020
1548 Clouds -2 1012 92 9000 5 260 21:18 01.01.2020
1549 Clouds -2 1012 92 9000 5 250 20:54 01.01.2020
1550 Clouds -2 1012 86 10000 5 260 20:36 01.01.2020
1551 Clouds -2 1012 86 10000 5 260 20:18 01.01.2020
1552 Clouds -2 1012 86 10000 5 260 19:54 01.01.2020
1553 Clouds -2 1012 86 10000 5 260 19:36 01.01.2020
1554 Clouds -2 1012 86 10000 5 260 19:18 01.01.2020
1555 Clouds -2 1011 79 10000 4 280 18:54 01.01.2020
1556 Clouds -2 1011 79 10000 5 270 18:36 01.01.2020
1557 Clouds -2 1011 79 10000 5 270 18:18 01.01.2020
1558 Clouds -2 1011 79 10000 5 280 17:55 01.01.2020
1559 Clouds -3 1011 79 10000 6 290 17:36 01.01.2020
1560 Clouds -3 1011 79 10000 6 290 17:18 01.01.2020
1561 Clouds -3 1011 79 10000 5 270 16:39 01.01.2020
1562 Clouds -3 1011 79 10000 5 270 16:20 01.01.2020
1563 Clouds -4 1011 79 10000 5 260 15:57 01.01.2020
1564 Clouds -4 1011 79 10000 5 260 15:39 01.01.2020
1565 Clouds -4 1011 79 10000 5 260 15:20 01.01.2020
1566 Clouds -3 1011 79 10000 5 280 14:56 01.01.2020
1567 Clear -3 1010 73 10000 5 280 14:38 01.01.2020
1568 Clouds -3 1010 73 10000 5 280 14:20 01.01.2020
1569 Clouds -3 1010 68 10000 5 300 13:55 01.01.2020
1570 Clouds -2 1009 68 10000 6 310 13:37 01.01.2020
1571 Clouds -2 1009 68 10000 6 310 13:37 01.01.2020
1572 Clouds -2 1009 68 10000 6 310 13:18 01.01.2020
1573 Clouds -2 1009 73 10000 6 320 12:55 01.01.2020
1574 Clouds -2 1009 68 10000 7 310 12:37 01.01.2020
1575 Clouds -2 1009 68 10000 7 310 12:18 01.01.2020
1576 Clouds -2 1009 63 10000 6 310 11:43 01.01.2020
1577 Snow -2 1008 74 10000 6 320 11:21 01.01.2020
1578 Snow -2 1008 79 9000 5 330 10:58 01.01.2020
1579 Snow -2 1008 74 10000 5 340 10:39 01.01.2020
1580 Snow -2 1008 74 10000 5 340 10:20 01.01.2020
1581 Snow -2 1007 68 10000 5 340 09:55 01.01.2020
1582 Clouds -1 1007 68 10000 5 340 09:36 01.01.2020
1583 Clouds -1 1007 68 10000 5 340 09:18 01.01.2020
1584 Clouds -1 1006 74 10000 5 340 08:54 01.01.2020
1585 Clouds -1 1005 74 10000 8 340 08:36 01.01.2020
1586 Clouds -1 1005 74 10000 8 340 08:18 01.01.2020
1587 Clouds 0 1004 90 10000 6 350 07:45 01.01.2020
1588 Snow 0 1004 80 10000 7 340 07:26 01.01.2020
1589 Snow 1 1003 90 7000 5 360 06:44 01.01.2020
1590 Snow 1 1002 90 9000 7 350 06:19 01.01.2020
1591 Snow 1 1000 86 4000 7 350 04:44 01.01.2020
1592 Rain 1 997 90 9000 4 330 03:43 01.01.2020
1593 Rain 1 997 90 9000 4 330 03:22 01.01.2020
1594 Rain 1 997 90 8000 5 320 02:55 01.01.2020
1595 Rain 1 996 90 10000 5 310 02:32 01.01.2020
1596 Rain 1 995 97 10000 5 310 01:45 01.01.2020
1597 Drizzle 1 995 97 10000 4 300 01:25 01.01.2020
1598 Drizzle 2 995 97 8000 5 300 00:57 01.01.2020
1599 Snow 2 995 100 7000 4 290 00:38 01.01.2020
1600 Snow 2 995 100 7000 4 290 00:20 01.01.2020
1601 Drizzle 2 994 97 10000 5 280 23:40 31.12.2019
1602 Drizzle 2 994 97 10000 5 280 23:21 31.12.2019
1603 Drizzle 2 994 97 9000 5 280 22:57 31.12.2019
1604 Clouds 2 993 97 9000 5 280 22:38 31.12.2019
1605 Rain 2 993 97 9000 5 280 22:18 31.12.2019
1606 Rain 2 993 97 10000 5 280 21:56 31.12.2019
1607 Rain 2 993 97 10000 5 270 21:37 31.12.2019
1608 Rain 2 993 97 10000 5 270 21:19 31.12.2019
1609 Rain 2 993 97 10000 5 270 21:19 31.12.2019
1610 Rain 2 993 93 10000 5 280 20:54 31.12.2019
1611 -273 0 0 0 0 0 20:36 31.12.2019
1612 Clouds 2 992 93 9000 5 270 20:18 31.12.2019
1613 Rain 2 992 93 9000 6 260 19:41 31.12.2019
1614 Rain 2 992 93 9000 6 260 19:22 31.12.2019
1615 Clouds 2 992 93 10000 6 260 18:59 31.12.2019
1616 Clouds 2 992 100 10000 6 260 18:40 31.12.2019
1617 Clouds 2 992 100 10000 6 260 18:20 31.12.2019
1618 Rain 2 992 100 10000 6 260 17:56 31.12.2019
1619 Snow 1 992 97 10000 6 250 17:38 31.12.2019
1620 Snow 1 992 97 10000 6 250 17:19 31.12.2019
1621 Snow 2 992 93 9000 7 250 16:57 31.12.2019
1622 Snow 2 992 93 10000 6 250 16:38 31.12.2019
1623 Snow 2 992 93 10000 6 250 16:19 31.12.2019
1624 Clouds 2 992 100 9000 6 260 15:57 31.12.2019
1625 Clouds 1 991 97 10000 6 260 15:39 31.12.2019
1626 Clouds 1 991 97 10000 6 260 15:21 31.12.2019
1627 Snow 1 991 97 10000 6 250 14:58 31.12.2019
1628 Snow 1 991 97 10000 6 260 14:39 31.12.2019
1629 Snow 1 991 98 10000 6 260 14:19 31.12.2019
1630 Snow 1 992 98 10000 5 250 13:58 31.12.2019
1631 Snow 1 991 98 8000 5 240 13:40 31.12.2019
1632 Snow 1 991 98 8000 5 240 13:21 31.12.2019
1633 Snow 1 991 100 10000 6 250 12:58 31.12.2019
1634 Clouds 1 991 98 10000 5 250 12:40 31.12.2019
1635 Clouds 1 991 98 10000 5 250 12:20 31.12.2019
1636 Clouds 1 992 98 10000 5 240 11:56 31.12.2019
1637 Clouds 1 992 98 10000 5 250 11:38 31.12.2019
1638 Clouds 1 992 97 10000 5 250 11:20 31.12.2019
1639 Clouds 1 992 97 10000 5 240 10:58 31.12.2019
1640 Clouds 1 992 97 10000 5 250 10:38 31.12.2019
1641 Clouds 1 992 97 10000 5 250 10:20 31.12.2019
1642 Clouds 1 992 97 10000 6 240 09:59 31.12.2019
1643 Clouds 1 993 97 10000 7 250 09:39 31.12.2019
1644 Clouds 1 993 97 10000 7 250 09:20 31.12.2019
1645 Clouds 1 992 97 10000 9 250 08:57 31.12.2019
1646 Clouds 1 992 97 10000 8 250 08:39 31.12.2019
1647 Clouds 1 992 97 10000 8 250 08:19 31.12.2019
1648 Drizzle 1 993 97 10000 7 250 07:43 31.12.2019
1649 Drizzle 1 993 97 10000 7 250 07:20 31.12.2019
1650 Drizzle 1 993 97 9000 8 250 06:50 31.12.2019
1651 Rain 1 994 97 10000 6 260 05:57 31.12.2019
1652 Clouds 0 994 93 10000 8 250 04:29 31.12.2019
1653 Drizzle 0 994 93 10000 8 250 03:28 31.12.2019
1654 Drizzle 0 994 93 6000 8 250 02:54 31.12.2019
1655 Drizzle 0 994 93 6000 8 250 02:54 31.12.2019
1656 Mist 0 994 85 4300 7 250 02:18 31.12.2019
1657 Mist 0 995 85 4500 8 250 01:42 31.12.2019
1658 Snow 0 995 91 9000 8 250 01:23 31.12.2019
1659 Snow -1 995 91 2400 9 250 00:46 31.12.2019
1660 Snow -1 995 91 2400 9 250 00:22 31.12.2019
1661 Snow 0 996 91 5000 10 250 23:56 30.12.2019
1662 Snow -1 996 92 2100 9 250 23:38 30.12.2019
1663 Snow -1 996 92 2100 9 250 23:20 30.12.2019
1664 Snow -1 997 94 10000 11 250 22:58 30.12.2019
1665 Clouds 0 997 94 7000 10 250 22:39 30.12.2019
1666 Clouds -1 997 94 7000 10 250 22:20 30.12.2019
1667 Clouds -1 997 94 9000 10 240 21:57 30.12.2019
1668 Clouds -1 998 94 6000 10 250 21:38 30.12.2019
1669 Clouds -1 998 94 6000 10 250 21:38 30.12.2019
1670 Clouds -1 998 94 6000 10 250 21:19 30.12.2019
1671 Mist -1 998 94 4800 10 250 20:56 30.12.2019
1672 Mist -1 999 94 3500 10 250 20:38 30.12.2019
1673 Mist -1 999 92 3500 10 250 20:20 30.12.2019
1674 Mist -1 999 92 5000 10 240 19:57 30.12.2019
1675 Clouds -1 1000 92 5000 9 240 19:38 30.12.2019
1676 Clouds -1 1000 92 5000 9 240 19:19 30.12.2019
1677 Clouds -1 1000 92 6000 9 240 18:57 30.12.2019
1678 Snow -1 1001 86 6000 9 230 18:38 30.12.2019
1679 Snow -1 1001 86 6000 9 230 18:20 30.12.2019
1680 Snow -1 1002 86 3000 9 230 17:55 30.12.2019
1681 Snow -1 1003 92 4300 10 230 17:37 30.12.2019
1682 Snow -2 1003 92 4300 10 230 17:18 30.12.2019
1683 Snow -2 1003 92 4400 9 230 16:57 30.12.2019
1684 Snow -2 1004 86 8000 10 230 16:37 30.12.2019
1685 Snow -2 1004 86 8000 10 230 16:37 30.12.2019
1686 Snow -2 1004 86 8000 10 230 16:18 30.12.2019
1687 Snow -2 1005 86 4500 7 220 15:55 30.12.2019
1688 Snow -3 1006 92 1200 7 220 15:37 30.12.2019
1689 Snow -3 1007 86 2600 7 220 15:18 30.12.2019
1690 Snow -3 1008 86 2300 7 220 14:43 30.12.2019
1691 Snow -3 1007 86 2600 7 220 14:43 30.12.2019
1692 Snow -3 1008 86 2300 7 220 14:20 30.12.2019
1693 Snow -3 1009 86 2400 8 220 13:58 30.12.2019
1694 Clouds -3 1009 86 5000 8 220 13:40 30.12.2019
1695 Clouds -3 1009 86 5000 8 220 13:21 30.12.2019
1696 Clouds -3 1010 85 7000 8 220 12:56 30.12.2019
1697 Snow -3 1011 85 6000 8 220 12:37 30.12.2019
1698 Snow -3 1011 85 6000 8 220 12:18 30.12.2019
1699 Clouds -4 1013 85 10000 7 220 11:42 30.12.2019
1700 Clouds -4 1013 85 10000 7 220 11:20 30.12.2019
1701 Snow -4 1014 85 7000 9 220 10:58 30.12.2019
1702 Snow -4 1015 85 4200 7 210 10:40 30.12.2019
1703 Snow -4 1015 85 4200 7 210 10:19 30.12.2019
1704 Snow -4 1017 79 10000 9 210 09:42 30.12.2019
1705 Snow -4 1017 79 10000 9 210 09:20 30.12.2019
1706 Clouds -4 1017 85 10000 7 210 08:56 30.12.2019
1707 Clouds -4 1018 85 10000 8 220 08:38 30.12.2019
1708 Clouds -4 1018 85 10000 8 220 08:18 30.12.2019
1709 Snow -4 1020 85 10000 8 220 07:42 30.12.2019
1710 Snow -4 1020 85 10000 9 230 06:59 30.12.2019
1711 Snow -4 1021 85 10000 8 230 06:29 30.12.2019
1712 Clouds -4 1023 85 10000 8 230 04:23 30.12.2019
1713 Clouds -4 1023 85 10000 6 230 03:42 30.12.2019
1714 Clouds -4 1025 92 10000 7 240 02:41 30.12.2019
1715 Clouds -4 1025 92 10000 7 240 02:21 30.12.2019
1716 Clouds -3 1027 86 10000 5 270 01:27 30.12.2019
1717 Clouds -4 1026 85 10000 6 230 00:51 30.12.2019
1718 Clouds -4 1026 85 10000 6 240 00:28 30.12.2019
1719 Clouds -4 1027 85 10000 7 240 23:40 29.12.2019
1720 Clouds -3 1027 85 10000 7 240 23:22 29.12.2019
1721 Clouds -3 1027 92 10000 5 240 22:57 29.12.2019
1722 Snow -3 1027 85 10000 5 240 22:38 29.12.2019
1723 Snow -3 1027 85 10000 5 240 22:20 29.12.2019
1724 Snow -3 1028 85 10000 6 250 21:55 29.12.2019
1725 Snow -3 1028 85 10000 6 240 21:37 29.12.2019
1726 Snow -3 1028 85 10000 6 240 21:18 29.12.2019
1727 Snow -3 1029 92 10000 5 240 20:55 29.12.2019
1728 Snow -3 1028 85 10000 5 240 20:37 29.12.2019
1729 Snow -3 1028 85 10000 5 240 20:18 29.12.2019
1730 Snow -3 1029 85 8000 5 230 19:55 29.12.2019
1731 Snow -4 1029 92 10000 4 240 19:37 29.12.2019
1732 Snow -4 1029 92 10000 4 240 19:18 29.12.2019
1733 Snow -4 1029 92 10000 4 250 18:54 29.12.2019
1734 Clouds -4 1029 85 10000 3 250 18:36 29.12.2019
1735 Clouds -4 1029 85 10000 3 250 18:18 29.12.2019
1736 Clouds -4 1030 85 10000 4 260 17:55 29.12.2019
1737 Clouds -4 1030 85 10000 2 290 17:36 29.12.2019
1738 Clouds -4 1030 85 10000 2 290 17:18 29.12.2019
1739 Snow -4 1030 85 10000 2 290 16:54 29.12.2019
1740 Snow -4 1030 85 10000 2 290 16:36 29.12.2019
1741 Snow -4 1030 85 10000 2 290 16:18 29.12.2019
1742 Snow -4 1030 85 10000 3 300 15:55 29.12.2019
1743 Clouds -3 1030 85 10000 2 360 15:37 29.12.2019
1744 Clouds -3 1030 86 10000 2 320 15:18 29.12.2019
1745 Clouds -3 1030 86 10000 2 320 14:55 29.12.2019
1746 Clouds -3 1030 92 10000 3 20 14:37 29.12.2019
1747 Clouds -3 1030 92 10000 3 20 14:18 29.12.2019
1748 Clouds -3 1030 92 10000 4 310 13:40 29.12.2019
1749 Clouds -3 1030 92 10000 4 310 13:40 29.12.2019
1750 Clouds -3 1030 92 10000 4 310 13:22 29.12.2019
1751 Clouds -3 1030 86 10000 2 350 12:59 29.12.2019
1752 Clouds -3 1030 85 10000 2 310 12:41 29.12.2019
1753 Clouds -3 1030 85 10000 2 310 12:22 29.12.2019
1754 Snow -3 1030 85 10000 2 340 11:54 29.12.2019
1755 Snow -3 1030 85 10000 2 310 11:36 29.12.2019
1756 Snow -3 1030 85 10000 2 310 11:18 29.12.2019
1757 Snow -3 1030 85 10000 3 350 10:41 29.12.2019
1758 Snow -3 1030 85 10000 3 350 10:21 29.12.2019
1759 Snow -3 1031 85 10000 3 350 09:54 29.12.2019
1760 Snow -3 1030 85 10000 3 20 09:36 29.12.2019
1761 Snow -3 1030 85 10000 3 20 09:18 29.12.2019
1762 Snow -3 1030 85 10000 4 20 08:46 29.12.2019
1763 Snow -3 1030 85 10000 3 360 08:24 29.12.2019
1764 Snow -3 1030 85 10000 4 20 07:54 29.12.2019
1765 Snow -3 1030 85 10000 4 10 07:28 29.12.2019
1766 Snow -3 1030 85 10000 4 10 06:53 29.12.2019
1767 Snow -3 1030 85 10000 4 10 06:23 29.12.2019
1768 Snow -3 1030 85 10000 4 10 05:50 29.12.2019
1769 Clouds -3 1028 86 10000 4 30 04:35 29.12.2019
1770 Clouds -3 1028 86 10000 3 40 03:43 29.12.2019
1771 Clouds -3 1028 86 10000 3 40 03:19 29.12.2019
1772 Snow -3 1028 85 10000 5 360 02:20 29.12.2019
1773 Snow -3 1028 85 10000 5 360 02:20 29.12.2019
1774 Snow -3 1028 92 10000 4 10 01:31 29.12.2019
1775 Snow -3 1028 86 10000 4 20 00:57 29.12.2019
1776 Snow -3 1028 86 10000 4 10 00:39 29.12.2019
1777 Snow -3 1028 86 10000 4 10 00:21 29.12.2019
1778 Snow -2 1028 86 10000 4 20 23:42 28.12.2019
1779 Snow -2 1028 86 10000 4 20 23:42 28.12.2019
1780 Clouds -2 1027 79 10000 6 40 23:18 28.12.2019
1781 Clouds -2 1026 86 10000 4 50 22:39 28.12.2019
1782 Clouds -2 1026 86 10000 4 50 22:39 28.12.2019
1783 Clouds -2 1027 86 10000 5 10 22:20 28.12.2019
1784 Clouds -2 1027 86 10000 6 20 21:58 28.12.2019
1785 Clouds -2 1027 86 10000 6 20 21:58 28.12.2019
1786 Snow -2 1027 86 10000 7 10 21:39 28.12.2019
1787 Snow -2 1027 86 10000 7 10 21:21 28.12.2019
1788 Snow -2 1027 86 10000 7 10 21:21 28.12.2019
1789 Clouds -2 1026 74 10000 5 30 20:57 28.12.2019
1790 Snow -1 1026 86 10000 5 20 20:37 28.12.2019
1791 Snow -1 1026 86 10000 5 20 20:19 28.12.2019
1792 Snow -2 1026 86 10000 5 10 19:56 28.12.2019
1793 Snow -1 1026 86 10000 5 10 19:38 28.12.2019
1794 Snow -1 1026 86 10000 5 10 19:19 28.12.2019
1795 Snow -1 1025 92 10000 4 10 18:56 28.12.2019
1796 Snow -1 1025 92 10000 4 10 18:56 28.12.2019
1797 Snow -1 1025 92 9000 5 20 18:38 28.12.2019
1798 Snow -1 1024 92 10000 5 10 18:18 28.12.2019
1799 Snow -1 1024 92 10000 5 10 17:54 28.12.2019
1800 Snow -1 1024 92 10000 5 10 17:36 28.12.2019
1801 Snow -1 1024 92 10000 5 10 17:18 28.12.2019
1802 Snow -1 1024 92 9000 5 10 16:45 28.12.2019
1803 Snow -1 1024 92 7000 5 20 16:24 28.12.2019
1804 Snow -1 1023 92 8000 6 10 15:44 28.12.2019
1805 Snow -1 1023 92 8000 6 10 15:24 28.12.2019
1806 Snow -1 1023 92 7000 6 10 14:58 28.12.2019
1807 Clouds 0 1022 86 10000 5 10 14:38 28.12.2019
1808 Clouds 0 1022 86 10000 5 10 14:20 28.12.2019
1809 Clouds -1 1022 86 10000 5 10 13:43 28.12.2019
1810 Snow 0 1022 86 7000 5 20 13:23 28.12.2019
1811 Snow 0 1021 86 10000 5 20 12:59 28.12.2019
1812 Snow -1 1021 86 9000 6 20 12:41 28.12.2019
1813 Snow -1 1021 86 9000 6 20 12:23 28.12.2019
1814 Snow -1 1021 92 3700 4 360 11:56 28.12.2019
1815 Snow -1 1020 92 5000 5 10 11:37 28.12.2019
1816 Snow -1 1020 87 9000 5 30 11:18 28.12.2019
1817 Snow -1 1020 87 9000 5 30 10:43 28.12.2019
1818 Clouds -1 1020 87 10000 6 30 10:21 28.12.2019
1819 Snow -1 1020 87 10000 5 40 09:57 28.12.2019
1820 Snow -1 1020 87 9000 4 30 09:39 28.12.2019
1821 Snow -1 1020 87 9000 4 30 09:19 28.12.2019
1822 Snow -2 1019 87 10000 4 40 08:44 28.12.2019
1823 Snow -2 1019 92 10000 4 30 08:26 28.12.2019
1824 Snow -2 1019 92 9000 3 30 07:49 28.12.2019
1825 Clouds -2 1018 92 9000 4 30 07:27 28.12.2019
1826 Snow -2 1018 92 10000 4 50 06:27 28.12.2019
1827 Clouds -3 1016 92 10000 5 40 04:36 28.12.2019
1828 Clouds -3 1016 92 10000 5 30 03:39 28.12.2019
1829 Clouds -3 1016 92 10000 4 40 02:48 28.12.2019
1830 Clouds -3 1015 92 10000 5 50 01:59 28.12.2019
1831 Clouds -3 1015 92 10000 5 40 01:30 28.12.2019
1832 Clouds -2 1015 86 9000 6 30 00:58 28.12.2019
1833 Clouds -3 1014 86 7000 4 30 00:38 28.12.2019
1834 Clouds -3 1014 86 7000 4 30 00:19 28.12.2019
1835 Clouds -2 1014 92 7000 5 40 23:43 27.12.2019
1836 Snow -2 1014 92 8000 4 30 23:20 27.12.2019
1837 Snow -2 1014 92 8000 4 30 22:58 27.12.2019
1838 Snow -2 1014 92 8000 5 30 22:39 27.12.2019
1839 Snow -2 1014 92 8000 5 30 22:20 27.12.2019
1840 Clouds -2 1013 92 8000 4 30 21:56 27.12.2019
1841 Clouds -2 1013 92 9000 5 50 21:37 27.12.2019
1842 Clouds -2 1013 92 9000 4 30 21:19 27.12.2019
1843 Clouds -1 1013 92 9000 4 30 20:42 27.12.2019
1844 Clouds -1 1012 92 9000 4 40 20:23 27.12.2019
1845 Clouds -1 1012 92 9000 3 40 19:43 27.12.2019
1846 Clouds -1 1012 92 10000 3 40 19:21 27.12.2019
1847 Clouds -1 1012 86 10000 4 40 18:59 27.12.2019
1848 Clouds -1 1012 86 10000 4 40 18:40 27.12.2019
1849 Clouds -1 1012 92 9000 4 40 18:21 27.12.2019
1850 Clouds -1 1011 92 9000 3 20 17:58 27.12.2019
1851 Clouds -1 1011 92 6000 3 30 17:40 27.12.2019
1852 Clouds -1 1011 92 6000 3 30 17:19 27.12.2019
1853 Clouds -1 1011 92 6000 3 50 16:59 27.12.2019
1854 Clouds -1 1011 92 8000 4 40 16:39 27.12.2019
1855 Clouds -1 1011 92 8000 4 40 16:20 27.12.2019
1856 Clouds -1 1011 92 8000 3 50 15:45 27.12.2019
1857 Clouds -1 1010 92 6000 3 20 15:23 27.12.2019
1858 Clouds -1 1010 92 6000 4 30 14:58 27.12.2019
1859 Clouds -1 1010 81 9000 3 60 14:40 27.12.2019
1860 Clouds -1 1010 85 9000 3 60 14:21 27.12.2019
1861 Clouds -1 1010 85 9000 3 70 13:57 27.12.2019
1862 Clouds -1 1010 92 9000 3 80 13:39 27.12.2019
1863 Clouds -1 1010 92 9000 3 80 13:39 27.12.2019
1864 Clouds -1 1010 92 9000 3 80 13:39 27.12.2019
1865 Clouds -1 1010 92 9000 3 80 13:21 27.12.2019
1866 Clouds -1 1009 95 10000 3 80 12:44 27.12.2019
1867 Clouds -1 1009 95 10000 3 80 12:25 27.12.2019
1868 Clouds -1 1009 100 8000 2 100 11:55 27.12.2019
1869 Clouds -1 1009 95 10000 3 70 11:37 27.12.2019
1870 Clouds -1 1009 91 10000 3 70 11:18 27.12.2019
1871 Clouds -1 1009 91 10000 3 80 10:41 27.12.2019
1872 Clouds -1 1009 91 10000 3 80 10:23 27.12.2019
1873 Mist -1 1009 100 5000 2 90 09:49 27.12.2019
1874 Clouds -1 1009 100 4600 2 90 09:22 27.12.2019
1875 Clouds -1 1009 91 8000 3 70 08:59 27.12.2019
1876 Clouds -1 1009 91 9000 3 70 08:41 27.12.2019
1877 Clouds -1 1009 70 9000 3 70 08:22 27.12.2019
1878 Clouds -1 1009 92 10000 3 70 07:38 27.12.2019
1879 Clouds -1 1009 92 10000 3 70 06:59 27.12.2019
1880 Clouds -1 1009 100 10000 3 80 06:23 27.12.2019
1881 Clouds -1 1008 92 7000 3 70 04:39 27.12.2019
1882 Mist -1 1009 100 5000 3 90 02:28 27.12.2019
1883 Mist -1 1009 100 4900 3 100 01:45 27.12.2019
1884 Mist -1 1009 100 3200 3 80 01:23 27.12.2019
1885 Mist -1 1009 100 2000 3 90 00:47 27.12.2019
1886 Fog -1 1009 100 1000 3 90 00:27 27.12.2019
1887 Fog -1 1009 100 1200 3 80 23:56 26.12.2019
1888 Mist -1 1009 100 1100 3 80 23:37 26.12.2019
1889 Mist -1 1009 100 1100 3 80 23:19 26.12.2019
1890 Fog -1 1009 100 650 3 100 22:40 26.12.2019
1891 Fog -1 1009 100 650 3 100 22:19 26.12.2019
1892 Fog -1 1009 100 800 3 90 21:40 26.12.2019
1893 Fog -1 1009 100 550 3 90 21:21 26.12.2019
1894 Fog -1 1009 100 400 3 80 20:59 26.12.2019
1895 Fog -1 1009 100 500 3 90 20:40 26.12.2019
1896 Fog -1 1009 100 500 3 90 20:22 26.12.2019
1897 Fog -1 1009 100 1100 3 90 19:56 26.12.2019
1898 Mist -1 1009 100 2100 2 110 19:38 26.12.2019
1899 Mist -1 1009 100 2100 2 110 19:20 26.12.2019
1900 Mist -1 1009 100 2900 3 110 18:57 26.12.2019
1901 Snow -1 1009 100 3200 3 90 18:37 26.12.2019
1902 Snow -1 1009 100 3200 3 90 18:18 26.12.2019
1903 Snow -1 1009 100 3700 3 80 17:42 26.12.2019
1904 Snow -1 1009 100 2800 3 90 17:22 26.12.2019
1905 Snow -1 1010 100 1200 3 90 16:51 26.12.2019
1906 Snow -1 1010 100 650 3 90 16:29 26.12.2019
1907 Snow -1 1010 100 1000 3 90 15:59 26.12.2019
1908 Snow -1 1010 100 1200 3 80 15:40 26.12.2019
1909 Snow -1 1010 100 1200 3 80 15:19 26.12.2019
1910 Fog -1 1010 77 1200 3 100 14:43 26.12.2019
1911 Fog -1 1010 77 1200 3 100 14:24 26.12.2019
1912 Fog -1 1010 74 1200 3 100 14:24 26.12.2019
1913 Fog -1 1010 74 1200 3 100 14:24 26.12.2019
1914 Fog -1 1010 74 1200 3 100 14:24 26.12.2019
1915 Fog -1 1010 74 1900 3 80 13:58 26.12.2019
1916 Snow -1 1010 74 1900 3 70 13:40 26.12.2019
1917 Mist -1 1010 76 1300 3 70 13:19 26.12.2019
1918 Mist -1 1010 76 1300 3 70 12:56 26.12.2019
1919 Mist -1 1010 76 1800 3 80 12:37 26.12.2019
1920 Mist -1 1010 76 1800 3 80 12:18 26.12.2019
1921 Mist -1 1009 76 1900 3 90 11:42 26.12.2019
1922 Mist -1 1010 77 2100 3 80 11:23 26.12.2019
1923 Mist -1 1010 77 1900 3 90 10:57 26.12.2019
1924 Mist -1 1010 77 1900 3 90 10:57 26.12.2019
1925 Mist -1 1010 77 2100 4 80 10:39 26.12.2019
1926 Mist -1 1010 77 2100 4 80 10:18 26.12.2019
1927 Mist -1 1010 77 1900 3 80 09:42 26.12.2019
1928 Mist -1 1010 77 1600 3 90 09:24 26.12.2019
1929 Mist -1 1010 77 1600 3 110 08:42 26.12.2019
1930 Mist -1 1010 83 1500 3 100 08:23 26.12.2019
1931 Fog -1 1010 85 1000 4 80 07:52 26.12.2019
1932 Fog -1 1010 85 1200 4 100 07:26 26.12.2019
1933 Fog -1 1010 85 700 3 100 06:52 26.12.2019
1934 Fog -1 1010 85 400 3 100 06:31 26.12.2019
1935 Fog -1 1010 85 800 4 90 05:45 26.12.2019
1936 Fog 0 1010 84 1100 3 100 04:48 26.12.2019
1937 Fog 0 1010 84 700 3 100 04:29 26.12.2019
1938 Fog 0 1010 84 1100 3 90 02:54 26.12.2019
1939 Fog 0 1010 84 1000 3 80 02:34 26.12.2019
1940 Fog 0 1010 82 2200 2 120 01:46 26.12.2019
1941 Mist 0 1010 84 2300 3 120 01:27 26.12.2019
1942 Mist 0 1010 84 2200 2 110 00:48 26.12.2019
1943 Mist 0 1010 84 2200 3 120 00:25 26.12.2019
1944 Mist 0 1010 84 2300 3 120 23:58 25.12.2019
1945 Mist 0 1010 84 2500 2 140 23:39 25.12.2019
1946 Mist 0 1010 84 2500 2 140 23:21 25.12.2019
1947 Mist 0 1010 84 2700 2 140 22:58 25.12.2019
1948 Mist 0 1010 84 3000 2 130 22:38 25.12.2019
1949 Mist 0 1010 84 3000 2 130 22:20 25.12.2019
1950 Mist 0 1010 84 2800 2 160 21:58 25.12.2019
1951 Mist 0 1010 84 2800 2 160 21:39 25.12.2019
1952 Mist 0 1010 84 3100 2 170 21:20 25.12.2019
1953 Mist 0 1010 84 2900 2 150 20:54 25.12.2019
1954 Mist 0 1010 84 3300 2 150 20:36 25.12.2019
1955 Mist 0 1010 91 3300 2 150 20:18 25.12.2019
1956 Mist 0 1010 91 3300 3 160 19:43 25.12.2019
1957 Mist 0 1010 91 3100 3 150 19:23 25.12.2019
1958 Mist 0 1010 91 3200 3 140 18:58 25.12.2019
1959 Mist 0 1010 91 2800 3 160 18:37 25.12.2019
1960 -273 0 0 0 0 0 18:18 25.12.2019
1961 Mist 0 1010 91 3200 3 110 17:41 25.12.2019
1962 Mist 0 1010 89 3200 3 110 17:19 25.12.2019
1963 Mist 0 1010 89 2900 3 130 16:58 25.12.2019
1964 Mist 0 1010 89 3000 3 150 16:37 25.12.2019
1965 Mist 0 1010 89 3000 3 150 16:18 25.12.2019
1966 Mist 0 1010 89 3700 3 130 15:57 25.12.2019
1967 Mist 0 1010 89 3700 3 160 15:38 25.12.2019
1968 Mist 0 1010 89 3700 3 160 15:20 25.12.2019
1969 Mist 0 1010 89 3600 2 160 14:57 25.12.2019
1970 Clouds 0 1011 89 8000 2 130 14:39 25.12.2019
1971 Clouds 0 1011 89 8000 2 130 14:39 25.12.2019
1972 Mist 0 1010 88 4000 3 130 14:20 25.12.2019
1973 Mist 0 1010 88 4000 3 130 13:44 25.12.2019
1974 Mist 0 1010 89 4000 3 150 13:21 25.12.2019
1975 Mist 0 1010 89 4300 3 140 12:57 25.12.2019
1976 Mist 0 1010 89 4500 4 130 12:38 25.12.2019
1977 Mist 0 1010 89 4500 4 130 12:38 25.12.2019
1978 Mist 0 1010 89 4500 4 130 12:19 25.12.2019
1979 Mist 1 1010 89 4700 3 170 11:43 25.12.2019
1980 Mist 1 1010 88 4800 3 150 11:22 25.12.2019
1981 Mist 1 1010 88 4700 3 150 10:59 25.12.2019
1982 Mist 0 1010 88 4600 3 160 10:37 25.12.2019
1983 Mist 0 1010 88 4600 3 160 10:19 25.12.2019
1984 Mist 1 1010 88 4300 3 140 09:44 25.12.2019
1985 Mist 1 1010 88 4300 3 140 09:26 25.12.2019
1986 Mist 1 1010 88 4600 3 160 08:46 25.12.2019
1987 Mist 1 1010 100 5000 3 160 08:26 25.12.2019
1988 Mist 1 1010 100 4100 3 160 07:48 25.12.2019
1989 Mist 1 1010 100 4600 3 170 07:29 25.12.2019
1990 Mist 1 1010 100 5000 3 150 06:49 25.12.2019
1991 Mist 1 1010 100 3000 3 170 06:22 25.12.2019
1992 Mist 1 1010 92 1700 3 150 04:50 25.12.2019
1993 Mist 0 1010 92 1200 3 160 04:26 25.12.2019
1994 Mist 0 1009 92 1300 3 160 03:58 25.12.2019
1995 Mist 0 1009 92 2100 5 140 03:40 25.12.2019
1996 Fog 0 1010 92 1400 4 150 02:39 25.12.2019
1997 Fog 0 1010 90 2000 4 150 01:59 25.12.2019
1998 Fog 0 1010 88 2100 4 150 01:25 25.12.2019
1999 Fog 0 1010 88 1000 4 140 00:50 25.12.2019
2000 Mist 0 1010 88 1600 5 130 00:29 25.12.2019
2001 Fog 0 1010 88 1100 5 130 23:56 24.12.2019
2002 Fog 0 1010 88 900 5 130 23:37 24.12.2019
2003 Fog 0 1010 95 900 5 130 23:19 24.12.2019
2004 Fog 0 1010 95 1100 5 130 22:40 24.12.2019
2005 Fog 0 1010 95 1100 5 130 22:21 24.12.2019
2006 Fog 0 1010 95 1300 5 130 21:43 24.12.2019
2007 Mist 0 1010 100 1400 5 150 21:23 24.12.2019
2008 Mist 0 1010 100 1800 5 130 20:55 24.12.2019
2009 Mist 0 1010 100 1900 5 130 20:36 24.12.2019
2010 Mist 0 1010 100 1900 5 130 20:18 24.12.2019
2011 Mist 1 1010 100 1500 4 140 19:43 24.12.2019
2012 Mist 1 1010 100 1500 4 140 19:20 24.12.2019
2013 Mist 1 1010 100 3500 4 150 18:44 24.12.2019
2014 Mist 1 1010 100 3600 4 160 18:24 24.12.2019
2015 Mist 1 1010 100 4200 4 180 17:59 24.12.2019
2016 Clouds 1 1010 100 6000 4 150 17:38 24.12.2019
2017 Mist 2 1010 93 5000 5 160 17:20 24.12.2019
2018 Mist 2 1010 93 5000 5 160 16:55 24.12.2019
2019 Mist 2 1010 100 5000 4 150 16:37 24.12.2019
2020 Mist 2 1010 100 5000 4 150 16:19 24.12.2019
2021 Clouds 2 1010 100 6000 4 140 15:55 24.12.2019
2022 Clouds 3 1010 93 6000 3 150 15:36 24.12.2019
2023 Clouds 3 1010 93 6000 3 150 15:18 24.12.2019
2024 Mist 3 1010 93 5000 4 140 14:56 24.12.2019
2025 Clouds 3 1009 93 6000 4 140 14:38 24.12.2019
2026 Clouds 3 1009 93 6000 4 140 14:20 24.12.2019
2027 Clouds 3 1009 86 6000 4 160 13:55 24.12.2019
2028 Clouds 3 1009 86 6000 3 170 13:37 24.12.2019
2029 Clouds 3 1009 86 6000 3 170 13:19 24.12.2019
2030 Mist 4 1009 93 5000 3 170 12:55 24.12.2019
2031 Mist 4 1009 93 5000 3 170 12:36 24.12.2019
2032 Mist 4 1009 93 5000 4 160 12:18 24.12.2019
2033 Mist 4 1009 93 5000 4 160 11:55 24.12.2019
2034 Mist 4 1009 93 4900 3 190 11:36 24.12.2019
2035 Mist 4 1009 93 4900 3 190 11:18 24.12.2019
2036 Mist 5 1009 93 4400 4 190 10:55 24.12.2019
2037 Mist 5 1009 93 4400 4 190 10:55 24.12.2019
2038 Mist 5 1009 100 3200 4 160 10:37 24.12.2019
2039 Mist 5 1009 100 3200 4 160 10:19 24.12.2019
2040 Mist 5 1009 93 3800 3 150 09:55 24.12.2019
2041 Mist 5 1009 93 4000 4 150 09:36 24.12.2019
2042 Mist 5 1009 93 4300 4 150 09:18 24.12.2019
2043 Mist 5 1009 93 4300 4 150 08:44 24.12.2019
2044 Mist 6 1009 100 4000 3 150 08:20 24.12.2019
2045 Mist 6 1008 100 3300 3 150 07:46 24.12.2019
2046 Mist 6 1008 100 3000 3 150 07:25 24.12.2019
2047 Mist 6 1008 100 3000 3 150 07:25 24.12.2019
2048 Mist 6 1008 100 3300 3 170 06:58 24.12.2019
2049 Rain 7 1008 100 3300 3 170 06:38 24.12.2019
2050 Rain 7 1008 100 3300 3 170 06:19 24.12.2019
2051 Rain 7 1008 100 2100 3 130 05:21 24.12.2019
2052 Rain 7 1007 100 1600 3 110 04:59 24.12.2019
2053 Rain 7 1007 100 350 3 100 03:50 24.12.2019
2054 Rain 7 1007 100 650 2 110 03:22 24.12.2019
2055 Rain 7 1007 100 1300 2 160 02:23 24.12.2019
2056 Rain 7 1007 100 1700 3 140 01:50 24.12.2019
2057 Rain 7 1007 100 2500 2 120 01:22 24.12.2019
2058 Rain 6 1007 100 3200 2 150 00:45 24.12.2019
2059 Rain 6 1007 100 3200 2 160 00:24 24.12.2019
2060 Rain 6 1007 100 3600 2 160 23:59 23.12.2019
2061 Rain 6 1006 100 3600 3 150 23:40 23.12.2019
2062 Mist 6 1006 100 3500 2 150 23:22 23.12.2019
2063 Mist 6 1006 100 3500 2 150 22:56 23.12.2019
2064 Mist 6 1006 100 3000 2 140 22:37 23.12.2019
2065 Mist 6 1006 100 3000 2 140 22:19 23.12.2019
2066 Mist 6 1006 100 2700 2 170 21:55 23.12.2019
2067 Mist 6 1006 100 3000 3 170 21:36 23.12.2019
2068 Mist 6 1006 100 3000 3 170 21:36 23.12.2019
2069 Mist 6 1006 100 3200 3 170 21:18 23.12.2019
2070 Mist 6 1006 100 3200 3 170 20:57 23.12.2019
2071 Mist 6 1006 100 3600 4 180 20:39 23.12.2019
2072 Mist 6 1006 100 3600 4 180 20:18 23.12.2019
2073 Mist 6 1005 100 3500 4 190 19:56 23.12.2019
2074 Mist 6 1005 100 5000 4 190 19:38 23.12.2019
2075 Mist 6 1005 100 5000 4 190 19:19 23.12.2019
2076 Clouds 6 1005 100 6000 4 190 18:57 23.12.2019
2077 Mist 6 1005 100 5000 4 180 18:38 23.12.2019
2078 Mist 6 1005 100 5000 4 160 18:20 23.12.2019
2079 Mist 6 1005 100 5000 4 160 17:56 23.12.2019
2080 Mist 6 1005 100 4400 4 160 17:37 23.12.2019
2081 Mist 6 1004 100 3800 4 170 17:19 23.12.2019
2082 Mist 6 1004 100 3800 4 170 16:54 23.12.2019
2083 Mist 6 1004 100 3700 4 160 16:36 23.12.2019
2084 Mist 6 1004 100 3700 4 160 16:18 23.12.2019
2085 Mist 6 1004 100 3600 4 160 15:55 23.12.2019
2086 Mist 6 1004 100 4400 4 160 15:36 23.12.2019
2087 Mist 5 1004 100 4600 3 160 15:18 23.12.2019
2088 Rain 6 1005 93 5000 2 130 14:42 23.12.2019
2089 Rain 6 1004 93 4400 4 160 14:24 23.12.2019
2090 Rain 6 1003 93 5000 4 170 13:59 23.12.2019
2091 Clouds 6 1003 93 6000 4 160 13:41 23.12.2019
2092 Clouds 6 1003 93 6000 4 160 13:22 23.12.2019
2093 Clouds 5 1003 100 6000 4 160 12:58 23.12.2019
2094 Clouds 5 1003 100 6000 4 160 12:58 23.12.2019
2095 Clouds 5 1003 100 6000 3 170 12:39 23.12.2019
2096 Clouds 5 1003 100 6000 3 170 12:20 23.12.2019
2097 Clouds 5 1003 100 8000 4 160 11:55 23.12.2019
2098 Clouds 5 1003 100 9000 4 160 11:37 23.12.2019
2099 Rain 5 1003 100 9000 4 160 11:18 23.12.2019
2100 Rain 5 1003 100 9000 4 160 10:54 23.12.2019
2101 Rain 5 1003 100 5000 6 130 10:36 23.12.2019
2102 Rain 5 1003 100 5000 6 130 10:18 23.12.2019
2103 Rain 5 1003 100 5000 6 130 10:18 23.12.2019
2104 Rain 5 1003 100 3800 4 140 09:40 23.12.2019
2105 Rain 5 1003 100 2600 3 140 09:22 23.12.2019
2106 Rain 5 1003 100 3300 4 150 08:58 23.12.2019
2107 Rain 5 1002 100 2800 4 150 08:40 23.12.2019
2108 Mist 5 1002 100 2800 4 150 08:22 23.12.2019
2109 Mist 5 1003 93 4200 4 150 07:48 23.12.2019
2110 Mist 4 1002 93 5000 4 150 07:21 23.12.2019
2111 Clouds 4 1002 93 9000 4 150 06:57 23.12.2019
2112 Rain 4 1002 100 4500 4 140 06:30 23.12.2019
2113 Rain 4 1002 100 5000 4 150 05:56 23.12.2019
2114 Rain 4 1002 100 4400 4 140 05:30 23.12.2019
2115 Rain 4 1002 100 5000 5 140 04:39 23.12.2019
2116 Rain 4 1002 100 4100 6 130 03:36 23.12.2019
2117 Rain 4 1002 100 5000 6 140 02:43 23.12.2019
2118 Drizzle 4 1002 100 2700 4 130 02:19 23.12.2019
2119 Drizzle 4 1003 100 3300 5 140 01:45 23.12.2019
2120 Drizzle 4 1003 100 3300 5 140 01:27 23.12.2019
2121 Drizzle 4 1003 100 3400 5 140 00:45 23.12.2019
2122 Drizzle 3 1003 100 3100 5 140 00:24 23.12.2019
2123 Drizzle 3 1003 100 1400 5 140 23:56 22.12.2019
2124 Rain 3 1003 100 1300 5 130 23:37 22.12.2019
2125 Mist 3 1003 100 1300 5 130 23:18 22.12.2019
2126 Mist 3 1003 100 3000 5 140 22:41 22.12.2019
2127 Mist 3 1003 100 3000 5 140 22:22 22.12.2019
2128 Mist 3 1004 100 3300 5 140 21:59 22.12.2019
2129 Drizzle 3 1004 100 4600 5 140 21:40 22.12.2019
2130 Drizzle 3 1004 100 4600 5 140 21:21 22.12.2019
2131 Drizzle 3 1004 100 4600 5 140 21:21 22.12.2019
2132 Drizzle 3 1004 100 2700 4 130 20:59 22.12.2019
2133 Drizzle 2 1004 100 3300 6 130 20:39 22.12.2019
2134 Drizzle 2 1004 100 3300 6 130 20:19 22.12.2019
2135 Drizzle 2 1004 100 3900 5 140 19:57 22.12.2019
2136 Drizzle 2 1004 93 3900 5 130 19:39 22.12.2019
2137 Drizzle 2 1004 93 3900 5 130 19:20 22.12.2019
2138 Mist 2 1004 93 3500 4 140 18:43 22.12.2019
2139 Mist 2 1004 93 3500 4 140 18:25 22.12.2019
2140 Mist 2 1004 93 3900 5 140 17:57 22.12.2019
2141 Mist 2 1004 93 3900 5 140 17:57 22.12.2019
2142 Mist 2 1004 100 3600 5 130 17:39 22.12.2019
2143 Mist 2 1004 100 3600 5 130 17:19 22.12.2019
2144 Mist 2 1004 100 3600 5 130 17:19 22.12.2019
2145 Mist 2 1004 100 3600 4 130 16:59 22.12.2019
2146 Drizzle 2 1004 100 2500 4 140 16:41 22.12.2019
2147 Drizzle 2 1004 100 2500 4 140 16:22 22.12.2019
2148 Mist 2 1004 100 2700 4 140 15:57 22.12.2019
2149 Mist 2 1004 100 2700 4 140 15:39 22.12.2019
2150 Rain 2 1004 100 2700 4 140 15:21 22.12.2019
2151 Mist 2 1004 100 3300 4 140 14:56 22.12.2019
2152 Drizzle 2 1004 100 2600 4 130 14:38 22.12.2019
2153 Drizzle 2 1004 100 2600 4 130 14:19 22.12.2019
2154 Mist 2 1004 100 2800 3 140 13:56 22.12.2019
2155 Mist 2 1004 93 4900 4 140 13:38 22.12.2019
2156 Mist 3 1004 93 4900 4 140 13:19 22.12.2019
2157 Drizzle 3 1005 93 3600 4 140 12:57 22.12.2019
2158 Clouds 3 1005 93 6000 3 140 12:38 22.12.2019
2159 Clouds 3 1005 93 7000 3 170 12:19 22.12.2019
2160 Clouds 3 1005 93 7000 3 170 11:56 22.12.2019
2161 Clouds 2 1004 93 7000 4 160 11:38 22.12.2019
2162 Clouds 3 1005 93 7000 4 170 11:19 22.12.2019
2163 Clouds 2 1005 93 7000 4 170 10:56 22.12.2019
2164 Clouds 3 1005 93 8000 4 160 10:38 22.12.2019
2165 Clouds 3 1005 93 8000 4 160 10:19 22.12.2019
2166 Clouds 2 1005 93 8000 4 160 09:57 22.12.2019
2167 Clouds 2 1005 93 8000 4 160 09:39 22.12.2019
2168 Clouds 2 1005 93 8000 4 160 09:20 22.12.2019
2169 Clouds 2 1005 93 8000 4 160 09:20 22.12.2019
2170 Clouds 2 1005 93 7000 4 160 08:45 22.12.2019
2171 Clouds 2 1005 93 7000 4 160 08:22 22.12.2019
2172 Clouds 2 1005 93 7000 4 160 07:44 22.12.2019
2173 Clouds 2 1005 93 7000 4 160 07:21 22.12.2019
2174 Clouds 2 1005 93 7000 4 160 07:21 22.12.2019
2175 Clouds 2 1005 93 7000 4 160 07:21 22.12.2019
2176 Snow 2 1005 93 7000 4 160 06:55 22.12.2019
2177 Drizzle 2 1005 93 7000 4 160 06:27 22.12.2019
2178 Drizzle 2 1005 93 6000 4 160 05:41 22.12.2019
2179 Drizzle 2 1005 93 6000 4 160 05:20 22.12.2019
2180 Clouds 2 1005 93 7000 5 170 04:26 22.12.2019
2181 Clouds 2 1005 87 8000 4 160 02:56 22.12.2019
2182 Clouds 2 1005 87 8000 4 140 02:34 22.12.2019
2183 Clouds 2 1006 88 8000 5 150 01:32 22.12.2019
2184 Clouds 2 1006 88 8000 4 150 00:58 22.12.2019
2185 Clouds 2 1006 88 8000 4 160 00:39 22.12.2019
2186 Clouds 2 1006 88 8000 4 160 00:20 22.12.2019
2187 Clouds 2 1006 88 8000 4 160 23:42 21.12.2019
2188 Clouds 2 1006 90 8000 4 160 23:24 21.12.2019
2189 Clouds 2 1006 90 8000 5 160 22:58 21.12.2019
2190 Clouds 2 1006 90 8000 4 170 22:39 21.12.2019
2191 Clouds 2 1006 90 8000 4 170 22:19 21.12.2019
2192 Clouds 2 1006 90 8000 4 170 21:56 21.12.2019
2193 Clouds 2 1006 90 9000 4 170 21:37 21.12.2019
2194 Clouds 2 1006 90 9000 4 170 21:19 21.12.2019
2195 Clouds 2 1006 90 10000 4 160 20:57 21.12.2019
2196 Clouds 2 1006 80 10000 4 170 20:38 21.12.2019
2197 Clouds 2 1006 80 10000 4 170 20:20 21.12.2019
2198 Clouds 2 1006 69 10000 4 170 19:57 21.12.2019
2199 Clouds 2 1007 64 10000 4 160 19:39 21.12.2019
2200 Clouds 2 1007 64 10000 4 160 19:19 21.12.2019
2201 Clouds 2 1007 59 10000 5 160 18:42 21.12.2019
2202 Clouds 2 1007 59 10000 5 160 18:23 21.12.2019
2203 Clouds 2 1007 55 10000 4 160 17:57 21.12.2019
2204 Clouds 2 1007 51 10000 4 160 17:39 21.12.2019
2205 Clouds 2 1007 51 10000 4 160 17:21 21.12.2019
2206 Clouds 2 1007 47 10000 5 150 16:58 21.12.2019
2207 Clouds 2 1007 47 10000 5 150 16:39 21.12.2019
2208 Clouds 2 1007 47 10000 5 150 16:18 21.12.2019
2209 Clouds 2 1007 47 10000 5 150 15:56 21.12.2019
2210 Clouds 2 1008 47 10000 4 150 15:38 21.12.2019
2211 Clouds 2 1008 47 10000 4 150 15:19 21.12.2019
2212 Clouds 2 1008 47 10000 4 130 14:55 21.12.2019
2213 Clouds 2 1008 51 10000 5 130 14:37 21.12.2019
2214 Clouds 2 1008 51 10000 5 130 14:18 21.12.2019
2215 Clouds 2 1008 51 10000 4 140 13:54 21.12.2019
2216 Clouds 3 1009 51 10000 5 150 13:36 21.12.2019
2217 Clouds 3 1009 51 10000 5 150 13:18 21.12.2019
2218 Clouds 3 1009 51 10000 4 150 12:54 21.12.2019
2219 Clouds 3 1009 51 10000 4 140 12:36 21.12.2019
2220 Clouds 3 1009 51 10000 4 140 12:18 21.12.2019
2221 Clouds 2 1010 55 10000 3 160 11:41 21.12.2019
2222 -273 0 0 0 0 0 11:23 21.12.2019
2223 Clouds 2 1011 64 10000 4 140 10:42 21.12.2019
2224 Clouds 2 1011 64 10000 4 140 10:23 21.12.2019
2225 Clouds 2 1011 64 10000 4 140 09:59 21.12.2019
2226 Clouds 1 1011 69 10000 3 160 09:41 21.12.2019
2227 Clouds 1 1011 69 10000 3 160 09:20 21.12.2019
2228 Clouds 1 1011 69 10000 3 170 08:56 21.12.2019
2229 Clouds 1 1012 74 10000 3 160 08:37 21.12.2019
2230 Clouds 1 1012 74 10000 3 160 08:18 21.12.2019
2231 Clouds 1 1012 74 10000 3 140 07:41 21.12.2019
2232 Clouds 1 1012 74 10000 3 140 07:21 21.12.2019
2233 Clouds 0 1012 74 10000 2 160 06:43 21.12.2019
2234 Clouds 0 1012 74 10000 3 150 06:25 21.12.2019
2235 Clouds 1 1013 74 10000 2 160 05:47 21.12.2019
2236 Clouds 1 1013 74 10000 2 160 04:58 21.12.2019
2237 Clouds 0 1014 67 10000 3 180 03:57 21.12.2019
2238 Clouds -1 1014 67 10000 3 160 02:51 21.12.2019
2239 Clouds -1 1015 86 10000 3 200 01:57 21.12.2019
2240 Clouds -1 1015 86 10000 2 190 01:27 21.12.2019
2241 Clouds -1 1015 86 10000 3 190 00:52 21.12.2019
2242 Clouds -1 1015 71 10000 3 190 00:32 21.12.2019
2243 Clouds -1 1016 86 10000 3 150 23:57 20.12.2019
2244 Clouds -1 1016 71 10000 2 180 23:37 20.12.2019
2245 Clouds -1 1016 73 10000 2 180 23:18 20.12.2019
2246 Clouds -1 1016 80 10000 2 190 22:40 20.12.2019
2247 Clouds -1 1016 80 10000 2 190 22:21 20.12.2019
2248 Clouds -1 1017 73 10000 3 200 21:58 20.12.2019
2249 Clouds 0 1017 73 10000 3 210 21:39 20.12.2019
2250 Clouds 0 1017 73 10000 3 210 21:20 20.12.2019
2251 Clouds 0 1017 73 10000 3 210 20:41 20.12.2019
2252 Clouds 0 1017 79 10000 3 210 20:21 20.12.2019
2253 Clouds -1 1017 79 10000 4 220 19:59 20.12.2019
2254 Clouds -1 1017 79 10000 3 210 19:40 20.12.2019
2255 Clouds -1 1017 79 10000 3 210 19:20 20.12.2019
2256 Clouds -1 1018 79 10000 3 220 18:56 20.12.2019
2257 Clouds 0 1018 74 10000 3 220 18:38 20.12.2019
2258 Clouds 0 1018 74 10000 3 220 18:20 20.12.2019
2259 Clouds 0 1018 74 10000 3 230 17:42 20.12.2019
2260 Clouds 0 1018 74 10000 3 230 17:22 20.12.2019
2261 Clouds 0 1018 74 10000 4 220 16:59 20.12.2019
2262 Clouds 0 1018 74 10000 2 230 16:40 20.12.2019
2263 Clouds 0 1018 74 10000 2 230 16:20 20.12.2019
2264 Clouds 0 1018 74 10000 4 230 15:57 20.12.2019
2265 Clouds 0 1019 74 10000 4 240 15:39 20.12.2019
2266 Clouds 0 1019 74 10000 4 240 15:19 20.12.2019
2267 Clouds 0 1019 74 10000 4 240 14:58 20.12.2019
2268 Clouds 0 1019 74 10000 4 240 14:39 20.12.2019
2269 Clouds 1 1019 74 10000 4 240 14:21 20.12.2019
2270 Clouds 2 1019 69 10000 4 250 13:42 20.12.2019
2271 Clouds 2 1019 69 10000 4 250 13:21 20.12.2019
2272 Clouds 2 1019 64 10000 4 270 12:59 20.12.2019
2273 Clouds 2 1019 69 10000 4 270 12:41 20.12.2019
2274 Clouds 2 1019 69 10000 4 270 12:19 20.12.2019
2275 Clouds 2 1019 74 10000 4 280 11:59 20.12.2019
2276 Clouds 1 1019 74 10000 4 280 11:40 20.12.2019
2277 Clouds 1 1019 74 10000 4 280 11:21 20.12.2019
2278 Clouds 1 1019 75 10000 4 300 10:59 20.12.2019
2279 Clouds 1 1019 75 10000 6 290 10:41 20.12.2019
2280 Clouds 1 1019 75 10000 6 290 10:20 20.12.2019
2281 Clouds 0 1019 74 10000 5 280 09:56 20.12.2019
2282 Clouds 0 1019 75 10000 4 280 09:38 20.12.2019
2283 Clouds 0 1019 75 10000 6 290 09:19 20.12.2019
2284 Clouds 0 1019 75 10000 5 280 08:43 20.12.2019
2285 Clouds 0 1019 84 10000 5 280 08:25 20.12.2019
2286 Clouds -1 1019 86 10000 6 280 07:59 20.12.2019
2287 Clouds -1 1018 84 10000 6 280 07:41 20.12.2019
2288 Clouds -1 1018 84 10000 6 280 07:20 20.12.2019
2289 Clouds -1 1018 84 10000 6 290 06:52 20.12.2019
2290 Clouds -1 1018 84 10000 6 290 06:33 20.12.2019
2291 Clouds -1 1018 84 10000 6 280 05:56 20.12.2019
2292 Clouds -1 1018 84 10000 7 280 05:37 20.12.2019
2293 Clouds -1 1018 84 10000 7 280 05:37 20.12.2019
2294 Clouds 0 1018 80 10000 6 280 04:33 20.12.2019
2295 Clouds 0 1018 80 10000 7 290 03:30 20.12.2019
2296 Clouds 1 1017 80 10000 9 290 02:44 20.12.2019
2297 Clouds 1 1017 74 10000 9 290 01:54 20.12.2019
2298 Clouds 1 1017 74 10000 9 290 01:33 20.12.2019
2299 Clouds 1 1017 69 10000 8 290 00:49 20.12.2019
2300 Clouds 1 1016 69 10000 8 290 00:30 20.12.2019
2301 Clouds 1 1016 74 10000 7 290 23:56 19.12.2019
2302 Clouds 1 1016 69 10000 7 300 23:38 19.12.2019
2303 Clouds 2 1016 69 10000 7 300 23:18 19.12.2019
2304 Clouds 2 1015 69 10000 8 300 22:38 19.12.2019
2305 Clouds 2 1015 69 10000 8 300 22:20 19.12.2019
2306 Clouds 2 1015 64 10000 6 290 21:56 19.12.2019
2307 Clouds 2 1015 69 10000 8 300 21:38 19.12.2019
2308 Clouds 2 1015 69 10000 8 300 21:19 19.12.2019
2309 Clouds 2 1014 69 10000 9 300 20:56 19.12.2019
2310 Clouds 2 1013 64 10000 9 300 20:37 19.12.2019
2311 Clouds 2 1013 64 10000 9 300 20:37 19.12.2019
2312 Clouds 2 1013 59 10000 7 300 20:18 19.12.2019
2313 Clouds 2 1013 59 10000 7 300 19:57 19.12.2019
2314 Clouds 2 1013 59 10000 7 300 19:57 19.12.2019
2315 Clouds 3 1013 59 10000 9 300 19:39 19.12.2019
2316 Clouds 3 1013 59 10000 9 300 19:19 19.12.2019
2317 Clouds 3 1012 59 10000 7 300 18:55 19.12.2019
2318 Clouds 3 1012 59 10000 7 300 18:37 19.12.2019
2319 Clouds 3 1011 59 10000 11 300 18:18 19.12.2019
2320 Clouds 3 1011 59 10000 11 300 17:54 19.12.2019
2321 Clouds 3 1011 59 10000 11 300 17:36 19.12.2019
2322 Clouds 3 1010 59 10000 8 300 17:18 19.12.2019
2323 Clouds 3 1010 59 10000 8 300 16:55 19.12.2019
2324 Clouds 3 1010 59 10000 11 290 16:36 19.12.2019
2325 Clouds 3 1010 59 10000 11 290 16:18 19.12.2019
2326 Clouds 3 1009 59 10000 11 290 15:55 19.12.2019
2327 Clouds 3 1009 59 10000 12 290 15:36 19.12.2019
2328 Clouds 3 1009 59 10000 12 290 15:18 19.12.2019
2329 Clouds 4 1008 60 10000 11 290 14:42 19.12.2019
2330 Clouds 4 1008 60 10000 11 290 14:20 19.12.2019
2331 Clouds 4 1007 55 10000 11 290 13:58 19.12.2019
2332 Clouds 4 1007 60 10000 10 290 13:38 19.12.2019
2333 Clouds 4 1007 60 10000 10 290 13:19 19.12.2019
2334 Clouds 4 1006 60 10000 8 280 12:57 19.12.2019
2335 Clouds 4 1005 60 10000 12 290 12:39 19.12.2019
2336 Clouds 4 1005 60 10000 12 290 12:39 19.12.2019
2337 Clouds 4 1005 60 10000 12 280 12:19 19.12.2019
2338 Clouds 4 1005 60 10000 12 280 11:58 19.12.2019
2339 Clouds 4 1004 64 10000 12 280 11:40 19.12.2019
2340 Clouds 4 1004 64 10000 12 280 11:18 19.12.2019
2341 Clouds 4 1004 64 10000 12 280 10:57 19.12.2019
2342 Clouds 4 1003 64 10000 11 280 10:38 19.12.2019
2343 Clouds 4 1003 64 10000 11 280 10:19 19.12.2019
2344 Clouds 4 1003 64 10000 11 280 09:54 19.12.2019
2345 Rain 4 1003 69 10000 12 270 09:36 19.12.2019
2346 Clouds 4 1002 64 10000 13 270 09:18 19.12.2019
2347 Clouds 4 1002 64 10000 12 270 08:41 19.12.2019
2348 Clouds 4 1001 64 10000 12 260 08:20 19.12.2019
2349 Clouds 4 1001 64 10000 12 260 07:59 19.12.2019
2350 Clouds 4 1001 69 10000 10 270 07:38 19.12.2019
2351 Clouds 4 1001 69 10000 10 270 07:38 19.12.2019
2352 Clouds 4 1001 69 10000 10 270 07:20 19.12.2019
2353 Clouds 4 1001 64 10000 12 260 06:52 19.12.2019
2354 Rain 4 1001 69 10000 7 270 06:52 19.12.2019
2355 Clouds 4 1001 64 10000 12 260 06:32 19.12.2019
2356 Clouds 4 1001 64 10000 12 260 05:57 19.12.2019
2357 Clouds 4 1001 64 10000 10 250 05:39 19.12.2019
2358 Clouds 4 1001 64 10000 10 250 05:18 19.12.2019
2359 Clouds 5 1001 67 10000 11 260 03:46 19.12.2019
2360 Clouds 6 1001 80 10000 10 270 02:25 19.12.2019
2361 Clouds 6 1000 86 10000 10 250 01:24 19.12.2019
2362 Clouds 6 1000 81 10000 10 240 00:55 19.12.2019
2363 Clouds 6 1000 87 10000 10 240 00:36 19.12.2019
2364 Clouds 6 1000 87 10000 10 240 00:18 19.12.2019
2365 Clouds 6 1001 87 10000 10 250 23:43 18.12.2019
2366 Clouds 6 1001 93 10000 11 250 23:19 18.12.2019
2367 Clouds 6 1001 93 10000 11 250 22:56 18.12.2019
2368 Clouds 6 1001 93 10000 10 230 22:38 18.12.2019
2369 Clouds 6 1001 93 10000 10 230 22:20 18.12.2019
2370 Clouds 5 1001 93 9000 9 230 21:58 18.12.2019
2371 Clouds 5 1001 93 9000 9 230 21:58 18.12.2019
2372 Clouds 5 1001 93 8000 8 220 21:39 18.12.2019
2373 Clouds 5 1001 93 8000 8 220 21:20 18.12.2019
2374 Clouds 5 1001 93 7000 7 220 20:56 18.12.2019
2375 Clouds 5 1001 93 6000 6 220 20:38 18.12.2019
2376 Clouds 5 1001 93 6000 6 220 20:19 18.12.2019
2377 Drizzle 5 1001 93 6000 6 200 19:56 18.12.2019
2378 Drizzle 5 1002 100 5000 6 210 19:37 18.12.2019
2379 Clouds 5 1003 100 6000 6 220 19:18 18.12.2019
2380 Clouds 5 1003 100 6000 7 220 18:45 18.12.2019
2381 Clouds 5 1003 100 6000 7 220 18:25 18.12.2019
2382 Mist 5 1004 100 5000 5 220 17:58 18.12.2019
2383 Mist 5 1005 100 4800 6 220 17:40 18.12.2019
2384 Mist 5 1005 100 4800 6 220 17:20 18.12.2019
2385 Mist 5 1005 100 4100 5 200 16:58 18.12.2019
2386 Mist 5 1005 100 4100 5 200 16:40 18.12.2019
2387 Mist 5 1005 93 4200 5 210 16:22 18.12.2019
2388 Mist 4 1006 100 4800 6 210 15:57 18.12.2019
2389 Mist 4 1007 100 5000 5 200 15:38 18.12.2019
2390 Mist 4 1007 100 5000 5 200 15:20 18.12.2019
2391 Mist 4 1007 100 4400 6 180 14:56 18.12.2019
2392 Mist 4 1007 93 5000 6 180 14:36 18.12.2019
2393 Rain 4 1008 93 9000 6 180 14:18 18.12.2019
2394 Rain 4 1008 93 9000 6 180 13:54 18.12.2019
2395 Rain 3 1008 100 9000 5 170 13:36 18.12.2019
2396 Rain 3 1009 100 8000 4 190 13:18 18.12.2019
2397 Rain 3 1009 100 6000 4 170 12:40 18.12.2019
2398 Rain 3 1009 100 6000 4 170 12:40 18.12.2019
2399 Rain 3 1009 100 6000 4 170 12:21 18.12.2019
2400 Rain 3 1010 100 6000 4 170 11:57 18.12.2019
2401 Rain 3 1010 100 6000 4 170 11:39 18.12.2019
2402 Rain 3 1010 100 6000 4 170 11:20 18.12.2019
2403 Rain 3 1011 100 8000 4 170 10:58 18.12.2019
2404 Clouds 3 1011 100 7000 3 170 10:39 18.12.2019
2405 Clouds 3 1011 100 7000 3 170 10:20 18.12.2019
2406 Clouds 3 1012 100 7000 3 170 09:58 18.12.2019
2407 Clouds 2 1012 100 6000 3 160 09:20 18.12.2019
2408 Clouds 2 1012 100 6000 2 170 08:43 18.12.2019
2409 Fog 2 1012 100 2200 2 150 08:25 18.12.2019
2410 Fog 2 1013 100 350 1 0 07:57 18.12.2019
2411 Fog 2 1013 100 400 2 130 07:39 18.12.2019
2412 Fog 2 1013 100 400 2 130 07:20 18.12.2019
2413 Fog 1 1013 97 200 2 150 06:52 18.12.2019
2414 Fog 1 1013 97 250 2 220 06:25 18.12.2019
2415 Fog 1 1013 97 200 2 220 05:36 18.12.2019
2416 Fog 1 1013 100 200 2 200 04:33 18.12.2019
2417 Mist 2 1013 100 3400 3 240 02:48 18.12.2019
2418 Mist 2 1013 100 3800 3 270 02:29 18.12.2019
2419 Clouds 2 1013 100 8000 4 260 01:46 18.12.2019
2420 Clouds 2 1013 97 6000 3 270 01:27 18.12.2019
2421 Clouds 2 1012 100 9000 3 250 00:55 18.12.2019
2422 Clouds 2 1012 100 9000 4 250 00:37 18.12.2019
2423 Clouds 2 1012 100 9000 4 250 00:19 18.12.2019
2424 Clouds 2 1012 100 9000 5 260 23:43 17.12.2019
2425 Clouds 2 1012 100 9000 5 260 23:43 17.12.2019
2426 Clouds 2 1012 100 9000 5 260 23:24 17.12.2019
2427 Clouds 2 1012 100 9000 5 260 23:24 17.12.2019
2428 Clouds 2 1012 100 9000 4 260 22:57 17.12.2019
2429 Clouds 2 1012 100 9000 4 240 22:39 17.12.2019
2430 Clouds 2 1012 100 9000 4 240 22:20 17.12.2019
2431 Clouds 2 1012 100 10000 4 250 21:57 17.12.2019
2432 Clouds 2 1012 100 10000 4 260 21:39 17.12.2019
2433 Clouds 2 1012 100 10000 4 260 21:20 17.12.2019
2434 Clouds 2 1011 100 10000 4 260 20:59 17.12.2019
2435 Clouds 2 1011 100 8000 4 260 20:40 17.12.2019
2436 Clouds 2 1011 100 8000 4 260 20:19 17.12.2019
2437 Clouds 2 1011 100 9000 5 260 19:59 17.12.2019
2438 Clouds 2 1011 100 9000 4 260 19:41 17.12.2019
2439 Clouds 2 1011 100 9000 4 260 19:20 17.12.2019
2440 Clouds 2 1011 100 9000 5 250 18:58 17.12.2019
2441 Clouds 2 1011 100 6000 6 250 18:39 17.12.2019
2442 Clouds 2 1011 100 9000 5 250 18:21 17.12.2019
2443 Clouds 2 1011 100 9000 5 250 17:56 17.12.2019
2444 Clouds 2 1011 93 9000 5 250 17:38 17.12.2019
2445 Clouds 2 1011 93 9000 5 250 17:18 17.12.2019
2446 Clouds 2 1011 93 9000 5 240 16:55 17.12.2019
2447 Clouds 1 1011 100 10000 6 240 16:37 17.12.2019
2448 Clouds 2 1011 100 10000 6 240 16:18 17.12.2019
2449 Rain 2 1011 93 10000 5 230 15:54 17.12.2019
2450 Rain 1 1010 100 9000 5 220 15:36 17.12.2019
2451 Rain 2 1011 100 8000 5 220 15:18 17.12.2019
2452 Rain 2 1011 100 8000 5 220 14:54 17.12.2019
2453 Rain 1 1011 100 10000 4 220 14:36 17.12.2019
2454 Rain 1 1011 100 9000 5 220 14:18 17.12.2019
2455 Rain 1 1011 100 9000 5 220 13:41 17.12.2019
2456 Rain 1 1011 100 6000 5 220 13:20 17.12.2019
2457 Rain 1 1011 100 6000 5 220 12:59 17.12.2019
2458 Rain 1 1011 100 6000 5 220 12:59 17.12.2019
2459 Snow 2 1011 93 7000 5 220 12:39 17.12.2019
2460 Snow 2 1012 93 10000 6 220 12:19 17.12.2019
2461 Snow 2 1012 93 10000 6 220 11:59 17.12.2019
2462 Snow 2 1012 93 10000 5 210 11:37 17.12.2019
2463 Clouds 2 1012 93 10000 4 210 11:19 17.12.2019
2464 Clouds 2 1012 93 10000 4 210 10:59 17.12.2019
2465 Clouds 2 1013 90 10000 3 210 10:40 17.12.2019
2466 Clouds 2 1013 90 10000 3 210 10:21 17.12.2019
2467 Clouds 2 1013 90 10000 3 220 09:59 17.12.2019
2468 Clouds 2 1013 93 10000 5 230 09:40 17.12.2019
2469 Clouds 2 1013 93 10000 5 230 09:19 17.12.2019
2470 Clouds 2 1013 93 10000 6 230 08:56 17.12.2019
2471 Clouds 2 1013 93 10000 5 220 08:38 17.12.2019
2472 Clouds 2 1013 93 10000 5 230 08:19 17.12.2019
2473 Clouds 2 1013 93 10000 5 230 07:45 17.12.2019
2474 Clouds 2 1013 93 10000 5 240 07:26 17.12.2019
2475 Clouds 2 1013 93 10000 5 250 06:56 17.12.2019
2476 Clouds 2 1012 93 10000 4 260 06:34 17.12.2019
2477 Rain 2 1012 93 10000 5 260 05:53 17.12.2019
2478 Rain 2 1012 93 9000 5 270 05:34 17.12.2019
2479 Rain 2 1012 93 10000 5 260 04:30 17.12.2019
2480 Rain 3 1011 93 10000 5 280 02:34 17.12.2019
2481 Rain 3 1011 93 10000 5 280 02:34 17.12.2019
2482 Clouds 3 1010 86 10000 6 270 01:55 17.12.2019
2483 Drizzle 3 1009 93 10000 6 270 00:58 17.12.2019
2484 Drizzle 3 1008 93 10000 8 260 00:37 17.12.2019
2485 Drizzle 3 1008 93 10000 8 260 00:19 17.12.2019
2486 Drizzle 3 1007 93 10000 7 260 23:41 16.12.2019
2487 Drizzle 3 1007 93 10000 7 260 23:19 16.12.2019
2488 Drizzle 3 1007 93 10000 7 250 22:56 16.12.2019
2489 Clouds 3 1007 93 10000 7 250 22:37 16.12.2019
2490 Clouds 3 1007 93 10000 7 250 22:19 16.12.2019
2491 Rain 3 1006 93 10000 7 240 21:55 16.12.2019
2492 Drizzle 3 1006 93 10000 7 250 21:37 16.12.2019
2493 Drizzle 3 1006 93 10000 7 250 21:19 16.12.2019
2494 Drizzle 3 1006 93 10000 7 240 20:57 16.12.2019
2495 Clouds 3 1006 93 10000 7 240 20:37 16.12.2019
2496 Clouds 3 1006 93 10000 7 240 20:19 16.12.2019
2497 Drizzle 3 1006 93 10000 7 230 19:55 16.12.2019
2498 Drizzle 3 1005 93 10000 7 230 19:37 16.12.2019
2499 Drizzle 3 1005 93 10000 6 230 19:18 16.12.2019
2500 Drizzle 3 1005 93 10000 6 230 18:56 16.12.2019
2501 Clouds 2 1005 93 10000 6 230 18:37 16.12.2019
2502 Clouds 2 1005 93 10000 6 220 18:19 16.12.2019
2503 Clouds 2 1005 93 10000 6 220 18:19 16.12.2019
2504 Clouds 2 1005 93 10000 6 220 17:57 16.12.2019
2505 Rain 2 1005 93 10000 5 220 17:37 16.12.2019
2506 Rain 2 1005 93 10000 5 220 17:37 16.12.2019
2507 Rain 2 1006 93 10000 5 210 17:19 16.12.2019
2508 Rain 2 1006 93 10000 5 210 16:55 16.12.2019
2509 Rain 2 1006 93 10000 5 210 16:37 16.12.2019
2510 Rain 2 1006 93 10000 5 210 16:19 16.12.2019
2511 Clouds 2 1006 93 10000 4 210 15:57 16.12.2019
2512 Clouds 2 1006 93 10000 5 200 15:38 16.12.2019
2513 Clouds 2 1006 93 10000 5 200 15:20 16.12.2019
2514 Clouds 2 1006 93 10000 4 190 14:55 16.12.2019
2515 Clouds 2 1006 93 10000 4 200 14:36 16.12.2019
2516 Clouds 2 1006 93 10000 4 200 14:18 16.12.2019
2517 Clouds 2 1006 93 10000 4 220 13:56 16.12.2019
2518 Clouds 2 1006 93 10000 5 220 13:37 16.12.2019
2519 Clouds 2 1006 93 10000 5 220 13:19 16.12.2019
2520 Clouds 2 1006 93 10000 5 210 12:56 16.12.2019
2521 Clouds 2 1006 93 9000 5 210 12:38 16.12.2019
2522 Clouds 2 1006 93 10000 5 200 12:18 16.12.2019
2523 Clouds 2 1006 93 10000 5 200 11:57 16.12.2019
2524 Clouds 2 1006 93 9000 5 200 11:38 16.12.2019
2525 Clouds 2 1006 93 9000 5 200 11:19 16.12.2019
2526 Clouds 2 1006 93 7000 5 200 10:54 16.12.2019
2527 Drizzle 2 1007 95 9000 5 190 10:36 16.12.2019
2528 Clouds 2 1007 93 10000 5 200 10:18 16.12.2019
2529 Clouds 2 1007 95 10000 6 190 09:43 16.12.2019
2530 Clouds 2 1007 93 10000 6 190 09:24 16.12.2019
2531 Clouds 1 1007 93 10000 6 190 08:40 16.12.2019
2532 Clouds 1 1007 90 10000 5 180 08:20 16.12.2019
2533 Clouds 1 1007 90 10000 6 190 08:20 16.12.2019
2534 Clouds 1 1007 90 10000 5 180 07:53 16.12.2019
2535 Clouds 1 1007 90 10000 5 200 07:31 16.12.2019
2536 Clouds 2 1007 93 10000 5 200 06:58 16.12.2019
2537 Clouds 1 1007 100 10000 5 200 06:40 16.12.2019
2538 Clouds 2 1008 100 10000 5 200 06:20 16.12.2019
2539 Clouds 2 1008 93 10000 5 210 05:41 16.12.2019
2540 Clouds 2 1008 93 10000 5 210 05:22 16.12.2019
2541 Clouds 2 1007 93 10000 6 220 03:29 16.12.2019
2542 Clouds 1 1007 100 10000 4 210 01:51 16.12.2019
2543 Clouds 1 1007 100 10000 5 210 01:33 16.12.2019
2544 Clouds 1 1006 100 10000 5 220 00:39 16.12.2019
2545 Clouds 1 1006 100 9000 5 220 00:20 16.12.2019
2546 Rain 1 1006 100 9000 5 220 23:57 15.12.2019
2547 Rain 1 1006 100 10000 5 210 23:37 15.12.2019
2548 Rain 1 1006 100 10000 5 210 23:19 15.12.2019
2549 Rain 1 1006 100 6000 4 200 22:54 15.12.2019
2550 Rain 1 1005 100 6000 4 170 22:36 15.12.2019
2551 Rain 1 1005 100 6000 4 170 22:18 15.12.2019
2552 Rain 1 1005 100 6000 4 170 21:54 15.12.2019
2553 Rain 1 1005 100 7000 4 160 21:36 15.12.2019
2554 Rain 1 1005 100 7000 4 160 21:18 15.12.2019
2555 Rain 1 1005 100 6000 5 150 20:54 15.12.2019
2556 Rain 1 1005 100 8000 4 160 20:36 15.12.2019
2557 Rain 1 1005 100 8000 4 160 20:18 15.12.2019
2558 Rain 1 1005 93 5000 4 150 19:54 15.12.2019
2559 Rain 2 1005 93 4800 5 160 19:36 15.12.2019
2560 Drizzle 2 1006 100 5000 6 160 19:18 15.12.2019
2561 Drizzle 2 1006 100 5000 6 160 18:54 15.12.2019
2562 Drizzle 2 1006 100 3400 5 160 18:36 15.12.2019
2563 Rain 2 1006 100 3900 6 150 18:18 15.12.2019
2564 Clouds 2 1006 100 7000 5 140 17:54 15.12.2019
2565 Clouds 1 1006 100 7000 5 140 17:36 15.12.2019
2566 Clouds 2 1006 100 10000 5 130 17:18 15.12.2019
2567 Drizzle 1 1006 100 8000 6 130 16:42 15.12.2019
2568 Drizzle 1 1006 100 8000 6 130 16:22 15.12.2019
2569 Rain 1 1007 100 5000 6 120 15:57 15.12.2019
2570 Drizzle 1 1007 100 3000 6 130 15:38 15.12.2019
2571 Drizzle 1 1007 95 2300 6 120 15:19 15.12.2019
2572 Drizzle 1 1007 95 2300 6 120 15:19 15.12.2019
2573 Drizzle 1 1007 95 2300 6 120 14:56 15.12.2019
2574 Rain 1 1007 95 2700 6 130 14:37 15.12.2019
2575 Rain 1 1007 94 2700 6 130 14:18 15.12.2019
2576 Rain 1 1008 90 3700 7 130 13:58 15.12.2019
2577 Mist 1 1008 90 2800 6 130 13:38 15.12.2019
2578 Mist 1 1008 94 3700 6 130 13:19 15.12.2019
2579 Mist 1 1008 94 3700 6 130 12:57 15.12.2019
2580 Rain 0 1008 94 3400 6 140 12:39 15.12.2019
2581 Rain 0 1008 94 3400 6 140 12:39 15.12.2019
2582 Rain 0 1008 94 3400 6 140 12:20 15.12.2019
2583 Rain 0 1008 94 3400 6 140 12:20 15.12.2019
2584 Rain 0 1009 94 5000 5 130 11:56 15.12.2019
2585 Rain 0 1009 94 6000 6 140 11:37 15.12.2019
2586 Rain 0 1009 94 6000 5 130 11:18 15.12.2019
2587 Rain 0 1009 94 6000 5 130 10:55 15.12.2019
2588 Rain 0 1009 94 7000 5 130 10:37 15.12.2019
2589 Clouds 0 1009 94 7000 5 130 10:18 15.12.2019
2590 Snow 0 1010 94 7000 6 140 09:41 15.12.2019
2591 Snow 0 1010 94 7000 6 140 09:20 15.12.2019
2592 Snow 0 1010 94 6000 6 140 08:59 15.12.2019
2593 Snow 0 1010 94 9000 6 140 08:41 15.12.2019
2594 Snow 0 1010 94 9000 6 140 08:22 15.12.2019
2595 Snow -1 1010 96 9000 6 140 07:56 15.12.2019
2596 Snow -1 1010 100 9000 5 140 07:35 15.12.2019
2597 Snow -1 1011 100 9000 4 140 06:52 15.12.2019
2598 Snow -1 1011 100 9000 5 140 06:20 15.12.2019
2599 Clouds -1 1011 100 8000 5 130 05:28 15.12.2019
2600 Snow -1 1011 92 5000 4 140 04:47 15.12.2019
2601 Snow -1 1011 92 2900 5 140 03:54 15.12.2019
2602 Clouds -1 1012 92 9000 6 150 02:34 15.12.2019
2603 Clouds -1 1012 92 9000 5 150 01:50 15.12.2019
2604 Clouds -1 1012 92 7000 5 140 01:28 15.12.2019
2605 Clouds -1 1012 92 7000 4 150 00:59 15.12.2019
2606 Clouds -1 1013 92 8000 5 160 00:41 15.12.2019
2607 Clouds -1 1013 92 8000 5 160 00:23 15.12.2019
2608 Clouds -1 1013 92 7000 5 160 23:40 14.12.2019
2609 Clouds -1 1013 92 7000 5 160 23:40 14.12.2019
2610 Clouds -1 1013 92 7000 5 160 23:40 14.12.2019
2611 Clouds -1 1013 92 7000 5 160 23:21 14.12.2019
2612 Mist -1 1013 92 4700 4 160 22:58 14.12.2019
2613 Mist -1 1013 100 4700 5 150 22:40 14.12.2019
2614 Mist -1 1013 100 4700 5 150 22:21 14.12.2019
2615 Mist -1 1013 100 4000 6 150 21:56 14.12.2019
2616 Clouds -2 1013 92 10000 6 140 21:38 14.12.2019
2617 Clouds -2 1013 92 10000 6 140 21:19 14.12.2019
2618 Clouds -2 1013 92 10000 6 150 20:57 14.12.2019
2619 Clouds -2 1013 86 10000 6 140 20:38 14.12.2019
2620 Clouds -1 1013 86 10000 6 130 20:19 14.12.2019
2621 Clouds -1 1013 86 10000 6 130 19:56 14.12.2019
2622 Clouds -2 1014 86 10000 6 150 19:37 14.12.2019
2623 Clouds -2 1014 86 10000 6 150 19:18 14.12.2019
2624 Clouds -2 1013 86 10000 5 140 18:56 14.12.2019
2625 Clouds -1 1014 86 10000 6 140 18:36 14.12.2019
2626 Clouds -1 1014 86 10000 6 140 18:18 14.12.2019
2627 Clouds -1 1014 92 10000 6 150 17:43 14.12.2019
2628 -273 0 0 0 0 0 17:23 14.12.2019
2629 Snow -1 1014 79 10000 6 140 16:56 14.12.2019
2630 Snow -1 1014 79 10000 7 140 16:38 14.12.2019
2631 Snow -1 1014 79 10000 7 140 16:18 14.12.2019
2632 Snow -1 1014 79 10000 5 140 15:42 14.12.2019
2633 Snow -1 1014 79 10000 5 140 15:21 14.12.2019
2634 Snow -1 1014 79 10000 5 140 15:21 14.12.2019
2635 Clouds -1 1014 79 10000 5 140 14:58 14.12.2019
2636 Clouds -1 1014 79 10000 5 150 14:38 14.12.2019
2637 Clouds -1 1014 84 10000 5 150 14:19 14.12.2019
2638 Clouds -1 1014 84 10000 5 150 14:19 14.12.2019
2639 Clouds 0 1014 80 10000 5 150 13:45 14.12.2019
2640 Clouds 0 1014 80 10000 6 150 13:21 14.12.2019
2641 Clouds 0 1014 80 10000 6 150 13:21 14.12.2019
2642 Clouds 0 1014 80 10000 6 150 12:59 14.12.2019
2643 Clouds 0 1014 80 10000 7 150 12:41 14.12.2019
2644 Clouds 0 1014 80 10000 7 150 12:21 14.12.2019
2645 Clouds 0 1014 80 10000 7 150 12:21 14.12.2019
2646 Clouds 0 1014 80 10000 6 150 11:59 14.12.2019
2647 Clouds 0 1014 80 10000 7 160 11:40 14.12.2019
2648 Clouds 0 1014 80 10000 7 160 11:20 14.12.2019
2649 Clouds 0 1015 80 10000 5 150 10:59 14.12.2019
2650 Clouds 0 1015 80 10000 5 150 10:59 14.12.2019
2651 Clouds 0 1015 80 10000 6 140 10:40 14.12.2019
2652 Clouds 0 1015 80 10000 6 140 10:22 14.12.2019
2653 Clouds 0 1015 80 10000 7 140 09:59 14.12.2019
2654 Clouds 0 1015 80 10000 6 130 09:40 14.12.2019
2655 Clouds 0 1015 80 10000 6 130 09:20 14.12.2019
2656 Clouds 0 1015 80 10000 4 150 08:43 14.12.2019
2657 Clouds 0 1015 80 10000 4 150 08:20 14.12.2019
2658 Clouds 0 1015 82 10000 5 170 07:55 14.12.2019
2659 Clouds 0 1015 82 10000 6 170 07:36 14.12.2019
2660 Clouds 0 1015 82 10000 6 170 07:18 14.12.2019
2661 Clouds 0 1014 82 10000 6 170 06:39 14.12.2019
2662 Clouds 0 1014 82 10000 6 170 06:20 14.12.2019
2663 Clouds 0 1014 85 10000 6 160 05:22 14.12.2019
2664 Clouds 0 1014 85 10000 6 170 02:49 14.12.2019
2665 Clouds 0 1015 86 10000 6 170 02:22 14.12.2019
2666 Clouds 0 1015 86 10000 6 170 01:43 14.12.2019
2667 Snow 0 1015 86 10000 6 180 00:54 14.12.2019
2668 Snow 0 1014 86 10000 6 170 00:36 14.12.2019
2669 Snow 0 1014 86 10000 5 170 00:18 14.12.2019
2670 Snow 0 1015 89 10000 5 170 23:39 13.12.2019
2671 Snow 0 1015 90 10000 5 170 23:19 13.12.2019
2672 Snow 0 1015 86 10000 6 160 22:55 13.12.2019
2673 Snow 0 1015 86 10000 5 160 22:36 13.12.2019
2674 Snow 0 1015 86 10000 5 160 22:18 13.12.2019
2675 Snow 0 1015 86 10000 4 160 21:40 13.12.2019
2676 Snow 0 1015 86 10000 4 160 21:21 13.12.2019
2677 Snow 0 1015 86 10000 4 160 20:57 13.12.2019
2678 Snow 0 1015 90 9000 4 150 20:38 13.12.2019
2679 Snow 0 1015 87 9000 4 150 20:19 13.12.2019
2680 Snow 0 1015 87 9000 4 150 20:19 13.12.2019
2681 Snow 0 1015 87 9000 4 150 19:56 13.12.2019
2682 Snow 0 1015 87 9000 4 160 19:37 13.12.2019
2683 Snow 0 1015 87 9000 4 160 19:18 13.12.2019
2684 Clouds 0 1015 87 7000 4 150 18:42 13.12.2019
2685 Clouds 0 1015 87 8000 5 150 18:20 13.12.2019
2686 Clouds 0 1015 87 7000 4 150 18:20 13.12.2019
2687 Clouds 0 1015 87 8000 5 150 17:59 13.12.2019
2688 Snow 0 1015 87 10000 6 150 17:39 13.12.2019
2689 Snow 0 1016 82 10000 5 160 17:18 13.12.2019
2690 Snow 0 1016 82 10000 5 160 17:18 13.12.2019
2691 Snow 0 1016 82 10000 5 160 16:56 13.12.2019
2692 Snow 0 1016 82 10000 6 160 16:38 13.12.2019
2693 Snow 0 1016 82 10000 6 160 16:19 13.12.2019
2694 Snow 0 1015 82 9000 5 150 15:42 13.12.2019
2695 Snow 0 1015 82 9000 5 150 15:21 13.12.2019
2696 Snow 0 1016 82 9000 5 150 14:57 13.12.2019
2697 Clouds 0 1016 74 10000 5 150 14:37 13.12.2019
2698 Clouds 0 1016 74 10000 5 150 14:19 13.12.2019
2699 Clouds 0 1016 80 10000 4 160 13:43 13.12.2019
2700 Clouds 0 1016 81 10000 4 160 13:24 13.12.2019
2701 Clouds 0 1016 74 10000 5 160 12:58 13.12.2019
2702 Clouds 0 1016 80 10000 6 170 12:40 13.12.2019
2703 Clouds 0 1016 80 10000 5 150 12:18 13.12.2019
2704 Clouds 0 1016 80 10000 4 180 11:45 13.12.2019
2705 Clouds 0 1016 80 10000 4 180 11:26 13.12.2019
2706 Clouds 0 1017 80 10000 5 180 10:57 13.12.2019
2707 Clouds 0 1017 80 10000 4 180 10:39 13.12.2019
2708 Clouds 1 1017 80 10000 4 180 10:21 13.12.2019
2709 Clouds 1 1017 80 10000 4 170 09:42 13.12.2019
2710 Clouds 1 1017 80 10000 4 170 09:22 13.12.2019
2711 Clouds 1 1018 86 10000 5 170 08:55 13.12.2019
2712 Clouds 1 1017 86 10000 4 170 08:36 13.12.2019
2713 Clouds 1 1017 86 10000 5 170 08:18 13.12.2019
2714 Clouds 1 1017 86 10000 5 170 07:42 13.12.2019
2715 Clouds 1 1017 86 10000 5 170 07:19 13.12.2019
2716 Clouds 1 1017 86 10000 4 190 06:45 13.12.2019
2717 Clouds 1 1017 86 10000 4 190 06:25 13.12.2019
2718 Clouds 1 1017 74 10000 5 190 05:38 13.12.2019
2719 Clouds 1 1017 69 10000 4 190 05:20 13.12.2019
2720 Clouds 1 1017 69 10000 4 170 04:29 13.12.2019
2721 Clouds 2 1018 74 10000 4 180 02:57 13.12.2019
2722 Clouds 1 1018 74 10000 3 200 02:30 13.12.2019
2723 Clouds 2 1018 80 10000 4 180 01:38 13.12.2019
2724 Clouds 2 1019 80 10000 5 170 00:51 13.12.2019
2725 Clouds 2 1019 88 10000 4 180 00:28 13.12.2019
2726 Clouds 2 1019 88 10000 5 180 23:44 12.12.2019
2727 Clouds 2 1019 88 10000 5 180 23:26 12.12.2019
2728 Clouds 2 1019 88 10000 5 180 22:57 12.12.2019
2729 Clouds 2 1020 88 10000 5 180 22:39 12.12.2019
2730 Clouds 2 1020 88 10000 5 180 22:21 12.12.2019
2731 Clouds 2 1020 88 10000 5 190 21:56 12.12.2019
2732 Clouds 2 1020 88 10000 5 190 21:37 12.12.2019
2733 Clouds 2 1020 88 10000 5 190 21:19 12.12.2019
2734 Clouds 2 1020 88 10000 5 190 20:59 12.12.2019
2735 Clouds 2 1020 86 10000 4 190 20:40 12.12.2019
2736 Clouds 2 1020 86 10000 4 190 20:22 12.12.2019
2737 Clouds 2 1020 86 10000 5 200 19:56 12.12.2019
2738 Clouds 3 1020 86 10000 4 190 19:38 12.12.2019
2739 Clouds 3 1020 86 10000 4 190 19:20 12.12.2019
2740 Clouds 3 1020 86 10000 4 190 18:56 12.12.2019
2741 Clouds 3 1020 86 10000 4 190 18:56 12.12.2019
2742 Clouds 3 1020 86 10000 5 200 18:38 12.12.2019
2743 Clouds 3 1020 86 10000 5 200 18:19 12.12.2019
2744 Rain 3 1020 86 10000 4 190 17:57 12.12.2019
2745 Clouds 3 1021 86 9000 5 200 17:38 12.12.2019
2746 Clouds 3 1021 86 10000 5 190 17:19 12.12.2019
2747 Clouds 3 1021 86 10000 5 190 16:55 12.12.2019
2748 Clouds 3 1021 86 10000 5 190 16:37 12.12.2019
2749 Clouds 3 1021 86 10000 5 190 16:19 12.12.2019
2750 Clouds 3 1021 86 10000 5 190 15:54 12.12.2019
2751 Clouds 3 1021 86 10000 5 190 15:54 12.12.2019
2752 Drizzle 3 1021 86 10000 4 190 15:36 12.12.2019
2753 Clouds 3 1021 86 10000 5 190 15:18 12.12.2019
2754 Clouds 3 1021 86 10000 5 190 15:18 12.12.2019
2755 Clouds 3 1021 86 10000 4 180 14:38 12.12.2019
2756 Clouds 3 1021 86 10000 4 180 14:20 12.12.2019
2757 Clouds 3 1021 86 10000 4 180 13:57 12.12.2019
2758 Clouds 3 1021 86 10000 4 180 13:39 12.12.2019
2759 Clouds 3 1021 86 10000 4 180 13:21 12.12.2019
2760 Clouds 3 1022 86 10000 4 190 12:57 12.12.2019
2761 Clouds 3 1022 86 10000 4 180 12:38 12.12.2019
2762 Clouds 2 1022 93 10000 3 170 12:20 12.12.2019
2763 Clouds 2 1022 93 10000 3 170 11:55 12.12.2019
2764 Clouds 2 1022 93 9000 4 200 11:37 12.12.2019
2765 Drizzle 2 1022 93 8000 4 190 11:19 12.12.2019
2766 Clouds 2 1022 100 7000 4 190 10:55 12.12.2019
2767 Clouds 2 1022 100 7000 4 190 10:37 12.12.2019
2768 Clouds 2 1022 100 7000 4 190 10:18 12.12.2019
2769 Drizzle 2 1023 93 7000 3 190 10:18 12.12.2019
2770 Drizzle 2 1023 93 7000 4 170 09:42 12.12.2019
2771 Drizzle 1 1023 93 7000 4 170 09:23 12.12.2019
2772 Drizzle 1 1023 100 7000 3 170 08:56 12.12.2019
2773 Clouds 1 1023 97 8000 3 160 08:38 12.12.2019
2774 Clouds 1 1023 97 8000 3 160 08:20 12.12.2019
2775 Clouds 1 1023 97 8000 3 150 07:46 12.12.2019
2776 Clouds 1 1023 97 8000 3 150 07:25 12.12.2019
2777 Clouds 1 1023 97 9000 3 150 06:54 12.12.2019
2778 Clouds 1 1023 97 9000 3 150 06:33 12.12.2019
2779 Snow 0 1023 86 10000 3 130 05:39 12.12.2019
2780 Snow 0 1023 92 10000 3 130 04:52 12.12.2019
2781 Snow 0 1023 92 10000 3 130 04:52 12.12.2019
2782 Snow 0 1023 92 9000 4 140 03:31 12.12.2019
2783 Clouds 0 1023 86 10000 4 160 02:38 12.12.2019
2784 Clouds 0 1023 86 10000 4 160 02:20 12.12.2019
2785 Clouds 0 1023 84 10000 4 140 01:40 12.12.2019
2786 Clouds 0 1024 84 10000 2 110 01:22 12.12.2019
2787 Clouds 0 1024 84 10000 3 100 00:46 12.12.2019
2788 Clouds 0 1024 84 10000 3 100 00:20 12.12.2019
2789 Snow 0 1024 84 9000 2 100 23:44 11.12.2019
2790 Snow 0 1024 83 9000 2 100 23:21 11.12.2019
2791 Clouds 0 1024 83 10000 2 110 22:57 11.12.2019
2792 Clouds 0 1024 83 10000 3 100 22:39 11.12.2019
2793 Clouds 0 1024 83 10000 3 100 22:20 11.12.2019
2794 Clouds 0 1024 83 10000 3 90 21:57 11.12.2019
2795 Clouds 0 1024 83 10000 4 100 21:38 11.12.2019
2796 Snow 0 1024 83 10000 3 100 21:20 11.12.2019
2797 Snow 0 1024 83 10000 3 100 20:56 11.12.2019
2798 Snow 0 1024 92 10000 3 90 20:37 11.12.2019
2799 Snow 0 1024 92 10000 3 90 20:37 11.12.2019
2800 Snow 0 1024 92 10000 3 90 20:19 11.12.2019
2801 Clouds 1 1024 92 10000 2 60 19:58 11.12.2019
2802 Snow 1 1024 92 10000 2 50 19:39 11.12.2019
2803 Clouds 1 1023 92 10000 2 60 19:19 11.12.2019
2804 Clouds 0 1023 92 10000 2 30 18:42 11.12.2019
2805 Clouds 1 1023 85 10000 1 120 18:21 11.12.2019
2806 Clouds 1 1023 85 10000 1 120 17:57 11.12.2019
2807 Clouds 1 1023 85 10000 1 120 17:57 11.12.2019
2808 Clouds 1 1023 85 10000 3 70 17:39 11.12.2019
2809 Clouds 1 1023 87 10000 3 70 17:19 11.12.2019
2810 Clouds 1 1023 87 10000 3 70 16:57 11.12.2019
2811 Clouds 1 1023 87 10000 3 50 16:39 11.12.2019
2812 Clouds 1 1023 87 10000 3 50 16:21 11.12.2019
2813 Clouds 1 1023 87 10000 3 40 15:59 11.12.2019
2814 Clouds 1 1022 87 10000 3 40 15:40 11.12.2019
2815 Clouds 1 1022 87 10000 3 40 15:22 11.12.2019
2816 Clouds 1 1022 87 10000 3 40 14:56 11.12.2019
2817 Clouds 2 1022 87 10000 3 40 14:38 11.12.2019
2818 Clouds 2 1021 86 10000 3 20 14:20 11.12.2019
2819 Clouds 2 1021 86 10000 3 20 13:55 11.12.2019
2820 Snow 2 1021 86 8000 3 10 13:37 11.12.2019
2821 Snow 2 1021 86 8000 3 10 13:18 11.12.2019
2822 Clouds 3 1021 86 10000 3 340 12:56 11.12.2019
2823 Clouds 3 1021 86 10000 3 10 12:38 11.12.2019
2824 Clouds 3 1021 86 10000 3 10 12:19 11.12.2019
2825 Clouds 3 1020 83 10000 3 350 11:57 11.12.2019
2826 Clouds 3 1020 83 10000 4 340 11:38 11.12.2019
2827 Clouds 3 1020 87 10000 4 340 11:18 11.12.2019
2828 Mist 3 1019 100 2500 2 300 10:45 11.12.2019
2829 Clouds 4 1019 100 10000 4 360 10:27 11.12.2019
2830 Clouds 3 1019 93 10000 4 10 09:59 11.12.2019
2831 Clouds 3 1019 93 10000 4 330 09:39 11.12.2019
2832 Drizzle 3 1019 100 10000 4 350 09:20 11.12.2019
2833 Drizzle 3 1019 100 10000 4 350 08:57 11.12.2019
2834 Clouds 3 1018 100 10000 5 340 08:38 11.12.2019
2835 Drizzle 3 1017 100 5000 4 290 08:19 11.12.2019
2836 Drizzle 3 1017 100 5000 4 290 07:55 11.12.2019
2837 Drizzle 3 1017 100 3700 4 260 07:37 11.12.2019
2838 Mist 3 1017 100 5000 4 260 07:18 11.12.2019
2839 Mist 3 1017 100 5000 4 260 07:18 11.12.2019
2840 Mist 3 1016 100 5000 4 250 06:43 11.12.2019
2841 Mist 3 1016 100 5000 4 250 06:22 11.12.2019
2842 Mist 3 1016 100 5000 4 240 05:41 11.12.2019
2843 Mist 3 1016 100 5000 4 240 05:19 11.12.2019
2844 Mist 3 1015 100 5000 3 250 04:27 11.12.2019
2845 Drizzle 3 1014 100 1900 4 250 02:49 11.12.2019
2846 Fog 3 1014 100 800 5 230 01:25 11.12.2019
2847 Mist 3 1014 100 1400 6 240 00:47 11.12.2019
2848 Mist 3 1014 100 1400 6 240 00:21 11.12.2019
2849 Mist 3 1014 100 2700 6 240 23:49 10.12.2019
2850 Mist 3 1014 100 3300 5 230 23:30 10.12.2019
2851 Mist 3 1013 100 3700 5 220 22:59 10.12.2019
2852 Mist 3 1013 100 3700 5 220 22:59 10.12.2019
2853 Mist 3 1013 100 4200 4 230 22:40 10.12.2019
2854 Mist 3 1013 100 4200 4 230 22:40 10.12.2019
2855 Mist 3 1013 100 4200 4 230 22:22 10.12.2019
2856 Mist 3 1013 100 4000 5 220 21:57 10.12.2019
2857 Mist 3 1013 100 3600 4 220 21:39 10.12.2019
2858 Mist 3 1013 100 4300 4 220 21:21 10.12.2019
2859 Mist 3 1013 100 4300 4 220 20:57 10.12.2019
2860 Mist 3 1013 100 4300 4 230 20:37 10.12.2019
2861 Mist 3 1013 100 3300 5 230 20:19 10.12.2019
2862 Mist 3 1013 100 3300 5 230 19:55 10.12.2019
2863 Mist 3 1013 100 3100 5 230 19:37 10.12.2019
2864 Mist 3 1013 100 3100 5 230 19:18 10.12.2019
2865 Mist 3 1013 100 3100 5 220 18:40 10.12.2019
2866 Mist 3 1013 100 3100 5 220 18:21 10.12.2019
2867 Mist 3 1013 100 4400 4 210 17:58 10.12.2019
2868 Mist 3 1013 100 3900 4 210 17:40 10.12.2019
2869 Mist 3 1013 100 3900 4 210 17:40 10.12.2019
2870 Mist 3 1012 100 4600 4 200 17:20 10.12.2019
2871 Mist 3 1012 100 4600 4 200 16:54 10.12.2019
2872 Mist 3 1012 100 4800 5 210 16:36 10.12.2019
2873 Rain 3 1012 100 4800 5 210 16:18 10.12.2019
2874 Clouds 3 1012 100 6000 4 220 15:38 10.12.2019
2875 Clouds 3 1012 100 6000 4 220 15:18 10.12.2019
2876 Rain 3 1012 100 5000 5 210 14:56 10.12.2019
2877 Rain 3 1012 100 5000 5 200 14:37 10.12.2019
2878 Mist 3 1012 100 4600 4 190 14:19 10.12.2019
2879 Mist 3 1012 100 4600 4 190 13:57 10.12.2019
2880 Mist 3 1012 100 4500 4 200 13:39 10.12.2019
2881 Mist 3 1012 100 5000 5 210 13:20 10.12.2019
2882 Mist 3 1012 100 5000 5 210 12:47 10.12.2019
2883 Drizzle 3 1012 100 5000 4 200 12:27 10.12.2019
2884 Drizzle 3 1012 100 5000 4 210 11:55 10.12.2019
2885 Drizzle 3 1012 100 7000 4 190 11:37 10.12.2019
2886 Drizzle 3 1012 100 7000 4 190 11:18 10.12.2019
2887 Clouds 3 1012 100 9000 4 200 10:42 10.12.2019
2888 Clouds 3 1012 100 9000 4 200 10:24 10.12.2019
2889 Clouds 4 1012 93 10000 4 200 09:57 10.12.2019
2890 Clouds 3 1012 93 10000 4 200 09:39 10.12.2019
2891 Clouds 3 1012 93 10000 4 200 09:20 10.12.2019
2892 Clouds 3 1012 100 10000 3 190 08:58 10.12.2019
2893 Drizzle 3 1012 100 10000 4 210 08:39 10.12.2019
2894 Drizzle 3 1012 100 10000 4 210 08:20 10.12.2019
2895 Drizzle 3 1012 100 9000 4 210 07:45 10.12.2019
2896 Clouds 3 1011 100 9000 4 220 07:27 10.12.2019
2897 Drizzle 3 1011 93 9000 4 210 06:55 10.12.2019
2898 Drizzle 3 1011 100 9000 4 210 06:37 10.12.2019
2899 Drizzle 3 1011 100 9000 4 210 06:19 10.12.2019
2900 Clouds 3 1011 100 8000 4 220 05:47 10.12.2019
2901 Drizzle 3 1010 100 5000 4 240 04:23 10.12.2019
2902 Clouds 3 1009 100 7000 5 230 03:25 10.12.2019
2903 Clouds 3 1008 100 9000 5 230 01:57 10.12.2019
2904 Clouds 3 1008 93 10000 4 210 01:38 10.12.2019
2905 Clouds 3 1008 93 10000 4 210 01:18 10.12.2019
2906 Clouds 3 1007 93 8000 5 220 00:29 10.12.2019
2907 Clouds 3 1007 93 10000 5 220 23:58 09.12.2019
2908 Clouds 3 1007 93 10000 5 220 23:39 09.12.2019
2909 Clouds 3 1007 93 10000 5 220 23:39 09.12.2019
2910 Clouds 4 1007 93 9000 4 210 23:20 09.12.2019
2911 Clouds 4 1007 93 9000 4 210 23:20 09.12.2019
2912 Clouds 4 1007 93 9000 4 210 22:56 09.12.2019
2913 Rain 4 1006 93 6000 4 220 22:38 09.12.2019
2914 Rain 4 1006 93 6000 4 220 22:38 09.12.2019
2915 Clouds 4 1006 86 10000 5 220 22:18 09.12.2019
2916 Clouds 4 1006 86 10000 5 220 21:55 09.12.2019
2917 Clouds 4 1006 86 10000 6 220 21:37 09.12.2019
2918 Clouds 4 1006 86 10000 6 220 21:18 09.12.2019
2919 Clouds 4 1005 86 10000 6 220 20:55 09.12.2019
2920 Clouds 4 1005 86 10000 6 210 20:37 09.12.2019
2921 Clouds 4 1005 86 10000 6 220 20:18 09.12.2019
2922 Clouds 4 1005 86 10000 6 220 19:55 09.12.2019
2923 Clouds 4 1005 86 10000 6 220 19:55 09.12.2019
2924 Clouds 4 1004 86 10000 6 220 19:37 09.12.2019
2925 Clouds 4 1004 86 10000 6 220 19:37 09.12.2019
2926 Clouds 4 1004 86 10000 6 210 19:18 09.12.2019
2927 Clouds 4 1004 86 10000 6 210 18:54 09.12.2019
2928 Clouds 4 1004 86 10000 5 220 18:36 09.12.2019
2929 Clouds 4 1004 86 10000 5 220 18:18 09.12.2019
2930 Clouds 4 1004 86 10000 5 220 18:18 09.12.2019
2931 Clouds 4 1004 86 10000 5 220 18:18 09.12.2019
2932 Clouds 4 1004 86 10000 6 210 17:55 09.12.2019
2933 Clouds 4 1004 86 10000 5 220 17:37 09.12.2019
2934 Clouds 4 1004 86 10000 5 220 17:18 09.12.2019
2935 Clouds 4 1004 86 10000 5 220 17:18 09.12.2019
2936 Clouds 4 1004 86 10000 6 220 16:54 09.12.2019
2937 Clouds 4 1004 86 10000 6 220 16:54 09.12.2019
2938 Clouds 4 1003 93 10000 7 220 16:36 09.12.2019
2939 Clouds 4 1003 93 10000 7 220 16:18 09.12.2019
2940 Clouds 4 1003 93 10000 6 220 15:54 09.12.2019
2941 Clouds 4 1003 93 10000 7 220 15:36 09.12.2019
2942 Clouds 3 1003 93 10000 5 210 15:18 09.12.2019
2943 Drizzle 3 1003 93 5000 5 210 14:41 09.12.2019
2944 Drizzle 3 1003 93 5000 5 210 14:18 09.12.2019
2945 Drizzle 3 1003 93 5000 5 210 14:18 09.12.2019
2946 Rain 4 1002 93 10000 6 210 13:56 09.12.2019
2947 Rain 4 1002 80 10000 6 220 13:38 09.12.2019
2948 Rain 4 1002 80 10000 6 220 13:19 09.12.2019
2949 Clouds 4 1002 80 10000 6 220 12:56 09.12.2019
2950 Clouds 4 1002 80 10000 6 210 12:37 09.12.2019
2951 Clouds 4 1001 80 10000 7 210 12:19 09.12.2019
2952 Clouds 4 1001 80 10000 7 210 11:55 09.12.2019
2953 Clouds 4 1001 80 10000 7 210 11:37 09.12.2019
2954 Clouds 4 1001 80 10000 6 200 11:18 09.12.2019
2955 Clouds 4 1001 80 10000 6 200 11:18 09.12.2019
2956 Clouds 4 1002 80 10000 6 200 10:40 09.12.2019
2957 Clouds 4 1002 80 10000 6 200 10:20 09.12.2019
2958 Clouds 4 1001 80 10000 7 190 09:58 09.12.2019
2959 Clouds 4 1001 80 10000 7 190 09:40 09.12.2019
2960 Clouds 4 1001 80 10000 7 190 09:21 09.12.2019
2961 Rain 3 1001 80 10000 6 200 08:44 09.12.2019
2962 Rain 3 1001 80 10000 6 200 08:25 09.12.2019
2963 Clouds 3 1002 86 10000 8 190 07:56 09.12.2019
2964 Clouds 3 1001 86 10000 7 190 07:38 09.12.2019
2965 Clouds 3 1001 86 10000 7 190 07:20 09.12.2019
2966 Clouds 3 1001 86 10000 7 190 06:43 09.12.2019
2967 Clouds 3 1001 86 10000 7 190 06:24 09.12.2019
2968 Clouds 2 1002 86 10000 7 190 05:26 09.12.2019
2969 Clouds 2 1003 96 10000 7 190 04:33 09.12.2019
2970 Clouds 2 1003 80 10000 6 190 03:20 09.12.2019
2971 Clouds 2 1003 74 10000 7 190 02:24 09.12.2019
2972 Clouds 2 1004 74 10000 6 200 01:42 09.12.2019
2973 Clouds 2 1004 74 10000 6 200 01:42 09.12.2019
2974 Clouds 2 1004 74 10000 6 200 00:46 09.12.2019
2975 Clouds 2 1004 74 10000 6 190 00:27 09.12.2019
2976 Clouds 2 1004 74 10000 6 220 23:43 08.12.2019
2977 Clouds 2 1004 74 10000 6 220 23:24 08.12.2019
2978 Clouds 2 1004 80 10000 5 210 22:57 08.12.2019
2979 Clouds 2 1005 80 10000 5 200 22:39 08.12.2019
2980 Clouds 2 1005 80 10000 5 200 22:39 08.12.2019
2981 Clouds 2 1005 90 10000 5 210 22:19 08.12.2019
2982 Clouds 2 1005 90 10000 5 210 21:58 08.12.2019
2983 Clouds 2 1005 90 10000 5 210 21:40 08.12.2019
2984 Clouds 2 1005 90 10000 5 220 21:21 08.12.2019
2985 Clouds 2 1005 90 10000 5 220 20:57 08.12.2019
2986 Clouds 2 1005 90 10000 6 220 20:38 08.12.2019
2987 Clouds 2 1005 85 10000 6 220 20:20 08.12.2019
2988 Clouds 2 1005 86 10000 6 220 19:59 08.12.2019
2989 Clouds 2 1004 86 10000 7 230 19:41 08.12.2019
2990 Clouds 2 1004 86 10000 7 230 19:23 08.12.2019
2991 Clouds 2 1004 86 10000 7 230 19:23 08.12.2019
2992 Clouds 2 1004 86 10000 6 230 18:56 08.12.2019
2993 Clouds 2 1004 86 10000 7 230 18:37 08.12.2019
2994 Clouds 2 1004 86 10000 7 230 18:19 08.12.2019
2995 Clouds 2 1004 86 10000 6 230 17:57 08.12.2019
2996 Clouds 2 1003 86 10000 7 240 17:39 08.12.2019
2997 Rain 2 1003 93 10000 8 240 17:20 08.12.2019
2998 Rain 2 1003 93 10000 8 240 17:20 08.12.2019
2999 Clouds 2 1003 87 10000 7 240 17:20 08.12.2019
3000 Rain 2 1003 93 10000 8 240 16:57 08.12.2019
3001 Clouds 2 1003 93 10000 7 230 16:39 08.12.2019
3002 Clouds 2 1003 93 10000 7 230 16:21 08.12.2019
3003 Clouds 3 1002 93 10000 7 230 15:56 08.12.2019
3004 Clouds 2 1001 93 10000 6 220 15:37 08.12.2019
3005 Clouds 2 1001 93 10000 6 220 15:18 08.12.2019
3006 Rain 2 1001 93 9000 6 220 14:44 08.12.2019
3007 Rain 2 1001 93 9000 6 220 14:24 08.12.2019
3008 Rain 2 1000 93 10000 6 210 13:59 08.12.2019
3009 Clouds 2 1000 93 10000 7 220 13:40 08.12.2019
3010 Rain 2 1000 95 10000 7 220 13:22 08.12.2019
3011 Rain 2 1000 95 10000 7 220 12:58 08.12.2019
3012 Rain 2 1000 95 10000 7 220 12:58 08.12.2019
3013 Rain 2 1000 95 9000 7 220 12:38 08.12.2019
3014 Clouds 2 999 95 10000 7 220 12:19 08.12.2019
3015 Clouds 2 999 95 10000 7 220 11:57 08.12.2019
3016 Clouds 2 999 95 10000 7 210 11:37 08.12.2019
3017 Clouds 2 999 87 10000 7 210 11:19 08.12.2019
3018 Clouds 2 999 87 10000 7 210 10:55 08.12.2019
3019 Clouds 2 999 87 10000 7 210 10:36 08.12.2019
3020 Clouds 2 999 87 10000 7 210 10:18 08.12.2019
3021 Clouds 1 1000 80 10000 6 210 09:54 08.12.2019
3022 Clouds 1 1000 80 10000 7 220 09:36 08.12.2019
3023 Clouds 1 1000 80 10000 7 220 09:18 08.12.2019
3024 Clouds 1 999 86 10000 7 210 08:41 08.12.2019
3025 Clouds 1 999 86 10000 7 210 08:23 08.12.2019
3026 Clouds 1 999 86 10000 7 210 07:55 08.12.2019
3027 Clouds 1 999 86 10000 6 210 07:36 08.12.2019
3028 Clouds 1 999 86 10000 6 210 07:18 08.12.2019
3029 Clouds 0 998 83 10000 7 200 06:40 08.12.2019
3030 Clouds 0 998 83 10000 7 200 06:20 08.12.2019
3031 Clouds 0 998 83 9000 6 210 05:23 08.12.2019
3032 Clouds 0 998 81 10000 6 210 04:46 08.12.2019
3033 Clouds 0 998 81 10000 6 210 03:39 08.12.2019
3034 Clouds 0 998 81 10000 7 200 02:43 08.12.2019
3035 Clouds 0 998 74 10000 7 200 02:20 08.12.2019
3036 Clouds -1 999 80 10000 7 200 01:41 08.12.2019
3037 Clouds -1 999 80 10000 7 200 00:56 08.12.2019
3038 Clouds -1 999 80 10000 7 200 00:36 08.12.2019
3039 Clouds -1 999 80 10000 7 200 00:18 08.12.2019
3040 Clouds -1 999 75 10000 6 200 23:39 07.12.2019
3041 Clouds 0 999 72 10000 6 200 23:20 07.12.2019
3042 Clouds 0 1000 72 10000 7 200 22:56 07.12.2019
3043 Clouds 0 1000 72 10000 6 200 22:37 07.12.2019
3044 Clouds 0 1000 72 10000 6 200 22:19 07.12.2019
3045 Clouds 0 1000 72 10000 5 200 21:55 07.12.2019
3046 Clouds 0 1000 72 10000 5 200 21:37 07.12.2019
3047 Clouds 0 1000 72 10000 5 200 21:19 07.12.2019
3048 Clouds 0 1001 72 10000 6 200 20:38 07.12.2019
3049 Clouds 0 1001 72 10000 5 200 20:20 07.12.2019
3050 Clouds 0 1001 72 10000 5 200 19:58 07.12.2019
3051 Clouds 0 1001 72 10000 6 200 19:39 07.12.2019
3052 Clouds -1 1001 72 10000 6 200 19:21 07.12.2019
3053 Clouds -1 1002 72 10000 5 200 18:59 07.12.2019
3054 Clouds 0 1002 69 10000 5 200 18:40 07.12.2019
3055 Clouds 0 1002 69 10000 5 200 18:18 07.12.2019
3056 Clouds 0 1002 74 10000 6 200 17:56 07.12.2019
3057 Clouds 0 1002 74 10000 6 200 17:37 07.12.2019
3058 Clouds 1 1002 74 10000 6 200 17:19 07.12.2019
3059 Clouds 1 1003 80 10000 6 200 16:56 07.12.2019
3060 Clouds 1 1003 80 10000 6 200 16:36 07.12.2019
3061 Clouds 1 1003 80 10000 5 200 16:18 07.12.2019
3062 Clouds 1 1003 86 10000 4 200 15:41 07.12.2019
3063 Clouds 1 1003 86 10000 4 200 15:23 07.12.2019
3064 Clouds 2 1003 86 10000 4 200 14:57 07.12.2019
3065 Clouds 2 1003 78 10000 3 190 14:38 07.12.2019
3066 Clouds 2 1003 85 10000 3 190 14:18 07.12.2019
3067 Clouds 2 1003 85 6000 4 200 13:41 07.12.2019
3068 Clouds 2 1003 86 6000 4 200 13:21 07.12.2019
3069 Drizzle 2 1003 86 4500 5 190 12:56 07.12.2019
3070 Drizzle 2 1004 86 2800 4 200 12:38 07.12.2019
3071 Drizzle 2 1004 86 2800 4 200 12:20 07.12.2019
3072 Clouds 1 1004 86 9000 4 210 11:56 07.12.2019
3073 Clouds 1 1004 86 10000 4 220 11:37 07.12.2019
3074 Clouds 1 1004 87 10000 5 210 11:19 07.12.2019
3075 Clouds 1 1004 87 10000 5 210 10:37 07.12.2019
3076 Clouds 1 1004 87 10000 5 210 10:19 07.12.2019
3077 Clouds 1 1004 87 10000 5 210 10:19 07.12.2019
3078 Clouds 1 1005 86 9000 5 220 09:41 07.12.2019
3079 Clouds 1 1005 86 9000 5 220 09:22 07.12.2019
3080 Clouds 1 1005 86 9000 5 220 08:56 07.12.2019
3081 Rain 1 1005 86 9000 5 220 08:37 07.12.2019
3082 Rain 1 1005 90 8000 5 220 08:19 07.12.2019
3083 Rain 1 1004 90 7000 6 220 07:44 07.12.2019
3084 Rain 1 1004 90 7000 6 220 07:23 07.12.2019
3085 Rain 1 1004 86 5000 5 220 06:45 07.12.2019
3086 Rain 1 1004 90 6000 5 220 06:24 07.12.2019
3087 Rain 1 1004 86 8000 5 220 05:25 07.12.2019
3088 Clouds 1 1004 80 10000 5 220 03:55 07.12.2019
3089 Clouds 1 1004 80 10000 5 230 02:59 07.12.2019
3090 Clouds 1 1004 80 10000 6 230 02:21 07.12.2019
3091 Clouds 1 1004 80 10000 8 230 01:34 07.12.2019
3092 Clouds 1 1004 80 10000 7 240 00:52 07.12.2019
3093 Clouds 1 1004 80 10000 7 240 00:19 07.12.2019
3094 Clouds 1 1004 80 10000 7 240 00:19 07.12.2019
3095 Clouds 1 1004 74 10000 7 240 23:55 06.12.2019
3096 Clouds 1 1004 74 10000 7 250 23:36 06.12.2019
3097 Clouds 1 1004 74 10000 7 250 23:18 06.12.2019
3098 Clouds 1 1004 74 10000 7 250 22:37 06.12.2019
3099 Clouds 2 1003 74 10000 7 250 22:19 06.12.2019
3100 Clouds 2 1003 74 10000 7 250 21:57 06.12.2019
3101 Clouds 2 1003 74 10000 7 250 21:38 06.12.2019
3102 Clouds 1 1003 74 10000 7 240 21:19 06.12.2019
3103 Clouds 1 1002 69 10000 8 240 20:42 06.12.2019
3104 Clouds 1 1002 69 10000 8 240 20:42 06.12.2019
3105 Clouds 2 1002 69 10000 8 240 20:23 06.12.2019
3106 Clouds 1 1002 69 10000 8 240 19:59 06.12.2019
3107 Clouds 2 1002 64 10000 8 240 19:40 06.12.2019
3108 Clouds 2 1002 64 10000 8 240 19:22 06.12.2019
3109 Clouds 1 1001 69 10000 8 230 18:57 06.12.2019
3110 Rain 2 1001 64 10000 8 230 18:39 06.12.2019
3111 Rain 2 1001 64 10000 8 230 18:19 06.12.2019
3112 Clouds 1 1002 69 10000 8 230 17:56 06.12.2019
3113 Clouds 1 1002 74 10000 7 220 17:37 06.12.2019
3114 Clouds 1 1001 74 10000 8 220 17:19 06.12.2019
3115 Clouds 1 1002 74 10000 8 220 16:43 06.12.2019
3116 Clouds 1 1002 74 10000 8 220 16:25 06.12.2019
3117 Clouds 1 1002 80 10000 8 210 15:59 06.12.2019
3118 Clouds 2 1002 80 10000 6 220 15:40 06.12.2019
3119 Clouds 2 1002 80 10000 6 220 15:40 06.12.2019
3120 Clouds 2 1002 80 10000 6 220 15:19 06.12.2019
3121 Clouds 2 1002 80 10000 6 210 14:57 06.12.2019
3122 Clouds 2 1003 80 10000 5 220 14:38 06.12.2019
3123 Clouds 2 1003 80 10000 5 220 14:38 06.12.2019
3124 Clouds 1 1003 80 10000 5 220 14:19 06.12.2019
3125 Clouds 2 1003 86 10000 6 220 13:43 06.12.2019
3126 Clouds 2 1003 86 10000 6 220 13:25 06.12.2019
3127 Clouds 2 1004 86 10000 7 240 12:43 06.12.2019
3128 Clouds 2 1004 86 10000 7 230 12:23 06.12.2019
3129 Clouds 2 1006 80 10000 6 240 11:58 06.12.2019
3130 Clouds 2 1005 86 10000 8 240 11:39 06.12.2019
3131 Clouds 2 1005 86 10000 8 240 11:21 06.12.2019
3132 Clouds 2 1005 86 10000 9 250 10:44 06.12.2019
3133 Clouds 2 1005 81 10000 9 250 10:22 06.12.2019
3134 Clouds 2 1005 81 10000 9 250 09:58 06.12.2019
3135 Clouds 1 1005 81 10000 9 250 09:38 06.12.2019
3136 Clouds 1 1005 81 10000 9 250 09:20 06.12.2019
3137 Clouds 2 1005 81 9000 9 250 08:55 06.12.2019
3138 Clouds 2 1005 81 9000 9 240 08:36 06.12.2019
3139 Clouds 1 1005 85 9000 9 240 08:18 06.12.2019
3140 Drizzle 1 1005 85 9000 9 240 07:37 06.12.2019
3141 Drizzle 1 1005 100 9000 8 220 07:19 06.12.2019
3142 Drizzle 1 1005 100 4900 7 240 06:30 06.12.2019
3143 Drizzle 1 1006 100 4700 7 240 05:54 06.12.2019
3144 Drizzle 1 1006 100 4700 7 240 05:54 06.12.2019
3145 Drizzle 1 1006 100 5000 7 240 05:35 06.12.2019
3146 Clouds 2 1007 93 10000 7 260 02:19 06.12.2019
3147 Drizzle 2 1006 93 10000 9 260 01:34 06.12.2019
3148 Drizzle 2 1007 93 10000 9 260 00:48 06.12.2019
3149 Drizzle 2 1007 93 10000 9 260 00:22 06.12.2019
3150 Drizzle 2 1007 93 10000 7 260 23:50 05.12.2019
3151 Clouds 2 1007 93 10000 8 260 23:20 05.12.2019
3152 Clouds 2 1007 93 10000 9 250 22:58 05.12.2019
3153 Clouds 2 1007 93 10000 8 260 22:38 05.12.2019
3154 Clouds 3 1008 93 10000 6 270 22:18 05.12.2019
3155 Clouds 2 1007 93 10000 8 260 22:18 05.12.2019
3156 Clouds 3 1008 93 10000 6 270 21:55 05.12.2019
3157 Clouds 3 1007 93 10000 8 270 21:37 05.12.2019
3158 Clouds 3 1007 93 10000 9 260 21:18 05.12.2019
3159 Clouds 3 1007 93 10000 9 260 20:54 05.12.2019
3160 Drizzle 3 1007 93 10000 9 260 20:36 05.12.2019
3161 Drizzle 3 1007 93 10000 9 260 20:18 05.12.2019
3162 Drizzle 2 1007 93 10000 8 260 19:40 05.12.2019
3163 Drizzle 2 1007 93 10000 8 260 19:21 05.12.2019
3164 Drizzle 2 1007 93 10000 10 250 18:58 05.12.2019
3165 Drizzle 2 1007 93 9000 9 250 18:38 05.12.2019
3166 Drizzle 2 1007 93 9000 9 250 18:38 05.12.2019
3167 Drizzle 2 1007 93 9000 9 250 18:20 05.12.2019
3168 Drizzle 2 1007 100 10000 7 250 17:40 05.12.2019
3169 Drizzle 2 1007 100 9000 8 250 17:20 05.12.2019
3170 Clouds 2 1008 93 8000 7 250 16:59 05.12.2019
3171 Clouds 2 1008 93 10000 8 250 16:40 05.12.2019
3172 Clouds 2 1008 93 10000 8 250 16:21 05.12.2019
3173 Clouds 2 1008 93 10000 8 250 16:21 05.12.2019
3174 Clouds 2 1008 93 10000 8 250 15:58 05.12.2019
3175 Clouds 2 1008 100 10000 8 250 15:39 05.12.2019
3176 Clouds 2 1008 100 10000 8 250 15:20 05.12.2019
3177 Clouds 2 1008 100 10000 8 250 14:56 05.12.2019
3178 Clouds 2 1008 100 10000 8 250 14:38 05.12.2019
3179 Clouds 2 1008 100 10000 7 250 14:19 05.12.2019
3180 Clouds 2 1008 100 10000 7 250 13:57 05.12.2019
3181 Clouds 2 1008 93 10000 8 240 13:39 05.12.2019
3182 Clouds 2 1008 93 10000 8 240 13:20 05.12.2019
3183 Clouds 2 1009 93 10000 8 250 12:58 05.12.2019
3184 Clouds 2 1008 93 10000 8 240 12:39 05.12.2019
3185 Clouds 2 1008 93 10000 8 240 12:20 05.12.2019
3186 Clouds 2 1009 93 10000 7 240 11:40 05.12.2019
3187 Clouds 2 1009 93 10000 7 240 11:22 05.12.2019
3188 Clouds 2 1009 93 10000 8 250 10:58 05.12.2019
3189 Clouds 2 1009 93 10000 8 250 10:40 05.12.2019
3190 Clouds 2 1009 93 10000 7 250 10:19 05.12.2019
3191 Clouds 2 1009 93 10000 6 260 09:56 05.12.2019
3192 Clouds 2 1009 100 9000 6 270 09:38 05.12.2019
3193 Clouds 2 1009 100 9000 6 270 09:19 05.12.2019
3194 Clouds 2 1009 93 10000 7 270 08:54 05.12.2019
3195 Clouds 2 1009 93 10000 7 270 08:36 05.12.2019
3196 Clouds 2 1009 93 10000 7 270 08:18 05.12.2019
3197 Drizzle 2 1009 93 9000 6 280 07:41 05.12.2019
3198 Drizzle 2 1009 93 9000 6 280 07:21 05.12.2019
3199 Drizzle 2 1008 93 8000 6 280 06:47 05.12.2019
3200 Drizzle 2 1008 93 8000 6 280 06:23 05.12.2019
3201 Drizzle 2 1008 100 7000 6 280 05:54 05.12.2019
3202 Drizzle 2 1008 93 5000 5 280 05:24 05.12.2019
3203 Drizzle 2 1007 93 4700 6 290 04:40 05.12.2019
3204 Drizzle 1 1007 100 3400 5 270 03:39 05.12.2019
3205 Drizzle 1 1006 100 5000 5 270 02:42 05.12.2019
3206 Drizzle 1 1006 100 5000 5 270 02:22 05.12.2019
3207 Drizzle 1 1006 100 6000 5 270 01:51 05.12.2019
3208 Drizzle 1 1006 100 3700 5 270 01:23 05.12.2019
3209 Drizzle 0 1006 93 4100 5 260 00:44 05.12.2019
3210 Drizzle 0 1006 93 4200 5 260 00:21 05.12.2019
3211 Mist 0 1005 93 4400 5 250 23:55 04.12.2019
3212 Mist 0 1005 93 4400 6 260 23:37 04.12.2019
3213 Mist 0 1005 94 4400 6 260 23:18 04.12.2019
3214 Mist -1 1005 100 3200 6 250 22:39 04.12.2019
3215 Mist -1 1005 100 4200 6 250 22:20 04.12.2019
3216 Mist -1 1005 100 4200 6 250 21:58 04.12.2019
3217 Clouds -1 1005 92 6000 7 250 21:39 04.12.2019
3218 Clouds -1 1005 92 6000 7 250 21:20 04.12.2019
3219 Snow -1 1005 92 10000 7 250 20:58 04.12.2019
3220 Snow -1 1004 92 6000 7 250 20:40 04.12.2019
3221 Snow -1 1004 92 6000 7 250 20:21 04.12.2019
3222 Snow -1 1004 100 4700 8 250 19:58 04.12.2019
3223 Snow -1 1004 100 3800 7 250 19:38 04.12.2019
3224 Snow -1 1004 100 3800 7 250 19:20 04.12.2019
3225 Snow -2 1005 100 4200 7 250 18:56 04.12.2019
3226 Snow -2 1004 100 6000 7 240 18:38 04.12.2019
3227 Snow -2 1004 100 6000 7 240 18:20 04.12.2019
3228 Snow -2 1005 100 2500 7 240 17:40 04.12.2019
3229 Snow -2 1005 100 2500 7 240 17:21 04.12.2019
3230 Snow -2 1005 100 1200 8 240 16:59 04.12.2019
3231 Snow -2 1005 92 2100 9 240 16:39 04.12.2019
3232 Snow -2 1005 100 2300 8 240 16:19 04.12.2019
3233 Snow -2 1005 100 2300 8 240 15:55 04.12.2019
3234 Snow -2 1005 100 1400 9 240 15:37 04.12.2019
3235 Snow -2 1005 100 1400 9 240 15:19 04.12.2019
3236 Snow -2 1006 100 1400 7 230 14:44 04.12.2019
3237 Snow -1 1006 92 1200 8 230 14:23 04.12.2019
3238 Snow -1 1006 92 1200 6 220 13:59 04.12.2019
3239 Clouds -1 1008 80 10000 6 240 13:38 04.12.2019
3240 Clouds -1 1008 80 10000 6 240 13:20 04.12.2019
3241 Clouds -1 1008 80 10000 7 230 12:45 04.12.2019
3242 Clouds -1 1008 80 10000 7 230 12:25 04.12.2019
3243 Clouds -1 1008 86 10000 6 220 11:56 04.12.2019
3244 Snow -2 1009 86 8000 8 240 11:38 04.12.2019
3245 Snow -2 1009 86 8000 8 240 11:20 04.12.2019
3246 Clouds -2 1010 86 10000 7 230 10:44 04.12.2019
3247 Clouds -2 1010 86 10000 7 230 10:24 04.12.2019
3248 Clouds -2 1010 86 10000 8 240 09:57 04.12.2019
3249 Clouds -2 1010 86 10000 7 240 09:38 04.12.2019
3250 Clouds -2 1010 86 10000 7 240 09:20 04.12.2019
3251 Clouds -2 1010 86 10000 7 240 08:41 04.12.2019
3252 Clouds -2 1010 86 10000 6 240 08:23 04.12.2019
3253 Clouds -2 1010 86 10000 6 240 07:50 04.12.2019
3254 Clouds -2 1010 86 10000 7 250 07:30 04.12.2019
3255 Clouds -3 1010 92 10000 6 250 06:47 04.12.2019
3256 Clouds -3 1011 92 10000 5 260 06:25 04.12.2019
3257 Clouds -3 1011 92 10000 5 260 05:42 04.12.2019
3258 Snow -3 1010 92 10000 5 250 04:31 04.12.2019
3259 Snow -3 1011 86 10000 5 260 03:20 04.12.2019
3260 Snow -3 1011 86 10000 6 250 01:21 04.12.2019
3261 Snow -3 1010 92 10000 5 240 00:40 04.12.2019
3262 Snow -3 1010 92 10000 5 240 00:19 04.12.2019
3263 Snow -3 1011 79 10000 5 260 23:41 03.12.2019
3264 Snow -3 1011 79 10000 5 260 23:20 03.12.2019
3265 Snow -3 1011 79 10000 6 250 22:56 03.12.2019
3266 Clouds -3 1011 79 10000 6 260 22:36 03.12.2019
3267 Clouds -3 1011 79 10000 6 260 22:18 03.12.2019
3268 Clouds -3 1010 79 10000 6 260 21:55 03.12.2019
3269 Clouds -3 1010 79 10000 5 250 21:36 03.12.2019
3270 Clouds -2 1010 79 10000 4 250 21:18 03.12.2019
3271 Clouds -2 1010 79 10000 4 260 20:41 03.12.2019
3272 Clouds -2 1010 79 10000 4 260 20:19 03.12.2019
3273 Clouds -2 1010 74 10000 5 280 19:56 03.12.2019
3274 Snow -3 1010 79 10000 5 280 19:38 03.12.2019
3275 Snow -3 1010 79 10000 5 280 19:20 03.12.2019
3276 Snow -2 1010 74 10000 5 280 18:58 03.12.2019
3277 Clouds -2 1010 73 10000 4 290 18:40 03.12.2019
3278 Clouds -2 1010 68 10000 4 290 18:21 03.12.2019
3279 Clouds -2 1010 68 10000 4 290 17:57 03.12.2019
3280 Clouds -2 1010 68 10000 4 290 17:57 03.12.2019
3281 Clouds -2 1010 73 10000 5 300 17:38 03.12.2019
3282 Clouds -2 1010 73 10000 5 300 17:38 03.12.2019
3283 Clouds -2 1010 73 10000 5 300 17:38 03.12.2019
3284 Clouds -2 1010 73 10000 5 300 17:18 03.12.2019
3285 Snow -2 1010 74 10000 5 290 16:57 03.12.2019
3286 Snow -2 1009 74 10000 5 290 16:39 03.12.2019
3287 Snow -2 1009 74 10000 5 290 16:20 03.12.2019
3288 Snow -2 1009 79 10000 4 300 15:56 03.12.2019
3289 Clouds -2 1009 79 10000 4 310 15:38 03.12.2019
3290 Clouds -2 1009 86 10000 4 300 15:19 03.12.2019
3291 Snow -2 1009 86 10000 4 290 14:43 03.12.2019
3292 Snow -2 1009 86 10000 4 290 14:20 03.12.2019
3293 Clouds -2 1008 86 10000 3 290 13:57 03.12.2019
3294 Clouds -2 1008 79 10000 3 300 13:37 03.12.2019
3295 Clouds -2 1008 79 10000 3 300 13:19 03.12.2019
3296 Clouds -2 1008 86 10000 3 300 12:42 03.12.2019
3297 Snow -2 1008 92 9000 3 300 12:19 03.12.2019
3298 Snow -2 1008 92 9000 3 300 11:59 03.12.2019
3299 Snow -2 1008 92 7000 3 300 11:39 03.12.2019
3300 Snow -2 1008 92 7000 3 300 11:21 03.12.2019
3301 Snow -2 1008 92 4600 3 250 10:59 03.12.2019
3302 Snow -2 1008 100 6000 3 260 10:41 03.12.2019
3303 Snow -2 1008 100 6000 3 260 10:21 03.12.2019
3304 Snow -2 1008 92 4800 3 260 09:57 03.12.2019
3305 Snow -3 1008 92 6000 4 250 09:38 03.12.2019
3306 Snow -3 1008 92 6000 4 250 09:20 03.12.2019
3307 Snow -3 1008 92 7000 3 240 08:41 03.12.2019
3308 Snow -3 1007 92 7000 3 250 08:22 03.12.2019
3309 Snow -3 1007 92 5000 3 220 07:57 03.12.2019
3310 Snow -3 1007 92 4600 4 220 07:39 03.12.2019
3311 Snow -3 1007 92 4600 4 220 07:20 03.12.2019
3312 Snow -3 1007 92 6000 4 230 06:23 03.12.2019
3313 Snow -3 1007 92 7000 4 220 05:58 03.12.2019
3314 Snow -3 1007 92 4800 3 210 04:50 03.12.2019
3315 Snow -3 1008 92 6000 4 210 03:40 03.12.2019
3316 Snow -3 1008 92 6000 4 210 03:19 03.12.2019
3317 Snow -3 1008 92 3300 4 210 02:48 03.12.2019
3318 Snow -3 1008 92 6000 4 200 02:27 03.12.2019
3319 Snow -3 1008 92 4900 3 190 01:46 03.12.2019
3320 Snow -3 1008 92 4900 3 190 01:28 03.12.2019
3321 Snow -3 1008 92 3300 4 190 00:56 03.12.2019
3322 Snow -3 1009 92 4700 4 190 00:38 03.12.2019
3323 Snow -3 1009 92 4700 4 190 00:20 03.12.2019
3324 Snow -3 1009 86 10000 4 200 23:43 02.12.2019
3325 Snow -3 1009 86 10000 4 200 23:20 02.12.2019
3326 Snow -3 1009 92 6000 4 190 22:42 02.12.2019
3327 Snow -3 1009 92 6000 4 190 22:23 02.12.2019
3328 Snow -3 1009 86 7000 4 200 21:59 02.12.2019
3329 Snow -3 1009 86 9000 5 210 21:38 02.12.2019
3330 Snow -3 1010 86 6000 5 210 21:19 02.12.2019
3331 Snow -3 1010 86 6000 5 210 20:56 02.12.2019
3332 Snow -3 1010 92 4500 5 220 20:38 02.12.2019
3333 Snow -3 1010 92 4500 5 220 20:20 02.12.2019
3334 Snow -3 1010 92 4700 5 210 19:55 02.12.2019
3335 Snow -3 1010 92 4700 5 210 19:37 02.12.2019
3336 Snow -3 1010 92 4700 5 210 19:19 02.12.2019
3337 Snow -3 1010 92 4500 6 210 18:43 02.12.2019
3338 Snow -3 1010 86 4300 6 210 18:20 02.12.2019
3339 Snow -3 1010 86 4200 5 210 17:58 02.12.2019
3340 Snow -3 1010 86 6000 5 210 17:40 02.12.2019
3341 Snow -3 1010 86 6000 5 210 17:40 02.12.2019
3342 Snow -3 1010 86 6000 5 210 17:20 02.12.2019
3343 Snow -3 1010 86 7000 7 210 16:54 02.12.2019
3344 Clouds -3 1011 79 10000 6 210 16:36 02.12.2019
3345 Clouds -3 1011 79 10000 6 210 16:18 02.12.2019
3346 Clouds -3 1011 79 10000 6 210 15:55 02.12.2019
3347 Clouds -3 1011 79 10000 6 210 15:36 02.12.2019
3348 Clouds -3 1011 79 10000 6 210 15:18 02.12.2019
3349 Clouds -3 1012 79 10000 7 220 14:39 02.12.2019
3350 Clouds -3 1012 79 10000 7 220 14:20 02.12.2019
3351 Clouds -3 1012 79 10000 7 220 14:20 02.12.2019
3352 Clouds -3 1012 79 10000 8 210 13:58 02.12.2019
3353 Clouds -3 1012 79 10000 7 220 13:39 02.12.2019
3354 Clouds -3 1012 79 10000 7 220 13:20 02.12.2019
3355 Clouds -3 1012 79 10000 6 220 12:57 02.12.2019
3356 Clouds -3 1012 86 10000 7 220 12:38 02.12.2019
3357 Clouds -3 1012 86 10000 7 220 12:20 02.12.2019
3358 Clouds -3 1012 79 10000 6 220 11:56 02.12.2019
3359 Clouds -3 1012 85 10000 6 220 11:37 02.12.2019
3360 Clouds -3 1012 85 10000 6 220 11:18 02.12.2019
3361 Clouds -4 1013 85 10000 6 220 10:55 02.12.2019
3362 Clouds -4 1013 85 10000 8 220 10:36 02.12.2019
3363 Clouds -4 1013 85 10000 8 220 10:36 02.12.2019
3364 Clouds -4 1013 85 10000 9 230 10:18 02.12.2019
3365 Clouds -4 1013 85 10000 7 220 09:40 02.12.2019
3366 Clouds -4 1013 92 10000 7 220 09:19 02.12.2019
3367 Clouds -5 1013 92 10000 7 220 08:57 02.12.2019
3368 Clouds -5 1013 92 10000 7 230 08:38 02.12.2019
3369 Clouds -5 1013 92 10000 7 230 08:20 02.12.2019
3370 Clouds -6 1013 92 10000 4 210 07:42 02.12.2019
3371 Clouds -6 1013 92 10000 4 210 07:21 02.12.2019
3372 Clouds -6 1013 92 10000 4 210 06:56 02.12.2019
3373 Clouds -6 1014 92 10000 4 210 06:37 02.12.2019
3374 Clouds -6 1014 92 10000 4 220 05:32 02.12.2019
3375 Clouds -6 1014 92 10000 5 230 04:26 02.12.2019
3376 Clouds -6 1014 92 10000 7 250 02:53 02.12.2019
3377 Clouds -6 1014 92 10000 5 240 02:27 02.12.2019
3378 Clouds -6 1014 92 10000 5 240 01:26 02.12.2019
3379 Clear -5 1014 92 10000 4 250 00:57 02.12.2019
3380 Clouds -5 1014 92 10000 5 240 00:25 02.12.2019
3381 Clouds -5 1014 85 10000 5 240 23:54 01.12.2019
3382 Clear -5 1014 85 10000 5 230 23:36 01.12.2019
3383 Clouds -5 1014 85 10000 4 220 23:18 01.12.2019
3384 Clouds -5 1014 85 10000 4 220 22:54 01.12.2019
3385 Clouds -5 1014 85 10000 6 240 22:36 01.12.2019
3386 Clouds -5 1014 85 10000 6 240 22:18 01.12.2019
3387 Clouds -5 1014 85 10000 6 250 21:54 01.12.2019
3388 Clouds -5 1014 85 10000 4 240 21:36 01.12.2019
3389 Clouds -5 1014 92 10000 4 240 21:18 01.12.2019
3390 Clouds -5 1014 92 10000 4 240 20:42 01.12.2019
3391 Clouds -4 1014 85 10000 5 250 20:24 01.12.2019
3392 Clouds -4 1014 85 10000 6 250 19:59 01.12.2019
3393 Clouds -4 1014 85 10000 5 250 19:40 01.12.2019
3394 Clouds -4 1014 85 10000 5 250 19:21 01.12.2019
3395 Snow -4 1014 79 10000 6 250 18:58 01.12.2019
3396 Clouds -4 1014 79 10000 4 250 18:39 01.12.2019
3397 Clouds -4 1014 79 10000 4 250 18:20 01.12.2019
3398 Snow -3 1014 79 10000 5 250 17:59 01.12.2019
3399 Snow -4 1014 79 10000 5 270 17:41 01.12.2019
3400 Snow -5 1014 79 10000 5 270 17:23 01.12.2019
3401 Clouds -5 1013 79 10000 5 260 16:57 01.12.2019
3402 Clouds -4 1013 79 10000 5 250 16:39 01.12.2019
3403 Clouds -4 1013 79 10000 5 250 16:20 01.12.2019
3404 Clouds -4 1013 79 10000 5 250 15:50 01.12.2019
3405 Clear -4 1013 79 10000 5 260 15:31 01.12.2019
3406 Clear -4 1012 79 10000 4 270 14:44 01.12.2019
3407 Clear -3 1012 73 10000 5 260 14:20 01.12.2019
3408 Clear -3 1011 68 10000 5 270 13:59 01.12.2019
3409 Clear -2 1011 68 10000 5 280 13:39 01.12.2019
3410 Clear -2 1011 68 10000 5 280 13:20 01.12.2019
3411 Clouds -2 1011 68 10000 5 270 12:44 01.12.2019
3412 Clouds -2 1011 63 10000 6 260 11:59 01.12.2019
3413 Clouds -2 1010 68 10000 5 260 11:40 01.12.2019
3414 Clouds -2 1010 68 10000 5 260 11:21 01.12.2019
3415 Clouds -2 1010 63 10000 5 290 10:44 01.12.2019
3416 Clouds -2 1010 68 10000 5 280 10:22 01.12.2019
3417 Clouds -2 1010 68 10000 6 300 09:58 01.12.2019
3418 Clouds -2 1010 63 10000 6 300 09:39 01.12.2019
3419 Clouds -2 1010 63 10000 6 300 09:20 01.12.2019
3420 Clouds -2 1010 63 10000 6 300 09:20 01.12.2019
3421 Clouds -2 1010 63 10000 6 290 08:47 01.12.2019
3422 Clouds -2 1009 63 10000 5 300 08:20 01.12.2019
3423 Clouds -3 1009 68 10000 5 290 07:51 01.12.2019
3424 Clouds -3 1009 68 10000 4 310 07:31 01.12.2019
3425 Clouds -3 1009 68 10000 4 290 06:57 01.12.2019
3426 Clouds -3 1008 68 10000 4 300 06:34 01.12.2019
3427 Clouds -3 1008 73 10000 4 310 05:48 01.12.2019
3428 Clouds -2 1007 79 10000 5 310 04:50 01.12.2019
3429 Clouds -3 1006 73 10000 4 330 03:23 01.12.2019
3430 Snow -2 1006 68 10000 6 310 02:36 01.12.2019
3431 Snow -2 1006 68 10000 6 310 02:18 01.12.2019
3432 Clouds -2 1006 63 10000 5 320 01:51 01.12.2019
3433 Snow -2 1005 68 10000 7 300 01:24 01.12.2019
3434 Clouds -1 1004 74 10000 6 310 00:41 01.12.2019
3435 Clouds -1 1004 74 10000 6 310 00:23 01.12.2019
3436 Clouds -1 1004 74 10000 7 320 23:42 30.11.2019
3437 Clouds 0 1004 74 10000 7 310 23:23 30.11.2019
3438 Clouds 0 1003 80 10000 4 300 22:56 30.11.2019
3439 Clouds 1 1003 79 10000 6 310 22:38 30.11.2019
3440 Clouds 1 1003 79 10000 6 310 22:19 30.11.2019
3441 Clouds 1 1002 79 10000 7 300 21:43 30.11.2019
3442 Clouds 1 1002 79 10000 7 300 21:24 30.11.2019
3443 Clouds 1 1001 86 10000 8 300 20:56 30.11.2019
3444 Clouds 2 1001 79 10000 6 290 20:38 30.11.2019
3445 Clouds 2 1001 86 10000 6 290 20:19 30.11.2019
3446 Clouds 2 1000 100 10000 5 260 19:55 30.11.2019
3447 Clouds 2 1000 93 10000 5 250 19:37 30.11.2019
3448 Clouds 2 1000 93 10000 5 250 19:19 30.11.2019
3449 Clouds 2 1000 93 10000 5 240 18:56 30.11.2019
3450 Clouds 2 1000 93 10000 4 230 18:37 30.11.2019
3451 Clouds 2 1000 93 10000 4 230 18:19 30.11.2019
3452 Clouds 2 1000 93 10000 3 210 17:57 30.11.2019
3453 Clouds 2 1000 93 10000 4 220 17:38 30.11.2019
3454 Clouds 2 1000 93 10000 4 220 17:19 30.11.2019
3455 Clouds 2 1000 93 10000 5 230 16:56 30.11.2019
3456 Clouds 2 1000 93 10000 6 230 16:38 30.11.2019
3457 Clouds 2 1000 93 10000 6 230 16:19 30.11.2019
3458 Clouds 2 999 86 10000 5 240 15:42 30.11.2019
3459 Clouds 2 999 86 10000 5 240 15:19 30.11.2019
3460 Clouds 2 999 86 10000 6 230 14:57 30.11.2019
3461 Clouds 3 999 86 10000 5 240 14:38 30.11.2019
3462 Clouds 3 999 86 10000 5 240 14:19 30.11.2019
3463 Clouds 3 998 93 10000 4 250 13:57 30.11.2019
3464 Clouds 3 998 93 10000 4 250 13:57 30.11.2019
3465 Clouds 4 998 93 10000 5 250 13:37 30.11.2019
3466 Clouds 4 998 93 10000 5 250 13:19 30.11.2019
3467 Clouds 3 998 100 10000 6 250 12:47 30.11.2019
3468 Clouds 3 998 100 10000 5 240 12:28 30.11.2019
3469 Clouds 3 997 100 7000 4 210 11:57 30.11.2019
3470 Drizzle 3 997 100 3000 4 200 11:38 30.11.2019
3471 Drizzle 3 997 100 3000 4 200 11:18 30.11.2019
3472 Drizzle 3 997 100 1600 4 200 10:44 30.11.2019
3473 Drizzle 3 997 100 2500 5 200 10:21 30.11.2019
3474 Mist 2 997 100 2300 4 180 09:50 30.11.2019
3475 Mist 2 997 100 1700 4 180 09:30 30.11.2019
3476 Mist 2 997 100 2800 4 180 08:56 30.11.2019
3477 Mist 2 997 100 2800 4 180 08:56 30.11.2019
3478 Mist 2 997 100 5000 4 170 08:38 30.11.2019
3479 Mist 2 997 100 5000 4 170 08:18 30.11.2019
3480 Clouds 1 997 100 7000 4 170 07:42 30.11.2019
3481 Clouds 1 997 93 10000 4 160 07:23 30.11.2019
3482 Clouds 1 997 93 10000 4 160 06:45 30.11.2019
3483 Clouds 1 997 93 10000 4 170 06:27 30.11.2019
3484 Drizzle 1 998 100 10000 4 170 04:59 30.11.2019
3485 Snow 1 998 100 5000 4 150 03:38 30.11.2019
3486 Snow 1 999 100 5000 4 150 02:25 30.11.2019
3487 Snow 1 999 100 2700 5 140 01:51 30.11.2019
3488 Snow 1 999 100 1800 4 140 01:24 30.11.2019
3489 Snow 1 1000 96 1900 4 130 00:45 30.11.2019
3490 Snow 1 1000 100 3800 5 140 00:27 30.11.2019
3491 Snow 1 1000 100 4500 5 150 23:44 29.11.2019
3492 Rain 1 1000 100 4800 6 150 23:25 29.11.2019
3493 Rain 1 1000 100 4800 6 150 23:25 29.11.2019
3494 Rain 1 1000 100 4800 6 150 23:25 29.11.2019
3495 Rain 1 1001 93 10000 6 150 22:49 29.11.2019
3496 Rain 1 1001 93 9000 6 150 22:27 29.11.2019
3497 Rain 1 1001 93 7000 7 150 21:59 29.11.2019
3498 Rain 1 1001 93 7000 7 150 21:41 29.11.2019
3499 Rain 1 1002 93 7000 7 150 21:22 29.11.2019
3500 Rain 1 1002 93 5000 7 150 20:56 29.11.2019
3501 Rain 2 1002 93 5000 5 150 20:37 29.11.2019
3502 Rain 2 1002 93 5000 5 150 20:18 29.11.2019
3503 Rain 2 1002 93 6000 6 160 19:55 29.11.2019
3504 Rain 2 1002 93 6000 7 150 19:37 29.11.2019
3505 Rain 2 1002 93 6000 7 150 19:37 29.11.2019
3506 Rain 2 1003 93 6000 7 150 19:18 29.11.2019
3507 Rain 2 1002 93 6000 7 150 19:18 29.11.2019
3508 Rain 2 1003 93 6000 7 150 18:42 29.11.2019
3509 Rain 2 1003 93 6000 7 150 18:24 29.11.2019
3510 Rain 2 1003 86 6000 7 150 17:58 29.11.2019
3511 Rain 2 1003 86 6000 7 150 17:40 29.11.2019
3512 Rain 2 1003 86 6000 7 150 17:21 29.11.2019
3513 Rain 3 1004 86 8000 7 160 16:43 29.11.2019
3514 Rain 3 1004 86 8000 7 160 16:21 29.11.2019
3515 Clouds 3 1004 86 9000 6 160 15:57 29.11.2019
3516 Clouds 3 1004 86 10000 6 150 15:39 29.11.2019
3517 Clouds 3 1004 86 10000 6 150 15:20 29.11.2019
3518 Clouds 3 1005 86 10000 7 150 14:40 29.11.2019
3519 Clouds 3 1005 86 10000 6 160 14:22 29.11.2019
3520 Clouds 3 1005 86 9000 6 160 13:58 29.11.2019
3521 Clouds 3 1005 86 9000 6 150 13:38 29.11.2019
3522 Clouds 3 1005 86 9000 6 150 13:20 29.11.2019
3523 Clouds 3 1006 93 9000 6 150 12:44 29.11.2019
3524 Clouds 3 1006 93 8000 7 160 12:25 29.11.2019
3525 Clouds 3 1007 93 7000 6 170 11:57 29.11.2019
3526 Clouds 2 1007 93 7000 6 170 11:38 29.11.2019
3527 Clouds 2 1007 93 7000 6 170 11:19 29.11.2019
3528 Clouds 2 1007 93 6000 5 170 10:58 29.11.2019
3529 Mist 2 1007 93 5000 6 170 10:39 29.11.2019
3530 Mist 2 1007 93 5000 6 170 10:21 29.11.2019
3531 Mist 2 1007 93 6000 5 170 09:59 29.11.2019
3532 Clouds 2 1008 93 9000 5 160 09:39 29.11.2019
3533 Clouds 2 1008 93 9000 5 160 09:21 29.11.2019
3534 Clouds 2 1008 93 10000 5 160 08:57 29.11.2019
3535 Clouds 2 1008 93 9000 5 170 08:37 29.11.2019
3536 Clouds 2 1008 93 9000 5 170 08:19 29.11.2019
3537 Clouds 1 1008 93 9000 5 160 07:42 29.11.2019
3538 Clouds 1 1008 100 7000 5 160 07:23 29.11.2019
3539 Mist 1 1008 100 5000 4 160 06:54 29.11.2019
3540 Mist 1 1008 100 4500 5 160 06:35 29.11.2019
3541 Drizzle 1 1009 100 3700 5 160 05:47 29.11.2019
3542 Drizzle 0 1009 96 4200 4 160 05:23 29.11.2019
3543 Clouds 0 1009 96 6000 5 170 03:58 29.11.2019
3544 Clouds 0 1009 96 6000 4 160 03:19 29.11.2019
3545 Mist 0 1009 92 5000 4 160 02:25 29.11.2019
3546 Mist 0 1010 92 5000 4 150 01:50 29.11.2019
3547 Mist 0 1010 95 5000 5 150 01:24 29.11.2019
3548 Clouds -1 1010 95 6000 4 140 00:42 29.11.2019
3549 Clouds -1 1010 95 6000 4 140 00:20 29.11.2019
3550 Clouds 0 1010 95 7000 4 160 23:44 28.11.2019
3551 Clouds -1 1010 83 7000 4 160 23:21 28.11.2019
3552 Clouds 0 1011 83 7000 5 160 22:58 28.11.2019
3553 Clouds -1 1011 83 7000 5 160 22:38 28.11.2019
3554 Clouds -1 1011 83 7000 5 160 22:38 28.11.2019
3555 Clouds -1 1011 83 7000 5 160 22:20 28.11.2019
3556 Clouds -1 1011 83 7000 4 170 21:56 28.11.2019
3557 Mist -1 1011 83 5000 4 170 21:38 28.11.2019
3558 Mist -1 1011 83 5000 4 170 21:19 28.11.2019
3559 Clouds 0 1011 83 6000 4 170 20:55 28.11.2019
3560 Clouds -1 1011 83 10000 4 180 20:37 28.11.2019
3561 Clouds -1 1011 89 10000 4 180 20:18 28.11.2019
3562 Clouds -1 1011 89 10000 5 190 19:41 28.11.2019
3563 Clouds -1 1011 89 10000 5 190 19:22 28.11.2019
3564 Clouds -1 1012 86 10000 6 190 18:59 28.11.2019
3565 Clouds -1 1012 80 10000 5 180 18:40 28.11.2019
3566 Clouds -1 1012 80 10000 5 180 18:19 28.11.2019
3567 Clouds -1 1012 80 10000 5 170 17:59 28.11.2019
3568 Clouds -1 1012 80 10000 5 170 17:41 28.11.2019
3569 Clouds -1 1012 80 10000 5 170 17:23 28.11.2019
3570 Clouds -1 1012 80 10000 5 170 16:58 28.11.2019
3571 Clouds -1 1012 80 10000 6 170 16:38 28.11.2019
3572 Clouds -1 1012 80 10000 6 170 16:19 28.11.2019
3573 Clouds -1 1013 86 10000 3 160 15:42 28.11.2019
3574 Clouds -1 1013 86 10000 3 160 15:21 28.11.2019
3575 Clouds -1 1013 86 10000 3 150 14:59 28.11.2019
3576 Clouds -1 1013 86 10000 3 170 14:41 28.11.2019
3577 Clouds -1 1013 78 10000 3 170 14:22 28.11.2019
3578 Clouds 0 1013 78 10000 3 170 13:59 28.11.2019
3579 Clouds 0 1013 78 10000 3 180 13:40 28.11.2019
3580 Clouds 0 1013 78 10000 3 180 13:21 28.11.2019
3581 Clouds -1 1013 77 10000 3 170 12:48 28.11.2019
3582 Clouds -1 1013 74 10000 3 180 12:29 28.11.2019
3583 Clouds -1 1013 74 10000 4 180 11:59 28.11.2019
3584 Clouds -1 1013 74 10000 3 190 11:40 28.11.2019
3585 Clouds -1 1013 74 10000 3 190 11:21 28.11.2019
3586 Snow -1 1013 74 10000 3 190 10:59 28.11.2019
3587 Snow -1 1013 74 10000 3 190 10:40 28.11.2019
3588 Snow -1 1013 80 10000 3 190 10:20 28.11.2019
3589 Clouds -1 1014 86 9000 3 180 09:41 28.11.2019
3590 Clouds -1 1014 86 9000 3 180 09:23 28.11.2019
3591 Clouds -2 1014 86 9000 3 190 08:58 28.11.2019
3592 Clouds -2 1014 86 8000 3 190 08:39 28.11.2019
3593 Clouds -2 1014 86 8000 3 190 08:21 28.11.2019
3594 Clouds -2 1014 92 8000 3 190 07:42 28.11.2019
3595 Clouds -2 1014 92 8000 3 190 07:24 28.11.2019
3596 Clouds -2 1014 86 7000 3 190 06:50 28.11.2019
3597 Clouds -2 1014 92 7000 2 190 06:31 28.11.2019
3598 Clouds -2 1014 92 7000 2 180 05:51 28.11.2019
3599 Clouds -2 1014 92 6000 3 180 05:18 28.11.2019
3600 Clouds -2 1014 92 6000 3 180 05:18 28.11.2019
3601 Snow -2 1014 92 6000 3 170 02:50 28.11.2019
3602 Snow -2 1014 92 5000 3 170 01:50 28.11.2019
3603 Snow -2 1015 92 4400 3 170 00:48 28.11.2019
3604 Snow -2 1015 92 4000 3 180 00:24 28.11.2019
3605 Snow -2 1015 92 5000 3 190 23:55 27.11.2019
3606 Snow -2 1015 92 8000 3 190 23:37 27.11.2019
3607 Snow -2 1015 92 8000 3 190 23:37 27.11.2019
3608 Snow -2 1015 92 8000 3 190 23:19 27.11.2019
3609 Snow -2 1015 92 10000 2 210 22:39 27.11.2019
3610 Snow -2 1015 92 10000 2 210 22:20 27.11.2019
3611 Clouds -2 1015 80 10000 3 200 21:56 27.11.2019
3612 Clouds -1 1015 80 10000 3 210 21:38 27.11.2019
3613 Clouds -2 1015 80 10000 4 210 21:19 27.11.2019
3614 Clouds -2 1015 80 10000 4 210 20:59 27.11.2019
3615 Clouds -2 1015 80 10000 4 210 20:59 27.11.2019
3616 Clouds -2 1015 80 10000 5 210 20:40 27.11.2019
3617 Clouds -2 1015 80 10000 5 210 20:22 27.11.2019
3618 Clouds -2 1015 86 9000 4 180 19:59 27.11.2019
3619 Clouds -2 1015 86 9000 3 180 19:41 27.11.2019
3620 Clouds -2 1015 86 9000 3 180 19:22 27.11.2019
3621 Clouds -2 1015 86 9000 3 190 18:59 27.11.2019
3622 Clouds -2 1015 86 9000 4 170 18:38 27.11.2019
3623 Clouds -2 1015 86 9000 4 170 18:19 27.11.2019
3624 Clouds -2 1015 86 9000 4 170 18:19 27.11.2019
3625 Clouds -1 1015 86 9000 4 170 17:58 27.11.2019
3626 Clouds -1 1015 86 10000 4 160 17:40 27.11.2019
3627 Clouds -1 1015 86 10000 4 160 17:40 27.11.2019
3628 Clouds -1 1016 86 9000 3 190 17:21 27.11.2019
3629 Clouds -1 1016 86 9000 3 190 16:57 27.11.2019
3630 Clouds -1 1016 86 9000 4 190 16:39 27.11.2019
3631 Clouds -1 1016 86 9000 4 190 16:21 27.11.2019
3632 Clouds -1 1016 86 8000 3 180 15:57 27.11.2019
3633 Snow -1 1016 86 8000 4 200 15:39 27.11.2019
3634 Snow -1 1016 86 8000 4 200 15:21 27.11.2019
3635 Clouds -1 1016 86 8000 3 190 14:57 27.11.2019
3636 Clouds -1 1016 92 7000 3 190 14:39 27.11.2019
3637 Clouds -1 1016 92 7000 3 190 14:39 27.11.2019
3638 Clouds -1 1016 92 7000 3 190 14:39 27.11.2019
3639 Clouds -1 1016 92 7000 3 190 14:21 27.11.2019
3640 Clouds -1 1016 92 6000 3 190 13:58 27.11.2019
3641 Mist -1 1016 92 4600 3 190 13:39 27.11.2019
3642 Mist -1 1016 92 4600 3 190 13:19 27.11.2019
3643 Mist -1 1016 92 3600 4 180 12:57 27.11.2019
3644 Mist -1 1016 92 3400 3 180 12:39 27.11.2019
3645 Mist -1 1016 92 4700 3 180 12:19 27.11.2019
3646 Mist -1 1016 86 4600 4 180 11:38 27.11.2019
3647 Mist -1 1016 86 5000 5 180 11:19 27.11.2019
3648 Mist -1 1016 86 5000 5 180 10:59 27.11.2019
3649 Clouds -1 1016 86 9000 4 190 10:41 27.11.2019
3650 Clouds -1 1016 86 9000 4 190 10:22 27.11.2019
3651 Clouds -1 1016 86 10000 5 190 09:45 27.11.2019
3652 Clouds -1 1016 86 10000 5 190 09:26 27.11.2019
3653 Clouds -1 1016 86 10000 5 200 08:58 27.11.2019
3654 Clouds -1 1016 80 10000 4 180 08:39 27.11.2019
3655 Clouds -2 1016 80 10000 4 180 08:21 27.11.2019
3656 Clouds -2 1017 80 10000 4 190 07:46 27.11.2019
3657 Clouds -2 1017 80 10000 4 190 07:28 27.11.2019
3658 Clouds -2 1017 80 10000 4 210 06:47 27.11.2019
3659 Clouds -2 1017 80 10000 4 210 06:29 27.11.2019
3660 Clouds -1 1017 80 10000 3 200 05:43 27.11.2019
3661 Clouds -1 1017 80 10000 4 210 05:19 27.11.2019
3662 Clouds -1 1017 86 10000 4 210 04:41 27.11.2019
3663 Clouds -2 1017 92 10000 3 210 03:55 27.11.2019
3664 Clouds -2 1017 92 10000 3 210 03:23 27.11.2019
3665 Clouds -2 1017 92 10000 3 220 02:55 27.11.2019
3666 Clouds -2 1018 92 8000 4 210 01:41 27.11.2019
3667 Clouds -1 1018 100 8000 4 210 00:46 27.11.2019
3668 Clouds -1 1018 100 8000 4 210 00:26 27.11.2019
3669 Mist -1 1019 100 4000 4 200 23:50 26.11.2019
3670 Mist -1 1019 100 4000 4 200 23:28 26.11.2019
3671 Mist -1 1019 92 3600 4 210 22:59 26.11.2019
3672 Clouds -1 1019 92 7000 5 210 22:38 26.11.2019
3673 Clouds -2 1019 92 7000 5 210 22:19 26.11.2019
3674 Clouds -1 1019 92 9000 5 210 21:58 26.11.2019
3675 Clouds -2 1019 92 8000 4 210 21:38 26.11.2019
3676 Clouds -2 1019 92 8000 4 210 21:19 26.11.2019
3677 Mist -1 1020 92 4800 4 210 20:55 26.11.2019
3678 Mist -1 1020 92 4900 4 210 20:37 26.11.2019
3679 Mist -1 1020 92 4900 4 210 20:18 26.11.2019
3680 Clouds -1 1020 92 8000 4 210 19:55 26.11.2019
3681 Clouds -1 1020 92 9000 5 210 19:37 26.11.2019
3682 Clouds -1 1020 92 10000 5 210 19:18 26.11.2019
3683 Clouds -1 1020 92 10000 5 210 18:56 26.11.2019
3684 Clouds -2 1020 92 10000 5 200 18:38 26.11.2019
3685 Clouds -2 1021 86 10000 4 200 18:20 26.11.2019
3686 Clouds -2 1021 86 10000 4 210 17:55 26.11.2019
3687 Clouds -2 1021 86 10000 4 210 17:37 26.11.2019
3688 Clouds -2 1021 86 10000 5 210 17:18 26.11.2019
3689 -273 0 0 0 0 0 16:55 26.11.2019
3690 Clouds -2 1021 86 10000 4 200 16:37 26.11.2019
3691 Clouds -2 1021 86 10000 4 210 16:18 26.11.2019
3692 Clouds -2 1021 86 10000 4 210 15:57 26.11.2019
3693 Clouds -2 1021 86 10000 5 200 15:37 26.11.2019
3694 Clouds -2 1021 86 10000 5 200 15:37 26.11.2019
3695 Clouds -2 1021 86 10000 5 200 15:18 26.11.2019
3696 Clouds -2 1021 86 10000 5 190 14:45 26.11.2019
3697 Clouds -2 1021 86 10000 5 190 14:24 26.11.2019
3698 Clouds -2 1021 79 9000 3 190 13:44 26.11.2019
3699 Clouds -2 1021 79 9000 3 190 13:24 26.11.2019
3700 Snow -2 1021 74 7000 3 190 12:58 26.11.2019
3701 Snow -2 1022 63 10000 4 190 12:37 26.11.2019
3702 Clouds -3 1022 63 10000 3 140 12:19 26.11.2019
3703 Clouds -3 1022 63 10000 3 140 11:55 26.11.2019
3704 Clouds -3 1022 58 10000 3 120 11:55 26.11.2019
3705 Clouds -4 1022 58 10000 3 120 11:37 26.11.2019
3706 Clouds -4 1022 58 10000 3 110 11:18 26.11.2019
3707 Clouds -4 1022 58 10000 3 110 10:56 26.11.2019
3708 Snow -5 1023 57 10000 2 120 10:37 26.11.2019
3709 Clouds -6 1023 53 10000 3 110 10:19 26.11.2019
3710 Clouds -6 1024 57 10000 3 110 09:42 26.11.2019
3711 Clouds -6 1024 57 10000 3 110 09:24 26.11.2019
3712 Clouds -7 1024 53 10000 2 110 08:56 26.11.2019
3713 Clouds -8 1024 57 10000 2 140 08:38 26.11.2019
3714 Clouds -8 1024 57 10000 2 140 08:18 26.11.2019
3715 Clouds -8 1025 57 10000 3 190 07:43 26.11.2019
3716 Clouds -8 1025 57 10000 3 190 07:24 26.11.2019
3717 Clouds -10 1025 52 10000 3 190 06:51 26.11.2019
3718 Clouds -10 1025 85 10000 2 170 05:59 26.11.2019
3719 Clouds -10 1025 78 10000 2 180 05:32 26.11.2019
3720 Clouds -9 1025 61 10000 2 200 03:22 26.11.2019
3721 Clouds -8 1026 72 10000 3 210 01:42 26.11.2019
3722 Clouds -8 1026 72 10000 3 210 01:23 26.11.2019
3723 Clouds -8 1026 85 10000 3 200 00:47 26.11.2019
3724 Clouds -8 1027 85 10000 2 180 00:20 26.11.2019
3725 Clouds -8 1027 85 10000 2 180 23:39 25.11.2019
3726 Clouds -8 1027 85 10000 3 180 23:19 25.11.2019
3727 Clouds -8 1027 85 10000 3 180 22:54 25.11.2019
3728 Clouds -7 1027 85 10000 2 160 22:36 25.11.2019
3729 Clouds -7 1027 85 10000 2 160 22:36 25.11.2019
3730 Clouds -7 1027 85 10000 2 160 22:18 25.11.2019
3731 Clouds -7 1027 85 10000 2 160 22:18 25.11.2019
3732 Clouds -7 1027 85 10000 2 150 21:54 25.11.2019
3733 Clouds -6 1028 45 10000 3 180 21:36 25.11.2019
3734 Clouds -6 1028 45 10000 3 180 21:18 25.11.2019
3735 Clouds -5 1028 41 10000 3 180 20:54 25.11.2019
3736 Clouds -5 1028 41 10000 3 180 20:36 25.11.2019
3737 Clouds -5 1028 41 10000 3 180 20:18 25.11.2019
3738 Clouds -5 1028 45 10000 3 180 19:54 25.11.2019
3739 Clouds -5 1028 45 10000 3 180 19:36 25.11.2019
3740 Clouds -5 1028 45 10000 3 180 19:18 25.11.2019
3741 Clouds -5 1028 53 10000 2 200 18:54 25.11.2019
3742 Clouds -5 1028 53 10000 2 200 18:36 25.11.2019
3743 Clouds -5 1029 53 10000 3 170 18:18 25.11.2019
3744 Clouds -5 1029 53 10000 4 180 17:55 25.11.2019
3745 Clouds -5 1029 53 10000 4 180 17:36 25.11.2019
3746 Clouds -5 1029 53 10000 4 180 17:36 25.11.2019
3747 Clouds -5 1029 58 10000 4 180 17:18 25.11.2019
3748 Clouds -5 1029 58 10000 4 180 16:41 25.11.2019
3749 Clouds -4 1029 58 10000 4 180 16:23 25.11.2019
3750 Clouds -4 1029 63 10000 3 180 15:57 25.11.2019
3751 Clouds -4 1029 63 10000 3 180 15:38 25.11.2019
3752 Clouds -4 1029 63 10000 3 180 15:19 25.11.2019
3753 Clouds -4 1029 63 10000 3 170 14:56 25.11.2019
3754 Clouds -4 1029 63 10000 3 170 14:56 25.11.2019
3755 Clouds -2 1029 63 10000 3 170 14:37 25.11.2019
3756 Clouds -2 1029 63 10000 3 170 14:19 25.11.2019
3757 Clouds -2 1029 63 10000 3 170 13:39 25.11.2019
3758 Clouds -2 1029 63 10000 3 170 13:20 25.11.2019
3759 Clouds -2 1029 63 10000 3 170 12:59 25.11.2019
3760 Clouds -2 1030 63 10000 3 150 12:40 25.11.2019
3761 Clouds -2 1030 63 10000 3 150 12:40 25.11.2019
3762 Clouds -3 1030 63 10000 3 170 12:20 25.11.2019
3763 Clouds -3 1030 63 10000 3 170 11:56 25.11.2019
3764 Clouds -3 1030 63 10000 3 170 11:56 25.11.2019
3765 Clouds -3 1030 63 10000 2 170 11:38 25.11.2019
3766 Clouds -3 1030 63 10000 2 170 11:38 25.11.2019
3767 Clouds -3 1031 62 10000 3 210 11:19 25.11.2019
3768 Clouds -4 1031 62 10000 3 200 10:42 25.11.2019
3769 Clouds -4 1031 62 10000 3 200 10:23 25.11.2019
3770 Clouds -5 1031 67 10000 3 200 09:56 25.11.2019
3771 Clouds -6 1031 67 10000 3 220 09:38 25.11.2019
3772 Clouds -6 1031 67 10000 3 220 09:20 25.11.2019
3773 Clouds -7 1031 73 10000 3 210 08:40 25.11.2019
3774 Clouds -8 1031 73 10000 3 220 08:21 25.11.2019
3775 Clouds -8 1031 67 10000 2 230 07:42 25.11.2019
3776 Clouds -8 1031 67 10000 2 230 07:24 25.11.2019
3777 Clouds -8 1033 92 9000 2 90 06:49 25.11.2019
3778 Clouds -8 1031 73 10000 3 220 06:21 25.11.2019
3779 Clouds -8 1031 67 10000 3 230 05:39 25.11.2019
3780 Clouds -8 1031 67 10000 2 200 04:52 25.11.2019
3781 Clouds -8 1032 67 10000 3 220 03:24 25.11.2019
3782 Clouds -7 1032 67 10000 3 210 02:28 25.11.2019
3783 Clouds -7 1032 62 10000 5 200 01:41 25.11.2019
3784 Clouds -7 1032 62 10000 5 200 01:22 25.11.2019
3785 Clouds -7 1032 62 10000 5 200 00:37 25.11.2019
3786 Clouds -6 1032 62 10000 4 200 00:18 25.11.2019
3787 Clouds -7 1032 62 10000 4 200 23:41 24.11.2019
3788 Clouds -6 1032 62 10000 4 200 23:20 24.11.2019
3789 Clouds -6 1032 62 10000 4 200 22:56 24.11.2019
3790 Clouds -6 1032 58 10000 4 190 22:37 24.11.2019
3791 Clouds -6 1032 58 10000 4 190 22:18 24.11.2019
3792 Clouds -6 1032 58 10000 4 190 21:54 24.11.2019
3793 Clouds -5 1032 58 10000 5 180 21:36 24.11.2019
3794 Clouds -6 1032 58 10000 5 180 21:18 24.11.2019
3795 Clouds -6 1032 58 10000 4 180 20:54 24.11.2019
3796 Clouds -7 1033 62 10000 4 170 20:36 24.11.2019
3797 Clouds -7 1033 62 10000 4 170 20:18 24.11.2019
3798 Clouds -6 1033 58 10000 2 160 19:54 24.11.2019
3799 Clouds -6 1033 62 10000 3 140 19:36 24.11.2019
3800 Clouds -6 1033 62 10000 3 140 19:18 24.11.2019
3801 Clouds -7 1033 58 10000 4 140 18:54 24.11.2019
3802 Clouds -7 1033 62 10000 3 150 18:36 24.11.2019
3803 Clouds -6 1033 58 10000 3 140 18:18 24.11.2019
3804 Clouds -6 1033 53 10000 3 140 17:42 24.11.2019
3805 Clouds -6 1034 53 10000 3 160 17:23 24.11.2019
3806 Clouds -6 1034 53 10000 3 160 16:59 24.11.2019
3807 Clouds -6 1034 53 10000 3 150 16:41 24.11.2019
3808 Clouds -6 1034 53 10000 3 150 16:23 24.11.2019
3809 Clouds -6 1034 53 10000 4 170 15:57 24.11.2019
3810 Clouds -6 1034 53 10000 3 190 15:39 24.11.2019
3811 Clouds -5 1034 49 10000 3 180 15:21 24.11.2019
3812 Clouds -5 1034 49 10000 3 170 14:40 24.11.2019
3813 Clouds -5 1034 49 10000 3 170 14:20 24.11.2019
3814 Clouds -5 1034 49 10000 3 170 14:20 24.11.2019
3815 Clouds -4 1035 45 10000 4 170 13:59 24.11.2019
3816 Clouds -4 1035 45 10000 4 170 13:38 24.11.2019
3817 Clouds -3 1035 42 10000 4 180 13:20 24.11.2019
3818 Clouds -3 1035 42 10000 4 180 12:57 24.11.2019
3819 Clouds -3 1035 46 10000 3 180 12:39 24.11.2019
3820 Clouds -3 1036 42 10000 3 180 12:18 24.11.2019
3821 Clouds -3 1036 42 10000 3 180 12:18 24.11.2019
3822 Clouds -3 1036 42 10000 3 180 11:55 24.11.2019
3823 Clouds -3 1036 42 10000 4 190 11:36 24.11.2019
3824 Clouds -4 1036 45 10000 4 180 11:18 24.11.2019
3825 Clouds -4 1036 45 10000 2 190 10:44 24.11.2019
3826 Clouds -5 1036 45 10000 2 190 10:26 24.11.2019
3827 Clouds -5 1036 45 10000 2 190 10:26 24.11.2019
3828 Clouds -5 1036 45 10000 2 200 09:54 24.11.2019
3829 Clouds -5 1036 45 10000 2 200 09:54 24.11.2019
3830 Clouds -6 1036 49 10000 2 180 09:36 24.11.2019
3831 Clouds -6 1036 49 10000 2 180 09:18 24.11.2019
3832 Clouds -8 1036 62 10000 2 180 08:42 24.11.2019
3833 Clouds -8 1036 62 10000 2 180 08:21 24.11.2019
3834 Clouds -9 1036 85 10000 2 170 07:52 24.11.2019
3835 Clouds -9 1037 78 10000 3 100 07:33 24.11.2019
3836 Clouds -9 1037 72 10000 2 170 06:55 24.11.2019
3837 Clouds -9 1037 67 10000 3 110 05:47 24.11.2019
3838 Clouds -9 1037 67 10000 3 120 04:45 24.11.2019
3839 Clouds -9 1037 57 9000 2 120 02:50 24.11.2019
3840 Clouds -9 1038 72 10000 2 80 01:57 24.11.2019
3841 Clouds -9 1038 72 10000 2 80 01:39 24.11.2019
3842 Clouds -9 1038 72 10000 2 80 01:20 24.11.2019
3843 Clouds -9 1038 62 9000 2 120 00:45 24.11.2019
3844 Clouds -9 1038 62 9000 2 120 00:22 24.11.2019
3845 Clouds -8 1038 67 9000 2 110 23:44 23.11.2019
3846 Clouds -8 1038 49 9000 2 150 23:21 23.11.2019
3847 Clouds -8 1038 49 9000 2 150 22:58 23.11.2019
3848 Clouds -8 1038 53 9000 1 0 22:39 23.11.2019
3849 Clouds -7 1038 53 9000 1 0 22:21 23.11.2019
3850 Clouds -7 1038 57 10000 2 140 21:58 23.11.2019
3851 Clouds -7 1038 62 9000 2 120 21:40 23.11.2019
3852 Clouds -7 1038 67 9000 2 110 21:21 23.11.2019
3853 Clouds -7 1038 67 9000 2 110 20:54 23.11.2019
3854 Mist -8 1038 72 9000 2 120 20:36 23.11.2019
3855 Mist -8 1038 72 9000 2 120 20:18 23.11.2019
3856 Clouds -8 1038 67 9000 2 120 19:54 23.11.2019
3857 Mist -7 1038 72 10000 2 80 19:36 23.11.2019
3858 Clouds -7 1038 62 10000 2 110 19:18 23.11.2019
3859 Clouds -6 1038 57 10000 3 140 18:39 23.11.2019
3860 Clouds -7 1039 57 10000 3 150 18:20 23.11.2019
3861 Clouds -7 1039 57 10000 3 150 18:20 23.11.2019
3862 Clouds -6 1039 57 10000 3 140 17:54 23.11.2019
3863 Clouds -6 1039 57 10000 3 140 17:36 23.11.2019
3864 Clouds -6 1039 53 10000 3 150 17:18 23.11.2019
3865 Clouds -6 1039 53 10000 3 150 16:54 23.11.2019
3866 Clouds -6 1039 53 10000 2 160 16:36 23.11.2019
3867 Clouds -7 1039 53 10000 2 160 16:18 23.11.2019
3868 Clouds -6 1039 53 10000 3 140 15:54 23.11.2019
3869 Clouds -6 1040 53 10000 3 140 15:36 23.11.2019
3870 Clouds -6 1040 53 10000 3 140 15:18 23.11.2019
3871 Clouds -5 1040 49 10000 3 140 14:42 23.11.2019
3872 Clouds -5 1040 49 10000 3 140 14:21 23.11.2019
3873 Clouds -5 1040 49 10000 3 140 14:21 23.11.2019
3874 Clouds -4 1040 38 10000 3 160 13:57 23.11.2019
3875 Clouds -4 1040 41 10000 2 180 13:38 23.11.2019
3876 Clouds -4 1040 41 10000 2 180 13:18 23.11.2019
3877 Clouds -4 1041 35 10000 2 160 12:42 23.11.2019
3878 Clouds -4 1041 35 10000 2 160 12:24 23.11.2019
3879 Clouds -5 1041 41 10000 3 210 11:45 23.11.2019
3880 Clouds -5 1041 45 10000 3 230 11:24 23.11.2019
3881 Clouds -5 1041 45 10000 3 230 10:57 23.11.2019
3882 Clouds -5 1041 49 10000 3 220 10:39 23.11.2019
3883 Clouds -6 1041 49 10000 3 220 10:18 23.11.2019
3884 Clouds -7 1041 57 10000 3 180 09:41 23.11.2019
3885 Clouds -7 1042 67 10000 3 190 09:18 23.11.2019
3886 Clouds -8 1042 67 10000 3 180 08:41 23.11.2019
3887 Clouds -8 1042 67 10000 3 180 08:41 23.11.2019
3888 Clouds -8 1042 67 10000 3 180 08:41 23.11.2019
3889 Clouds -8 1042 67 10000 3 180 08:19 23.11.2019
3890 Clouds -10 1041 72 10000 2 180 07:42 23.11.2019
3891 Clouds -10 1041 72 10000 2 180 07:21 23.11.2019
3892 Clouds -10 1041 72 10000 2 180 06:42 23.11.2019
3893 Clouds -10 1041 72 10000 3 160 06:19 23.11.2019
3894 Clouds -10 1041 67 10000 3 170 05:44 23.11.2019
3895 Clouds -10 1041 67 10000 3 170 05:26 23.11.2019
3896 Clouds -9 1042 67 10000 3 170 04:39 23.11.2019
3897 Clouds -9 1042 67 10000 3 180 04:21 23.11.2019
3898 Clouds -9 1042 67 10000 3 170 02:39 23.11.2019
3899 Clouds -9 1043 67 10000 2 180 01:42 23.11.2019
3900 Clouds -9 1043 67 10000 3 170 00:54 23.11.2019
3901 Clouds -9 1043 67 10000 3 170 00:36 23.11.2019
3902 Clouds -8 1043 72 10000 3 170 00:18 23.11.2019
3903 Clouds -9 1043 72 10000 2 180 23:38 22.11.2019
3904 Clouds -8 1043 67 10000 2 190 23:20 22.11.2019
3905 Clouds -8 1043 67 10000 2 190 22:57 22.11.2019
3906 Clouds -8 1043 67 10000 2 190 22:57 22.11.2019
3907 Clouds -8 1043 72 10000 1 0 22:38 22.11.2019
3908 Clouds -8 1043 72 10000 1 0 22:19 22.11.2019
3909 Clouds -8 1043 72 9000 2 150 21:57 22.11.2019
3910 Mist -8 1043 78 9000 1 0 21:38 22.11.2019
3911 Mist -8 1043 78 9000 1 0 21:18 22.11.2019
3912 Clouds -8 1043 67 9000 2 140 20:42 22.11.2019
3913 Clouds -8 1043 67 9000 2 140 20:22 22.11.2019
3914 Clouds -7 1044 57 8000 2 160 19:55 22.11.2019
3915 Clouds -7 1044 53 8000 2 170 19:37 22.11.2019
3916 Clouds -7 1043 57 9000 2 170 19:18 22.11.2019
3917 Clouds -7 1043 53 10000 2 180 18:39 22.11.2019
3918 Clouds -7 1043 53 10000 2 180 18:21 22.11.2019
3919 Clouds -7 1043 57 10000 2 160 17:55 22.11.2019
3920 Clouds -6 1044 57 10000 2 150 17:37 22.11.2019
3921 Clouds -6 1044 57 10000 2 150 17:19 22.11.2019
3922 Clouds -6 1043 57 10000 3 150 16:40 22.11.2019
3923 Clouds -6 1043 57 10000 3 150 16:22 22.11.2019
3924 Clouds -6 1044 49 10000 3 150 15:41 22.11.2019
3925 Clouds -6 1044 49 10000 3 150 15:23 22.11.2019
3926 Clouds -5 1044 45 10000 3 170 14:56 22.11.2019
3927 Clouds -5 1044 45 10000 2 160 14:37 22.11.2019
3928 Clouds -4 1044 42 10000 3 160 14:19 22.11.2019
3929 Clouds -4 1044 42 10000 3 160 13:56 22.11.2019
3930 Clouds -3 1045 42 10000 3 160 13:36 22.11.2019
3931 Clear -3 1045 42 10000 3 160 13:18 22.11.2019
3932 Clear -3 1045 42 10000 3 170 12:55 22.11.2019
3933 Clear -3 1045 38 10000 3 160 12:36 22.11.2019
3934 Clear -3 1045 38 10000 3 160 12:18 22.11.2019
3935 Clear -4 1046 45 10000 3 200 11:40 22.11.2019
3936 Clear -4 1046 45 10000 3 200 11:21 22.11.2019
3937 Clear -5 1046 45 10000 3 200 10:59 22.11.2019
3938 Clear -5 1046 49 10000 3 210 10:40 22.11.2019
3939 Clear -5 1046 49 10000 3 210 10:40 22.11.2019
3940 Clear -5 1046 49 10000 3 210 10:22 22.11.2019
3941 Clear -6 1046 57 10000 3 200 09:56 22.11.2019
3942 Clear -7 1046 57 10000 4 220 09:37 22.11.2019
3943 Clear -7 1046 57 10000 4 220 09:19 22.11.2019
3944 Clear -8 1046 62 10000 3 210 08:46 22.11.2019
3945 Clear -8 1046 62 10000 2 210 08:27 22.11.2019
3946 Clear -8 1046 62 10000 2 210 08:27 22.11.2019
3947 Clear -9 1046 67 10000 1 0 07:55 22.11.2019
3948 Clear -10 1046 72 10000 2 180 07:37 22.11.2019
3949 Clear -10 1046 72 10000 2 180 07:18 22.11.2019
3950 Clear -10 1046 66 10000 2 180 06:40 22.11.2019
3951 Clear -10 1046 72 10000 2 190 05:54 22.11.2019
3952 Clear -10 1045 72 10000 2 200 04:51 22.11.2019
3953 Clear -10 1046 67 10000 4 180 02:56 22.11.2019
3954 Clear -10 1046 72 10000 3 180 02:32 22.11.2019
3955 Clear -10 1046 72 10000 2 170 01:46 22.11.2019
3956 Clear -10 1046 72 10000 2 180 01:20 22.11.2019
3957 Clear -9 1046 72 10000 2 180 00:54 22.11.2019
3958 Clear -9 1046 72 10000 3 170 00:25 22.11.2019
3959 Clear -9 1046 78 10000 3 170 23:57 21.11.2019
3960 Clear -9 1046 78 10000 3 170 23:38 21.11.2019
3961 Clear -9 1046 78 10000 3 170 23:20 21.11.2019
3962 Clear -9 1046 73 10000 3 170 22:54 21.11.2019
3963 Clear -8 1046 73 10000 3 170 22:36 21.11.2019
3964 Clear -8 1046 73 10000 3 170 22:18 21.11.2019
3965 Clear -9 1046 73 10000 3 180 21:54 21.11.2019
3966 Clear -9 1046 73 10000 3 190 21:36 21.11.2019
3967 Clear -9 1046 73 10000 3 190 21:18 21.11.2019
3968 Clear -8 1046 73 10000 3 190 20:54 21.11.2019
3969 Clear -8 1046 73 10000 4 180 20:36 21.11.2019
3970 Clear -8 1046 73 10000 4 180 20:18 21.11.2019
3971 Clear -8 1046 79 10000 3 180 19:41 21.11.2019
3972 Clear -8 1046 79 10000 3 180 19:23 21.11.2019
3973 Clear -8 1046 73 10000 4 170 18:58 21.11.2019
3974 Clear -8 1046 79 10000 3 170 18:40 21.11.2019
3975 Clear -7 1046 79 10000 3 170 18:21 21.11.2019
3976 Clear -7 1046 79 10000 4 150 17:58 21.11.2019
3977 Clear -7 1046 79 10000 4 150 17:58 21.11.2019
3978 Clear -7 1046 73 10000 4 150 17:39 21.11.2019
3979 Clear -7 1046 73 10000 4 150 17:21 21.11.2019
3980 Clear -7 1046 73 10000 5 150 16:57 21.11.2019
3981 Clear -7 1046 73 10000 5 150 16:39 21.11.2019
3982 Clear -7 1046 73 10000 5 150 16:20 21.11.2019
3983 Clear -6 1046 73 10000 4 150 15:44 21.11.2019
3984 Clear -6 1046 73 10000 4 150 15:21 21.11.2019
3985 Clear -6 1046 73 10000 4 140 14:58 21.11.2019
3986 Clear -6 1046 73 10000 4 140 14:38 21.11.2019
3987 Clear -5 1046 73 10000 4 140 14:20 21.11.2019
3988 Clear -5 1046 73 10000 3 150 13:59 21.11.2019
3989 Clear -5 1046 67 10000 4 140 13:37 21.11.2019
3990 Clear -5 1046 67 10000 4 140 13:19 21.11.2019
3991 Clear -5 1046 67 10000 4 160 12:42 21.11.2019
3992 Clear -5 1047 67 10000 5 160 12:24 21.11.2019
3993 Clear -5 1047 67 10000 5 140 11:56 21.11.2019
3994 Clear -6 1047 67 10000 5 160 11:37 21.11.2019
3995 Clear -6 1047 67 10000 5 160 11:37 21.11.2019
3996 Clear -6 1047 67 10000 5 160 11:19 21.11.2019
3997 Clear -7 1047 67 10000 5 140 10:43 21.11.2019
3998 Clear -7 1047 67 10000 5 140 10:25 21.11.2019
3999 Clear -7 1047 73 10000 5 140 09:59 21.11.2019
4000 Clear -8 1047 73 10000 5 130 09:41 21.11.2019
4001 Clear -8 1047 73 10000 5 130 09:23 21.11.2019
4002 Clear -8 1047 67 10000 5 130 08:55 21.11.2019
4003 Clear -8 1047 67 10000 5 140 08:37 21.11.2019
4004 Clear -8 1047 67 10000 5 140 08:18 21.11.2019
4005 Clear -9 1047 72 10000 4 120 07:39 21.11.2019
4006 Clear -9 1047 72 10000 4 120 07:18 21.11.2019
4007 Clear -9 1047 72 10000 4 120 06:45 21.11.2019
4008 Clear -9 1047 72 10000 4 120 06:24 21.11.2019
4009 Clear -9 1046 72 10000 4 130 05:27 21.11.2019
4010 Clear -8 1046 62 10000 4 130 03:31 21.11.2019
4011 Clear -8 1046 62 10000 4 120 02:40 21.11.2019
4012 Clear -8 1046 57 10000 4 120 01:52 21.11.2019
4013 Clear -7 1046 57 10000 4 130 01:23 21.11.2019
4014 Clear -7 1046 57 10000 4 130 00:52 21.11.2019
4015 Clear -7 1046 57 10000 5 140 00:20 21.11.2019
4016 Clear -7 1046 57 10000 5 130 23:52 20.11.2019
4017 Clear -7 1045 53 10000 5 130 23:24 20.11.2019
4018 Clear -6 1045 49 10000 5 130 22:59 20.11.2019
4019 Clear -6 1045 49 10000 5 130 22:41 20.11.2019
4020 Clear -6 1045 45 10000 6 130 22:20 20.11.2019
4021 Clear -6 1045 62 10000 6 130 21:59 20.11.2019
4022 Clear -5 1045 62 10000 5 120 21:40 20.11.2019
4023 Clear -5 1045 62 10000 5 120 21:22 20.11.2019
4024 Clear -5 1044 62 10000 5 120 20:59 20.11.2019
4025 Clear -4 1044 53 10000 6 120 20:41 20.11.2019
4026 Clouds -4 1044 53 10000 6 120 20:23 20.11.2019
4027 Clouds -4 1044 63 10000 5 120 19:59 20.11.2019
4028 Clouds -4 1044 63 10000 6 120 19:37 20.11.2019
4029 Clouds -4 1044 63 10000 6 120 19:37 20.11.2019
4030 Clouds -3 1044 63 10000 6 120 19:19 20.11.2019
4031 Clouds -3 1044 63 10000 6 120 19:19 20.11.2019
4032 Clouds -3 1044 63 10000 5 120 18:59 20.11.2019
4033 Clouds -3 1044 63 10000 4 110 18:40 20.11.2019
4034 Clouds -2 1044 63 10000 4 110 18:22 20.11.2019
4035 Clouds -2 1043 63 10000 5 110 17:59 20.11.2019
4036 Clouds -2 1043 63 10000 5 110 17:39 20.11.2019
4037 Clouds -2 1043 63 10000 5 110 17:21 20.11.2019
4038 Clouds -1 1043 68 10000 6 110 16:58 20.11.2019
4039 Clouds -1 1043 74 10000 7 110 16:39 20.11.2019
4040 Clouds -1 1043 74 10000 7 110 16:20 20.11.2019
4041 Clouds -1 1043 74 10000 7 100 15:57 20.11.2019
4042 Clouds 0 1042 67 10000 6 110 15:38 20.11.2019
4043 Clouds 0 1042 67 10000 6 110 15:19 20.11.2019
4044 Clouds 0 1042 67 10000 7 110 14:55 20.11.2019
4045 Clouds 0 1042 67 10000 6 90 14:37 20.11.2019
4046 Clouds 0 1042 76 10000 6 90 14:18 20.11.2019
4047 Clouds 0 1042 80 10000 6 110 13:55 20.11.2019
4048 Clouds 1 1041 80 10000 7 100 13:36 20.11.2019
4049 Clouds 1 1041 80 10000 7 100 13:18 20.11.2019
4050 Clouds 1 1041 86 10000 7 100 12:38 20.11.2019
4051 Clouds 1 1041 86 10000 7 100 12:19 20.11.2019
4052 Clouds 1 1041 86 10000 7 100 11:46 20.11.2019
4053 Clouds 1 1041 81 10000 7 90 11:23 20.11.2019
4054 Clouds 1 1040 81 10000 6 100 10:59 20.11.2019
4055 Clouds 2 1040 81 10000 7 100 10:39 20.11.2019
4056 Clouds 2 1040 81 10000 7 100 10:20 20.11.2019
4057 Clouds 2 1040 81 10000 6 110 09:59 20.11.2019
4058 Clouds 2 1040 81 10000 7 100 09:41 20.11.2019
4059 Clouds 2 1040 81 10000 7 100 09:20 20.11.2019
4060 Clouds 2 1039 81 10000 8 100 08:46 20.11.2019
4061 Clouds 3 1039 86 10000 7 110 08:28 20.11.2019
4062 Clouds 3 1038 93 10000 7 100 07:56 20.11.2019
4063 Clouds 3 1038 93 10000 6 100 07:36 20.11.2019
4064 Clouds 3 1038 93 10000 6 110 07:18 20.11.2019
4065 Clouds 3 1038 93 10000 6 110 06:43 20.11.2019
4066 Clouds 3 1037 93 10000 6 110 06:19 20.11.2019
4067 Clouds 4 1037 93 10000 5 110 04:43 20.11.2019
4068 Clouds 4 1036 100 10000 5 100 02:29 20.11.2019
4069 Rain 5 1035 93 8000 4 110 01:38 20.11.2019
4070 Rain 5 1035 93 4900 4 120 00:58 20.11.2019
4071 Drizzle 4 1035 93 5000 5 130 00:22 20.11.2019
4072 Clouds 4 1035 93 8000 6 130 23:43 19.11.2019
4073 Clouds 4 1035 93 8000 6 130 23:23 19.11.2019
4074 Clouds 4 1034 93 9000 5 120 22:56 19.11.2019
4075 Clouds 4 1034 100 9000 5 120 22:38 19.11.2019
4076 Clouds 4 1034 100 9000 5 120 22:18 19.11.2019
4077 Clouds 4 1034 100 9000 5 120 21:55 19.11.2019
4078 Clouds 4 1034 100 9000 5 120 21:55 19.11.2019
4079 Clouds 3 1033 100 9000 4 120 21:37 19.11.2019
4080 Clouds 3 1033 100 9000 4 120 21:18 19.11.2019
4081 Clouds 3 1033 100 9000 5 120 20:55 19.11.2019
4082 Clouds 3 1033 100 7000 4 120 20:36 19.11.2019
4083 Clouds 3 1033 100 7000 4 120 20:18 19.11.2019
4084 Clouds 3 1033 100 7000 4 120 20:18 19.11.2019
4085 Clouds 3 1033 100 6000 4 120 19:54 19.11.2019
4086 Mist 3 1033 100 5000 4 110 19:36 19.11.2019
4087 Mist 3 1033 100 5000 4 110 19:18 19.11.2019
4088 Mist 2 1033 100 5000 4 130 18:41 19.11.2019
4089 Mist 3 1033 100 2800 4 130 18:21 19.11.2019
4090 Mist 3 1033 100 2800 4 130 17:59 19.11.2019
4091 Fog 3 1032 100 1000 4 100 17:41 19.11.2019
4092 Fog 3 1032 100 1000 4 100 17:41 19.11.2019
4093 Fog 3 1032 100 1000 4 100 17:21 19.11.2019
4094 Fog 2 1032 100 750 5 90 16:59 19.11.2019
4095 Fog 2 1032 100 1300 4 110 16:41 19.11.2019
4096 Fog 2 1032 100 1300 4 110 16:21 19.11.2019
4097 Fog 2 1032 100 1300 4 110 16:21 19.11.2019
4098 Mist 2 1032 100 2200 5 100 15:47 19.11.2019
4099 Mist 2 1032 100 2000 4 100 15:27 19.11.2019
4100 Mist 2 1032 100 2700 4 100 14:58 19.11.2019
4101 Mist 2 1032 100 3800 4 90 14:39 19.11.2019
4102 Mist 2 1032 100 3800 4 90 14:21 19.11.2019
4103 Clouds 2 1031 100 6000 5 90 13:59 19.11.2019
4104 Clouds 2 1031 100 7000 4 130 13:39 19.11.2019
4105 Clouds 2 1031 100 7000 4 130 13:18 19.11.2019
4106 Clouds 2 1031 93 9000 4 110 12:40 19.11.2019
4107 Clouds 2 1031 93 9000 4 110 12:21 19.11.2019
4108 Clouds 2 1031 93 9000 3 120 11:57 19.11.2019
4109 Clouds 2 1031 93 9000 4 130 11:37 19.11.2019
4110 Clouds 2 1031 93 9000 4 130 11:19 19.11.2019
4111 Clouds 2 1031 93 9000 4 130 10:45 19.11.2019
4112 Clouds 1 1031 93 7000 3 130 10:22 19.11.2019
4113 Clouds 1 1031 93 6000 3 150 09:56 19.11.2019
4114 Mist 1 1031 93 5000 3 130 09:38 19.11.2019
4115 Mist 1 1031 93 5000 3 130 09:18 19.11.2019
4116 Mist 1 1031 100 5000 4 120 08:40 19.11.2019
4117 Mist 1 1031 100 5000 4 120 08:22 19.11.2019
4118 Mist 1 1031 100 5000 4 120 08:22 19.11.2019
4119 Clouds 1 1031 100 6000 4 130 07:57 19.11.2019
4120 -273 0 0 0 0 0 07:38 19.11.2019
4121 Clouds 1 1030 100 6000 4 130 07:20 19.11.2019
4122 Mist 1 1030 93 5000 4 120 06:49 19.11.2019
4123 Mist 1 1030 93 5000 4 130 06:29 19.11.2019
4124 Clouds 1 1030 93 6000 4 120 05:24 19.11.2019
4125 Clouds 1 1030 100 7000 4 100 03:47 19.11.2019
4126 Mist 1 1030 100 9000 5 110 03:29 19.11.2019
4127 Mist 1 1030 93 5000 3 120 02:53 19.11.2019
4128 Clouds 2 1030 93 7000 3 110 01:59 19.11.2019
4129 Mist 2 1030 93 7000 4 100 01:27 19.11.2019
4130 Mist 2 1030 93 4300 3 110 00:21 19.11.2019
4131 Clouds 2 1029 93 9000 1 140 23:56 18.11.2019
4132 Clouds 2 1029 93 6000 2 150 23:37 18.11.2019
4133 Clouds 2 1029 93 6000 2 150 23:18 18.11.2019
4134 Clouds 2 1029 93 8000 3 140 22:42 18.11.2019
4135 Clouds 2 1029 93 8000 3 140 22:23 18.11.2019
4136 Clouds 2 1029 100 7000 3 90 21:55 18.11.2019
4137 Mist 2 1029 100 3300 3 90 21:37 18.11.2019
4138 Mist 3 1029 100 3300 3 90 21:19 18.11.2019
4139 Mist 2 1029 100 2500 2 90 20:56 18.11.2019
4140 Mist 2 1029 100 2800 2 70 20:38 18.11.2019
4141 Mist 2 1029 100 2800 2 70 20:18 18.11.2019
4142 Mist 3 1029 100 2500 2 30 19:54 18.11.2019
4143 Fog 3 1029 100 1100 1 0 19:36 18.11.2019
4144 Fog 3 1029 100 1100 1 0 19:18 18.11.2019
4145 Fog 3 1029 100 1200 3 200 18:54 18.11.2019
4146 Fog 3 1029 100 900 1 0 18:36 18.11.2019
4147 Fog 3 1029 100 1300 2 170 18:18 18.11.2019
4148 Fog 3 1029 100 1300 2 150 17:38 18.11.2019
4149 Fog 3 1029 100 1300 2 150 17:19 18.11.2019
4150 Drizzle 3 1029 100 1200 2 220 16:54 18.11.2019
4151 Drizzle 3 1029 100 1100 2 160 16:36 18.11.2019
4152 Drizzle 3 1029 100 1400 2 160 16:18 18.11.2019
4153 Drizzle 3 1029 100 1400 2 160 15:54 18.11.2019
4154 Mist 3 1028 100 1400 2 150 15:36 18.11.2019
4155 Mist 3 1028 100 1400 2 150 15:18 18.11.2019
4156 Mist 3 1028 100 3000 1 0 14:41 18.11.2019
4157 Mist 3 1028 100 3000 1 0 14:22 18.11.2019
4158 Fog 3 1028 100 3500 1.77 232 13:46 18.11.2019
4159 Fog 3 1028 100 3500 1.65 227 13:27 18.11.2019
4160 Fog 3 1028 100 5000 1 0 12:57 18.11.2019
4161 Fog 3 1028 100 3700 2 320 12:37 18.11.2019
4162 Fog 3 1028 100 1200 2 270 12:18 18.11.2019
4163 Fog 3 1028 100 1200 2 270 11:44 18.11.2019
4164 Fog 3 1028 100 1100 3 250 11:25 18.11.2019
4165 Fog 3 1028 100 800 4 220 10:55 18.11.2019
4166 Fog 2 1028 100 900 3 220 10:37 18.11.2019
4167 Fog 2 1028 100 1100 4 250 10:18 18.11.2019
4168 Fog 3 1028 100 1100 4 250 09:54 18.11.2019
4169 Fog 2 1028 100 550 3 260 09:36 18.11.2019
4170 Fog 2 1028 100 550 3 260 09:18 18.11.2019
4171 Fog 2 1028 100 450 4 260 08:42 18.11.2019
4172 Fog 2 1028 100 450 4 260 08:20 18.11.2019
4173 Fog 2 1028 100 600 4 220 07:47 18.11.2019
4174 Fog 2 1028 100 450 3 220 07:27 18.11.2019
4175 Fog 2 1028 100 900 3 250 06:53 18.11.2019
4176 Fog 2 1028 100 650 3 230 06:32 18.11.2019
4177 Fog 2 1028 100 1000 3 220 05:48 18.11.2019
4178 Mist 2 1028 100 1700 3 220 04:46 18.11.2019
4179 Mist 3 1028 100 3200 4 240 02:59 18.11.2019
4180 Mist 3 1028 100 4700 3 210 01:31 18.11.2019
4181 Mist 3 1028 93 3800 3 230 00:24 18.11.2019
4182 Mist 4 1028 93 3500 2 220 23:45 17.11.2019
4183 Mist 4 1028 93 3500 2 220 23:24 17.11.2019
4184 Mist 4 1028 100 4500 3 220 22:58 17.11.2019
4185 Mist 4 1028 93 4600 3 220 22:40 17.11.2019
4186 Mist 4 1028 93 4600 3 220 22:22 17.11.2019
4187 Mist 5 1028 93 4500 3 220 21:59 17.11.2019
4188 Mist 4 1028 93 4700 3 220 21:40 17.11.2019
4189 Mist 5 1028 93 4700 3 220 21:19 17.11.2019
4190 Mist 5 1028 93 5000 4 220 20:57 17.11.2019
4191 Clouds 5 1028 87 6000 3 210 20:38 17.11.2019
4192 Clouds 5 1028 87 6000 3 210 20:38 17.11.2019
4193 Clouds 5 1028 87 6000 3 210 20:19 17.11.2019
4194 Clouds 5 1028 93 6000 3 210 19:56 17.11.2019
4195 Clouds 6 1028 93 6000 3 210 19:37 17.11.2019
4196 Clouds 6 1028 93 6000 3 210 19:19 17.11.2019
4197 Mist 5 1028 93 5000 3 210 18:55 17.11.2019
4198 Mist 5 1028 93 5000 3 210 18:55 17.11.2019
4199 Mist 5 1028 93 5000 3 210 18:37 17.11.2019
4200 Mist 5 1028 93 5000 3 210 18:37 17.11.2019
4201 Mist 5 1028 93 5000 3 210 18:19 17.11.2019
4202 Mist 5 1028 93 4600 3 200 17:57 17.11.2019
4203 Mist 5 1029 93 4600 3 200 17:39 17.11.2019
4204 Mist 6 1029 93 4600 3 210 17:20 17.11.2019
4205 Mist 6 1029 93 4600 3 210 16:58 17.11.2019
4206 Mist 5 1029 93 4400 3 210 16:40 17.11.2019
4207 Mist 5 1029 93 4400 3 210 16:21 17.11.2019
4208 Mist 6 1029 93 4200 2 190 15:55 17.11.2019
4209 Mist 6 1029 93 4300 2 180 15:37 17.11.2019
4210 Mist 6 1029 93 4300 2 180 15:18 17.11.2019
4211 Mist 6 1029 93 4100 2 190 14:55 17.11.2019
4212 Mist 6 1029 93 4100 2 190 14:37 17.11.2019
4213 Mist 6 1028 93 4200 3 210 14:19 17.11.2019
4214 Mist 6 1028 93 4200 3 210 13:55 17.11.2019
4215 Mist 6 1028 93 4500 3 190 13:37 17.11.2019
4216 Mist 6 1028 93 4500 3 190 13:18 17.11.2019
4217 Mist 6 1028 93 4500 3 190 13:18 17.11.2019
4218 Mist 6 1028 93 5000 2 190 12:42 17.11.2019
4219 Mist 6 1028 93 5000 2 190 12:22 17.11.2019
4220 Mist 6 1028 93 4500 3 210 11:57 17.11.2019
4221 Mist 6 1028 93 4500 3 210 11:57 17.11.2019
4222 Mist 5 1028 100 4900 3 210 11:38 17.11.2019
4223 Mist 6 1028 100 4900 3 210 11:20 17.11.2019
4224 Mist 5 1028 100 4900 3 210 10:44 17.11.2019
4225 -273 0 0 0 0 0 10:23 17.11.2019
4226 Mist 5 1029 100 4900 3 200 09:57 17.11.2019
4227 Mist 5 1029 93 4700 3 200 09:39 17.11.2019
4228 Mist 5 1029 93 4700 3 200 09:21 17.11.2019
4229 Mist 4 1029 100 5000 4 220 08:40 17.11.2019
4230 Drizzle 4 1029 100 3400 3 220 08:20 17.11.2019
4231 Drizzle 4 1029 100 3400 3 220 07:48 17.11.2019
4232 Drizzle 4 1029 100 3400 3 220 07:48 17.11.2019
4233 Drizzle 4 1029 100 2000 4 220 07:28 17.11.2019
4234 Mist 4 1029 100 4000 4 240 06:59 17.11.2019
4235 Drizzle 4 1028 100 5000 5 230 06:40 17.11.2019
4236 Drizzle 4 1028 100 5000 5 230 06:21 17.11.2019
4237 Mist 4 1028 100 1600 3 210 04:24 17.11.2019
4238 Mist 4 1028 100 2500 3 200 03:51 17.11.2019
4239 Mist 4 1028 100 2900 3 210 03:32 17.11.2019
4240 Mist 4 1027 100 2900 3 200 02:28 17.11.2019
4241 Mist 3 1027 100 3200 3 210 01:42 17.11.2019
4242 Mist 3 1027 100 2300 4 210 00:55 17.11.2019
4243 Mist 3 1027 100 1500 3 220 00:22 17.11.2019
4244 Mist 3 1027 100 2900 5 210 23:48 16.11.2019
4245 Mist 3 1027 100 2900 5 210 23:20 16.11.2019
4246 Mist 3 1027 100 3100 4 210 22:59 16.11.2019
4247 Mist 3 1027 100 3100 4 210 22:41 16.11.2019
4248 Mist 3 1027 100 3100 4 220 22:19 16.11.2019
4249 Mist 3 1027 100 2700 4 220 21:56 16.11.2019
4250 Drizzle 3 1027 100 2200 3 210 21:38 16.11.2019
4251 Mist 3 1026 100 2700 5 230 21:19 16.11.2019
4252 Mist 3 1026 93 2800 4 210 20:55 16.11.2019
4253 Mist 3 1026 93 2300 4 210 20:37 16.11.2019
4254 Mist 3 1026 93 3600 3 200 20:18 16.11.2019
4255 Mist 3 1026 93 2800 4 210 19:40 16.11.2019
4256 Mist 3 1027 100 3600 3 210 19:22 16.11.2019
4257 Drizzle 3 1026 100 3000 4 210 18:47 16.11.2019
4258 Drizzle 3 1026 93 4200 4 190 18:29 16.11.2019
4259 Drizzle 3 1026 100 3700 3 200 17:58 16.11.2019
4260 Drizzle 3 1026 100 2800 5 210 17:39 16.11.2019
4261 Drizzle 3 1025 100 3400 5 180 17:21 16.11.2019
4262 Drizzle 3 1025 100 3400 5 180 16:56 16.11.2019
4263 Drizzle 3 1026 100 2200 4 190 16:37 16.11.2019
4264 Drizzle 3 1026 100 2200 4 190 16:19 16.11.2019
4265 Drizzle 3 1026 100 4400 4 190 15:42 16.11.2019
4266 Drizzle 3 1026 100 4400 4 190 15:24 16.11.2019
4267 Drizzle 3 1026 100 5000 4 180 14:59 16.11.2019
4268 Drizzle 3 1026 93 4600 4 180 14:40 16.11.2019
4269 Drizzle 3 1026 93 4600 4 180 14:21 16.11.2019
4270 Clouds 3 1026 93 8000 5 170 13:56 16.11.2019
4271 Clouds 3 1026 93 9000 5 190 13:38 16.11.2019
4272 Clouds 3 1026 93 9000 5 190 13:19 16.11.2019
4273 Clouds 3 1026 93 9000 5 190 12:57 16.11.2019
4274 Clouds 3 1026 93 9000 5 180 12:39 16.11.2019
4275 Clouds 3 1026 93 9000 5 180 12:20 16.11.2019
4276 Clouds 3 1026 93 10000 5 190 11:44 16.11.2019
4277 Clouds 3 1026 93 10000 5 170 11:26 16.11.2019
4278 Clouds 3 1026 93 10000 5 180 10:56 16.11.2019
4279 Clouds 3 1027 93 10000 5 170 10:38 16.11.2019
4280 Clouds 3 1027 93 10000 5 170 10:20 16.11.2019
4281 Clouds 3 1027 86 10000 5 170 09:43 16.11.2019
4282 Clouds 3 1027 86 10000 5 170 09:21 16.11.2019
4283 Clouds 3 1027 86 10000 5 170 08:58 16.11.2019
4284 Clouds 3 1027 86 10000 4 170 08:38 16.11.2019
4285 Clouds 3 1027 86 10000 5 170 08:18 16.11.2019
4286 Clouds 3 1027 86 10000 5 170 08:18 16.11.2019
4287 Clouds 2 1027 86 10000 5 180 07:42 16.11.2019
4288 Clouds 2 1027 86 10000 5 180 07:20 16.11.2019
4289 Clouds 2 1027 93 10000 5 180 06:51 16.11.2019
4290 Clouds 2 1027 93 10000 4 170 06:33 16.11.2019
4291 Clouds 2 1027 88 10000 5 170 05:30 16.11.2019
4292 Clouds 2 1027 88 10000 4 180 03:44 16.11.2019
4293 Clouds 2 1028 88 10000 5 180 03:25 16.11.2019
4294 Clouds 1 1028 86 10000 4 180 01:51 16.11.2019
4295 Clouds 0 1028 86 10000 4 170 01:20 16.11.2019
4296 Clouds 0 1028 86 10000 4 180 00:46 16.11.2019
4297 Clouds 0 1028 80 10000 4 180 00:26 16.11.2019
4298 Clouds 0 1028 86 10000 4 170 23:40 15.11.2019
4299 Clouds -1 1028 86 10000 4 170 23:21 15.11.2019
4300 Clouds -1 1028 86 10000 4 170 22:57 15.11.2019
4301 Clouds -1 1028 86 10000 4 170 22:57 15.11.2019
4302 Clouds -1 1028 80 10000 5 170 22:38 15.11.2019
4303 Clouds 0 1028 80 10000 5 170 22:18 15.11.2019
4304 Clouds 0 1028 80 10000 4 170 21:54 15.11.2019
4305 Clouds 0 1028 80 10000 5 180 21:36 15.11.2019
4306 Clouds 0 1028 80 10000 5 180 21:18 15.11.2019
4307 Clouds 0 1028 80 10000 4 170 20:54 15.11.2019
4308 Clouds 0 1029 80 10000 4 180 20:36 15.11.2019
4309 Clouds 0 1029 80 10000 4 180 20:18 15.11.2019
4310 Clouds 0 1029 80 10000 4 160 19:56 15.11.2019
4311 Clouds 0 1028 80 10000 4 150 19:36 15.11.2019
4312 Clouds 1 1029 74 10000 4 150 19:18 15.11.2019
4313 Clouds 1 1028 74 10000 5 150 18:41 15.11.2019
4314 Clouds 1 1028 74 10000 5 150 18:23 15.11.2019
4315 Clouds 1 1028 74 10000 5 150 17:55 15.11.2019
4316 Clouds 1 1028 74 10000 4 150 17:37 15.11.2019
4317 Clouds 1 1028 72 10000 4 140 17:18 15.11.2019
4318 Clouds 1 1028 72 10000 4 140 16:40 15.11.2019
4319 Clouds 2 1028 72 10000 4 140 16:40 15.11.2019
4320 Clouds 2 1028 72 10000 4 140 16:22 15.11.2019
4321 Clouds 2 1028 72 10000 5 150 15:59 15.11.2019
4322 Clouds 2 1028 72 10000 4 140 15:36 15.11.2019
4323 Clouds 3 1028 72 10000 5 140 15:18 15.11.2019
4324 Clouds 3 1028 72 10000 5 140 14:55 15.11.2019
4325 Clouds 4 1028 72 10000 5 140 14:37 15.11.2019
4326 Clouds 4 1028 67 10000 5 140 14:18 15.11.2019
4327 Clouds 5 1028 67 10000 4 140 13:54 15.11.2019
4328 Clouds 5 1028 67 10000 4 140 13:54 15.11.2019
4329 Clouds 6 1028 67 10000 4 150 13:36 15.11.2019
4330 Clouds 6 1029 69 10000 4 160 13:18 15.11.2019
4331 Clouds 6 1029 69 10000 4 160 12:56 15.11.2019
4332 Clouds 7 1029 69 10000 3 170 12:37 15.11.2019
4333 Clouds 6 1029 69 10000 3 170 12:18 15.11.2019
4334 Clouds 6 1029 69 10000 5 170 11:40 15.11.2019
4335 Clouds 5 1029 72 10000 5 170 11:21 15.11.2019
4336 Clouds 5 1030 72 10000 4 170 10:59 15.11.2019
4337 Clouds 5 1030 80 10000 4 170 10:39 15.11.2019
4338 Clouds 5 1030 80 10000 4 170 10:20 15.11.2019
4339 Clouds 4 1030 80 10000 4 190 09:41 15.11.2019
4340 Clouds 4 1030 80 10000 4 190 09:21 15.11.2019
4341 Clouds 2 1030 86 10000 4 180 08:58 15.11.2019
4342 Clouds 2 1030 86 10000 4 180 08:40 15.11.2019
4343 Clouds 2 1030 86 10000 4 180 08:21 15.11.2019
4344 Clouds 1 1029 79 10000 4 180 07:44 15.11.2019
4345 Clouds 0 1029 79 10000 4 180 07:25 15.11.2019
4346 Clouds 0 1029 79 10000 4 170 06:36 15.11.2019
4347 Clouds 0 1029 79 10000 4 180 05:57 15.11.2019
4348 Clouds 0 1029 79 10000 3 190 05:38 15.11.2019
4349 Clouds 0 1029 78 10000 3 180 04:54 15.11.2019
4350 Clouds 0 1029 78 10000 3 170 03:44 15.11.2019
4351 Clouds 0 1029 78 10000 4 170 02:37 15.11.2019
4352 Clouds 0 1029 76 10000 4 170 01:57 15.11.2019
4353 Clouds 0 1029 76 10000 4 170 01:57 15.11.2019
4354 Clouds 0 1029 93 10000 4 170 01:32 15.11.2019
4355 Clouds 0 1028 78 10000 3 170 00:42 15.11.2019
4356 Clouds 1 1029 93 10000 4 180 00:24 15.11.2019
4357 Clouds 1 1028 93 10000 3 170 23:47 14.11.2019
4358 Clouds 1 1028 93 10000 4 170 23:27 14.11.2019
4359 Clouds 1 1028 93 10000 4 170 23:27 14.11.2019
4360 Clouds 2 1028 93 10000 4 170 22:55 14.11.2019
4361 Clouds 2 1028 86 10000 4 180 22:37 14.11.2019
4362 Clouds 2 1028 86 10000 4 180 22:19 14.11.2019
4363 Clouds 1 1028 86 10000 4 190 21:42 14.11.2019
4364 Clouds 1 1028 86 10000 4 190 21:22 14.11.2019
4365 Clouds 2 1028 86 10000 5 190 20:55 14.11.2019
4366 Clouds 2 1028 76 10000 5 190 20:37 14.11.2019
4367 Clouds 2 1028 73 10000 5 170 20:19 14.11.2019
4368 Clouds 3 1028 73 10000 5 170 19:57 14.11.2019
4369 Clouds 3 1027 73 10000 4 180 19:38 14.11.2019
4370 Clouds 3 1027 73 10000 4 190 19:18 14.11.2019
4371 Clouds 3 1027 73 10000 5 170 18:43 14.11.2019
4372 Clouds 3 1027 73 10000 5 170 18:24 14.11.2019
4373 Clouds 3 1027 73 10000 5 160 17:58 14.11.2019
4374 Clouds 3 1027 73 10000 5 160 17:38 14.11.2019
4375 Clouds 4 1027 73 10000 4 150 17:20 14.11.2019
4376 Clouds 4 1027 73 10000 4 150 16:58 14.11.2019
4377 Clouds 4 1027 73 10000 4 150 16:39 14.11.2019
4378 Clouds 5 1027 73 10000 4 150 16:20 14.11.2019
4379 Clouds 5 1027 70 10000 4 150 15:58 14.11.2019
4380 Clouds 5 1027 73 10000 3 140 15:39 14.11.2019
4381 Clouds 5 1027 73 10000 3 140 15:20 14.11.2019
4382 Clouds 6 1027 73 10000 3 160 14:58 14.11.2019
4383 Clouds 7 1027 65 10000 4 170 14:39 14.11.2019
4384 Clouds 7 1027 65 10000 4 170 14:39 14.11.2019
4385 Clouds 7 1027 65 10000 4 170 14:21 14.11.2019
4386 Clouds 7 1027 66 10000 4 170 13:55 14.11.2019
4387 Clouds 8 1027 61 10000 4 170 13:36 14.11.2019
4388 Clouds 8 1027 61 10000 4 170 13:18 14.11.2019
4389 Clouds 8 1027 61 10000 5 170 12:42 14.11.2019
4390 Clouds 8 1027 61 10000 5 170 12:24 14.11.2019
4391 Clouds 7 1027 65 10000 5 170 11:56 14.11.2019
4392 Clouds 6 1027 70 10000 5 170 11:37 14.11.2019
4393 Clouds 6 1027 70 10000 5 170 11:19 14.11.2019
4394 Clouds 6 1027 70 10000 5 180 10:57 14.11.2019
4395 Clouds 5 1027 70 10000 6 170 10:37 14.11.2019
4396 Clouds 5 1027 70 10000 6 170 10:19 14.11.2019
4397 Clouds 4 1027 75 10000 5 180 09:54 14.11.2019
4398 Clouds 3 1026 80 10000 5 170 09:36 14.11.2019
4399 Clouds 2 1026 86 10000 5 180 09:18 14.11.2019
4400 Clouds 2 1026 86 10000 5 180 08:41 14.11.2019
4401 Clouds 2 1026 86 10000 5 180 08:23 14.11.2019
4402 Clouds 1 1026 93 9000 4 170 07:42 14.11.2019
4403 Clouds 1 1026 93 9000 4 170 07:24 14.11.2019
4404 Clouds 0 1026 93 9000 3 170 06:46 14.11.2019
4405 Clouds 0 1026 93 9000 3 170 06:21 14.11.2019
4406 Clouds 0 1026 93 10000 5 170 05:59 14.11.2019
4407 Clouds 2 1027 84 0 4.6 171 04:38 14.11.2019
4408 Clouds 0 1026 93 9000 4 170 03:47 14.11.2019
4409 Clouds 0 1027 93 10000 4 150 02:39 14.11.2019
4410 Clouds 0 1027 93 10000 3 150 01:41 14.11.2019
4411 Clouds 0 1027 93 10000 3 150 00:58 14.11.2019
4412 Clouds 0 1027 93 10000 3 150 00:58 14.11.2019
4413 Clouds 0 1027 86 10000 4 150 00:39 14.11.2019
4414 Clouds 0 1027 86 10000 4 150 00:39 14.11.2019
4415 Clouds 1 1027 86 10000 4 160 00:20 14.11.2019
4416 Clouds 0 1027 86 10000 4 160 23:39 13.11.2019
4417 Clouds 0 1027 86 10000 4 160 23:20 13.11.2019
4418 Clouds 1 1027 86 10000 4 150 22:55 13.11.2019
4419 Clouds 1 1027 86 10000 4 150 22:55 13.11.2019
4420 Clouds 1 1028 86 10000 4 170 22:37 13.11.2019
4421 Clouds 1 1028 86 10000 4 170 22:19 13.11.2019
4422 Clouds 1 1028 93 10000 4 170 21:55 13.11.2019
4423 Clouds 2 1027 86 10000 4 170 21:37 13.11.2019
4424 Clouds 2 1027 86 10000 4 150 21:18 13.11.2019
4425 Clouds 2 1027 86 10000 4 150 20:55 13.11.2019
4426 Clouds 2 1027 80 10000 3 160 20:37 13.11.2019
4427 Clouds 2 1027 80 10000 3 160 20:37 13.11.2019
4428 Clouds 2 1027 80 10000 4 150 20:18 13.11.2019
4429 Clouds 2 1027 80 10000 3 160 20:18 13.11.2019
4430 Clouds 2 1028 80 10000 3 160 19:42 13.11.2019
4431 Clouds 2 1028 80 10000 4 160 19:19 13.11.2019
4432 Clouds 2 1028 80 10000 4 160 18:56 13.11.2019
4433 Clouds 2 1028 78 10000 3 170 18:38 13.11.2019
4434 Clouds 2 1028 78 10000 3 170 18:19 13.11.2019
4435 Clouds 3 1028 78 10000 4 160 17:57 13.11.2019
4436 Clouds 3 1028 78 10000 4 160 17:57 13.11.2019
4437 Clouds 3 1028 78 10000 3 160 17:38 13.11.2019
4438 Clouds 3 1028 73 10000 4 160 17:20 13.11.2019
4439 Clouds 3 1028 74 10000 4 160 16:58 13.11.2019
4440 Clouds 3 1028 73 10000 4 150 16:39 13.11.2019
4441 Clouds 3 1028 73 10000 4 150 16:39 13.11.2019
4442 Clouds 3 1028 73 10000 4 150 16:21 13.11.2019
4443 Clouds 3 1028 73 10000 4 140 15:58 13.11.2019
4444 Clouds 3 1028 73 10000 4 140 15:58 13.11.2019
4445 Clouds 4 1028 73 10000 4 150 15:39 13.11.2019
4446 Clouds 4 1028 74 10000 4 150 15:20 13.11.2019
4447 Clouds 5 1028 74 10000 4 150 14:42 13.11.2019
4448 Clouds 5 1028 68 10000 4 150 14:22 13.11.2019
4449 Clouds 6 1028 67 10000 5 140 13:58 13.11.2019
4450 Clouds 6 1028 67 10000 5 140 13:36 13.11.2019
4451 Clouds 6 1028 68 10000 4 150 13:18 13.11.2019
4452 Clouds 6 1028 68 10000 4 150 12:54 13.11.2019
4453 Clouds 6 1028 68 10000 5 160 12:36 13.11.2019
4454 Clouds 5 1028 68 10000 4 140 12:18 13.11.2019
4455 Clouds 5 1028 68 10000 5 160 11:40 13.11.2019
4456 Clouds 5 1028 70 10000 5 160 11:20 13.11.2019
4457 Clouds 5 1029 70 10000 4 150 10:58 13.11.2019
4458 Clouds 4 1029 80 10000 5 160 10:40 13.11.2019
4459 Clouds 4 1029 80 10000 5 160 10:20 13.11.2019
4460 Clouds 4 1029 70 10000 4 180 09:55 13.11.2019
4461 Clouds 3 1029 70 10000 4 180 09:37 13.11.2019
4462 Clouds 3 1029 70 10000 4 180 09:19 13.11.2019
4463 Clouds 3 1030 70 10000 4 190 08:39 13.11.2019
4464 Clouds 3 1030 84 10000 4 190 08:20 13.11.2019
4465 Clouds 3 1029 85 10000 3 190 07:42 13.11.2019
4466 Clouds 2 1029 85 10000 3 180 07:21 13.11.2019
4467 Clouds 2 1029 85 10000 3 190 06:46 13.11.2019
4468 Clouds 2 1029 85 10000 3 190 06:19 13.11.2019
4469 Clouds 2 1029 85 10000 3 190 06:19 13.11.2019
4470 Clouds 2 1029 85 10000 3 190 06:19 13.11.2019
4471 Clouds 2 1029 85 10000 3 190 06:19 13.11.2019
4472 Clouds 2 1029 85 10000 3 200 05:53 13.11.2019
4473 Clouds 2 1029 85 10000 4 200 05:34 13.11.2019
4474 Clouds 2 1029 87 10000 3 200 04:43 13.11.2019
4475 Clouds 3 1029 86 10000 3 220 02:19 13.11.2019
4476 Clouds 2 1029 86 10000 3 210 01:44 13.11.2019
4477 Clouds 3 1028 85 10000 2 260 00:45 13.11.2019
4478 Clouds 3 1028 85 10000 3 280 00:26 13.11.2019
4479 Clouds 3 1028 85 10000 4 250 23:42 12.11.2019
4480 Clouds 3 1028 87 10000 4 250 23:21 12.11.2019
4481 Clouds 3 1028 87 10000 4 260 22:56 12.11.2019
4482 Clouds 3 1028 87 10000 4 270 22:37 12.11.2019
4483 Clouds 3 1028 87 10000 4 270 22:18 12.11.2019
4484 Clouds 3 1028 87 10000 4 280 21:44 12.11.2019
4485 Clouds 3 1028 87 10000 4 280 21:25 12.11.2019
4486 Clouds 3 1027 87 10000 4 260 20:58 12.11.2019
4487 Clouds 3 1027 87 10000 4 270 20:38 12.11.2019
4488 Clouds 3 1027 87 10000 4 270 20:19 12.11.2019
4489 Clouds 3 1026 87 10000 4 310 19:57 12.11.2019
4490 Clouds 3 1026 87 10000 4 310 19:39 12.11.2019
4491 Clouds 3 1026 87 10000 4 260 19:19 12.11.2019
4492 Clouds 3 1026 87 10000 4 260 18:59 12.11.2019
4493 Clouds 3 1026 86 10000 3 260 18:40 12.11.2019
4494 Clouds 3 1026 86 10000 3 260 18:22 12.11.2019
4495 Clouds 3 1025 87 10000 2 280 17:57 12.11.2019
4496 Clouds 3 1025 87 10000 4 270 17:39 12.11.2019
4497 Clouds 3 1025 80 10000 4 270 17:21 12.11.2019
4498 Clouds 3 1025 80 10000 4 270 17:21 12.11.2019
4499 Clouds 3 1025 86 10000 4 290 16:57 12.11.2019
4500 Clouds 3 1025 86 10000 5 280 16:39 12.11.2019
4501 Clouds 3 1025 86 10000 5 280 16:20 12.11.2019
4502 Clouds 4 1024 86 10000 5 280 15:41 12.11.2019
4503 Clouds 4 1024 86 10000 5 280 15:21 12.11.2019
4504 Clouds 4 1024 86 10000 6 280 14:57 12.11.2019
4505 Clouds 4 1023 80 10000 6 280 14:37 12.11.2019
4506 Clouds 4 1023 80 10000 6 280 14:19 12.11.2019
4507 Clouds 4 1023 80 10000 6 280 13:56 12.11.2019
4508 Clouds 4 1022 80 10000 7 280 13:37 12.11.2019
4509 Clouds 4 1022 80 10000 7 280 13:37 12.11.2019
4510 Clouds 4 1022 80 10000 6 280 13:19 12.11.2019
4511 Clouds 4 1022 80 10000 6 280 12:43 12.11.2019
4512 Clouds 4 1022 80 10000 6 280 12:20 12.11.2019
4513 Clouds 4 1021 80 10000 7 280 11:59 12.11.2019
4514 Clouds 4 1021 80 10000 7 270 11:41 12.11.2019
4515 Clouds 4 1021 80 10000 7 270 11:22 12.11.2019
4516 Clouds 4 1020 93 10000 7 290 10:57 12.11.2019
4517 Clouds 4 1020 93 10000 6 280 10:38 12.11.2019
4518 Clouds 5 1020 93 10000 6 280 10:20 12.11.2019
4519 Clouds 4 1020 93 10000 7 270 09:56 12.11.2019
4520 Clouds 5 1019 93 10000 8 270 09:37 12.11.2019
4521 Rain 5 1018 93 9000 7 270 09:18 12.11.2019
4522 Rain 6 1017 93 7000 6 280 08:41 12.11.2019
4523 Rain 6 1017 93 7000 6 280 08:22 12.11.2019
4524 Clouds 6 1016 87 10000 7 280 07:41 12.11.2019
4525 Clouds 6 1016 87 10000 7 280 07:23 12.11.2019
4526 Rain 6 1015 93 10000 7 280 06:45 12.11.2019
4527 Rain 6 1015 93 10000 7 280 06:23 12.11.2019
4528 Drizzle 6 1014 93 8000 5 280 05:46 12.11.2019
4529 Rain 7 1013 93 8000 10 270 04:50 12.11.2019
4530 Rain 8 1011 93 4800 9 250 03:49 12.11.2019
4531 Drizzle 7 1010 100 3300 5 210 01:49 12.11.2019
4532 Drizzle 7 1010 100 4500 5 210 01:22 12.11.2019
4533 Drizzle 7 1010 93 6000 5 200 00:51 12.11.2019
4534 Drizzle 6 1010 93 6000 5 200 00:32 12.11.2019
4535 Clouds 6 1010 100 8000 5 200 23:48 11.11.2019
4536 Clouds 6 1010 100 8000 5 200 23:25 11.11.2019
4537 Drizzle 6 1010 100 10000 5 190 22:58 11.11.2019
4538 Rain 6 1010 100 8000 5 190 22:38 11.11.2019
4539 Rain 6 1010 100 8000 5 190 22:19 11.11.2019
4540 Rain 6 1010 100 9000 5 190 21:57 11.11.2019
4541 Rain 6 1010 100 7000 5 180 21:38 11.11.2019
4542 Rain 6 1010 100 7000 5 180 21:19 11.11.2019
4543 Rain 6 1010 100 5000 5 180 20:55 11.11.2019
4544 Rain 6 1010 93 5000 5 190 20:36 11.11.2019
4545 Rain 6 1010 93 5000 5 190 20:18 11.11.2019
4546 Rain 6 1010 93 3700 5 170 20:18 11.11.2019
4547 Rain 6 1010 93 3700 5 170 19:42 11.11.2019
4548 Rain 6 1010 93 3700 5 170 19:42 11.11.2019
4549 Drizzle 6 1010 93 3900 5 170 19:19 11.11.2019
4550 Clouds 7 1011 93 6000 6 180 18:57 11.11.2019
4551 Clouds 7 1011 93 6000 6 180 18:57 11.11.2019
4552 Clouds 7 1011 81 10000 6 190 18:39 11.11.2019
4553 Clouds 7 1011 81 10000 6 190 18:20 11.11.2019
4554 Clouds 7 1011 81 10000 5 190 17:44 11.11.2019
4555 Clouds 7 1011 87 10000 6 180 17:25 11.11.2019
4556 Clouds 8 1011 87 10000 5 170 16:55 11.11.2019
4557 Clouds 8 1011 87 10000 5 160 16:37 11.11.2019
4558 Clouds 8 1011 87 10000 5 160 16:19 11.11.2019
4559 Clouds 8 1011 87 9000 5 150 15:41 11.11.2019
4560 Clouds 8 1011 87 9000 5 150 15:20 11.11.2019
4561 Clouds 8 1011 87 9000 4 150 14:55 11.11.2019
4562 Clouds 8 1011 87 9000 4 150 14:37 11.11.2019
4563 Clouds 8 1012 93 9000 5 150 14:18 11.11.2019
4564 Clouds 9 1012 87 10000 4 150 13:40 11.11.2019
4565 Clouds 9 1012 87 9000 4 160 13:21 11.11.2019
4566 Clouds 9 1013 87 9000 5 160 12:58 11.11.2019
4567 Clouds 9 1013 87 9000 5 160 12:58 11.11.2019
4568 Clouds 9 1013 87 9000 5 160 12:58 11.11.2019
4569 Clouds 9 1013 87 9000 5 160 12:40 11.11.2019
4570 Clouds 9 1013 87 9000 5 160 12:22 11.11.2019
4571 Clouds 9 1013 87 8000 6 170 11:57 11.11.2019
4572 Clouds 9 1014 87 7000 5 180 11:39 11.11.2019
4573 Clouds 8 1014 87 7000 5 180 11:21 11.11.2019
4574 Clouds 8 1014 87 6000 5 170 10:43 11.11.2019
4575 Clouds 8 1014 87 6000 5 170 10:19 11.11.2019
4576 Clouds 8 1015 93 6000 6 180 09:58 11.11.2019
4577 Clouds 8 1015 93 6000 6 180 09:58 11.11.2019
4578 Clouds 8 1015 93 6000 6 180 09:39 11.11.2019
4579 Clouds 7 1015 93 6000 3 170 09:19 11.11.2019
4580 Clouds 7 1015 93 6000 5 180 08:41 11.11.2019
4581 Clouds 7 1015 93 6000 6 180 08:22 11.11.2019
4582 Clouds 7 1015 93 6000 6 180 08:22 11.11.2019
4583 Mist 7 1016 93 5000 4 180 07:57 11.11.2019
4584 Drizzle 7 1016 93 6000 5 180 07:37 11.11.2019
4585 Drizzle 7 1016 93 6000 5 180 07:19 11.11.2019
4586 Drizzle 7 1016 93 5000 5 180 06:48 11.11.2019
4587 Drizzle 7 1016 93 4500 6 180 06:23 11.11.2019
4588 Mist 7 1016 100 4100 5 180 05:51 11.11.2019
4589 Mist 7 1017 100 4600 5 180 04:43 11.11.2019
4590 Mist 7 1017 100 4600 5 180 03:25 11.11.2019
4591 Mist 6 1018 100 3700 5 170 02:30 11.11.2019
4592 Mist 6 1018 100 2500 5 160 01:57 11.11.2019
4593 Mist 6 1018 100 1700 5 170 01:35 11.11.2019
4594 Mist 6 1018 93 1600 5 170 00:51 11.11.2019
4595 Mist 6 1018 100 2500 5 170 00:26 11.11.2019
4596 Mist 6 1019 100 3300 5 170 23:56 10.11.2019
4597 Mist 6 1019 100 4000 4 170 23:36 10.11.2019
4598 Mist 7 1019 100 4000 4 170 23:36 10.11.2019
4599 Mist 7 1019 100 4200 5 170 23:18 10.11.2019
4600 Mist 7 1019 100 4200 5 170 22:55 10.11.2019
4601 Mist 7 1019 93 4200 5 170 22:36 10.11.2019
4602 Mist 7 1019 93 4200 5 170 22:18 10.11.2019
4603 Mist 7 1019 93 3700 6 170 21:54 10.11.2019
4604 Mist 7 1019 100 4400 5 180 21:36 10.11.2019
4605 Mist 7 1019 100 4400 5 180 21:18 10.11.2019
4606 Mist 7 1019 100 4400 5 180 21:18 10.11.2019
4607 Mist 7 1019 100 4500 6 170 20:40 10.11.2019
4608 Mist 8 1019 93 4300 6 180 20:21 10.11.2019
4609 Mist 8 1019 93 5000 7 170 19:56 10.11.2019
4610 Clouds 8 1019 93 6000 5 180 19:37 10.11.2019
4611 Clouds 8 1019 93 6000 5 180 19:18 10.11.2019
4612 Mist 9 1019 93 5000 6 170 18:57 10.11.2019
4613 Clouds 9 1019 93 6000 6 170 18:38 10.11.2019
4614 Clouds 9 1019 93 6000 6 170 18:19 10.11.2019
4615 Mist 9 1019 93 5000 5 170 17:56 10.11.2019
4616 Mist 9 1019 93 5000 5 170 17:38 10.11.2019
4617 Mist 9 1019 93 5000 5 170 17:19 10.11.2019
4618 Mist 9 1019 100 5000 5 170 16:57 10.11.2019
4619 Mist 9 1019 100 4400 5 170 16:38 10.11.2019
4620 Mist 9 1019 100 4400 5 170 16:19 10.11.2019
4621 Mist 9 1020 100 4000 5 170 15:55 10.11.2019
4622 Mist 9 1020 93 4200 4 170 15:36 10.11.2019
4623 Mist 9 1020 93 4200 4 170 15:36 10.11.2019
4624 Mist 9 1020 93 4200 4 170 15:18 10.11.2019
4625 Mist 9 1020 93 5000 5 170 14:41 10.11.2019
4626 Mist 9 1020 93 5000 4 170 14:23 10.11.2019
4627 Clouds 9 1020 100 6000 5 170 13:58 10.11.2019
4628 Clouds 9 1020 100 6000 5 170 13:40 10.11.2019
4629 Clouds 9 1020 93 6000 5 170 13:20 10.11.2019
4630 Clouds 9 1020 93 6000 5 170 12:44 10.11.2019
4631 Clouds 8 1020 93 6000 4 170 12:21 10.11.2019
4632 Clouds 8 1020 93 6000 5 170 11:57 10.11.2019
4633 Clouds 8 1020 93 6000 5 170 11:57 10.11.2019
4634 Mist 8 1020 100 5000 4 170 11:39 10.11.2019
4635 Mist 8 1020 100 5000 4 170 11:21 10.11.2019
4636 Mist 8 1021 100 5000 4 170 11:00 10.11.2019
4637 Clouds 7 1021 93 7000 4 180 10:41 10.11.2019
4638 Clouds 7 1021 93 7000 4 180 10:20 10.11.2019
4639 Clouds 7 1021 93 7000 4 170 09:44 10.11.2019
4640 Clouds 7 1021 93 7000 4 170 09:26 10.11.2019
4641 Clouds 6 1021 100 7000 4 160 08:59 10.11.2019
4642 Clouds 6 1021 100 7000 4 170 08:37 10.11.2019
4643 Clouds 6 1021 100 7000 4 170 08:18 10.11.2019
4644 Clouds 6 1021 100 7000 4 170 07:42 10.11.2019
4645 Drizzle 6 1021 93 6000 3 180 07:24 10.11.2019
4646 Mist 5 1021 100 3900 3 170 06:33 10.11.2019
4647 Rain 5 1021 100 2400 4 160 05:40 10.11.2019
4648 Mist 4 1021 93 2900 4 160 03:22 10.11.2019
4649 Clouds 4 1022 100 8000 4 170 01:53 10.11.2019
4650 Rain 4 1022 100 9000 5 170 01:19 10.11.2019
4651 Drizzle 4 1022 100 4500 4 160 00:41 10.11.2019
4652 Rain 4 1022 100 6000 4 170 23:58 09.11.2019
4653 Rain 4 1022 100 9000 4 170 23:37 09.11.2019
4654 Rain 4 1022 100 9000 4 170 23:18 09.11.2019
4655 Clouds 4 1022 100 10000 5 170 22:41 09.11.2019
4656 Clouds 4 1022 100 10000 5 170 22:21 09.11.2019
4657 Drizzle 4 1022 100 7000 5 170 21:56 09.11.2019
4658 Drizzle 4 1022 100 7000 5 170 21:38 09.11.2019
4659 Drizzle 4 1022 100 4100 6 160 21:20 09.11.2019
4660 Rain 4 1022 100 8000 6 160 20:44 09.11.2019
4661 Rain 4 1022 100 8000 6 160 20:23 09.11.2019
4662 Rain 4 1023 100 5000 6 160 19:58 09.11.2019
4663 Rain 4 1023 100 5000 6 160 19:40 09.11.2019
4664 Rain 4 1023 100 9000 7 160 19:22 09.11.2019
4665 Rain 4 1023 100 9000 7 160 19:22 09.11.2019
4666 Drizzle 4 1023 93 8000 7 160 18:57 09.11.2019
4667 Drizzle 4 1023 100 7000 6 160 18:38 09.11.2019
4668 Drizzle 4 1023 100 7000 6 160 18:18 09.11.2019
4669 Drizzle 3 1024 100 7000 6 160 17:41 09.11.2019
4670 Drizzle 3 1024 100 7000 6 160 17:22 09.11.2019
4671 Drizzle 3 1024 100 7000 7 140 16:57 09.11.2019
4672 Clouds 3 1024 93 9000 6 150 16:38 09.11.2019
4673 Clouds 3 1024 93 9000 6 150 16:18 09.11.2019
4674 Clouds 3 1024 93 9000 7 140 15:42 09.11.2019
4675 Clouds 3 1024 93 9000 7 140 15:23 09.11.2019
4676 Clouds 3 1025 93 8000 7 150 14:47 09.11.2019
4677 Clouds 3 1025 93 8000 7 150 14:24 09.11.2019
4678 Clouds 2 1025 93 6000 6 140 13:58 09.11.2019
4679 Clouds 2 1025 93 6000 6 140 13:40 09.11.2019
4680 Clouds 3 1026 93 8000 6 140 13:21 09.11.2019
4681 Clouds 3 1026 93 8000 6 130 12:59 09.11.2019
4682 Clouds 3 1026 93 8000 6 130 12:40 09.11.2019
4683 Clouds 3 1026 93 9000 6 130 12:22 09.11.2019
4684 Clouds 2 1027 100 7000 6 130 11:55 09.11.2019
4685 Clouds 3 1027 93 7000 6 140 11:37 09.11.2019
4686 Clouds 3 1027 93 8000 5 140 11:18 09.11.2019
4687 Clouds 3 1028 93 8000 6 130 10:40 09.11.2019
4688 Clouds 3 1028 93 6000 6 120 10:19 09.11.2019
4689 Clouds 3 1028 93 6000 6 120 10:19 09.11.2019
4690 Clouds 3 1028 93 8000 6 130 10:19 09.11.2019
4691 Clouds 3 1028 93 7000 5 130 09:47 09.11.2019
4692 Clouds 3 1028 93 7000 5 130 09:28 09.11.2019
4693 Mist 2 1028 93 5000 5 120 08:59 09.11.2019
4694 Mist 3 1028 93 4600 5 130 08:40 09.11.2019
4695 Mist 3 1028 93 4600 5 130 08:21 09.11.2019
4696 Clouds 3 1028 100 6000 4 140 07:46 09.11.2019
4697 Clouds 2 1028 100 6000 4 140 07:23 09.11.2019
4698 Clouds 2 1028 100 6000 4 120 06:49 09.11.2019
4699 Mist 2 1028 100 4300 4 150 06:31 09.11.2019
4700 Mist 2 1028 100 2000 4 160 05:45 09.11.2019
4701 Fog 2 1028 100 1200 4 160 05:23 09.11.2019
4702 Fog 2 1028 100 600 3 140 03:57 09.11.2019
4703 Fog 2 1028 100 600 3 140 03:57 09.11.2019
4704 Fog 2 1028 100 900 3 140 02:44 09.11.2019
4705 Fog 2 1027 100 1400 3 150 01:55 09.11.2019
4706 Mist 3 1027 93 4400 4 110 00:54 09.11.2019
4707 Mist 3 1027 100 4300 3 110 00:36 09.11.2019
4708 Mist 3 1027 100 3700 2 170 23:58 08.11.2019
4709 Mist 3 1027 100 4200 2 90 23:39 08.11.2019
4710 Mist 3 1027 100 4200 2 90 23:20 08.11.2019
4711 Mist 3 1027 100 4600 2 210 22:48 08.11.2019
4712 Mist 3 1027 100 4600 2 210 22:48 08.11.2019
4713 Mist 3 1027 100 5000 2 120 22:22 08.11.2019
4714 Mist 3 1026 93 5000 1 0 21:57 08.11.2019
4715 Mist 3 1026 93 5000 2 210 21:39 08.11.2019
4716 Mist 3 1026 93 5000 2 210 21:19 08.11.2019
4717 Clouds 3 1026 100 6000 2 170 20:54 08.11.2019
4718 Mist 3 1025 93 5000 2 140 20:36 08.11.2019
4719 Mist 3 1025 100 5000 3 180 20:18 08.11.2019
4720 Clouds 3 1024 100 6000 2 160 19:39 08.11.2019
4721 Clouds 4 1024 100 6000 2 160 19:19 08.11.2019
4722 Clouds 4 1024 100 6000 2 160 19:19 08.11.2019
4723 Clouds 4 1024 100 6000 3 190 18:56 08.11.2019
4724 Clouds 4 1024 100 6000 2 190 18:38 08.11.2019
4725 Clouds 4 1024 100 6000 2 190 18:20 08.11.2019
4726 Clouds 4 1024 100 6000 2 200 17:56 08.11.2019
4727 Clouds 4 1024 100 6000 2 200 17:56 08.11.2019
4728 Clouds 4 1024 100 6000 2 200 17:56 08.11.2019
4729 Clouds 4 1024 100 6000 2 210 17:37 08.11.2019
4730 Clouds 4 1024 100 6000 2 210 17:19 08.11.2019
4731 Clouds 4 1024 100 6000 2 210 17:19 08.11.2019
4732 Mist 4 1024 100 5000 2 220 16:58 08.11.2019
4733 Mist 5 1023 100 4200 2 140 16:39 08.11.2019
4734 Mist 5 1023 100 4200 2 140 16:39 08.11.2019
4735 Mist 5 1023 100 4200 2 140 16:39 08.11.2019
4736 Mist 5 1023 100 4200 2 140 16:20 08.11.2019
4737 Mist 4 1023 100 3100 2 170 16:20 08.11.2019
4738 Mist 4 1023 100 3100 2 170 15:59 08.11.2019
4739 Mist 5 1023 100 3600 1 0 15:40 08.11.2019
4740 Mist 5 1023 100 3600 1 0 15:22 08.11.2019
4741 Mist 4 1022 100 3300 1 0 14:56 08.11.2019
4742 Mist 4 1022 100 3000 1 0 14:37 08.11.2019
4743 Mist 4 1022 100 3000 1 0 14:19 08.11.2019
4744 Mist 4 1021 100 2900 1 0 13:57 08.11.2019
4745 Mist 5 1021 100 2900 1 0 13:38 08.11.2019
4746 Mist 4 1021 100 2900 1 0 13:19 08.11.2019
4747 Mist 4 1020 100 3500 2 90 12:43 08.11.2019
4748 Mist 4 1020 100 3500 2 90 12:24 08.11.2019
4749 Mist 4 1020 100 2400 2 90 11:57 08.11.2019
4750 Fog 4 1020 100 1200 2 30 11:39 08.11.2019
4751 Fog 4 1020 100 1200 2 30 11:20 08.11.2019
4752 Fog 4 1020 100 1200 2 30 11:20 08.11.2019
4753 Fog 4 1020 100 1200 2 60 10:57 08.11.2019
4754 Fog 3 1019 100 1200 2 70 10:39 08.11.2019
4755 Fog 3 1019 100 1200 2 70 10:20 08.11.2019
4756 Mist 3 1019 100 1400 2 70 09:55 08.11.2019
4757 Mist 3 1019 100 1600 3 90 09:36 08.11.2019
4758 Mist 3 1019 100 1600 3 90 09:18 08.11.2019
4759 Mist 3 1018 100 1700 3 80 08:38 08.11.2019
4760 Mist 3 1018 100 1700 3 80 08:19 08.11.2019
4761 Mist 3 1018 100 2000 3 70 07:41 08.11.2019
4762 Mist 3 1018 100 2000 3 70 07:22 08.11.2019
4763 Mist 3 1018 100 2000 3 70 07:22 08.11.2019
4764 Fog 3 1017 100 1000 4 100 06:43 08.11.2019
4765 Fog 3 1017 100 1000 4 100 06:24 08.11.2019
4766 Fog 3 1017 100 550 3 80 05:57 08.11.2019
4767 Fog 3 1017 100 500 3 70 05:25 08.11.2019
4768 Fog 4 1016 100 350 3 70 04:18 08.11.2019
4769 Drizzle 4 1016 100 550 4 70 03:41 08.11.2019
4770 Drizzle 4 1015 100 450 3 60 02:54 08.11.2019
4771 Fog 4 1015 100 900 3 90 01:50 08.11.2019
4772 Mist 4 1015 100 2000 4 70 01:31 08.11.2019
4773 Clouds 5 1014 93 6000 2 170 00:38 08.11.2019
4774 Clouds 5 1014 93 6000 2 170 00:20 08.11.2019
4775 Mist 5 1015 100 5000 4 70 23:44 07.11.2019
4776 Mist 5 1015 100 5000 4 70 23:25 07.11.2019
4777 Clouds 5 1014 93 6000 4 80 22:55 07.11.2019
4778 Mist 6 1014 100 5000 4 70 22:37 07.11.2019
4779 Rain 5 1014 100 5000 4 80 22:19 07.11.2019
4780 Mist 5 1014 100 5000 2 70 21:38 07.11.2019
4781 Mist 5 1014 100 5000 2 70 21:20 07.11.2019
4782 Clouds 6 1013 93 10000 3 240 20:58 07.11.2019
4783 Clouds 6 1013 93 10000 4 200 20:40 07.11.2019
4784 Clouds 6 1013 93 10000 4 200 20:21 07.11.2019
4785 Clouds 6 1013 93 10000 3 200 19:57 07.11.2019
4786 Clouds 6 1013 93 10000 3 200 19:57 07.11.2019
4787 Clouds 6 1013 100 10000 2 210 19:38 07.11.2019
4788 Clouds 6 1012 100 9000 1 190 19:20 07.11.2019
4789 Clouds 6 1012 100 9000 1 190 18:57 07.11.2019
4790 Clouds 6 1012 100 8000 1 0 18:38 07.11.2019
4791 Clouds 6 1012 100 8000 1 0 18:19 07.11.2019
4792 Clouds 6 1012 100 10000 3 80 17:54 07.11.2019
4793 Mist 6 1012 100 3700 1 0 17:36 07.11.2019
4794 Rain 6 1012 100 4200 1 100 17:18 07.11.2019
4795 Rain 6 1012 100 4200 1 100 16:54 07.11.2019
4796 Rain 6 1011 100 6000 3 80 16:36 07.11.2019
4797 Rain 6 1011 100 4500 1 0 16:18 07.11.2019
4798 Rain 6 1011 100 5000 1 130 15:40 07.11.2019
4799 Rain 6 1011 100 9000 1 0 15:20 07.11.2019
4800 Rain 6 1011 100 9000 1 0 14:56 07.11.2019
4801 Rain 6 1011 100 10000 1 160 14:37 07.11.2019
4802 Rain 6 1010 93 10000 1.66 277 14:19 07.11.2019
4803 Rain 6 1010 93 10000 1.66 277 13:54 07.11.2019
4804 Clouds 5 1010 86 10000 1 0 13:36 07.11.2019
4805 Clouds 5 1010 86 10000 2 250 13:18 07.11.2019
4806 Clouds 5 1010 86 10000 2 250 12:54 07.11.2019
4807 Clouds 5 1009 86 10000 1 0 12:36 07.11.2019
4808 Clouds 5 1009 86 10000 1 0 12:36 07.11.2019
4809 Clouds 5 1009 86 10000 2 300 12:18 07.11.2019
4810 Clouds 5 1009 86 10000 3 280 11:41 07.11.2019
4811 Clouds 5 1009 86 10000 3 280 11:22 07.11.2019
4812 Clouds 5 1008 86 10000 3 270 10:42 07.11.2019
4813 Drizzle 5 1008 100 5000 3 300 10:19 07.11.2019
4814 Clouds 5 1007 93 10000 4 270 09:45 07.11.2019
4815 Clouds 5 1007 93 10000 4 270 09:26 07.11.2019
4816 Clouds 5 1007 93 10000 4 270 09:25 07.11.2019
4817 Clouds 5 1007 93 10000 4 270 09:24 07.11.2019
4818 Drizzle 5 1007 100 4700 3 290 08:59 07.11.2019
4819 Drizzle 5 1006 100 4100 3 310 08:40 07.11.2019
4820 Drizzle 5 1006 100 6000 3 300 08:22 07.11.2019
4821 Clouds 5 1006 93 10000 5 290 07:56 07.11.2019
4822 Clouds 5 1005 93 10000 5 280 07:37 07.11.2019
4823 Drizzle 5 1006 100 3200 3 290 07:19 07.11.2019
4824 Clouds 5 1004 93 10000 5 280 06:44 07.11.2019
4825 Clouds 5 1004 93 10000 5 280 06:23 07.11.2019
4826 Clouds 5 1004 93 10000 5 280 06:23 07.11.2019
4827 Clouds 4 1003 100 10000 6 270 05:48 07.11.2019
4828 Clouds 4 1003 100 10000 6 270 05:30 07.11.2019
4829 Clouds 4 1002 100 10000 7 270 04:50 07.11.2019
4830 Clouds 4 1002 100 10000 7 270 04:50 07.11.2019
4831 Clouds 4 1002 100 10000 7 270 04:28 07.11.2019
4832 Clouds 4 1002 100 10000 7 270 04:28 07.11.2019
4833 Clouds 7 997 100 10000 7 300 01:27 07.11.2019
4834 Clouds 12 994 87 10000 7 220 00:27 07.11.2019
4835 Rain 11 993 100 4300 5 220 23:54 06.11.2019
4836 Rain 11 993 100 7000 5 210 23:36 06.11.2019
4837 Rain 11 993 100 5000 5 200 23:18 06.11.2019
4838 Rain 11 994 100 4100 5 200 22:39 06.11.2019
4839 Rain 11 994 100 4100 5 200 22:20 06.11.2019
4840 Rain 10 995 93 7000 4 180 21:57 06.11.2019
4841 Rain 10 994 100 4900 2 40 21:57 06.11.2019
4842 Rain 11 995 93 3100 4 180 21:39 06.11.2019
4843 Rain 11 995 93 3100 4 180 21:19 06.11.2019
4844 Mist 11 995 93 4900 3 170 20:56 06.11.2019
4845 Rain 11 995 100 4200 3 190 20:38 06.11.2019
4846 Rain 10 995 100 4200 3 190 20:20 06.11.2019
4847 Rain 10 996 100 6000 2 100 19:56 06.11.2019
4848 Rain 9 996 100 8000 2 120 19:36 06.11.2019
4849 Rain 9 996 100 4600 2 140 19:18 06.11.2019
4850 Rain 9 996 100 4600 2 140 18:54 06.11.2019
4851 Rain 9 997 100 5000 2 130 18:36 06.11.2019
4852 Rain 9 997 100 5000 2 130 18:18 06.11.2019
4853 Rain 9 997 100 6000 1 0 17:41 06.11.2019
4854 Rain 9 997 100 3900 1 0 17:23 06.11.2019
4855 Rain 9 997 100 3900 1 0 16:57 06.11.2019
4856 Rain 9 998 100 4700 2 170 16:39 06.11.2019
4857 Rain 9 998 100 4700 2 170 16:20 06.11.2019
4858 Rain 9 998 100 8000 2 170 15:57 06.11.2019
4859 Rain 9 998 100 10000 3 170 15:37 06.11.2019
4860 Rain 9 998 100 4800 3 200 15:19 06.11.2019
4861 Rain 9 998 100 4800 3 200 14:57 06.11.2019
4862 Rain 10 999 100 9000 3 220 14:39 06.11.2019
4863 Rain 10 998 100 10000 3 200 14:20 06.11.2019
4864 Rain 10 998 100 10000 3 200 13:58 06.11.2019
4865 Rain 10 998 93 10000 3 200 13:37 06.11.2019
4866 Rain 10 998 93 10000 3 200 13:18 06.11.2019
4867 Rain 10 998 93 10000 4 210 12:55 06.11.2019
4868 Rain 10 998 87 10000 5 210 12:37 06.11.2019
4869 Rain 10 998 87 10000 5 210 12:18 06.11.2019
4870 Rain 10 998 87 10000 5 210 11:55 06.11.2019
4871 Clouds 10 999 81 10000 5 220 11:36 06.11.2019
4872 Clouds 10 999 81 10000 5 220 11:18 06.11.2019
4873 Clouds 10 999 81 10000 6 220 10:55 06.11.2019
4874 Clouds 10 999 81 10000 6 230 10:37 06.11.2019
4875 Clouds 10 999 81 10000 6 230 10:18 06.11.2019
4876 Clouds 10 998 87 10000 7 220 09:41 06.11.2019
4877 Clouds 10 998 87 10000 7 220 09:21 06.11.2019
4878 Clouds 10 998 87 10000 8 230 08:56 06.11.2019
4879 Clouds 10 998 81 10000 6 220 08:38 06.11.2019
4880 Clouds 10 998 81 10000 6 220 08:18 06.11.2019
4881 Clouds 10 998 81 10000 7 220 07:46 06.11.2019
4882 Clouds 10 997 87 10000 7 220 07:28 06.11.2019
4883 Clouds 9 998 87 10000 6 220 06:54 06.11.2019
4884 Clouds 10 997 87 10000 5 220 06:36 06.11.2019
4885 Clouds 9 997 87 10000 7 220 05:58 06.11.2019
4886 Clouds 10 997 81 10000 8 220 03:48 06.11.2019
4887 Clouds 10 997 81 10000 7 230 02:18 06.11.2019
4888 Clouds 10 996 87 10000 7 220 00:51 06.11.2019
4889 Clouds 10 996 87 10000 7 220 00:26 06.11.2019
4890 Clouds 10 996 81 10000 7 230 23:57 05.11.2019
4891 Clouds 10 996 81 10000 8 230 23:37 05.11.2019
4892 Clouds 10 996 81 10000 8 230 23:18 05.11.2019
4893 Clouds 10 996 87 10000 8 230 22:42 05.11.2019
4894 Clouds 10 995 87 10000 10 230 22:19 05.11.2019
4895 Clouds 10 995 87 10000 10 230 22:19 05.11.2019
4896 Clouds 10 995 87 10000 9 230 21:57 05.11.2019
4897 Clouds 11 995 87 10000 9 230 21:39 05.11.2019
4898 Clouds 11 995 87 10000 9 230 21:20 05.11.2019
4899 Clouds 11 994 87 10000 9 230 20:56 05.11.2019
4900 Clouds 11 994 87 10000 10 240 20:38 05.11.2019
4901 Clouds 11 994 87 10000 10 240 20:38 05.11.2019
4902 Clouds 11 994 87 10000 10 240 20:20 05.11.2019
4903 Clouds 11 994 93 10000 9 220 19:55 05.11.2019
4904 Rain 11 993 93 8000 8 230 19:37 05.11.2019
4905 Rain 11 993 93 8000 8 230 19:18 05.11.2019
4906 Rain 12 993 93 10000 9 230 18:56 05.11.2019
4907 Rain 12 992 93 9000 10 230 18:38 05.11.2019
4908 Rain 12 992 93 9000 10 230 18:19 05.11.2019
4909 Rain 12 991 93 10000 8 200 17:54 05.11.2019
4910 Rain 12 991 93 10000 8 200 17:54 05.11.2019
4911 Clouds 12 991 93 10000 7 190 17:36 05.11.2019
4912 Clouds 12 991 93 10000 7 190 17:18 05.11.2019
4913 Rain 12 992 93 10000 6 180 16:41 05.11.2019
4914 Rain 12 992 93 10000 6 180 16:20 05.11.2019
4915 Rain 12 992 93 8000 6 170 15:55 05.11.2019
4916 Rain 12 992 93 6000 6 170 15:36 05.11.2019
4917 Rain 12 992 93 6000 6 170 15:18 05.11.2019
4918 Mist 12 993 93 5000 6 160 14:54 05.11.2019
4919 Drizzle 12 993 93 3400 6 170 14:36 05.11.2019
4920 Clouds 12 993 93 6000 8 160 14:18 05.11.2019
4921 Drizzle 12 994 93 4200 7 160 13:42 05.11.2019
4922 Drizzle 12 994 93 4200 7 160 13:24 05.11.2019
4923 Clouds 11 994 100 9000 6 160 12:41 05.11.2019
4924 Clouds 11 994 100 9000 6 160 12:22 05.11.2019
4925 Mist 11 995 93 5000 6 170 11:58 05.11.2019
4926 Mist 11 995 93 4700 5 170 11:39 05.11.2019
4927 Mist 11 995 93 4700 5 170 11:20 05.11.2019
4928 Mist 11 995 93 4000 6 160 10:56 05.11.2019
4929 Mist 11 995 93 4000 6 160 10:56 05.11.2019
4930 Mist 10 996 100 5000 6 170 10:38 05.11.2019
4931 Drizzle 10 998 87 8000 5 140 10:19 05.11.2019
4932 Mist 10 996 100 4000 5 170 09:55 05.11.2019
4933 Clouds 10 997 100 6000 6 170 09:37 05.11.2019
4934 Mist 10 997 93 5000 6 160 09:18 05.11.2019
4935 Clouds 10 997 100 6000 6 170 09:18 05.11.2019
4936 Mist 10 997 93 4500 5 160 08:38 05.11.2019
4937 Mist 10 997 93 4500 5 160 08:19 05.11.2019
4938 Clouds 10 998 93 6000 5 170 07:57 05.11.2019
4939 Clouds 10 998 93 8000 5 170 07:38 05.11.2019
4940 Clouds 10 998 93 8000 5 170 07:19 05.11.2019
4941 Clouds 10 998 93 7000 5 170 06:46 05.11.2019
4942 Mist 9 998 100 4400 5 180 05:51 05.11.2019
4943 Mist 9 999 100 2700 5 180 05:22 05.11.2019
4944 Rain 9 999 100 2900 5 180 04:25 05.11.2019
4945 Rain 9 999 100 2900 5 180 04:25 05.11.2019
4946 Drizzle 9 999 100 3500 5 170 03:49 05.11.2019
4947 Drizzle 9 999 100 3300 4 170 02:46 05.11.2019
4948 Drizzle 9 1000 100 3900 5 180 02:18 05.11.2019
4949 Drizzle 9 1000 100 4600 5 170 00:52 05.11.2019
4950 Drizzle 9 1000 93 3800 5 180 00:30 05.11.2019
4951 Drizzle 9 1001 93 4700 6 190 23:56 04.11.2019
4952 Drizzle 9 1001 93 7000 6 190 23:37 04.11.2019
4953 Drizzle 9 1001 93 7000 6 190 23:18 04.11.2019
4954 Drizzle 9 1001 93 7000 6 190 23:18 04.11.2019
4955 Drizzle 9 1001 93 5000 5 190 22:42 04.11.2019
4956 Drizzle 9 1001 93 4000 5 190 22:23 04.11.2019
4957 Mist 9 1001 93 4200 5 190 21:56 04.11.2019
4958 Mist 9 1001 93 4200 5 190 21:56 04.11.2019
4959 Mist 9 1001 93 4200 5 190 21:56 04.11.2019
4960 Mist 9 1001 93 4200 5 190 21:56 04.11.2019
4961 Mist 9 1001 93 5000 6 180 21:38 04.11.2019
4962 Mist 9 1002 93 5000 5 180 21:19 04.11.2019
4963 Mist 9 1002 93 5000 5 180 20:59 04.11.2019
4964 Clouds 9 1002 93 7000 6 200 20:39 04.11.2019
4965 Clouds 9 1002 93 7000 6 200 20:21 04.11.2019
4966 Clouds 9 1002 93 8000 6 200 19:59 04.11.2019
4967 Clouds 9 1002 93 8000 6 200 19:40 04.11.2019
4968 Clouds 9 1002 93 10000 6 190 19:21 04.11.2019
4969 Clouds 9 1002 93 10000 6 190 18:57 04.11.2019
4970 Clouds 9 1003 93 10000 6 190 18:39 04.11.2019
4971 Clouds 9 1003 93 10000 6 190 18:19 04.11.2019
4972 Clouds 9 1003 93 10000 6 200 17:40 04.11.2019
4973 Clouds 9 1003 93 10000 6 190 17:21 04.11.2019
4974 Clouds 8 1003 100 9000 5 200 16:59 04.11.2019
4975 Clouds 8 1003 100 9000 5 180 16:40 04.11.2019
4976 Clouds 8 1003 100 9000 5 180 16:22 04.11.2019
4977 Clouds 8 1003 100 8000 6 190 15:56 04.11.2019
4978 Clouds 8 1003 93 9000 6 190 15:38 04.11.2019
4979 Clouds 8 1003 93 9000 6 190 15:19 04.11.2019
4980 Clouds 8 1003 93 10000 6 190 14:56 04.11.2019
4981 Clouds 8 1003 93 10000 6 190 14:37 04.11.2019
4982 Clouds 8 1004 93 10000 6 180 14:18 04.11.2019
4983 Clouds 8 1004 93 10000 6 180 13:55 04.11.2019
4984 Clouds 8 1004 100 9000 7 190 13:37 04.11.2019
4985 Clouds 8 1004 100 9000 7 190 13:19 04.11.2019
4986 Clouds 8 1004 100 10000 7 190 12:44 04.11.2019
4987 Clouds 8 1004 100 10000 7 190 12:24 04.11.2019
4988 Clouds 7 1004 93 10000 6 200 11:57 04.11.2019
4989 Clouds 7 1004 93 10000 7 190 11:39 04.11.2019
4990 Clouds 7 1004 93 10000 7 190 11:21 04.11.2019
4991 Clouds 7 1004 93 10000 7 190 10:45 04.11.2019
4992 Clouds 7 1004 93 10000 7 190 10:26 04.11.2019
4993 Clouds 6 1004 100 10000 6 190 09:55 04.11.2019
4994 Clouds 6 1004 93 10000 6 180 09:37 04.11.2019
4995 Clouds 6 1004 93 10000 6 180 09:18 04.11.2019
4996 Clouds 6 1005 93 10000 6 190 08:41 04.11.2019
4997 Clouds 6 1005 93 9000 7 190 08:21 04.11.2019
4998 Clouds 6 1005 93 9000 7 190 08:21 04.11.2019
4999 Clouds 6 1005 93 9000 6 190 07:45 04.11.2019
5000 Clouds 6 1005 100 10000 6 190 07:25 04.11.2019
5001 Clouds 5 1005 100 10000 7 190 06:59 04.11.2019
5002 Clouds 5 1005 100 10000 7 190 06:36 04.11.2019
5003 Clouds 5 1005 100 9000 6 180 05:59 04.11.2019
5004 Clouds 5 1005 100 8000 5 180 05:23 04.11.2019
5005 Clouds 5 1006 100 8000 6 190 04:25 04.11.2019
5006 Clouds 5 1006 100 9000 5 200 03:23 04.11.2019
5007 Clouds 5 1007 93 10000 6 200 01:23 04.11.2019
5008 Clouds 5 1007 93 10000 6 200 00:52 04.11.2019
5009 Clouds 4 1007 93 10000 6 200 00:21 04.11.2019
5010 Clouds 4 1007 100 9000 6 200 23:58 03.11.2019
5011 Clouds 4 1007 100 9000 6 200 23:58 03.11.2019
5012 Clouds 4 1007 100 10000 7 200 23:37 03.11.2019
5013 Clouds 4 1007 100 10000 7 200 23:37 03.11.2019
5014 Clouds 4 1007 100 10000 7 200 23:18 03.11.2019
5015 Clouds 4 1007 100 10000 7 200 23:18 03.11.2019
5016 Clouds 4 1007 100 10000 7 200 23:18 03.11.2019
5017 Clouds 4 1007 100 10000 7 200 23:18 03.11.2019
5018 Clouds 4 1007 100 9000 6 200 22:56 03.11.2019
5019 Clouds 4 1007 100 9000 6 200 22:38 03.11.2019
5020 Clouds 4 1007 100 9000 6 200 22:18 03.11.2019
5021 Clouds 4 1007 93 10000 7 190 21:42 03.11.2019
5022 Clouds 4 1007 93 10000 7 190 21:21 03.11.2019
5023 Clouds 4 1007 93 10000 6 200 20:57 03.11.2019
5024 Drizzle 4 1007 93 9000 6 200 20:37 03.11.2019
5025 Drizzle 4 1007 93 9000 6 200 20:19 03.11.2019
5026 Drizzle 4 1007 93 9000 6 200 20:19 03.11.2019
5027 Drizzle 3 1007 100 7000 6 200 19:57 03.11.2019
5028 Drizzle 3 1007 100 7000 6 200 19:38 03.11.2019
5029 Drizzle 3 1007 100 7000 6 200 19:20 03.11.2019
5030 Drizzle 3 1007 100 5000 6 200 18:55 03.11.2019
5031 Drizzle 3 1007 100 9000 6 200 18:36 03.11.2019
5032 Drizzle 3 1007 93 8000 7 200 18:18 03.11.2019
5033 Drizzle 3 1007 93 5000 7 200 17:42 03.11.2019
5034 Mist 3 1007 93 4200 6 210 17:20 03.11.2019
5035 Mist 3 1007 93 4200 6 210 16:57 03.11.2019
5036 Mist 3 1007 93 4200 6 210 16:57 03.11.2019
5037 Clouds 3 1007 93 8000 6 200 16:39 03.11.2019
5038 Clouds 2 1007 93 8000 6 200 16:21 03.11.2019
5039 Clouds 2 1007 100 10000 6 200 15:58 03.11.2019
5040 Rain 2 1006 100 9000 7 200 15:39 03.11.2019
5041 Rain 2 1006 100 9000 7 200 15:21 03.11.2019
5042 Drizzle 2 1007 93 4500 7 190 14:43 03.11.2019
5043 Drizzle 2 1007 93 4500 7 190 14:20 03.11.2019
5044 Mist 2 1007 93 5000 6 200 13:59 03.11.2019
5045 Rain 2 1007 93 6000 7 200 13:41 03.11.2019
5046 Drizzle 2 1007 93 5000 7 190 13:18 03.11.2019
5047 Drizzle 2 1007 93 5000 7 190 12:54 03.11.2019
5048 Drizzle 2 1007 93 4800 7 190 12:36 03.11.2019
5049 Drizzle 2 1007 93 4800 7 190 12:36 03.11.2019
5050 Rain 1 1007 100 4300 6 180 12:18 03.11.2019
5051 Clouds 1 1007 100 4000 7 180 11:42 03.11.2019
5052 Clouds 1 1007 100 4000 7 180 11:22 03.11.2019
5053 Snow 1 1007 100 4600 7 190 10:55 03.11.2019
5054 Clouds 2 1007 96 4500 8 190 10:37 03.11.2019
5055 Clouds 2 1007 96 4500 8 190 10:19 03.11.2019
5056 Clouds 2 1007 96 4500 8 190 10:19 03.11.2019
5057 Rain 2 1008 96 10000 7 190 09:43 03.11.2019
5058 Rain 2 1008 93 8000 7 180 09:25 03.11.2019
5059 Clouds 2 1008 93 9000 6 190 08:56 03.11.2019
5060 Clouds 3 1008 97 7000 7 190 08:37 03.11.2019
5061 Clouds 3 1008 96 7000 7 190 08:19 03.11.2019
5062 Clouds 3 1008 80 10000 6 190 07:45 03.11.2019
5063 Clouds 3 1008 80 10000 6 190 07:22 03.11.2019
5064 Clouds 3 1009 74 10000 7 180 06:39 03.11.2019
5065 Clouds 2 1009 74 10000 6 180 05:55 03.11.2019
5066 Clouds 2 1009 80 10000 6 170 05:37 03.11.2019
5067 Clouds 2 1010 80 10000 6 180 04:55 03.11.2019
5068 Clouds 2 1010 80 10000 6 170 04:26 03.11.2019
5069 Clouds 2 1011 80 10000 6 180 03:27 03.11.2019
5070 Clouds 2 1012 80 10000 6 170 02:29 03.11.2019
5071 Clouds 2 1012 80 10000 5 180 01:57 03.11.2019
5072 Clouds 2 1013 80 10000 5 170 01:36 03.11.2019
5073 Clouds 2 1013 80 10000 5 170 01:18 03.11.2019
5074 Clouds 2 1014 80 10000 5 170 00:40 03.11.2019
5075 Clouds 2 1014 80 10000 5 170 00:21 03.11.2019
5076 Clouds 1 1014 87 10000 6 170 23:57 02.11.2019
5077 Clouds 1 1014 87 10000 5 180 23:37 02.11.2019
5078 Clouds 1 1014 89 10000 5 180 23:18 02.11.2019
5079 Clouds 2 1015 89 10000 5 180 22:55 02.11.2019
5080 Clouds 1 1015 89 10000 5 170 22:37 02.11.2019
5081 Clouds 1 1015 89 10000 5 170 22:18 02.11.2019
5082 Clouds 1 1015 93 10000 5 160 21:55 02.11.2019
5083 Clouds 2 1016 93 10000 4 180 21:37 02.11.2019
5084 Clouds 2 1016 93 10000 4 180 21:18 02.11.2019
5085 Clouds 2 1016 86 10000 4 180 20:56 02.11.2019
5086 Clouds 2 1016 86 10000 4 180 20:56 02.11.2019
5087 Clouds 2 1016 86 10000 5 190 20:38 02.11.2019
5088 Clouds 2 1016 86 10000 5 190 20:19 02.11.2019
5089 Clouds 3 1017 93 10000 6 200 19:40 02.11.2019
5090 Clouds 3 1017 93 10000 5 190 19:21 02.11.2019
5091 Clouds 3 1017 93 10000 5 190 18:56 02.11.2019
5092 Clouds 3 1017 93 10000 5 190 18:56 02.11.2019
5093 Clouds 3 1017 86 10000 5 190 18:37 02.11.2019
5094 Clouds 2 1017 94 10000 5 180 18:19 02.11.2019
5095 Clouds 2 1017 94 10000 5 180 17:56 02.11.2019
5096 Clouds 3 1017 94 10000 4 190 17:37 02.11.2019
5097 Clouds 3 1017 98 10000 4 190 17:19 02.11.2019
5098 Clouds 2 1017 80 10000 3 180 16:56 02.11.2019
5099 Clouds 2 1017 74 10000 3 180 16:36 02.11.2019
5100 Clouds 2 1017 74 10000 3 180 16:36 02.11.2019
5101 Clouds 2 1017 74 10000 3 180 16:18 02.11.2019
5102 Clouds 2 1017 74 10000 4 190 16:18 02.11.2019
5103 Clouds 2 1018 80 9000 3 180 15:41 02.11.2019
5104 Clouds 2 1016 74 10000 4 190 15:19 02.11.2019
5105 Clouds 3 1017 74 10000 2 180 14:43 02.11.2019
5106 Clouds 3 1017 74 10000 3 200 14:23 02.11.2019
5107 Clouds 3 1017 74 10000 3 210 13:57 02.11.2019
5108 Clouds 3 1017 74 10000 4 210 13:38 02.11.2019
5109 Clouds 4 1017 74 10000 4 210 13:19 02.11.2019
5110 Clouds 3 1017 96 10000 3 210 12:41 02.11.2019
5111 Clouds 3 1017 96 10000 3 210 12:23 02.11.2019
5112 Clouds 4 1017 96 10000 4 230 11:58 02.11.2019
5113 Clouds 3 1017 80 10000 4 220 11:39 02.11.2019
5114 Clouds 3 1017 80 10000 4 220 11:21 02.11.2019
5115 Clouds 3 1017 89 10000 4 210 10:50 02.11.2019
5116 Clouds 2 1017 86 10000 3 240 10:29 02.11.2019
5117 Clouds 2 1017 89 10000 4 240 09:59 02.11.2019
5118 Clouds 2 1017 86 10000 5 250 09:40 02.11.2019
5119 Clouds 2 1017 86 10000 5 250 09:20 02.11.2019
5120 Clouds 2 1017 86 10000 5 250 08:47 02.11.2019
5121 Clouds 1 1016 86 10000 5 250 08:22 02.11.2019
5122 Clouds 1 1016 89 10000 4 250 07:51 02.11.2019
5123 Clouds 1 1016 89 10000 4 260 07:33 02.11.2019
5124 Clouds 1 1016 89 10000 5 250 06:58 02.11.2019
5125 Clouds 1 1015 89 10000 5 250 06:39 02.11.2019
5126 Clouds 1 1015 89 10000 5 250 06:18 02.11.2019
5127 Clouds 0 1015 94 10000 5 250 05:29 02.11.2019
5128 Clouds 0 1015 94 10000 4 250 04:23 02.11.2019
5129 Clouds 1 1015 94 10000 5 250 03:50 02.11.2019
5130 Clouds 1 1014 94 10000 5 250 02:49 02.11.2019
5131 Clouds 1 1014 92 10000 4 260 01:57 02.11.2019
5132 Snow 1 1014 92 10000 5 260 01:25 02.11.2019
5133 Snow 1 1014 92 9000 5 260 00:54 02.11.2019
5134 Snow 1 1013 92 6000 5 250 00:27 02.11.2019
5135 Snow 1 1013 92 10000 6 250 23:49 01.11.2019
5136 Snow 1 1013 87 10000 6 250 23:23 01.11.2019
5137 Snow 1 1013 87 10000 6 260 22:59 01.11.2019
5138 Clouds 1 1013 87 10000 6 250 22:40 01.11.2019
5139 Clouds 1 1013 87 10000 6 250 22:20 01.11.2019
5140 Snow 1 1013 87 10000 6 240 21:42 01.11.2019
5141 Snow 1 1013 87 10000 6 240 21:24 01.11.2019
5142 Snow 1 1013 87 10000 7 240 20:58 01.11.2019
5143 Snow 1 1013 87 10000 7 240 20:40 01.11.2019
5144 Snow 1 1013 96 10000 7 240 20:20 01.11.2019
5145 Snow 1 1013 96 7000 6 230 19:56 01.11.2019
5146 Snow 1 1013 96 7000 7 240 19:38 01.11.2019
5147 Snow 1 1013 96 7000 7 240 19:20 01.11.2019
5148 Clouds 0 1013 96 10000 5 230 18:40 01.11.2019
5149 Clouds 0 1013 96 10000 6 230 18:21 01.11.2019
5150 Clouds 0 1013 96 10000 6 230 17:56 01.11.2019
5151 Clouds 0 1013 96 10000 6 230 17:56 01.11.2019
5152 Snow 0 1013 96 8000 7 230 17:38 01.11.2019
5153 Snow 0 1013 91 8000 7 230 17:19 01.11.2019
5154 Snow -1 1013 91 7000 7 240 16:39 01.11.2019
5155 Snow -1 1013 91 7000 7 240 16:20 01.11.2019
5156 Snow -1 1013 91 7000 7 240 16:20 01.11.2019
5157 Snow -1 1013 91 10000 6 240 15:55 01.11.2019
5158 Snow -1 1013 91 10000 6 230 15:37 01.11.2019
5159 Snow -1 1013 92 9000 5 230 15:19 01.11.2019
5160 Snow -1 1013 92 10000 6 240 14:43 01.11.2019
5161 Snow -1 1013 92 10000 6 240 14:24 01.11.2019
5162 Snow -1 1013 92 10000 6 230 13:57 01.11.2019
5163 Snow -1 1013 92 10000 7 240 13:39 01.11.2019
5164 Snow -1 1013 92 10000 7 240 13:20 01.11.2019
5165 Snow -1 1013 86 3900 6 230 12:44 01.11.2019
5166 Snow -1 1013 86 3900 6 230 12:26 01.11.2019
5167 Snow 0 1013 86 7000 7 230 11:59 01.11.2019
5168 Snow 0 1013 86 9000 7 230 11:40 01.11.2019
5169 Snow 0 1013 86 9000 7 230 11:22 01.11.2019
5170 Snow 0 1013 80 9000 7 230 10:42 01.11.2019
5171 Clouds 0 1014 80 10000 6 230 10:22 01.11.2019
5172 Clouds -1 1014 80 10000 6 230 09:57 01.11.2019
5173 Clouds -1 1014 80 10000 8 230 09:39 01.11.2019
5174 Clouds -1 1014 80 10000 8 230 09:20 01.11.2019
5175 Snow -1 1014 80 6000 7 220 08:44 01.11.2019
5176 Snow -1 1014 74 10000 8 230 08:22 01.11.2019
5177 Snow -2 1014 74 10000 8 230 07:57 01.11.2019
5178 Snow -2 1014 74 7000 7 230 07:38 01.11.2019
5179 Snow -2 1014 74 7000 7 230 07:20 01.11.2019
5180 Snow -2 1014 68 10000 7 230 06:46 01.11.2019
5181 Snow -2 1014 68 10000 7 230 06:22 01.11.2019
5182 Clouds -2 1015 74 10000 7 220 05:44 01.11.2019
5183 Clouds -2 1015 74 10000 7 230 04:28 01.11.2019
5184 Clouds -3 1016 74 10000 6 230 03:24 01.11.2019
5185 Clouds -2 1017 74 10000 4 220 01:35 01.11.2019
5186 Clouds -2 1017 74 10000 5 220 00:42 01.11.2019
5187 Clouds -2 1018 74 10000 6 220 00:19 01.11.2019
5188 Snow -3 1018 73 10000 4 210 23:43 31.10.2019
5189 Snow -3 1018 73 10000 4 210 23:23 31.10.2019
5190 Snow -3 1018 73 10000 5 220 22:57 31.10.2019
5191 Snow -3 1019 73 10000 5 220 22:39 31.10.2019
5192 Snow -3 1019 73 10000 5 220 22:20 31.10.2019
5193 Snow -3 1019 68 10000 5 220 21:44 31.10.2019
5194 Snow -3 1020 68 9000 4 210 21:21 31.10.2019
5195 Clouds -3 1020 68 10000 4 210 20:57 31.10.2019
5196 Clouds -3 1020 68 10000 4 210 20:39 31.10.2019
5197 Clouds -3 1020 68 10000 4 210 20:21 31.10.2019
5198 Clouds -3 1020 68 10000 3 210 19:42 31.10.2019
5199 Clouds -3 1020 68 10000 3 210 19:22 31.10.2019
5200 Clouds -3 1020 68 10000 5 250 18:58 31.10.2019
5201 Clouds -3 1021 73 10000 4 260 18:39 31.10.2019
5202 Clouds -3 1021 68 10000 5 280 18:20 31.10.2019
5203 Clouds -3 1021 68 10000 5 280 17:43 31.10.2019
5204 Clouds -3 1021 68 10000 5 280 17:22 31.10.2019
5205 Clouds -3 1021 63 10000 7 280 16:59 31.10.2019
5206 Clouds -3 1021 68 10000 4 280 16:40 31.10.2019
5207 Clouds -3 1021 68 10000 4 280 16:20 31.10.2019
5208 Clouds -3 1021 73 10000 4 280 15:56 31.10.2019
5209 Snow -2 1021 73 10000 4 300 15:38 31.10.2019
5210 Snow -2 1021 73 10000 4 300 15:19 31.10.2019
5211 Clouds -2 1021 68 10000 4 290 14:56 31.10.2019
5212 Snow -2 1021 73 10000 4 290 14:38 31.10.2019
5213 Clouds -2 1021 63 10000 6 280 14:20 31.10.2019
5214 Clouds -2 1021 63 10000 6 280 13:56 31.10.2019
5215 Snow -2 1021 79 10000 4 300 13:37 31.10.2019
5216 Snow -2 1021 79 10000 5 300 13:19 31.10.2019
5217 Snow -2 1021 79 9000 5 300 12:44 31.10.2019
5218 Snow -2 1021 79 9000 5 300 12:24 31.10.2019
5219 Snow -2 1021 68 10000 4 310 11:59 31.10.2019
5220 Snow -2 1021 73 9000 5 330 11:41 31.10.2019
5221 Snow -2 1021 73 9000 5 330 11:19 31.10.2019
5222 Snow -2 1021 68 10000 5 340 10:57 31.10.2019
5223 Snow -2 1021 68 10000 5 340 10:57 31.10.2019
5224 Snow -2 1021 79 10000 6 290 10:38 31.10.2019
5225 Snow -2 1021 79 9000 5 280 10:19 31.10.2019
5226 Snow -3 1021 86 7000 6 290 09:43 31.10.2019
5227 Snow -3 1021 86 7000 6 290 09:19 31.10.2019
5228 Snow -3 1021 79 10000 5 290 08:56 31.10.2019
5229 Snow -3 1021 79 10000 5 300 08:38 31.10.2019
5230 Snow -3 1021 79 10000 5 310 08:19 31.10.2019
5231 Snow -3 1021 79 10000 5 310 07:42 31.10.2019
5232 Snow -3 1021 79 10000 4 310 07:24 31.10.2019
5233 Snow -3 1020 85 10000 5 320 06:39 31.10.2019
5234 Snow -3 1020 85 10000 5 320 06:20 31.10.2019
5235 Clouds -3 1020 79 10000 5 310 05:18 31.10.2019
5236 Snow -3 1019 86 10000 5 310 02:47 31.10.2019
5237 Snow -3 1019 86 10000 3 300 02:22 31.10.2019
5238 Clouds -3 1019 79 10000 4 340 00:48 31.10.2019
5239 Clouds -3 1019 73 10000 4 330 00:24 31.10.2019
5240 Clouds -3 1019 73 10000 5 340 23:40 30.10.2019
5241 Clouds -3 1019 73 10000 5 340 23:22 30.10.2019
5242 Clouds -3 1018 79 10000 5 330 22:41 30.10.2019
5243 Clouds -3 1018 73 10000 5 340 22:19 30.10.2019
5244 Clouds -3 1018 79 10000 6 350 21:55 30.10.2019
5245 Clouds -2 1018 73 10000 7 340 21:36 30.10.2019
5246 Clouds -2 1018 73 10000 7 340 21:18 30.10.2019
5247 Clouds -2 1018 73 10000 5 350 20:57 30.10.2019
5248 Clouds -2 1018 73 10000 7 350 20:37 30.10.2019
5249 Clouds -2 1018 73 10000 7 350 20:19 30.10.2019
5250 Snow -2 1017 79 10000 6 330 19:43 30.10.2019
5251 Snow -2 1017 86 10000 6 330 19:25 30.10.2019
5252 Snow -2 1017 86 10000 5 320 19:00 30.10.2019
5253 Snow -2 1016 86 10000 5 330 18:38 30.10.2019
5254 Snow -2 1016 86 10000 5 330 18:19 30.10.2019
5255 Snow -2 1016 92 7000 5 320 17:56 30.10.2019
5256 Snow -2 1016 86 6000 5 330 17:37 30.10.2019
5257 Snow -2 1016 86 6000 5 330 17:18 30.10.2019
5258 Snow -2 1016 86 6000 5 330 17:18 30.10.2019
5259 Snow -2 1016 79 9000 8 330 16:54 30.10.2019
5260 Snow -2 1015 86 6000 6 320 16:36 30.10.2019
5261 Snow -2 1015 79 9000 5 310 16:18 30.10.2019
5262 Snow -2 1014 79 10000 6 320 15:41 30.10.2019
5263 Snow -1 1014 86 7000 6 330 15:21 30.10.2019
5264 Snow -2 1014 86 7000 6 330 14:59 30.10.2019
5265 Snow -1 1013 86 9000 7 330 14:41 30.10.2019
5266 Snow -1 1013 86 9000 7 330 14:22 30.10.2019
5267 Snow -1 1013 92 6000 6 320 13:57 30.10.2019
5268 Snow -1 1013 92 3000 6 330 13:39 30.10.2019
5269 Snow -1 1013 92 3000 6 330 13:19 30.10.2019
5270 Snow -1 1012 86 5000 7 320 12:54 30.10.2019
5271 Snow -1 1012 86 4900 8 320 12:36 30.10.2019
5272 Snow -1 1011 86 4100 8 320 12:18 30.10.2019
5273 Snow -1 1011 86 3300 7 320 11:41 30.10.2019
5274 Snow -1 1010 86 4000 7 310 11:21 30.10.2019
5275 Snow -1 1010 80 9000 7 310 10:44 30.10.2019
5276 Snow -1 1010 80 9000 7 310 10:23 30.10.2019
5277 Snow -1 1010 86 10000 7 320 09:57 30.10.2019
5278 Snow -1 1009 80 9000 7 330 09:38 30.10.2019
5279 Snow 0 1009 80 9000 7 330 09:19 30.10.2019
5280 Snow 0 1009 86 9000 7 330 08:40 30.10.2019
5281 Snow 0 1008 86 8000 8 330 08:21 30.10.2019
5282 Snow 0 1008 92 9000 7 320 07:51 30.10.2019
5283 Snow 0 1008 92 9000 5 310 07:32 30.10.2019
5284 Snow 0 1007 92 9000 6 300 06:43 30.10.2019
5285 Snow 0 1007 100 1700 5 300 06:22 30.10.2019
5286 Snow 0 1007 92 3200 5 290 05:46 30.10.2019
5287 Snow 0 1007 100 3800 5 290 05:24 30.10.2019
5288 Snow 0 1007 100 1300 6 300 03:46 30.10.2019
5289 Snow 1 1006 82 9000 6 310 03:18 30.10.2019
5290 Snow 1 1006 82 10000 5 310 02:32 30.10.2019
5291 Clouds 2 1006 82 10000 7 310 01:34 30.10.2019
5292 Rain 3 1006 93 10000 4 300 00:31 30.10.2019
5293 Rain 3 1006 93 9000 5 300 23:47 29.10.2019
5294 Rain 3 1006 100 9000 5 280 23:28 29.10.2019
5295 Rain 2 1006 100 10000 4 270 22:57 29.10.2019
5296 Drizzle 3 1006 100 9000 5 270 22:38 29.10.2019
5297 Drizzle 3 1006 100 9000 5 270 22:18 29.10.2019
5298 Drizzle 3 1006 100 10000 5 260 21:54 29.10.2019
5299 Clouds 3 1006 93 10000 6 250 21:36 29.10.2019
5300 Clouds 3 1006 93 10000 6 250 21:18 29.10.2019
5301 Clouds 3 1006 93 10000 6 260 20:41 29.10.2019
5302 Clouds 3 1006 93 10000 6 260 20:21 29.10.2019
5303 Clouds 3 1006 93 10000 6 260 19:58 29.10.2019
5304 Clouds 3 1006 86 10000 6 270 19:39 29.10.2019
5305 Clouds 4 1006 93 10000 7 280 19:20 29.10.2019
5306 Clouds 4 1006 93 10000 7 280 18:57 29.10.2019
5307 Clouds 4 1006 93 10000 8 260 18:38 29.10.2019
5308 Clouds 4 1006 93 10000 8 260 18:19 29.10.2019
5309 Clouds 4 1006 93 10000 6 250 17:56 29.10.2019
5310 Rain 5 1006 100 9000 6 240 17:37 29.10.2019
5311 Rain 5 1006 100 9000 6 240 17:37 29.10.2019
5312 Rain 5 1006 100 9000 6 240 17:19 29.10.2019
5313 Drizzle 5 1006 100 7000 3 100 16:41 29.10.2019
5314 Drizzle 5 1006 100 7000 3 100 16:22 29.10.2019
5315 Rain 5 1007 93 5000 3 120 15:59 29.10.2019
5316 Rain 5 1007 93 7000 4 200 15:41 29.10.2019
5317 Rain 5 1007 93 7000 4 200 15:20 29.10.2019
5318 Rain 5 1008 93 10000 6 190 14:56 29.10.2019
5319 Snow 5 1008 100 7000 5 120 14:38 29.10.2019
5320 Snow 5 1008 100 7000 5 120 14:20 29.10.2019
5321 Clouds 6 1008 75 10000 6 160 13:41 29.10.2019
5322 Clouds 6 1008 75 10000 6 160 13:22 29.10.2019
5323 Rain 6 1009 75 8000 5 160 12:59 29.10.2019
5324 Rain 6 1009 75 10000 5 150 12:41 29.10.2019
5325 Rain 6 1009 75 10000 5 150 12:23 29.10.2019
5326 Clouds 6 1010 85 10000 5 130 11:43 29.10.2019
5327 Clouds 6 1010 65 10000 5 160 11:23 29.10.2019
5328 Clouds 5 1010 65 10000 5 140 10:59 29.10.2019
5329 Clouds 5 1011 65 10000 4 140 10:41 29.10.2019
5330 Clouds 5 1011 65 10000 4 140 10:21 29.10.2019
5331 Clouds 5 1011 60 10000 4 130 09:59 29.10.2019
5332 Clouds 5 1011 64 10000 4 130 09:41 29.10.2019
5333 Clouds 5 1011 64 10000 4 130 09:22 29.10.2019
5334 Clouds 4 1012 69 10000 3 130 08:55 29.10.2019
5335 Clouds 4 1012 74 10000 3 110 08:36 29.10.2019
5336 Clouds 3 1012 74 10000 3 80 08:18 29.10.2019
5337 Clouds 4 1012 74 10000 3 110 08:18 29.10.2019
5338 Clouds 3 1012 74 10000 2 60 07:44 29.10.2019
5339 Clouds 3 1012 74 10000 2 60 07:19 29.10.2019
5340 Clouds 3 1012 69 10000 3 110 07:19 29.10.2019
5341 Clouds 3 1012 69 10000 3 110 06:46 29.10.2019
5342 Clouds 2 1012 74 10000 3 120 06:26 29.10.2019
5343 Clouds 2 1012 74 10000 4 100 05:52 29.10.2019
5344 Clouds 2 1012 74 10000 3 100 05:34 29.10.2019
5345 Clouds 2 1013 74 10000 3 100 04:33 29.10.2019
5346 Clouds 2 1013 74 10000 2 110 02:34 29.10.2019
5347 Clouds 2 1013 80 10000 1 0 01:54 29.10.2019
5348 Clouds 2 1013 74 10000 1 0 01:23 29.10.2019
5349 Clouds 2 1012 80 10000 2 60 00:50 29.10.2019
5350 Clouds 3 1012 80 10000 3 360 23:58 28.10.2019
5351 Clouds 3 1012 74 10000 3 10 23:36 28.10.2019
5352 Clouds 3 1012 74 10000 3 10 23:18 28.10.2019
5353 Clouds 3 1012 69 10000 2 360 22:39 28.10.2019
5354 Clouds 3 1012 69 10000 2 360 22:19 28.10.2019
5355 Clouds 2 1012 69 10000 3 360 21:56 28.10.2019
5356 Clouds 2 1012 64 10000 4 350 21:38 28.10.2019
5357 Clouds 2 1012 64 10000 4 350 21:20 28.10.2019
5358 Clouds 2 1012 64 10000 4 340 20:57 28.10.2019
5359 Clear 3 1012 64 10000 3 330 20:38 28.10.2019
5360 Clouds 3 1012 64 10000 3 330 20:20 28.10.2019
5361 Clouds 2 1011 69 10000 3 340 19:54 28.10.2019
5362 Clouds 2 1011 69 10000 3 340 19:54 28.10.2019
5363 Clouds 3 1011 69 10000 3 340 19:36 28.10.2019
5364 Clouds 3 1011 69 10000 3 340 19:18 28.10.2019
5365 Clouds 3 1011 69 10000 3 340 19:18 28.10.2019
5366 Clouds 4 1011 64 10000 4 330 18:54 28.10.2019
5367 Clouds 4 1011 77 10000 3 320 18:36 28.10.2019
5368 Clouds 4 1011 77 10000 3 320 18:18 28.10.2019
5369 Clouds 4 1010 77 10000 3 320 17:54 28.10.2019
5370 Clouds 4 1010 77 10000 3 310 17:36 28.10.2019
5371 Clouds 4 1010 73 10000 3 310 17:18 28.10.2019
5372 Clouds 4 1009 73 10000 4 280 16:43 28.10.2019
5373 Clouds 4 1009 73 10000 4 280 16:24 28.10.2019
5374 Clouds 5 1009 80 10000 4 280 15:59 28.10.2019
5375 Clouds 6 1009 75 10000 4 290 15:40 28.10.2019
5376 Clouds 6 1009 75 10000 4 290 15:21 28.10.2019
5377 Clouds 6 1008 75 10000 5 280 14:58 28.10.2019
5378 Clouds 7 1008 75 10000 6 280 14:40 28.10.2019
5379 Clouds 7 1008 75 10000 6 280 14:19 28.10.2019
5380 Clouds 7 1008 80 10000 7 290 13:58 28.10.2019
5381 Rain 8 1007 75 10000 9 310 13:40 28.10.2019
5382 Clouds 9 1007 57 10000 7 290 13:18 28.10.2019
5383 Clouds 8 1006 57 10000 7 290 12:43 28.10.2019
5384 Clouds 8 1006 57 10000 7 290 12:21 28.10.2019
5385 Clouds 8 1007 49 10000 9 300 11:58 28.10.2019
5386 Clouds 8 1006 56 10000 9 280 11:37 28.10.2019
5387 Clouds 8 1006 56 10000 9 280 11:19 28.10.2019
5388 Clouds 7 1005 58 10000 8 280 10:41 28.10.2019
5389 Clouds 7 1005 58 10000 8 280 10:22 28.10.2019
5390 Clouds 7 1005 60 10000 7 280 09:58 28.10.2019
5391 Clouds 7 1005 60 10000 9 280 09:39 28.10.2019
5392 Clouds 7 1005 60 10000 9 280 09:39 28.10.2019
5393 Clouds 7 1005 60 10000 9 280 09:19 28.10.2019
5394 Clouds 7 1004 60 10000 9 290 08:57 28.10.2019
5395 Clouds 6 1004 60 10000 8 280 08:38 28.10.2019
5396 Clouds 6 1004 60 10000 9 280 08:19 28.10.2019
5397 Clouds 6 1004 60 10000 9 280 07:56 28.10.2019
5398 Clouds 6 1003 65 10000 9 280 07:38 28.10.2019
5399 Clouds 6 1003 65 10000 9 280 07:19 28.10.2019
5400 Clouds 6 1002 65 10000 7 280 06:40 28.10.2019
5401 Clouds 7 1001 60 10000 9 280 05:47 28.10.2019
5402 Clouds 8 999 56 10000 10 280 03:49 28.10.2019
5403 Clouds 10 998 63 10000 10 270 02:54 28.10.2019
5404 Clouds 10 998 63 10000 9 280 02:34 28.10.2019
5405 Clouds 12 996 50 10000 15 270 00:57 28.10.2019
5406 Clouds 13 995 54 10000 15 280 00:38 28.10.2019
5407 Clouds 12 995 54 10000 15 280 00:19 28.10.2019
5408 Clouds 13 994 58 10000 12 280 23:42 27.10.2019
5409 Clouds 12 994 71 10000 11 260 23:18 27.10.2019
5410 Clouds 12 994 76 10000 12 240 22:42 27.10.2019
5411 Clouds 12 994 76 10000 10 230 22:22 27.10.2019
5412 Clouds 12 994 76 10000 8 230 21:58 27.10.2019
5413 Clouds 12 995 76 10000 10 230 21:39 27.10.2019
5414 Clouds 12 995 76 10000 10 230 21:21 27.10.2019
5415 Clouds 12 995 81 10000 9 230 20:58 27.10.2019
5416 Clouds 12 995 81 10000 8 230 20:39 27.10.2019
5417 Clouds 12 995 81 10000 8 230 20:21 27.10.2019
5418 Clouds 12 996 76 10000 7 230 19:56 27.10.2019
5419 Rain 12 997 76 10000 9 230 19:37 27.10.2019
5420 Clouds 11 997 76 10000 8 230 19:18 27.10.2019
5421 Clouds 11 997 76 10000 8 230 18:55 27.10.2019
5422 Clouds 11 998 76 10000 7 220 18:37 27.10.2019
5423 Clouds 11 998 76 10000 7 220 18:19 27.10.2019
5424 Clouds 11 998 76 10000 6 220 18:19 27.10.2019
5425 Clouds 11 999 76 10000 6 220 17:41 27.10.2019
5426 Clouds 11 999 76 10000 6 220 17:21 27.10.2019
5427 Clouds 11 999 81 10000 7 220 16:59 27.10.2019
5428 Clouds 12 1000 76 10000 9 230 16:40 27.10.2019
5429 Clouds 12 1000 76 10000 9 230 16:22 27.10.2019
5430 Clouds 12 1000 81 10000 7 220 15:57 27.10.2019
5431 Clouds 12 1000 81 10000 7 220 15:39 27.10.2019
5432 Clouds 12 1000 81 10000 7 220 15:20 27.10.2019
5433 Clouds 12 1001 81 10000 7 220 14:44 27.10.2019
5434 Clouds 12 1001 81 10000 8 230 14:24 27.10.2019
5435 Clouds 13 1002 82 10000 10 230 13:59 27.10.2019
5436 Clouds 13 1002 82 10000 8 230 13:40 27.10.2019
5437 Clouds 13 1002 82 10000 8 230 13:22 27.10.2019
5438 Clouds 13 1002 87 10000 7 230 12:59 27.10.2019
5439 Clouds 12 1002 87 10000 7 230 12:41 27.10.2019
5440 Clouds 13 1002 82 10000 7 240 12:23 27.10.2019
5441 Clouds 13 1003 82 10000 8 240 11:43 27.10.2019
5442 Clouds 12 1003 82 10000 8 250 11:25 27.10.2019
5443 Clouds 12 1003 82 10000 8 250 11:25 27.10.2019
5444 Clouds 12 1003 82 10000 8 250 10:57 27.10.2019
5445 Clouds 12 1003 82 10000 8 240 10:38 27.10.2019
5446 Clouds 12 1003 82 10000 8 240 10:38 27.10.2019
5447 Clouds 12 1004 82 10000 9 250 10:20 27.10.2019
5448 Clouds 12 1004 82 10000 9 250 09:43 27.10.2019
5449 Clouds 12 1003 82 10000 9 240 09:19 27.10.2019
5450 Clouds 12 1003 82 10000 8 240 08:57 27.10.2019
5451 Clouds 12 1004 82 10000 9 250 08:38 27.10.2019
5452 Clouds 12 1004 82 10000 8 250 08:19 27.10.2019
5453 Clouds 12 1004 82 10000 8 250 07:47 27.10.2019
5454 Clouds 12 1004 82 10000 9 250 07:28 27.10.2019
5455 Clouds 12 1004 82 10000 9 250 06:55 27.10.2019
5456 Clouds 12 1004 82 10000 9 240 06:29 27.10.2019
5457 Clouds 12 1004 82 10000 8 240 05:58 27.10.2019
5458 Clouds 12 1004 82 10000 8 240 05:36 27.10.2019
5459 Rain 12 1004 87 10000 9 250 04:25 27.10.2019
5460 Rain 12 1005 81 10000 8 240 02:41 27.10.2019
5461 Clouds 12 1006 81 10000 9 240 01:28 27.10.2019
5462 Clouds 11 1006 76 10000 9 240 00:56 27.10.2019
5463 Clouds 11 1006 76 10000 9 230 00:37 27.10.2019
5464 Clouds 11 1007 81 10000 8 240 23:58 26.10.2019
5465 Clouds 11 1007 81 10000 8 240 23:40 26.10.2019
5466 Rain 11 1007 81 10000 9 230 23:21 26.10.2019
5467 Rain 11 1008 81 10000 8 240 22:58 26.10.2019
5468 Clouds 11 1008 76 10000 8 230 22:39 26.10.2019
5469 Clouds 10 1008 76 10000 8 230 22:19 26.10.2019
5470 Clouds 10 1008 76 10000 7 220 21:58 26.10.2019
5471 Clouds 10 1009 76 10000 7 230 21:40 26.10.2019
5472 Clouds 10 1009 76 10000 7 230 21:19 26.10.2019
5473 Clouds 10 1009 76 10000 8 230 20:45 26.10.2019
5474 Clouds 11 1009 76 10000 7 220 20:20 26.10.2019
5475 Clouds 11 1010 76 10000 7 220 19:56 26.10.2019
5476 Clouds 11 1010 76 10000 7 220 19:38 26.10.2019
5477 Clouds 11 1010 76 10000 7 220 19:19 26.10.2019
5478 Clouds 11 1010 76 10000 7 220 19:19 26.10.2019
5479 Clouds 11 1010 76 10000 7 220 19:19 26.10.2019
5480 Clouds 10 1011 76 10000 7 230 18:55 26.10.2019
5481 Clouds 10 1011 76 10000 7 230 18:36 26.10.2019
5482 Clouds 11 1012 76 10000 7 230 18:18 26.10.2019
5483 Clouds 11 1012 71 10000 7 230 17:39 26.10.2019
5484 Clouds 11 1012 71 10000 7 230 17:21 26.10.2019
5485 Clouds 11 1012 71 10000 7 230 16:58 26.10.2019
5486 Clouds 11 1012 71 10000 7 240 16:40 26.10.2019
5487 Clouds 11 1012 71 10000 7 240 16:21 26.10.2019
5488 Clouds 12 1012 66 10000 7 240 15:41 26.10.2019
5489 Clouds 12 1012 62 10000 7 240 15:19 26.10.2019
5490 Clouds 13 1012 62 10000 8 240 14:41 26.10.2019
5491 Clouds 13 1012 66 10000 8 240 14:22 26.10.2019
5492 Clouds 13 1013 66 10000 9 240 13:59 26.10.2019
5493 Clouds 10 1014 76 0 6.01 255 13:40 26.10.2019
5494 Clouds 10 1014 76 0 6.01 255 13:21 26.10.2019
5495 Clouds 11 994 73 0 0.89 135 12:46 26.10.2019
5496 Clouds 12 1014 76 10000 8 250 12:24 26.10.2019
5497 Clouds 12 1014 76 10000 8 250 11:50 26.10.2019
5498 Clouds 12 1014 76 10000 8 250 11:29 26.10.2019
5499 Clouds 12 1014 76 10000 8 250 11:29 26.10.2019
5500 Clouds 12 1014 76 10000 8 250 11:29 26.10.2019
5501 Clouds 12 1014 76 10000 7 250 10:55 26.10.2019
5502 Clouds 11 1014 81 10000 8 230 10:36 26.10.2019
5503 Clouds 10 1014 87 10000 8 250 10:18 26.10.2019
5504 Clouds 10 1014 81 10000 7 240 09:43 26.10.2019
5505 Clouds 10 1014 81 10000 7 240 09:25 26.10.2019
5506 Clouds 10 1014 87 10000 7 250 08:43 26.10.2019
5507 Clouds 9 1014 87 10000 8 240 08:25 26.10.2019
5508 Clouds 9 1014 93 10000 7 240 07:54 26.10.2019
5509 Clouds 8 1014 93 10000 7 240 07:28 26.10.2019
5510 Clouds 8 1014 93 10000 6 230 06:45 26.10.2019
5511 Clouds 8 1014 87 10000 6 230 06:26 26.10.2019
5512 Clouds 8 1014 93 9000 6 230 05:21 26.10.2019
5513 Clouds 8 1014 93 10000 6 230 04:30 26.10.2019
5514 Clouds 7 1014 87 10000 7 250 02:49 26.10.2019
5515 Clouds 6 1015 87 10000 6 210 01:56 26.10.2019
5516 Clouds 6 1015 87 10000 6 200 01:29 26.10.2019
5517 Clouds 6 1016 81 10000 6 220 00:25 26.10.2019
5518 Clouds 6 1016 81 10000 6 200 23:44 25.10.2019
5519 Clouds 6 1016 81 10000 6 200 23:44 25.10.2019
5520 Clouds 6 1016 75 10000 6 210 23:20 25.10.2019
5521 Clouds 6 1017 75 10000 6 210 22:41 25.10.2019
5522 Clouds 6 1017 75 10000 6 210 22:23 25.10.2019
5523 Clouds 7 1018 70 10000 5 210 21:58 25.10.2019
5524 Clear 7 1018 70 10000 4 200 21:40 25.10.2019
5525 Clouds 7 1018 70 10000 4 200 21:21 25.10.2019
5526 Clouds 7 1018 70 10000 5 210 20:56 25.10.2019
5527 Clouds 7 1018 70 10000 5 210 20:38 25.10.2019
5528 Clouds 7 1018 70 10000 5 210 20:19 25.10.2019
5529 Clouds 8 1019 70 10000 4 200 19:44 25.10.2019
5530 Clouds 8 1019 66 10000 4 190 19:25 25.10.2019
5531 Clouds 8 1019 66 10000 4 180 18:46 25.10.2019
5532 Clouds 8 1019 66 10000 4 180 18:24 25.10.2019
5533 Clouds 9 1019 66 10000 3 200 17:42 25.10.2019
5534 Clouds 10 1019 66 10000 3 200 17:22 25.10.2019
5535 Clouds 10 1020 66 10000 3 200 16:59 25.10.2019
5536 Clouds 10 1020 62 10000 4 210 16:41 25.10.2019
5537 Clouds 11 1020 62 10000 4 210 16:19 25.10.2019
5538 Clouds 12 1020 58 10000 5 200 15:41 25.10.2019
5539 Clouds 12 1020 58 10000 5 200 15:23 25.10.2019
5540 Clouds 12 1020 58 10000 5 220 14:59 25.10.2019
5541 Clouds 13 1021 58 10000 5 220 14:40 25.10.2019
5542 Clouds 13 1021 58 10000 5 230 14:22 25.10.2019
5543 Clouds 13 1021 58 10000 5 230 13:44 25.10.2019
5544 Clouds 13 1021 58 10000 5 230 13:25 25.10.2019
5545 Clouds 12 1022 62 10000 5 230 12:58 25.10.2019
5546 Clouds 12 1022 58 10000 5 230 12:40 25.10.2019
5547 Clouds 12 1022 58 10000 5 220 12:20 25.10.2019
5548 Clouds 12 1022 58 10000 5 220 11:42 25.10.2019
5549 Clouds 11 1023 66 10000 2 210 11:24 25.10.2019
5550 Clouds 11 1023 66 10000 2 210 10:59 25.10.2019
5551 Clouds 11 1022 62 10000 4 210 10:39 25.10.2019
5552 Clouds 11 1022 62 10000 4 210 10:21 25.10.2019
5553 Clouds 11 1022 66 10000 3 220 09:57 25.10.2019
5554 Clouds 10 1022 62 10000 2 190 09:38 25.10.2019
5555 Clouds 10 1022 62 10000 2 190 09:19 25.10.2019
5556 Clouds 9 1022 76 10000 3 190 08:45 25.10.2019
5557 Clouds 9 1022 76 10000 3 190 08:26 25.10.2019
5558 Clouds 9 1022 81 10000 3 240 07:53 25.10.2019
5559 Clouds 8 1022 81 10000 2 250 07:34 25.10.2019
5560 Clouds 8 1022 81 10000 3 250 06:41 25.10.2019
5561 Clouds 8 1022 81 10000 2 220 05:51 25.10.2019
5562 Clouds 8 1022 87 10000 3 200 05:33 25.10.2019
5563 Clouds 8 1022 87 10000 3 220 04:52 25.10.2019
5564 Clouds 8 1022 93 10000 3 260 03:30 25.10.2019
5565 Clouds 9 1021 93 10000 2 270 01:54 25.10.2019
5566 Clouds 9 1021 93 10000 2 270 01:54 25.10.2019
5567 Clouds 9 1021 87 10000 3 240 00:57 25.10.2019
5568 Clouds 9 1021 87 10000 3 240 00:20 25.10.2019
5569 Clouds 9 1021 87 10000 3 250 23:40 24.10.2019
5570 Clouds 9 1021 87 10000 3 250 23:22 24.10.2019
5571 Clouds 9 1021 81 10000 2 240 22:55 24.10.2019
5572 Clouds 9 1021 87 10000 3 270 22:37 24.10.2019
5573 Clouds 9 1021 87 10000 3 270 22:18 24.10.2019
5574 Clouds 9 1021 81 10000 3 280 21:56 24.10.2019
5575 Clouds 9 1021 87 10000 3 270 21:37 24.10.2019
5576 Clouds 9 1021 87 10000 3 270 21:19 24.10.2019
5577 Clouds 9 1021 87 10000 2 260 20:56 24.10.2019
5578 Clouds 9 1021 87 10000 3 260 20:38 24.10.2019
5579 Clouds 9 1021 87 10000 3 260 20:19 24.10.2019
5580 Clouds 9 1021 87 10000 3 250 19:44 24.10.2019
5581 Clouds 9 1021 87 10000 3 250 19:23 24.10.2019
5582 Clouds 9 1021 76 10000 2 210 18:59 24.10.2019
5583 Clouds 9 1021 81 10000 2 290 18:40 24.10.2019
5584 Clouds 9 1021 81 10000 2 290 18:21 24.10.2019
5585 Clouds 9 1021 87 10000 2 260 17:57 24.10.2019
5586 Clouds 10 1020 81 10000 4 260 17:39 24.10.2019
5587 Clouds 10 1020 81 10000 4 260 17:19 24.10.2019
5588 Clouds 10 1020 87 10000 4 260 16:54 24.10.2019
5589 Clouds 10 1020 81 10000 4 250 16:36 24.10.2019
5590 Clouds 10 1020 81 10000 4 250 16:18 24.10.2019
5591 Clouds 10 1020 81 10000 4 260 15:54 24.10.2019
5592 Rain 10 1020 81 10000 3 240 15:36 24.10.2019
5593 Rain 11 1020 81 10000 3 240 15:18 24.10.2019
5594 Clouds 11 1020 81 10000 4 280 14:44 24.10.2019
5595 Clouds 11 1020 81 10000 4 280 14:26 24.10.2019
5596 Rain 11 1020 81 10000 4 300 13:59 24.10.2019
5597 Clouds 11 1020 76 10000 4 270 13:37 24.10.2019
5598 Clouds 11 1020 76 10000 4 270 13:18 24.10.2019
5599 Clouds 11 1020 76 10000 4 290 12:56 24.10.2019
5600 Rain 10 1020 76 10000 3 280 12:37 24.10.2019
5601 Rain 10 1020 76 10000 3 280 12:18 24.10.2019
5602 Clouds 11 1020 76 10000 2 270 11:55 24.10.2019
5603 Clouds 11 1020 71 10000 2 230 11:36 24.10.2019
5604 Clouds 11 1020 71 10000 2 230 11:36 24.10.2019
5605 Clouds 11 1020 71 10000 2 230 11:18 24.10.2019
5606 Clouds 10 1020 81 10000 3 310 10:42 24.10.2019
5607 Clouds 10 1020 81 10000 3 310 10:23 24.10.2019
5608 Clouds 10 1020 76 10000 3 270 09:40 24.10.2019
5609 Clouds 10 1020 76 10000 3 270 09:19 24.10.2019
5610 Clouds 9 1020 76 10000 3 270 08:59 24.10.2019
5611 Clouds 9 1020 76 10000 4 260 08:41 24.10.2019
5612 Clouds 9 1020 76 10000 4 260 08:20 24.10.2019
5613 Clouds 9 1020 81 10000 3 250 07:48 24.10.2019
5614 Clouds 9 1020 81 10000 3 250 07:23 24.10.2019
5615 Clouds 9 1020 81 10000 3 250 07:23 24.10.2019
5616 Clouds 9 1019 81 10000 2 260 06:57 24.10.2019
5617 Clouds 9 1019 81 10000 3 250 06:36 24.10.2019
5618 Clouds 9 1019 81 10000 3 250 05:56 24.10.2019
5619 Clouds 9 1019 81 10000 3 260 05:35 24.10.2019
5620 Clouds 9 1019 81 10000 3 260 04:33 24.10.2019
5621 Clouds 10 1019 81 10000 3 260 03:36 24.10.2019
5622 Clouds 10 1019 81 10000 4 260 02:44 24.10.2019
5623 Clouds 10 1019 76 10000 4 260 02:20 24.10.2019
5624 Clouds 10 1018 76 10000 4 260 01:32 24.10.2019
5625 Clouds 11 1018 76 10000 4 260 00:57 24.10.2019
5626 Clouds 11 1018 76 10000 5 260 00:30 24.10.2019
5627 Clouds 11 1018 76 10000 4 250 23:58 23.10.2019
5628 Clouds 11 1018 71 10000 4 260 23:38 23.10.2019
5629 Clouds 11 1018 71 10000 4 260 23:20 23.10.2019
5630 Clouds 11 1018 76 10000 4 250 22:57 23.10.2019
5631 Clouds 11 1018 71 10000 3 250 22:37 23.10.2019
5632 Clouds 11 1018 71 10000 3 250 22:18 23.10.2019
5633 Clouds 11 1018 71 10000 4 270 21:57 23.10.2019
5634 Clouds 11 1018 71 10000 4 270 21:37 23.10.2019
5635 Clouds 11 1018 71 10000 4 270 21:19 23.10.2019
5636 Clouds 11 1018 71 10000 4 270 20:55 23.10.2019
5637 Clouds 11 1017 71 10000 4 270 20:36 23.10.2019
5638 Clouds 11 1017 71 10000 4 270 20:18 23.10.2019
5639 Clouds 12 1017 71 10000 5 270 19:44 23.10.2019
5640 Clouds 12 1017 71 10000 5 270 19:20 23.10.2019
5641 Clouds 12 1017 71 10000 5 260 18:59 23.10.2019
5642 Clouds 12 1017 66 10000 5 270 18:39 23.10.2019
5643 Clouds 12 1017 66 10000 5 270 18:19 23.10.2019
5644 Clouds 12 1016 71 10000 4 260 17:57 23.10.2019
5645 Clouds 12 1016 66 10000 5 260 17:39 23.10.2019
5646 Clouds 12 1016 66 10000 5 260 17:18 23.10.2019
5647 Clouds 12 1016 66 10000 6 270 16:41 23.10.2019
5648 Clouds 12 1016 66 10000 6 270 16:21 23.10.2019
5649 Clouds 12 1016 66 10000 6 270 15:58 23.10.2019
5650 Clouds 13 1015 66 10000 7 270 15:40 23.10.2019
5651 Clouds 13 1015 66 10000 7 270 15:21 23.10.2019
5652 Clouds 13 1015 62 10000 6 280 14:56 23.10.2019
5653 Clouds 13 1015 62 10000 6 280 14:38 23.10.2019
5654 Clouds 13 1015 62 10000 6 280 14:19 23.10.2019
5655 Clouds 13 1015 66 10000 6 270 13:44 23.10.2019
5656 Clouds 13 1015 66 10000 6 270 13:44 23.10.2019
5657 Clouds 13 1015 66 10000 6 270 13:25 23.10.2019
5658 Clouds 13 1015 66 10000 6 280 12:59 23.10.2019
5659 Clouds 13 1015 62 10000 8 280 12:41 23.10.2019
5660 Clouds 14 1015 62 10000 8 280 12:19 23.10.2019
5661 Clouds 13 1015 66 10000 7 270 11:58 23.10.2019
5662 Clouds 13 1015 71 10000 6 270 11:40 23.10.2019
5663 Clouds 13 1015 71 10000 6 270 11:21 23.10.2019
5664 Clouds 13 1015 71 10000 7 260 10:59 23.10.2019
5665 Clouds 13 1015 71 10000 7 260 10:40 23.10.2019
5666 Clouds 13 1015 71 10000 7 260 10:22 23.10.2019
5667 Clouds 13 1015 81 10000 7 260 09:41 23.10.2019
5668 Clouds 13 1015 81 10000 7 260 09:23 23.10.2019
5669 Clouds 12 1015 81 10000 6 260 08:57 23.10.2019
5670 Clouds 12 1014 81 10000 6 270 08:39 23.10.2019
5671 Clouds 12 1014 87 10000 6 260 08:18 23.10.2019
5672 Clouds 12 1014 87 10000 6 260 07:45 23.10.2019
5673 Clouds 12 1014 93 10000 6 260 07:21 23.10.2019
5674 Clouds 12 1014 100 10000 5 230 06:45 23.10.2019
5675 Clouds 12 1014 100 10000 5 230 06:20 23.10.2019
5676 Rain 12 1014 93 10000 5 250 05:20 23.10.2019
5677 Clouds 12 1014 93 9000 5 240 04:34 23.10.2019
5678 Clouds 12 1014 93 10000 5 240 02:45 23.10.2019
5679 Clouds 11 1015 93 10000 6 240 02:25 23.10.2019
5680 Clouds 11 1015 93 10000 5 230 01:26 23.10.2019
5681 Clouds 11 1015 93 10000 4 230 00:38 23.10.2019
5682 Clouds 11 1015 93 10000 4 230 00:38 23.10.2019
5683 Clouds 11 1015 93 10000 4 230 00:19 23.10.2019
5684 Clouds 10 1016 93 10000 5 230 23:39 22.10.2019
5685 Clouds 10 1016 93 10000 5 230 23:18 22.10.2019
5686 Clouds 10 1016 93 10000 5 230 22:56 22.10.2019
5687 Clouds 9 1017 93 10000 4 210 22:37 22.10.2019
5688 Clouds 9 1017 93 10000 4 210 22:19 22.10.2019
5689 Clouds 8 1017 87 10000 5 220 21:56 22.10.2019
5690 Clouds 8 1017 93 10000 5 220 21:36 22.10.2019
5691 Clouds 7 1017 93 10000 5 220 21:18 22.10.2019
5692 Clouds 7 1018 93 10000 6 210 20:55 22.10.2019
5693 Rain 7 1018 93 10000 5 210 20:37 22.10.2019
5694 Rain 7 1018 93 10000 5 210 20:37 22.10.2019
5695 Rain 7 1018 93 10000 5 210 20:18 22.10.2019
5696 Rain 8 1019 87 10000 4 210 19:43 22.10.2019
5697 Rain 8 1019 87 10000 4 210 19:24 22.10.2019
5698 Rain 8 1019 87 10000 4 210 18:57 22.10.2019
5699 Clouds 8 1020 87 10000 4 210 18:39 22.10.2019
5700 Clouds 8 1020 87 10000 4 210 18:21 22.10.2019
5701 Clouds 8 1020 87 10000 5 220 17:56 22.10.2019
5702 Clouds 8 1021 87 10000 5 220 17:38 22.10.2019
5703 Clouds 8 1021 87 10000 5 220 17:19 22.10.2019
5704 Clouds 8 1021 87 10000 5 230 16:57 22.10.2019
5705 Clouds 9 1021 81 10000 5 220 16:37 22.10.2019
5706 Clouds 9 1021 81 10000 5 220 16:18 22.10.2019
5707 Clouds 9 1021 81 10000 5 210 15:44 22.10.2019
5708 Clouds 9 1021 81 10000 5 210 15:21 22.10.2019
5709 Clouds 9 1022 81 10000 4 240 14:58 22.10.2019
5710 Clouds 9 1022 81 10000 5 220 14:39 22.10.2019
5711 Clouds 9 1022 81 10000 5 220 14:19 22.10.2019
5712 Clouds 9 1022 76 10000 4 230 13:42 22.10.2019
5713 Clouds 9 1022 81 10000 6 230 13:42 22.10.2019
5714 Clouds 9 1022 76 10000 4 230 13:21 22.10.2019
5715 Clouds 9 1022 76 10000 6 250 12:58 22.10.2019
5716 Clouds 9 1023 81 10000 5 230 12:39 22.10.2019
5717 Clouds 9 1023 81 10000 5 230 12:20 22.10.2019
5718 Clouds 9 1023 81 10000 5 230 12:20 22.10.2019
5719 Clouds 9 1023 81 10000 5 250 11:42 22.10.2019
5720 Clouds 9 1023 81 10000 3 240 11:23 22.10.2019
5721 Clouds 9 1023 87 10000 5 250 10:59 22.10.2019
5722 Clouds 9 1023 87 10000 5 250 10:59 22.10.2019
5723 Clouds 9 1023 87 10000 4 250 10:38 22.10.2019
5724 Clouds 9 1023 87 10000 4 250 10:19 22.10.2019
5725 Clouds 9 1023 87 10000 3 250 09:59 22.10.2019
5726 Clouds 9 1023 87 10000 3 250 09:41 22.10.2019
5727 Clouds 9 1023 93 10000 3 230 09:22 22.10.2019
5728 Clouds 8 1023 93 10000 4 250 08:59 22.10.2019
5729 Clouds 8 1023 93 10000 4 250 08:40 22.10.2019
5730 Clouds 8 1023 93 10000 3 260 08:19 22.10.2019
5731 Clouds 8 1022 93 10000 3 250 07:44 22.10.2019
5732 Clouds 8 1022 100 10000 4 250 07:25 22.10.2019
5733 Clouds 7 1022 100 10000 3 290 06:45 22.10.2019
5734 Clouds 7 1022 93 10000 3 290 06:27 22.10.2019
5735 Clouds 7 1022 93 10000 4 290 05:48 22.10.2019
5736 Clouds 8 1021 93 10000 2 250 04:50 22.10.2019
5737 Clouds 8 1021 93 10000 4 290 02:31 22.10.2019
5738 Clouds 8 1021 100 10000 4 310 01:39 22.10.2019
5739 Clouds 8 1021 100 10000 4 310 01:19 22.10.2019
5740 Clouds 8 1020 100 10000 4 290 00:43 22.10.2019
5741 Clouds 9 1020 93 10000 4 290 00:24 22.10.2019
5742 Clouds 9 1020 93 10000 3 290 23:59 21.10.2019
5743 Clouds 9 1020 100 10000 4 300 23:38 21.10.2019
5744 Clouds 9 1020 100 10000 4 300 23:19 21.10.2019
5745 Clouds 9 1020 100 10000 4 300 22:58 21.10.2019
5746 Clouds 9 1019 93 10000 4 300 22:39 21.10.2019
5747 Clouds 9 1019 93 10000 4 300 22:20 21.10.2019
5748 Clouds 9 1019 93 10000 4 290 21:58 21.10.2019
5749 Clear 10 1019 100 10000 3 290 21:38 21.10.2019
5750 Rain 10 1019 100 10000 3 290 21:20 21.10.2019
5751 Rain 10 1019 100 10000 4 290 20:58 21.10.2019
5752 Rain 10 1019 100 10000 3 280 20:39 21.10.2019
5753 Rain 10 1019 100 10000 3 280 20:20 21.10.2019
5754 Rain 11 1019 93 10000 4 280 19:57 21.10.2019
5755 Rain 11 1019 100 10000 3 270 19:38 21.10.2019
5756 Rain 11 1019 100 10000 3 270 19:20 21.10.2019
5757 Rain 12 1018 100 9000 3 300 18:55 21.10.2019
5758 Rain 12 1018 100 9000 3 300 18:55 21.10.2019
5759 Rain 13 1018 100 6000 4 300 18:36 21.10.2019
5760 Rain 13 1018 100 6000 4 300 18:18 21.10.2019
5761 Clouds 15 1017 72 10000 4 260 17:55 21.10.2019
5762 Clouds 16 1017 72 10000 4 250 17:37 21.10.2019
5763 Clouds 16 1017 72 10000 4 250 17:18 21.10.2019
5764 Rain 16 1017 82 10000 7 320 16:54 21.10.2019
5765 Rain 16 1016 82 10000 7 300 16:36 21.10.2019
5766 Clouds 16 1016 72 10000 6 260 16:18 21.10.2019
5767 Clouds 16 1016 72 10000 6 250 15:42 21.10.2019
5768 Clouds 16 1016 72 10000 6 250 15:22 21.10.2019
5769 Clouds 17 1016 72 10000 6 240 14:56 21.10.2019
5770 Clouds 17 1016 67 10000 6 240 14:37 21.10.2019
5771 Clouds 17 1016 67 10000 6 240 14:18 21.10.2019
5772 Clouds 17 1016 63 10000 7 240 13:55 21.10.2019
5773 Clouds 17 1016 63 10000 8 240 13:37 21.10.2019
5774 Clouds 17 1016 63 10000 8 240 13:18 21.10.2019
5775 Clouds 17 1016 67 10000 7 240 12:41 21.10.2019
5776 Clear 17 1017 63 10000 4 230 12:22 21.10.2019
5777 Clear 17 1016 67 10000 8 220 11:55 21.10.2019
5778 Clear 16 1016 67 10000 6 230 11:37 21.10.2019
5779 Clear 16 1016 67 10000 6 230 11:19 21.10.2019
5780 Clear 16 1016 67 10000 6 230 10:55 21.10.2019
5781 Clear 15 1016 71 10000 5 210 10:37 21.10.2019
5782 Clear 15 1016 71 10000 5 210 10:18 21.10.2019
5783 Clouds 14 1017 71 10000 6 230 09:44 21.10.2019
5784 Clear 14 1017 76 10000 6 220 09:25 21.10.2019
5785 Clear 13 1017 76 10000 5 220 08:43 21.10.2019
5786 Clear 13 1017 76 10000 5 220 08:23 21.10.2019
5787 Clear 12 1017 76 10000 5 210 07:59 21.10.2019
5788 Clear 11 1017 81 10000 4 210 07:37 21.10.2019
5789 Clear 11 1017 81 10000 4 210 07:37 21.10.2019
5790 Clear 11 1017 81 10000 4 210 07:19 21.10.2019
5791 Clear 11 1017 81 10000 4 210 06:53 21.10.2019
5792 Clear 11 1017 87 10000 4 210 06:33 21.10.2019
5793 Mist 12 1017 81 9000 5 210 05:50 21.10.2019
5794 Rain 12 1018 87 9000 3 210 04:44 21.10.2019
5795 Mist 11 1019 81 6000 4 220 02:50 21.10.2019
5796 Mist 11 1019 81 6000 4 230 02:23 21.10.2019
5797 Mist 11 1019 81 8000 3 220 01:55 21.10.2019
5798 Mist 11 1019 76 7000 4 220 01:23 21.10.2019
5799 Mist 11 1019 76 7000 4 220 01:23 21.10.2019
5800 Mist 11 1019 81 7000 4 220 00:46 21.10.2019
5801 Mist 12 1020 76 7000 4 220 00:25 21.10.2019
5802 Rain 12 1020 76 8000 4 220 23:42 20.10.2019
5803 Rain 12 1020 76 8000 4 220 23:22 20.10.2019
5804 Rain 13 1020 71 9000 4 210 22:56 20.10.2019
5805 Rain 13 1020 71 8000 3 210 22:37 20.10.2019
5806 Rain 13 1020 71 8000 3 210 22:18 20.10.2019
5807 Rain 13 1020 71 9000 3 220 21:57 20.10.2019
5808 Rain 13 1020 71 8000 3 220 21:38 20.10.2019
5809 Clouds 13 1020 71 8000 3 220 21:20 20.10.2019
5810 Clouds 13 1020 67 7000 3 220 20:41 20.10.2019
5811 Mist 14 1020 67 5000 4 210 20:19 20.10.2019
5812 Clouds 14 1020 67 6000 3 210 19:57 20.10.2019
5813 Clouds 14 1020 67 6000 3 210 19:57 20.10.2019
5814 Clouds 14 1020 67 7000 3 200 19:38 20.10.2019
5815 Clouds 14 1020 67 7000 3 200 19:20 20.10.2019
5816 Mist 14 1020 67 9000 4 230 18:56 20.10.2019
5817 Mist 14 1020 77 9000 1 360 18:37 20.10.2019
5818 Mist 14 1020 77 9000 1 360 18:19 20.10.2019
5819 Mist 14 1020 77 8000 1 0 17:54 20.10.2019
5820 Clouds 15 1020 77 9000 1 360 17:36 20.10.2019
5821 Clear 16 1020 72 10000 2 170 17:18 20.10.2019
5822 Clear 16 1020 72 10000 2 180 16:41 20.10.2019
5823 Clear 16 1020 72 10000 2 180 16:23 20.10.2019
5824 Clear 17 1020 67 10000 3 180 15:57 20.10.2019
5825 Clear 18 1020 59 10000 3 210 15:38 20.10.2019
5826 Clear 18 1020 59 10000 3 210 15:19 20.10.2019
5827 Clear 18 1020 67 10000 3 200 14:57 20.10.2019
5828 Clear 18 1020 77 10000 3 170 14:37 20.10.2019
5829 Clear 18 1020 77 10000 3 170 14:19 20.10.2019
5830 Clear 18 1020 72 10000 3 210 13:55 20.10.2019
5831 Clear 18 1020 72 10000 2 220 13:36 20.10.2019
5832 Clear 17 1020 72 10000 2 220 13:18 20.10.2019
5833 Clear 17 1020 77 10000 2 230 12:55 20.10.2019
5834 Clear 17 1020 77 10000 2 230 12:55 20.10.2019
5835 Clear 15 1020 72 10000 3 220 12:37 20.10.2019
5836 Clear 15 1020 72 10000 3 220 12:19 20.10.2019
5837 Clear 15 1020 77 10000 4 230 11:42 20.10.2019
5838 Clear 14 1020 82 10000 3 210 11:23 20.10.2019
5839 Clear 13 1020 82 10000 3 220 10:59 20.10.2019
5840 Rain 13 1020 82 10000 3 220 10:40 20.10.2019
5841 Rain 13 1020 82 10000 3 220 10:22 20.10.2019
5842 Rain 12 1020 82 10000 3 220 09:57 20.10.2019
5843 Rain 12 1020 87 10000 2 200 09:38 20.10.2019
5844 Rain 12 1020 87 10000 2 200 09:20 20.10.2019
5845 Rain 11 1020 81 10000 5 240 08:45 20.10.2019
5846 Rain 11 1020 81 10000 5 240 08:22 20.10.2019
5847 Rain 11 1020 81 10000 3 200 07:50 20.10.2019
5848 Rain 12 1020 87 10000 2 200 07:30 20.10.2019
5849 Rain 12 1020 87 10000 2 200 07:30 20.10.2019
5850 Clear 11 1019 87 10000 2 220 06:34 20.10.2019
5851 Clear 11 1019 81 10000 3 220 05:58 20.10.2019
5852 Clear 11 1019 81 10000 3 220 04:25 20.10.2019
5853 Clear 11 1019 81 10000 3 220 03:41 20.10.2019
5854 Clear 12 1019 76 10000 3 220 03:20 20.10.2019
5855 Clear 12 1019 76 10000 3 220 02:38 20.10.2019
5856 Clear 12 1019 76 10000 3 210 01:58 20.10.2019
5857 Clear 12 1019 76 10000 4 210 01:23 20.10.2019
5858 Clear 12 1019 76 10000 4 210 00:55 20.10.2019
5859 Clear 12 1019 76 10000 4 210 00:22 20.10.2019
5860 Clear 12 1019 76 10000 4 200 23:59 19.10.2019
5861 Rain 12 1019 71 10000 5 200 23:41 19.10.2019
5862 Rain 12 1019 71 10000 5 200 23:22 19.10.2019
5863 Clear 12 1019 71 10000 5 190 22:56 19.10.2019
5864 Clear 12 1019 71 10000 4 200 22:37 19.10.2019
5865 Clear 12 1019 71 10000 4 200 22:19 19.10.2019
5866 Clear 12 1019 71 10000 4 190 21:45 19.10.2019
5867 Clear 12 1019 71 10000 4 190 21:45 19.10.2019
5868 Clear 12 1019 71 10000 4 180 21:23 19.10.2019
5869 Clear 13 1019 67 10000 4 180 20:45 19.10.2019
5870 Clear 13 1019 71 10000 3 180 20:23 19.10.2019
5871 Rain 13 1019 71 10000 3 180 19:59 19.10.2019
5872 Clear 13 1019 67 10000 4 170 19:40 19.10.2019
5873 Clear 13 1019 67 10000 4 170 19:22 19.10.2019
5874 Clear 13 1019 62 10000 4 180 18:42 19.10.2019
5875 Clear 13 1019 67 10000 3 160 18:24 19.10.2019
5876 Clear 13 1019 67 10000 3 160 18:24 19.10.2019
5877 Clear 13 1019 62 10000 3 170 17:57 19.10.2019
5878 Clear 13 1019 62 10000 3 170 17:37 19.10.2019
5879 Clear 13 1019 62 10000 3 170 17:19 19.10.2019
5880 Clouds 14 1019 62 10000 3 180 16:39 19.10.2019
5881 Clouds 15 1019 62 10000 3 180 16:20 19.10.2019
5882 Clouds 15 1019 62 10000 3 180 15:56 19.10.2019
5883 Clouds 15 1019 62 10000 4 180 15:38 19.10.2019
5884 Clouds 16 1019 62 10000 4 180 15:19 19.10.2019
5885 Clouds 16 1019 62 10000 4 180 15:19 19.10.2019
5886 Clouds 16 1019 59 10000 4 170 14:38 19.10.2019
5887 Clouds 16 1019 59 10000 4 170 14:20 19.10.2019
5888 Clouds 16 1020 62 10000 4 170 13:56 19.10.2019
5889 Clouds 16 1020 67 10000 4 180 13:37 19.10.2019
5890 Clouds 16 1020 67 10000 4 180 13:37 19.10.2019
5891 Clouds 16 1020 67 10000 4 180 13:18 19.10.2019
5892 Clouds 15 1020 67 10000 4 180 12:40 19.10.2019
5893 Clouds 15 1020 67 10000 4 180 12:22 19.10.2019
5894 Clouds 15 1020 71 10000 4 200 11:59 19.10.2019
5895 Clouds 15 1020 71 10000 3 190 11:40 19.10.2019
5896 Clouds 15 1020 71 10000 3 190 11:22 19.10.2019
5897 Clouds 14 1020 71 10000 4 210 10:42 19.10.2019
5898 Clouds 13 1020 71 10000 4 210 10:23 19.10.2019
5899 Clouds 13 1020 71 10000 4 220 09:59 19.10.2019
5900 Mist 12 1020 82 10000 2 190 09:41 19.10.2019
5901 Mist 12 1020 82 10000 2 190 09:41 19.10.2019
5902 Mist 12 1020 82 10000 2 190 09:22 19.10.2019
5903 Mist 12 1020 82 10000 2 190 09:22 19.10.2019
5904 Mist 11 1020 87 10000 2 180 08:57 19.10.2019
5905 Mist 11 1020 87 10000 2 190 08:39 19.10.2019
5906 Mist 11 1020 87 10000 2 190 08:39 19.10.2019
5907 Mist 11 1020 87 10000 2 190 08:19 19.10.2019
5908 Mist 10 1020 100 9000 2 190 07:41 19.10.2019
5909 Mist 10 1020 100 9000 2 190 07:23 19.10.2019
5910 Mist 10 1020 100 6000 2 180 06:39 19.10.2019
5911 Mist 10 1020 93 7000 1 0 05:54 19.10.2019
5912 Mist 10 1020 93 8000 2 160 05:26 19.10.2019
5913 Mist 9 1019 100 6000 1 0 03:22 19.10.2019
5914 Fog 9 1019 100 200 1 250 02:35 19.10.2019
5915 Fog 9 1019 100 150 2 240 01:50 19.10.2019
5916 Mist 9 1019 100 2500 3 250 00:59 19.10.2019
5917 Fog 10 1019 100 350 2 250 00:41 19.10.2019
5918 Fog 10 1019 100 350 2 250 00:21 19.10.2019
5919 Fog 10 1018 100 6000 4 260 23:40 18.10.2019
5920 Fog 10 1018 100 6000 4 260 23:21 18.10.2019
5921 Fog 11 1018 100 9000 4 250 22:55 18.10.2019
5922 Fog 11 1018 100 10000 4 250 22:37 18.10.2019
5923 Fog 11 1018 100 10000 4 250 22:37 18.10.2019
5924 Fog 11 1018 93 10000 4 250 22:19 18.10.2019
5925 Fog 11 1018 93 10000 4 250 21:56 18.10.2019
5926 Clouds 12 1018 93 10000 4 270 21:38 18.10.2019
5927 Clouds 12 1018 93 10000 4 270 21:19 18.10.2019
5928 Clouds 12 1018 93 10000 4 270 20:54 18.10.2019
5929 Rain 12 1018 93 10000 3 260 20:36 18.10.2019
5930 Clouds 12 1018 100 10000 2 280 20:18 18.10.2019
5931 Clouds 12 1018 100 10000 2 280 19:54 18.10.2019
5932 Clouds 12 1018 93 10000 3 260 19:36 18.10.2019
5933 Clouds 12 1018 93 10000 3 260 19:18 18.10.2019
5934 Clouds 12 1017 93 10000 3 270 18:42 18.10.2019
5935 Clouds 12 1017 93 10000 3 270 18:23 18.10.2019
5936 Clouds 12 1017 93 10000 3 260 17:57 18.10.2019
5937 Rain 12 1017 93 9000 4 250 17:38 18.10.2019
5938 Rain 12 1017 93 9000 4 250 17:20 18.10.2019
5939 Rain 13 1017 82 10000 3 270 16:44 18.10.2019
5940 Rain 13 1017 82 10000 3 270 16:44 18.10.2019
5941 Rain 13 1016 82 10000 4 270 16:22 18.10.2019
5942 Rain 13 1016 76 10000 4 260 15:59 18.10.2019
5943 Rain 13 1016 76 10000 4 260 15:40 18.10.2019
5944 Rain 14 1016 71 10000 4 260 15:21 18.10.2019
5945 Rain 14 1016 71 10000 4 280 14:58 18.10.2019
5946 Rain 14 1016 71 10000 4 280 14:58 18.10.2019
5947 Rain 14 1016 71 10000 4 280 14:58 18.10.2019
5948 Clouds 14 1016 71 10000 5 270 14:40 18.10.2019
5949 Clouds 14 1016 71 10000 5 270 14:22 18.10.2019
5950 Clouds 14 1016 67 10000 5 280 13:59 18.10.2019
5951 Clouds 14 1016 67 10000 5 280 13:40 18.10.2019
5952 Clouds 15 1016 59 10000 4 280 13:22 18.10.2019
5953 Clouds 15 1016 59 10000 4 280 13:22 18.10.2019
5954 Clouds 15 1016 67 10000 3 290 12:56 18.10.2019
5955 Clouds 15 1016 67 10000 3 280 12:38 18.10.2019
5956 Clouds 15 1016 67 10000 3 280 12:20 18.10.2019
5957 Clouds 15 1016 67 10000 3 280 12:20 18.10.2019
5958 Clouds 15 1016 71 10000 3 270 11:55 18.10.2019
5959 Clouds 14 1016 71 10000 5 250 11:37 18.10.2019
5960 Clouds 14 1016 71 10000 5 250 11:18 18.10.2019
5961 Clouds 13 1015 87 10000 4 270 10:43 18.10.2019
5962 Clouds 13 1015 87 10000 4 270 10:23 18.10.2019
5963 Clouds 13 1015 81 10000 3 270 09:59 18.10.2019
5964 Clouds 13 1015 81 10000 3 270 09:59 18.10.2019
5965 Rain 13 1015 87 10000 3 280 09:40 18.10.2019
5966 Rain 13 1015 87 10000 3 280 09:21 18.10.2019
5967 Rain 13 1015 87 10000 3 280 09:21 18.10.2019
5968 Clouds 12 1015 87 10000 3 270 08:58 18.10.2019
5969 Clouds 12 1015 87 10000 3 270 08:58 18.10.2019
5970 Clouds 12 1015 87 10000 3 270 08:58 18.10.2019
5971 Clouds 12 1015 87 10000 3 280 08:40 18.10.2019
5972 Clouds 12 1015 87 10000 3 280 08:21 18.10.2019
5973 Rain 12 1014 87 10000 4 270 07:42 18.10.2019
5974 Rain 12 1014 87 10000 4 270 07:24 18.10.2019
5975 Clouds 12 1014 93 10000 4 280 06:40 18.10.2019
5976 Clouds 12 1014 93 10000 4 280 06:21 18.10.2019
5977 Rain 12 1013 100 10000 5 270 05:56 18.10.2019
5978 Clouds 12 1013 100 10000 5 270 05:23 18.10.2019
5979 Drizzle 12 1013 100 8000 5 250 04:41 18.10.2019
5980 Clouds 12 1013 93 10000 5 250 03:32 18.10.2019
5981 Clouds 13 1013 87 10000 4 260 02:33 18.10.2019
5982 Clouds 13 1013 87 10000 3 250 01:46 18.10.2019
5983 Clouds 13 1013 87 10000 4 280 01:28 18.10.2019
5984 Rain 13 1012 82 10000 6 270 00:45 18.10.2019
5985 Clouds 14 1012 76 10000 7 270 00:21 18.10.2019
5986 Clouds 14 1012 76 10000 7 270 00:21 18.10.2019
5987 Clouds 14 1012 76 10000 6 260 23:57 17.10.2019
5988 Rain 14 1012 71 10000 5 240 23:36 17.10.2019
5989 Rain 14 1012 71 10000 5 240 23:18 17.10.2019
5990 Rain 14 1012 71 10000 6 240 22:55 17.10.2019
5991 Clear 14 1012 62 10000 5 230 22:37 17.10.2019
5992 Clear 14 1012 62 10000 5 230 22:18 17.10.2019
5993 Clear 14 1012 67 10000 4 240 21:55 17.10.2019
5994 Clear 14 1012 71 10000 4 250 21:37 17.10.2019
5995 Clear 14 1012 71 10000 4 250 21:19 17.10.2019
5996 -273 0 0 0 0 0 20:56 17.10.2019
5997 -273 0 0 0 0 0 20:56 17.10.2019
5998 Clouds 14 1012 67 10000 5 250 20:37 17.10.2019
5999 Clouds 14 1012 67 10000 5 250 20:18 17.10.2019
6000 Clouds 15 1012 62 10000 6 240 19:42 17.10.2019
6001 Clouds 15 1012 59 10000 4 220 19:20 17.10.2019
6002 Clear 15 1012 55 10000 4 220 18:59 17.10.2019
6003 Clouds 15 1012 55 10000 4 210 18:39 17.10.2019
6004 Clouds 15 1012 55 10000 4 210 18:20 17.10.2019
6005 Clouds 15 1012 59 10000 4 210 17:44 17.10.2019
6006 Clouds 16 1012 63 10000 4 210 17:25 17.10.2019
6007 Clouds 17 1012 55 10000 4 200 16:59 17.10.2019
6008 Clouds 17 1012 59 10000 5 200 16:41 17.10.2019
6009 Clouds 17 1012 59 10000 5 200 16:19 17.10.2019
6010 Clouds 17 1012 59 10000 5 200 16:19 17.10.2019
6011 Clouds 18 1012 55 10000 4 200 15:57 17.10.2019
6012 Clouds 19 1012 55 10000 4 210 15:39 17.10.2019
6013 Clouds 19 1012 55 10000 4 210 15:20 17.10.2019
6014 Clouds 19 1013 55 10000 4 210 14:57 17.10.2019
6015 Clouds 19 1013 55 10000 4 190 14:38 17.10.2019
6016 Clouds 19 1013 55 10000 4 190 14:20 17.10.2019
6017 Clouds 19 1013 55 10000 4 190 13:41 17.10.2019
6018 Clouds 19 1013 55 10000 4 190 13:21 17.10.2019
6019 Clouds 18 1014 59 10000 5 190 12:58 17.10.2019
6020 Clouds 18 1014 59 10000 4 210 12:39 17.10.2019
6021 Clear 18 1014 59 10000 4 210 12:19 17.10.2019
6022 Clear 17 1014 63 10000 5 220 11:56 17.10.2019
6023 Clear 16 1014 67 10000 5 210 11:38 17.10.2019
6024 Clear 16 1014 67 10000 5 210 11:18 17.10.2019
6025 Clear 14 1015 71 10000 4 220 10:42 17.10.2019
6026 Clear 14 1015 71 10000 4 220 10:20 17.10.2019
6027 Clear 13 1014 76 10000 5 210 09:57 17.10.2019
6028 Clear 13 1014 76 10000 5 210 09:57 17.10.2019
6029 Clear 12 1015 81 10000 5 220 09:38 17.10.2019
6030 Clear 12 1015 81 10000 5 220 09:38 17.10.2019
6031 Clouds 12 1015 81 10000 5 220 09:20 17.10.2019
6032 Clouds 11 1015 81 10000 5 220 08:57 17.10.2019
6033 -273 0 0 0 0 0 08:57 17.10.2019
6034 Clouds 11 1015 87 10000 5 220 08:38 17.10.2019
6035 Clouds 10 1015 93 10000 5 210 08:18 17.10.2019
6036 Clouds 10 1015 93 10000 5 210 07:48 17.10.2019
6037 Clouds 9 1015 93 10000 5 220 07:21 17.10.2019
6038 Clouds 8 1015 93 10000 4 210 06:58 17.10.2019
6039 -273 0 0 0 0 0 06:39 17.10.2019
6040 Clouds 8 1015 93 10000 4 230 06:19 17.10.2019
6041 Clouds 8 1015 93 10000 5 210 05:41 17.10.2019
6042 Clouds 8 1015 93 10000 5 210 05:21 17.10.2019
6043 Clouds 8 1015 87 10000 5 210 04:50 17.10.2019
6044 Clouds 7 1016 93 10000 4 210 03:50 17.10.2019
6045 Clouds 8 1017 81 10000 4 200 02:35 17.10.2019
6046 Clouds 8 1018 81 10000 4 190 00:44 17.10.2019
6047 Clouds 7 1018 81 10000 4 190 00:22 17.10.2019
6048 Clouds 7 1018 81 10000 3 190 23:59 16.10.2019
6049 Clouds 7 1018 76 10000 4 190 23:41 16.10.2019
6050 Clouds 7 1018 76 10000 4 190 23:20 16.10.2019
6051 Clouds 8 1018 76 10000 5 190 22:55 16.10.2019
6052 Clouds 7 1018 81 10000 5 180 22:36 16.10.2019
6053 Clouds 7 1018 81 10000 5 180 22:18 16.10.2019
6054 Clouds 8 1018 76 10000 5 180 21:55 16.10.2019
6055 Clouds 8 1019 70 10000 4 180 21:37 16.10.2019
6056 Clouds 8 1019 70 10000 4 180 21:18 16.10.2019
6057 Clouds 8 1019 70 10000 4 180 21:18 16.10.2019
6058 Clouds 7 1019 75 10000 5 170 20:56 16.10.2019
6059 Clouds 8 1019 75 10000 5 160 20:38 16.10.2019
6060 Clouds 8 1019 75 10000 5 160 20:20 16.10.2019
6061 Clouds 8 1019 75 10000 5 160 20:20 16.10.2019
6062 Clouds 8 1020 70 10000 4 160 19:56 16.10.2019
6063 Clouds 8 1020 70 10000 4 150 19:38 16.10.2019
6064 Clouds 8 1020 70 10000 4 150 19:19 16.10.2019
6065 Clouds 8 1021 70 10000 4 160 18:39 16.10.2019
6066 Clouds 8 1021 70 10000 4 160 18:19 16.10.2019
6067 Clouds 8 1021 70 10000 4 170 17:56 16.10.2019
6068 Clouds 8 1021 70 10000 4 160 17:38 16.10.2019
6069 Clouds 8 1021 70 10000 4 160 17:38 16.10.2019
6070 Clouds 8 1021 70 10000 4 160 17:19 16.10.2019
6071 Clouds 8 1021 70 10000 4 160 17:19 16.10.2019
6072 Clouds 8 1021 70 10000 5 150 16:58 16.10.2019
6073 Rain 8 1022 70 10000 5 150 16:39 16.10.2019
6074 Rain 8 1022 70 10000 5 150 16:20 16.10.2019
6075 Clouds 8 1022 65 10000 5 140 15:56 16.10.2019
6076 Clouds 8 1022 65 10000 5 140 15:55 16.10.2019
6077 Clouds 8 1002 62 0 6.192 170 15:36 16.10.2019
6078 Clouds 8 1024 61 10000 4 150 15:18 16.10.2019
6079 Clouds 8 1024 61 10000 4 150 14:55 16.10.2019
6080 Clouds 8 1024 61 10000 4 150 14:36 16.10.2019
6081 Clouds 8 1024 61 10000 4 150 14:18 16.10.2019
6082 Clouds 8 1025 65 10000 5 150 13:55 16.10.2019
6083 Clouds 8 1025 65 10000 5 130 13:36 16.10.2019
6084 Clouds 8 1025 65 10000 5 130 13:18 16.10.2019
6085 Clouds 8 1026 63 10000 4 150 12:40 16.10.2019
6086 Clouds 8 1026 67 10000 4 150 12:18 16.10.2019
6087 Clouds 7 1026 67 10000 4 170 11:42 16.10.2019
6088 Clouds 6 1027 67 10000 4 130 11:18 16.10.2019
6089 Clouds 7 1026 67 10000 4 160 11:18 16.10.2019
6090 Clouds 6 1027 60 10000 3 160 10:39 16.10.2019
6091 Clouds 6 1027 60 10000 3 160 10:20 16.10.2019
6092 Clouds 5 1027 67 10000 4 150 09:55 16.10.2019
6093 Clouds 4 1027 69 10000 3 130 09:37 16.10.2019
6094 Clouds 4 1027 69 10000 3 130 09:19 16.10.2019
6095 Clouds 3 1027 74 10000 3 130 08:42 16.10.2019
6096 Clouds 2 1027 74 10000 3 140 08:24 16.10.2019
6097 Clouds 2 1028 80 10000 2 140 07:45 16.10.2019
6098 Clouds 2 1028 80 10000 2 140 07:45 16.10.2019
6099 -273 0 0 0 0 0 07:25 16.10.2019
6100 Clouds 0 1027 86 10000 3 120 06:58 16.10.2019
6101 Clouds 0 1027 86 10000 3 120 06:39 16.10.2019
6102 Clouds 0 1028 79 10000 3 90 05:48 16.10.2019
6103 Clouds 0 1027 80 10000 3 110 03:24 16.10.2019
6104 Clouds 0 1027 76 10000 3 100 02:47 16.10.2019
6105 Clouds 1 1027 86 10000 3 80 01:19 16.10.2019
6106 Clouds 2 1027 86 10000 3 80 00:49 16.10.2019
6107 Clouds 2 1026 86 10000 3 80 00:27 16.10.2019
6108 Clouds 3 1026 80 10000 3 70 23:41 15.10.2019
6109 Clouds 3 1026 80 10000 3 70 23:22 15.10.2019
6110 Clouds 3 1026 78 10000 2 60 22:56 15.10.2019
6111 Clouds 3 1026 78 10000 2 60 22:38 15.10.2019
6112 Clouds 3 1026 78 10000 2 60 22:20 15.10.2019
6113 Clouds 4 1026 69 10000 1 0 21:56 15.10.2019
6114 Clouds 4 1026 69 10000 1 0 21:55 15.10.2019
6115 Clouds 4 1026 69 10000 2 360 21:37 15.10.2019
6116 Clouds 4 1026 69 10000 2 360 21:19 15.10.2019
6117 Clouds 5 1026 82 10000 1 0 20:56 15.10.2019
6118 Clouds 5 1026 82 10000 1 0 20:37 15.10.2019
6119 Clouds 5 1026 82 10000 2 350 20:19 15.10.2019
6120 Clouds 5 1025 82 10000 3 350 19:56 15.10.2019
6121 Clouds 5 1025 82 10000 3 350 19:56 15.10.2019
6122 Clouds 5 1025 82 10000 2 350 19:37 15.10.2019
6123 Clouds 5 1025 82 10000 3 350 19:37 15.10.2019
6124 Clouds 5 1025 82 10000 2 350 19:19 15.10.2019
6125 Clouds 5 1025 82 10000 3 20 18:44 15.10.2019
6126 Clouds 5 1024 80 10000 4 360 18:26 15.10.2019
6127 Clouds 6 1024 75 10000 4 350 17:56 15.10.2019
6128 Clouds 6 1024 75 10000 4 350 17:38 15.10.2019
6129 Clouds 6 1024 75 10000 4 350 17:19 15.10.2019
6130 Clouds 6 1023 80 10000 3 320 16:45 15.10.2019
6131 Clouds 6 1023 75 10000 4 360 16:45 15.10.2019
6132 Clouds 6 1023 80 10000 3 320 16:22 15.10.2019
6133 Clouds 6 1023 80 10000 4 320 15:58 15.10.2019
6134 Clouds 6 1023 80 10000 4 320 15:58 15.10.2019
6135 Clouds 7 1023 70 10000 4 330 15:40 15.10.2019
6136 Clouds 7 1023 70 10000 4 330 15:40 15.10.2019
6137 Clouds 7 1023 70 10000 4 330 15:20 15.10.2019
6138 Clouds 7 1022 75 10000 3 330 14:57 15.10.2019
6139 Clouds 7 1022 75 10000 4 340 14:37 15.10.2019
6140 Clouds 7 1022 75 10000 4 340 14:19 15.10.2019
6141 Clouds 8 1021 81 10000 4 360 13:44 15.10.2019
6142 Clouds 8 1021 81 10000 4 360 13:21 15.10.2019
6143 Clouds 8 1020 81 10000 4 340 12:59 15.10.2019
6144 Clouds 8 1020 81 10000 4 340 12:59 15.10.2019
6145 Clouds 8 1020 81 10000 5 340 12:39 15.10.2019
6146 Clouds 8 1020 81 10000 5 340 12:20 15.10.2019
6147 Clouds 9 1020 81 10000 6 350 11:55 15.10.2019
6148 Clouds 9 1019 75 10000 6 10 11:37 15.10.2019
6149 Clouds 9 1019 75 10000 6 10 11:18 15.10.2019
6150 Clouds 10 1018 75 10000 5 360 10:42 15.10.2019
6151 Clouds 10 1018 75 10000 5 360 10:19 15.10.2019
6152 Clouds 11 1017 81 10000 6 340 09:57 15.10.2019
6153 Rain 11 1016 87 10000 7 340 09:37 15.10.2019
6154 Rain 10 1016 87 10000 7 340 09:19 15.10.2019
6155 Clouds 11 1015 87 10000 5 350 08:42 15.10.2019
6156 Rain 11 1014 81 10000 5 340 08:22 15.10.2019
6157 Rain 12 1013 81 10000 7 320 07:56 15.10.2019
6158 Clouds 13 1012 87 10000 8 310 07:38 15.10.2019
6159 Clouds 13 1012 87 10000 8 310 07:19 15.10.2019
6160 Clouds 13 1011 76 10000 6 290 06:44 15.10.2019
6161 Clouds 13 1011 76 10000 6 290 06:26 15.10.2019
6162 Clouds 13 1010 76 10000 6 280 05:41 15.10.2019
6163 Clouds 13 1010 76 10000 5 280 05:23 15.10.2019
6164 Clear 14 1009 76 10000 5 280 04:32 15.10.2019
6165 Clouds 14 1009 76 10000 4 290 03:37 15.10.2019
6166 Clouds 14 1009 76 10000 4 290 03:37 15.10.2019
6167 -273 0 0 0 0 0 02:29 15.10.2019
6168 Clouds 15 1008 67 10000 7 290 01:48 15.10.2019
6169 Clouds 15 1008 67 10000 7 290 01:19 15.10.2019
6170 Clouds 16 1007 67 10000 9 290 00:49 15.10.2019
6171 Clouds 15 1007 82 10000 5 260 00:22 15.10.2019
6172 Clouds 16 1007 82 10000 5 240 23:45 14.10.2019
6173 Clouds 17 1007 82 10000 4 250 23:20 14.10.2019
6174 Clouds 17 1007 82 10000 4 250 23:20 14.10.2019
6175 Clouds 17 1007 82 10000 4 310 22:58 14.10.2019
6176 Clouds 17 1006 77 10000 6 260 22:38 14.10.2019
6177 Clouds 17 1006 77 10000 6 250 22:18 14.10.2019
6178 Clouds 17 1006 77 10000 6 260 22:18 14.10.2019
6179 Clouds 17 1006 77 10000 6 250 21:56 14.10.2019
6180 Clouds 17 1006 77 10000 8 240 21:37 14.10.2019
6181 Clouds 17 1006 77 10000 8 240 21:19 14.10.2019
6182 Clouds 17 1006 77 10000 8 240 20:55 14.10.2019
6183 Clouds 17 1006 77 10000 8 240 20:36 14.10.2019
6184 Clouds 17 1006 77 10000 8 240 20:18 14.10.2019
6185 Rain 16 1006 82 9000 8 230 19:42 14.10.2019
6186 Clouds 15 1006 77 10000 7 230 19:23 14.10.2019
6187 Clouds 14 1007 87 10000 5 220 18:59 14.10.2019
6188 Clouds 14 1007 82 10000 5 220 18:39 14.10.2019
6189 Clouds 14 1007 82 10000 5 220 18:19 14.10.2019
6190 Clouds 14 1007 82 10000 5 220 18:19 14.10.2019
6191 Clouds 14 1007 82 10000 5 220 18:19 14.10.2019
6192 Clouds 13 1007 82 10000 3 200 17:57 14.10.2019
6193 Clouds 13 1007 82 10000 3 200 17:57 14.10.2019
6194 Clouds 13 1008 81 10000 2 160 17:38 14.10.2019
6195 Clouds 13 1009 81 10000 2 160 17:20 14.10.2019
6196 Rain 12 1009 76 10000 2 170 16:44 14.10.2019
6197 Rain 12 1009 76 10000 2 170 16:21 14.10.2019
6198 Rain 12 1010 81 10000 2 200 15:54 14.10.2019
6199 Rain 12 1010 81 10000 5 170 15:36 14.10.2019
6200 Rain 11 1011 81 10000 4 170 15:18 14.10.2019
6201 Rain 11 1012 81 10000 3 170 14:43 14.10.2019
6202 Rain 11 1012 81 10000 3 170 14:23 14.10.2019
6203 Rain 11 1014 81 10000 3 180 13:45 14.10.2019
6204 Rain 11 1014 81 10000 3 180 13:22 14.10.2019
6205 Rain 11 1015 81 10000 2 190 12:59 14.10.2019
6206 Rain 11 1015 76 10000 3 190 12:40 14.10.2019
6207 Clear 11 1016 81 10000 4 230 12:19 14.10.2019
6208 Clear 11 1016 81 10000 4 230 11:46 14.10.2019
6209 Clear 11 1016 81 10000 3 240 11:27 14.10.2019
6210 Clear 11 1017 87 10000 3 220 10:58 14.10.2019
6211 Clear 11 1017 87 10000 3 220 10:58 14.10.2019
6212 Clouds 10 1017 87 10000 3 230 10:39 14.10.2019
6213 Clouds 11 1017 87 10000 3 230 10:20 14.10.2019
6214 Clear 10 1017 87 10000 4 240 09:55 14.10.2019
6215 Clouds 9 1017 87 10000 3 260 09:36 14.10.2019
6216 Clouds 9 1017 87 10000 3 260 09:18 14.10.2019
6217 Clouds 8 1017 93 10000 5 250 08:43 14.10.2019
6218 Clouds 8 1017 93 10000 5 250 08:22 14.10.2019
6219 Clear 7 1016 93 10000 5 250 07:42 14.10.2019
6220 Clear 6 1016 100 10000 4 250 07:19 14.10.2019
6221 Clear 6 1016 100 10000 4 250 06:48 14.10.2019
6222 Clear 7 1016 100 10000 4 260 06:20 14.10.2019
6223 Clear 7 1016 100 10000 4 260 05:49 14.10.2019
6224 Clear 7 1015 93 10000 4 260 04:43 14.10.2019
6225 Clear 7 1015 93 10000 5 250 03:27 14.10.2019
6226 Clear 9 1015 87 10000 4 270 02:42 14.10.2019
6227 Clear 9 1014 81 10000 4 260 01:23 14.10.2019
6228 Clear 9 1014 81 10000 4 260 00:56 14.10.2019
6229 Clear 10 1014 87 10000 4 260 00:20 14.10.2019
6230 Clear 10 1013 87 10000 5 260 23:45 13.10.2019
6231 Clear 10 1013 81 10000 6 260 23:20 13.10.2019
6232 Clouds 10 1013 81 10000 5 250 22:58 13.10.2019
6233 -273 0 0 0 0 0 22:40 13.10.2019
6234 Clear 10 1013 81 10000 5 250 22:21 13.10.2019
6235 Clear 10 1013 87 10000 5 260 21:58 13.10.2019
6236 Clear 10 1013 87 10000 5 260 21:58 13.10.2019
6237 Clear 10 1012 87 10000 4 250 21:37 13.10.2019
6238 Clear 10 1012 87 10000 4 250 21:19 13.10.2019
6239 Clouds 10 1012 87 10000 6 250 20:57 13.10.2019
6240 Clouds 10 1012 87 10000 6 250 20:57 13.10.2019
6241 Clear 10 1012 87 10000 6 250 20:39 13.10.2019
6242 Clear 10 1012 87 10000 6 250 20:21 13.10.2019
6243 Clear 10 1012 81 10000 6 260 19:58 13.10.2019
6244 Clear 10 1011 81 10000 6 260 19:39 13.10.2019
6245 Clear 10 1011 81 10000 6 260 19:21 13.10.2019
6246 Clouds 10 1011 81 10000 6 260 18:57 13.10.2019
6247 Clouds 10 1011 81 10000 6 260 18:56 13.10.2019
6248 Clouds 10 1011 81 10000 6 260 18:56 13.10.2019
6249 Clouds 10 1011 87 10000 5 250 18:36 13.10.2019
6250 Clouds 10 1011 87 10000 5 250 18:36 13.10.2019
6251 Clouds 10 1011 87 10000 5 250 18:18 13.10.2019
6252 Clear 11 1010 81 10000 6 250 17:54 13.10.2019
6253 Clouds 11 1010 81 10000 6 250 17:36 13.10.2019
6254 Clouds 11 1010 81 10000 6 250 17:18 13.10.2019
6255 -273 0 0 0 0 0 16:41 13.10.2019
6256 Clouds 11 1009 76 10000 6 250 16:18 13.10.2019
6257 Clouds 11 1009 71 10000 7 250 15:56 13.10.2019
6258 Clouds 11 1009 71 10000 7 250 15:56 13.10.2019
6259 Clouds 11 1009 71 10000 7 250 15:56 13.10.2019
6260 Clouds 12 1009 71 10000 8 250 15:37 13.10.2019
6261 Clouds 12 1009 71 10000 8 250 15:37 13.10.2019
6262 Clouds 12 1009 71 10000 8 250 15:18 13.10.2019
6263 Clouds 12 1009 71 10000 8 250 15:18 13.10.2019
6264 Clear 12 1009 71 10000 9 260 14:56 13.10.2019
6265 Clear 12 1009 71 10000 8 250 14:38 13.10.2019
6266 Clear 12 1009 71 10000 8 250 14:18 13.10.2019
6267 Clouds 12 1008 66 10000 8 260 13:41 13.10.2019
6268 Clouds 12 1008 66 10000 8 260 13:22 13.10.2019
6269 Clouds 12 1008 71 10000 8 260 12:59 13.10.2019
6270 Clouds 12 1008 76 10000 8 250 12:39 13.10.2019
6271 Clouds 11 1008 76 10000 8 260 12:20 13.10.2019
6272 Clouds 11 1008 76 10000 8 260 11:58 13.10.2019
6273 Clouds 11 1008 76 10000 6 260 11:39 13.10.2019
6274 Clouds 11 1008 76 10000 6 260 11:20 13.10.2019
6275 Clouds 11 1008 81 10000 7 260 10:56 13.10.2019
6276 Clouds 10 1007 81 10000 8 260 10:38 13.10.2019
6277 Clouds 10 1007 81 10000 8 260 10:19 13.10.2019
6278 Clouds 10 1007 87 10000 7 250 09:39 13.10.2019
6279 Clouds 10 1007 87 10000 7 250 09:21 13.10.2019
6280 Clouds 9 1006 93 10000 7 250 08:44 13.10.2019
6281 Clouds 9 1006 93 10000 7 250 08:26 13.10.2019
6282 Clouds 9 1006 93 10000 7 250 07:52 13.10.2019
6283 Clouds 9 1006 93 10000 6 250 07:33 13.10.2019
6284 Clouds 9 1006 93 10000 6 250 07:33 13.10.2019
6285 Clouds 9 1006 87 10000 6 250 06:54 13.10.2019
6286 Clouds 9 1006 87 10000 6 250 06:54 13.10.2019
6287 Clouds 8 1005 93 10000 6 250 06:24 13.10.2019
6288 Clouds 8 1005 93 10000 6 250 06:24 13.10.2019
6289 Clouds 8 1005 93 10000 6 250 06:24 13.10.2019
6290 Clear 8 1006 87 10000 7 240 05:27 13.10.2019
6291 Clouds 8 1005 93 10000 5 250 04:35 13.10.2019
6292 Clouds 8 1004 93 10000 6 250 03:34 13.10.2019
6293 Clouds 8 1004 93 10000 6 260 02:32 13.10.2019
6294 Rain 9 1003 93 10000 6 250 01:37 13.10.2019
6295 Rain 9 1003 93 10000 6 250 01:18 13.10.2019
6296 Rain 9 1003 93 10000 6 250 00:42 13.10.2019
6297 Rain 9 1003 93 10000 6 250 00:42 13.10.2019
6298 Rain 9 1003 93 10000 6 250 00:19 13.10.2019
6299 Rain 9 1003 93 10000 6 220 23:42 12.10.2019
6300 Rain 9 1003 93 10000 6 220 23:23 12.10.2019
6301 Rain 9 1003 93 10000 5 230 22:59 12.10.2019
6302 Rain 9 1003 93 10000 6 250 22:40 12.10.2019
6303 Rain 10 1003 93 10000 6 250 22:22 12.10.2019
6304 Rain 11 1003 93 9000 6 260 21:59 12.10.2019
6305 Rain 11 1003 93 10000 6 270 21:40 12.10.2019
6306 Rain 11 1003 93 10000 6 270 21:22 12.10.2019
6307 Rain 11 1003 93 9000 8 280 20:56 12.10.2019
6308 Rain 11 1002 93 8000 8 230 20:37 12.10.2019
6309 Rain 11 1002 93 8000 8 230 20:19 12.10.2019
6310 Rain 11 1002 87 10000 9 220 19:36 12.10.2019
6311 Rain 11 1002 87 10000 9 220 19:18 12.10.2019
6312 Rain 11 1002 87 10000 8 220 18:44 12.10.2019
6313 Rain 11 1002 87 10000 8 220 18:26 12.10.2019
6314 Rain 11 1002 87 10000 7 220 17:55 12.10.2019
6315 Rain 11 1002 87 10000 7 210 17:37 12.10.2019
6316 Rain 11 1002 87 10000 7 210 17:18 12.10.2019
6317 Rain 11 1003 81 10000 7 210 16:40 12.10.2019
6318 Clouds 11 1003 81 10000 6 210 16:21 12.10.2019
6319 Rain 11 1003 93 10000 6 200 15:57 12.10.2019
6320 Rain 11 1003 93 10000 6 200 15:57 12.10.2019
6321 Rain 10 1003 93 10000 8 210 15:38 12.10.2019
6322 Rain 10 1003 93 10000 8 210 15:18 12.10.2019
6323 Rain 10 1005 93 9000 8 200 14:40 12.10.2019
6324 Rain 10 1005 87 10000 8 200 14:20 12.10.2019
6325 Rain 10 1005 87 10000 8 200 13:51 12.10.2019
6326 Rain 10 1005 93 8000 7 190 13:32 12.10.2019
6327 Rain 10 1006 87 9000 6 190 12:57 12.10.2019
6328 Rain 11 1007 87 9000 6 200 12:38 12.10.2019
6329 Rain 11 1007 87 9000 6 200 12:20 12.10.2019
6330 Rain 11 1007 81 10000 6 200 11:47 12.10.2019
6331 Clouds 12 1008 76 10000 6 200 11:24 12.10.2019
6332 Clouds 11 1008 81 10000 5 190 10:58 12.10.2019
6333 Clouds 11 1009 87 10000 5 190 10:40 12.10.2019
6334 Clouds 11 1009 87 10000 5 190 10:20 12.10.2019
6335 Rain 10 1009 87 10000 5 180 09:57 12.10.2019
6336 Clouds 10 1010 81 10000 5 190 09:38 12.10.2019
6337 Clouds 9 1010 81 10000 5 190 09:20 12.10.2019
6338 Clouds 9 1010 81 10000 5 190 09:20 12.10.2019
6339 Clouds 9 1010 81 10000 5 190 08:55 12.10.2019
6340 Clouds 9 1011 87 10000 6 200 08:36 12.10.2019
6341 Clouds 9 1011 87 10000 6 200 08:18 12.10.2019
6342 Clouds 8 1011 87 10000 4 200 07:32 12.10.2019
6343 Clouds 8 1011 93 10000 5 220 06:38 12.10.2019
6344 Clouds 8 1011 93 10000 4 220 05:44 12.10.2019
6345 Clouds 8 1012 100 10000 4 220 04:43 12.10.2019
6346 Clouds 8 1012 100 10000 3 220 03:56 12.10.2019
6347 Clouds 8 1012 93 10000 3 220 02:54 12.10.2019
6348 Clouds 8 1012 100 10000 4 230 01:35 12.10.2019
6349 Clouds 8 1012 100 10000 4 230 00:58 12.10.2019
6350 Clouds 8 1012 100 10000 4 230 00:39 12.10.2019
6351 Clear 9 1011 93 10000 5 240 23:56 11.10.2019
6352 Clear 9 1011 93 10000 3 230 23:37 11.10.2019
6353 Clear 9 1011 93 10000 3 230 23:19 11.10.2019
6354 Clouds 8 1011 93 10000 3 240 22:39 11.10.2019
6355 Clouds 8 1011 93 10000 3 240 22:21 11.10.2019
6356 Clouds 8 1011 100 10000 3 220 21:55 11.10.2019
6357 Clouds 9 1011 93 10000 4 230 21:36 11.10.2019
6358 Clouds 9 1011 93 10000 4 230 21:18 11.10.2019
6359 Clouds 9 1011 93 10000 4 230 20:43 11.10.2019
6360 Clouds 9 1011 93 10000 4 230 20:25 11.10.2019
6361 Rain 9 1011 93 10000 4 220 19:56 11.10.2019
6362 Rain 9 1011 93 10000 3 220 19:38 11.10.2019
6363 Rain 9 1011 93 10000 3 220 19:18 11.10.2019
6364 Clear 9 1010 87 10000 4 220 18:58 11.10.2019
6365 Clouds 9 1010 93 10000 3 220 18:37 11.10.2019
6366 Clouds 9 1010 93 10000 3 220 18:37 11.10.2019
6367 Clouds 10 1010 93 10000 3 220 18:19 11.10.2019
6368 Clear 10 1010 87 10000 4 230 17:58 11.10.2019
6369 Clear 10 1010 87 10000 4 230 17:37 11.10.2019
6370 Clear 10 1010 87 10000 4 230 17:19 11.10.2019
6371 Clouds 10 1010 87 10000 5 220 16:55 11.10.2019
6372 Clouds 10 1010 87 10000 4 220 16:37 11.10.2019
6373 Clouds 10 1010 87 10000 4 220 16:18 11.10.2019
6374 Rain 10 1009 87 10000 4 240 15:39 11.10.2019
6375 Rain 11 1009 87 10000 4 240 15:19 11.10.2019
6376 Clouds 11 1009 87 10000 5 220 14:49 11.10.2019
6377 Rain 11 1009 87 10000 6 250 14:30 11.10.2019
6378 Rain 11 1009 87 9000 4 240 13:58 11.10.2019
6379 Clouds 11 1009 87 10000 5 250 13:40 11.10.2019
6380 Clouds 11 1009 87 10000 5 250 13:22 11.10.2019
6381 Rain 11 1009 81 9000 6 250 12:56 11.10.2019
6382 Clouds 11 1008 81 10000 6 240 12:38 11.10.2019
6383 Clouds 11 1008 81 10000 6 240 12:20 11.10.2019
6384 Clouds 10 1008 81 10000 7 230 11:55 11.10.2019
6385 Clouds 10 1008 81 10000 7 230 11:55 11.10.2019
6386 Clouds 10 1008 87 10000 5 250 11:36 11.10.2019
6387 Clouds 10 1008 87 10000 5 250 11:18 11.10.2019
6388 Clouds 10 1008 87 10000 5 250 10:41 11.10.2019
6389 Clouds 10 1008 93 10000 5 250 10:23 11.10.2019
6390 Clouds 10 1008 93 10000 5 250 09:59 11.10.2019
6391 Clouds 9 1007 93 10000 5 260 09:40 11.10.2019
6392 Clouds 9 1007 93 10000 5 260 09:20 11.10.2019
6393 Rain 9 1007 100 8000 4 260 08:56 11.10.2019
6394 Rain 8 1007 100 8000 5 240 08:37 11.10.2019
6395 Rain 8 1007 100 10000 5 240 08:19 11.10.2019
6396 Rain 8 1007 100 10000 5 240 07:51 11.10.2019
6397 Rain 8 1006 93 9000 4 240 07:33 11.10.2019
6398 Rain 8 1006 93 10000 4 250 06:49 11.10.2019
6399 Rain 8 1006 93 10000 4 250 06:24 11.10.2019
6400 Clouds 8 1005 93 10000 5 250 05:41 11.10.2019
6401 Clouds 8 1005 93 10000 5 250 05:23 11.10.2019
6402 Clouds 8 1005 100 10000 4 250 04:47 11.10.2019
6403 Clouds 7 1004 93 10000 5 270 02:59 11.10.2019
6404 Clouds 8 1002 100 9000 6 260 00:54 11.10.2019
6405 Clouds 8 1002 93 10000 7 250 00:30 11.10.2019
6406 Clouds 8 1001 93 10000 6 250 23:57 10.10.2019
6407 Clouds 8 1001 93 10000 6 250 23:38 10.10.2019
6408 Clouds 8 1001 93 10000 6 250 23:18 10.10.2019
6409 Clouds 8 1001 93 10000 7 260 22:54 10.10.2019
6410 Clouds 8 1000 93 10000 7 260 22:36 10.10.2019
6411 Clouds 8 1000 93 10000 7 260 22:18 10.10.2019
6412 Rain 9 1001 93 10000 8 240 21:42 10.10.2019
6413 Clouds 9 1000 93 10000 6 240 21:22 10.10.2019
6414 Rain 9 1000 93 10000 5 220 20:58 10.10.2019
6415 Rain 9 1000 100 9000 4 210 20:39 10.10.2019
6416 Rain 9 1000 100 5000 3 180 20:19 10.10.2019
6417 Rain 9 1000 100 5000 3 180 19:56 10.10.2019
6418 Rain 8 1000 93 4200 3 150 19:38 10.10.2019
6419 Rain 8 1000 93 4200 3 150 19:19 10.10.2019
6420 Rain 8 1001 100 6000 5 130 18:42 10.10.2019
6421 Rain 8 1001 100 6000 5 130 18:21 10.10.2019
6422 Rain 7 1002 100 6000 4 130 17:58 10.10.2019
6423 Rain 7 1002 100 7000 5 140 17:39 10.10.2019
6424 Rain 7 1002 100 7000 5 140 17:18 10.10.2019
6425 Rain 7 1004 100 8000 4 120 16:56 10.10.2019
6426 Rain 7 1004 93 9000 5 120 16:37 10.10.2019
6427 Rain 8 1005 93 7000 4 110 16:18 10.10.2019
6428 Rain 8 1005 93 7000 4 110 15:40 10.10.2019
6429 Rain 8 1005 93 7000 4 110 15:22 10.10.2019
6430 Rain 8 1005 93 7000 4 110 15:22 10.10.2019
6431 Rain 8 1006 93 9000 3 140 14:58 10.10.2019
6432 Rain 8 1007 93 9000 4 160 14:37 10.10.2019
6433 Rain 8 1007 93 9000 4 160 14:19 10.10.2019
6434 Rain 8 1007 93 9000 4 160 13:58 10.10.2019
6435 Rain 8 1008 93 9000 4 170 13:39 10.10.2019
6436 Rain 8 1008 93 10000 4 170 13:18 10.10.2019
6437 Rain 8 1008 93 10000 4 170 12:42 10.10.2019
6438 Rain 8 1008 93 10000 4 160 12:21 10.10.2019
6439 Rain 8 1009 100 10000 4 170 11:58 10.10.2019
6440 Rain 8 1009 93 9000 4 170 11:40 10.10.2019
6441 Rain 8 1009 93 9000 4 170 11:19 10.10.2019
6442 Rain 8 1010 93 10000 4 170 10:57 10.10.2019
6443 Rain 8 1010 87 10000 3 170 10:39 10.10.2019
6444 Rain 8 1010 87 10000 3 170 10:20 10.10.2019
6445 Drizzle 8 1011 87 10000 3 170 09:41 10.10.2019
6446 Drizzle 8 1011 87 10000 3 170 09:23 10.10.2019
6447 Drizzle 8 1011 87 10000 3 160 08:59 10.10.2019
6448 Rain 7 1011 87 10000 2 150 08:40 10.10.2019
6449 Rain 7 1011 87 10000 2 150 08:21 10.10.2019
6450 Rain 7 1011 93 10000 2 150 07:48 10.10.2019
6451 Clouds 7 1011 93 10000 2 160 07:26 10.10.2019
6452 Clouds 6 1011 93 10000 2 170 06:56 10.10.2019
6453 Clouds 5 1011 100 10000 2 190 06:38 10.10.2019
6454 Clouds 6 1011 93 10000 2 170 05:56 10.10.2019
6455 Clouds 6 1011 93 10000 1.98 222.356 05:21 10.10.2019
6456 Clouds 6 1011 93 10000 2 260 04:36 10.10.2019
6457 Clouds 6 1010 100 10000 3 260 02:42 10.10.2019
6458 Rain 7 1010 100 10000 4 270 01:38 10.10.2019
6459 Rain 7 1010 100 10000 4 270 01:18 10.10.2019
6460 Rain 7 1009 93 5000 5 260 00:39 10.10.2019
6461 Rain 7 1009 93 8000 4 240 23:57 09.10.2019
6462 Rain 6 1008 93 7000 3 240 23:36 09.10.2019
6463 Rain 6 1008 93 7000 3 240 23:18 09.10.2019
6464 Rain 6 1008 93 5000 3 220 22:42 09.10.2019
6465 Rain 6 1008 93 5000 3 220 22:23 09.10.2019
6466 Rain 5 1008 93 4400 3 210 21:58 09.10.2019
6467 Rain 5 1008 93 4700 3 210 21:39 09.10.2019
6468 Rain 5 1008 93 4700 3 210 21:19 09.10.2019
6469 Drizzle 5 1007 100 7000 3 220 20:55 09.10.2019
6470 Drizzle 5 1007 93 8000 3 220 20:37 09.10.2019
6471 Drizzle 5 1007 93 8000 3 220 20:18 09.10.2019
6472 Rain 4 1007 93 10000 4 220 19:45 09.10.2019
6473 Rain 4 1007 93 10000 4 220 19:23 09.10.2019
6474 Drizzle 4 1007 100 10000 4 220 18:58 09.10.2019
6475 Drizzle 4 1007 100 10000 4 210 18:37 09.10.2019
6476 Drizzle 4 1007 100 10000 4 210 18:18 09.10.2019
6477 Rain 3 1007 93 10000 4 210 17:55 09.10.2019
6478 Rain 3 1007 100 10000 5 210 17:36 09.10.2019
6479 Rain 3 1007 100 10000 5 210 17:18 09.10.2019
6480 Rain 3 1007 100 10000 5 200 16:40 09.10.2019
6481 Rain 3 1007 100 10000 5 200 16:22 09.10.2019
6482 Rain 4 1007 93 9000 5 190 15:58 09.10.2019
6483 Rain 4 1007 93 9000 5 190 15:39 09.10.2019
6484 Rain 4 1007 93 9000 5 190 15:39 09.10.2019
6485 Rain 4 1007 93 9000 5 190 15:20 09.10.2019
6486 Rain 4 1007 93 10000 5 180 14:58 09.10.2019
6487 Rain 4 1007 93 9000 5 170 14:39 09.10.2019
6488 Rain 4 1007 93 9000 5 170 14:18 09.10.2019
6489 Rain 4 1007 93 10000 4 170 13:40 09.10.2019
6490 Rain 4 1007 93 10000 4 170 13:21 09.10.2019
6491 Rain 4 1008 93 9000 5 180 12:59 09.10.2019
6492 Rain 4 1008 93 9000 5 180 12:59 09.10.2019
6493 Rain 5 1008 80 10000 5 180 12:40 09.10.2019
6494 Rain 5 1008 80 10000 5 180 12:21 09.10.2019
6495 Rain 5 1009 80 10000 5 190 11:55 09.10.2019
6496 Rain 5 1009 75 10000 4 180 11:37 09.10.2019
6497 Clouds 5 1009 75 10000 6 200 11:19 09.10.2019
6498 Clouds 5 1009 75 10000 5 180 10:44 09.10.2019
6499 Clouds 5 1009 75 10000 5 180 10:21 09.10.2019
6500 Rain 4 1010 80 10000 4 180 09:59 09.10.2019
6501 Clear 4 1010 86 10000 3 180 09:40 09.10.2019
6502 Clear 4 1010 86 10000 3 180 09:40 09.10.2019
6503 Clear 4 1010 86 10000 3 180 09:40 09.10.2019
6504 Clear 4 1010 86 10000 3 180 09:40 09.10.2019
6505 Clear 4 1010 86 10000 3 180 09:19 09.10.2019
6506 Clouds 3 1011 86 10000 4 190 08:41 09.10.2019
6507 Clouds 3 1011 86 10000 4 190 08:23 09.10.2019
6508 Clouds 3 1011 93 10000 4 200 07:58 09.10.2019
6509 Clouds 3 1011 93 10000 4 200 07:37 09.10.2019
6510 Clouds 3 1011 93 10000 4 200 07:19 09.10.2019
6511 Clouds 2 1011 93 10000 4 210 06:51 09.10.2019
6512 Rain 2 1011 93 10000 4 210 05:56 09.10.2019
6513 Rain 2 1011 93 10000 3 200 05:37 09.10.2019
6514 Rain 2 1012 93 10000 4 210 04:25 09.10.2019
6515 Snow 2 1012 87 10000 5 210 02:52 09.10.2019
6516 Snow 2 1012 87 10000 3 210 01:43 09.10.2019
6517 Snow 2 1012 88 10000 4 210 01:20 09.10.2019
6518 Snow 2 1012 88 10000 4 210 00:57 09.10.2019
6519 Snow 2 1013 74 10000 5 210 00:38 09.10.2019
6520 Snow 2 1013 74 10000 5 210 00:20 09.10.2019
6521 Clouds 2 1013 69 10000 4 200 23:39 08.10.2019
6522 Clear 2 1013 69 10000 4 200 23:19 08.10.2019
6523 Clear 2 1013 69 10000 4 200 22:57 08.10.2019
6524 Clouds 2 1013 69 10000 4 200 22:38 08.10.2019
6525 Clouds 2 1013 69 10000 4 200 22:19 08.10.2019
6526 Clouds 2 1013 69 10000 4 200 21:57 08.10.2019
6527 Clouds 2 1013 64 10000 4 210 21:39 08.10.2019
6528 Clouds 2 1013 64 10000 4 210 21:19 08.10.2019
6529 Snow 3 1013 60 10000 4 210 20:56 08.10.2019
6530 Snow 3 1013 60 10000 4 210 20:56 08.10.2019
6531 Snow 3 1013 60 10000 4 200 20:37 08.10.2019
6532 Snow 3 1014 60 10000 4 200 20:19 08.10.2019
6533 Snow 3 1014 60 10000 4 200 19:58 08.10.2019
6534 Snow 3 1014 60 10000 4 200 19:39 08.10.2019
6535 Clouds 3 1014 60 10000 4 200 19:20 08.10.2019
6536 Clouds 3 1014 60 10000 4 200 18:54 08.10.2019
6537 Clear 3 1014 60 10000 4 210 18:36 08.10.2019
6538 Clouds 3 1014 55 10000 4 210 18:18 08.10.2019
6539 Clouds 3 1013 55 10000 4 200 17:40 08.10.2019
6540 Clear 4 1013 55 10000 4 210 17:20 08.10.2019
6541 Clear 4 1013 55 10000 4 210 16:58 08.10.2019
6542 Clouds 4 1013 55 10000 5 220 16:39 08.10.2019
6543 Clouds 4 1013 55 10000 5 220 16:21 08.10.2019
6544 Clouds 5 1013 52 10000 6 210 15:41 08.10.2019
6545 Clouds 5 1013 52 10000 6 210 15:41 08.10.2019
6546 Clouds 5 1013 52 10000 6 210 15:21 08.10.2019
6547 Rain 5 1013 52 10000 6 230 14:58 08.10.2019
6548 Rain 6 1013 52 10000 6 230 14:58 08.10.2019
6549 Clouds 5 1013 56 10000 6 230 14:39 08.10.2019
6550 Clouds 5 1013 56 10000 6 230 14:21 08.10.2019
6551 Clouds 5 1013 56 10000 6 220 13:57 08.10.2019
6552 Clouds 5 1013 56 10000 7 230 13:38 08.10.2019
6553 Clouds 5 1013 56 10000 6 220 13:19 08.10.2019
6554 Clouds 5 1013 56 10000 6 220 12:58 08.10.2019
6555 Clouds 5 1013 60 10000 7 210 12:38 08.10.2019
6556 Clouds 5 1013 60 10000 7 210 12:18 08.10.2019
6557 Clouds 4 1013 69 10000 6 220 11:42 08.10.2019
6558 Clouds 4 1013 69 10000 6 220 11:24 08.10.2019
6559 Clouds 4 1013 69 10000 6 220 11:24 08.10.2019
6560 Clouds 3 1013 69 10000 6 240 10:58 08.10.2019
6561 Clouds 3 1013 69 10000 6 220 10:37 08.10.2019
6562 Clouds 3 1013 69 10000 6 220 10:19 08.10.2019
6563 Clouds 2 1013 69 10000 7 230 09:56 08.10.2019
6564 Clouds 2 1013 80 10000 7 230 09:37 08.10.2019
6565 Clouds 2 1013 80 10000 7 230 09:19 08.10.2019
6566 Clouds 1 1012 86 10000 6 220 08:42 08.10.2019
6567 Clouds 1 1012 86 10000 6 220 08:23 08.10.2019
6568 Clouds 1 1012 86 10000 6 220 08:23 08.10.2019
6569 Clouds 1 1012 86 10000 6 220 08:23 08.10.2019
6570 Clouds 0 1012 76 10000 7 230 07:45 08.10.2019
6571 Clouds 0 1012 76 10000 7 230 07:21 08.10.2019
6572 Clouds 0 1011 76 10000 6 230 06:53 08.10.2019
6573 Clouds 0 1011 88 10000 5 230 06:29 08.10.2019
6574 Clouds 0 1011 88 10000 5 230 05:55 08.10.2019
6575 Clouds 0 1011 88 10000 5 230 05:55 08.10.2019
6576 Snow 0 1011 88 10000 5 220 05:36 08.10.2019
6577 Snow 0 1010 88 9000 5 230 04:33 08.10.2019
6578 Snow 0 1010 88 10000 5 240 03:29 08.10.2019
6579 Snow 0 1010 86 10000 5 240 02:39 08.10.2019
6580 Snow 0 1009 86 10000 5 240 01:49 08.10.2019
6581 Snow 0 1009 86 10000 5 240 01:31 08.10.2019
6582 Snow 0 1009 86 10000 5 240 00:50 08.10.2019
6583 Snow 1 1009 86 10000 5 240 00:21 08.10.2019
6584 Clouds 1 1009 86 10000 5 250 23:41 07.10.2019
6585 Clouds 1 1009 86 10000 5 250 23:20 07.10.2019
6586 Clouds 1 1009 86 10000 5 250 23:20 07.10.2019
6587 Clouds 1 1009 86 10000 6 230 22:58 07.10.2019
6588 Clouds 1 1009 86 10000 5 250 22:40 07.10.2019
6589 Clouds 1 1009 86 10000 5 250 22:20 07.10.2019
6590 Clouds 1 1009 80 10000 6 240 21:57 07.10.2019
6591 Clouds 1 1009 80 10000 5 220 21:39 07.10.2019
6592 Clouds 2 1009 80 10000 5 220 21:20 07.10.2019
6593 Clouds 2 1009 74 10000 5 220 20:58 07.10.2019
6594 Clouds 2 1009 74 10000 5 250 20:39 07.10.2019
6595 Clouds 2 1009 80 10000 4 250 20:20 07.10.2019
6596 Clouds 2 1009 80 10000 4 250 19:58 07.10.2019
6597 Clouds 2 1009 74 10000 5 260 19:40 07.10.2019
6598 Clouds 2 1009 74 10000 5 260 19:19 07.10.2019
6599 Clouds 2 1009 69 10000 6 270 18:57 07.10.2019
6600 Clouds 2 1009 74 10000 5 260 18:38 07.10.2019
6601 Clouds 2 1009 74 10000 5 260 18:18 07.10.2019
6602 Clouds 2 1009 80 10000 4 270 17:43 07.10.2019
6603 Clouds 2 1009 80 10000 4 270 17:43 07.10.2019
6604 Clouds 2 1009 80 10000 4 270 17:22 07.10.2019
6605 Clouds 3 1009 80 10000 5 280 16:58 07.10.2019
6606 Clouds 3 1008 74 10000 5 270 16:39 07.10.2019
6607 Clouds 3 1008 74 10000 5 270 16:20 07.10.2019
6608 Clouds 3 1008 74 10000 6 280 15:45 07.10.2019
6609 Clouds 3 1008 74 10000 6 280 15:26 07.10.2019
6610 Clouds 3 1008 74 10000 6 280 15:26 07.10.2019
6611 Clouds 3 1008 74 10000 6 280 15:26 07.10.2019
6612 Clouds 3 1008 74 10000 7 270 14:57 07.10.2019
6613 Clouds 3 1008 72 10000 7 280 14:38 07.10.2019
6614 Clouds 3 1008 72 10000 7 280 14:20 07.10.2019
6615 Snow 3 1007 93 10000 6 280 13:43 07.10.2019
6616 Snow 3 1007 93 10000 6 280 13:21 07.10.2019
6617 Clouds 3 1007 74 10000 7 290 12:57 07.10.2019
6618 Clouds 3 1007 71 10000 5 280 12:39 07.10.2019
6619 Clouds 3 1007 75 10000 6 290 12:19 07.10.2019
6620 Clouds 3 1007 75 10000 6 290 11:57 07.10.2019
6621 Clouds 3 1007 75 10000 8 270 11:38 07.10.2019
6622 Clouds 3 1007 75 10000 8 270 11:20 07.10.2019
6623 Clouds 2 1007 75 10000 7 290 10:42 07.10.2019
6624 Clouds 2 1007 75 10000 7 290 10:21 07.10.2019
6625 Clouds 2 1007 75 10000 7 290 09:55 07.10.2019
6626 -273 0 0 0 0 0 09:54 07.10.2019
6627 Snow 2 1007 75 10000 7 290 09:36 07.10.2019
6628 Snow 2 1007 86 10000 6 300 09:18 07.10.2019
6629 Snow 1 1007 88 10000 5 290 08:41 07.10.2019
6630 Snow 1 1007 88 10000 5 290 08:20 07.10.2019
6631 Snow 1 1007 88 10000 6 290 07:44 07.10.2019
6632 Rain 1 1006 88 10000 6 300 07:25 07.10.2019
6633 Clouds 1 1006 88 7000 6 300 06:56 07.10.2019
6634 Rain 1 1006 88 8000 5 300 06:37 07.10.2019
6635 Snow 1 1006 91 10000 5 300 05:54 07.10.2019
6636 Snow 1 1006 91 10000 6 300 05:25 07.10.2019
6637 Snow 1 1006 91 10000 5 300 04:44 07.10.2019
6638 Rain 1 1006 91 10000 6 310 03:45 07.10.2019
6639 Rain 1 1006 91 10000 6 310 03:45 07.10.2019
6640 Rain 1 1006 94 10000 6 310 03:23 07.10.2019
6641 Clouds 1 1006 94 10000 5 310 02:23 07.10.2019
6642 Clouds 1 1006 94 10000 5 310 02:23 07.10.2019
6643 Rain 1 1005 94 10000 5 320 01:58 07.10.2019
6644 Rain 1 1005 100 10000 5 320 01:23 07.10.2019
6645 Snow 1 1005 100 10000 5 320 00:45 07.10.2019
6646 Snow 1 1005 100 10000 5 320 00:23 07.10.2019
6647 Snow 1 1005 100 6000 5 330 23:59 06.10.2019
6648 Snow 1 1005 100 2500 5 320 23:39 06.10.2019
6649 Snow 1 1005 100 2500 5 320 23:18 06.10.2019
6650 -273 0 0 0 0 0 22:54 06.10.2019
6651 Snow 1 1006 100 2500 4 330 22:36 06.10.2019
6652 Snow 1 1006 100 6000 5 340 22:18 06.10.2019
6653 Snow 1 1006 100 6000 5 340 21:54 06.10.2019
6654 Snow 1 1006 100 3200 5 340 21:36 06.10.2019
6655 Snow 1 1006 100 3200 5 340 21:36 06.10.2019
6656 Snow 1 1006 100 3200 5 340 21:18 06.10.2019
6657 Snow 1 1006 100 3400 5 340 20:54 06.10.2019
6658 Snow 1 1006 100 3400 5 340 20:54 06.10.2019
6659 Snow 1 1006 100 3200 6 340 20:36 06.10.2019
6660 Snow 1 1006 100 3200 6 340 20:18 06.10.2019
6661 Snow 1 1006 95 2600 7 350 19:54 06.10.2019
6662 Snow 1 1006 100 10000 6 340 19:36 06.10.2019
6663 Snow 1 1006 100 10000 6 340 19:18 06.10.2019
6664 Snow 1 1007 100 10000 7 350 18:54 06.10.2019
6665 Snow 1 1007 100 10000 7 350 18:54 06.10.2019
6666 Rain 1 1007 100 10000 7 350 18:36 06.10.2019
6667 Rain 1 1007 100 10000 7 350 18:18 06.10.2019
6668 Snow 2 1007 100 10000 6 350 17:42 06.10.2019
6669 Snow 2 1007 93 10000 7 350 17:20 06.10.2019
6670 Snow 2 1007 93 9000 6 350 16:55 06.10.2019
6671 Snow 2 1007 93 9000 6 350 16:55 06.10.2019
6672 Snow 1 1007 100 9000 7 350 16:37 06.10.2019
6673 Snow 1 1007 100 8000 6 360 16:18 06.10.2019
6674 Snow 1 1007 93 8000 6 350 15:42 06.10.2019
6675 Snow 1 1007 93 8000 6 350 15:21 06.10.2019
6676 Snow 1 1008 93 9000 5 350 14:44 06.10.2019
6677 Snow 1 1008 93 9000 5 350 14:26 06.10.2019
6678 Rain 1 1008 93 9000 6 360 13:59 06.10.2019
6679 Rain 2 1008 93 10000 6 360 13:40 06.10.2019
6680 Rain 2 1008 93 10000 6 360 13:22 06.10.2019
6681 Rain 2 1008 93 9000 6 360 12:58 06.10.2019
6682 Rain 2 1008 93 10000 6 10 12:39 06.10.2019
6683 Rain 2 1008 93 10000 6 10 12:21 06.10.2019
6684 Rain 2 1008 93 10000 5 10 11:59 06.10.2019
6685 Rain 2 1009 100 10000 5 360 11:40 06.10.2019
6686 Rain 2 1009 100 10000 5 360 11:21 06.10.2019
6687 Rain 2 1009 100 10000 5 10 10:55 06.10.2019
6688 Rain 2 1009 100 10000 5 10 10:37 06.10.2019
6689 Rain 2 1009 100 10000 5 10 10:19 06.10.2019
6690 Rain 2 1010 93 10000 4 360 09:41 06.10.2019
6691 Rain 2 1010 93 10000 5 20 09:19 06.10.2019
6692 Snow 2 1010 93 10000 5 20 08:48 06.10.2019
6693 Rain 3 1011 93 10000 6 30 08:21 06.10.2019
6694 Rain 3 1011 93 10000 6 30 07:57 06.10.2019
6695 Drizzle 3 1011 86 10000 5 30 07:39 06.10.2019
6696 Drizzle 3 1011 86 10000 5 20 06:49 06.10.2019
6697 Rain 4 1011 93 10000 5 30 05:40 06.10.2019
6698 Rain 5 1011 93 10000 5 30 04:32 06.10.2019
6699 Rain 5 1012 86 10000 4 30 02:52 06.10.2019
6700 Rain 6 1011 80 10000 6 30 02:29 06.10.2019
6701 Clouds 6 1011 80 10000 5 20 01:46 06.10.2019
6702 Clouds 6 1012 80 10000 6 30 01:28 06.10.2019
6703 Clouds 5 1013 86 10000 4 20 00:59 06.10.2019
6704 Clouds 6 1013 86 10000 5 10 00:31 06.10.2019
6705 Clouds 6 1013 93 10000 5 10 23:54 05.10.2019
6706 Clouds 6 1014 86 10000 5 10 23:36 05.10.2019
6707 Clouds 6 1014 86 10000 5 10 23:18 05.10.2019
6708 -273 0 0 0 0 0 22:54 05.10.2019
6709 Clouds 7 1014 86 10000 5 20 22:54 05.10.2019
6710 Clouds 7 1013 86 10000 5 20 22:36 05.10.2019
6711 Clouds 7 1013 86 10000 5 20 22:18 05.10.2019
6712 Clear 7 1013 86 10000 4 10 21:40 05.10.2019
6713 Clear 7 1013 86 10000 4 10 21:21 05.10.2019
6714 Clear 7 1013 70 10000 5 20 20:57 05.10.2019
6715 Clear 7 1014 86 10000 4 360 20:39 05.10.2019
6716 Clear 8 1014 87 10000 2 330 20:19 05.10.2019
6717 Clouds 8 1013 87 9000 2 350 19:41 05.10.2019
6718 Clouds 8 1013 87 9000 2 350 19:22 05.10.2019
6719 Clouds 8 1013 87 9000 3 330 18:58 05.10.2019
6720 Clear 8 1013 87 10000 1 0 18:39 05.10.2019
6721 Clear 8 1013 87 10000 1 0 18:21 05.10.2019
6722 Clear 8 1013 81 10000 2 350 17:59 05.10.2019
6723 Clear 9 1012 81 10000 3 350 17:40 05.10.2019
6724 Clear 9 1012 81 10000 3 350 17:21 05.10.2019
6725 Clear 9 1012 70 10000 4 330 16:42 05.10.2019
6726 Clouds 9 1011 66 10000 4 320 16:23 05.10.2019
6727 Clouds 10 1011 66 10000 4 320 15:59 05.10.2019
6728 Clear 10 1011 57 10000 2 270 15:40 05.10.2019
6729 Clear 10 1011 57 10000 2 270 15:21 05.10.2019
6730 Clouds 10 1011 66 10000 2 290 14:59 05.10.2019
6731 Clouds 10 1011 70 10000 3 300 14:41 05.10.2019
6732 Clouds 10 1011 70 10000 3 300 14:41 05.10.2019
6733 Clouds 10 1011 70 10000 3 300 14:41 05.10.2019
6734 Clouds 10 1011 70 10000 3 300 14:20 05.10.2019
6735 Clouds 10 1011 70 10000 3 260 13:43 05.10.2019
6736 Clouds 10 1011 70 10000 3 250 13:24 05.10.2019
6737 Clouds 10 1011 70 10000 3 290 12:57 05.10.2019
6738 Clouds 10 1011 66 10000 3 280 12:39 05.10.2019
6739 Clouds 10 1011 66 10000 3 280 12:18 05.10.2019
6740 Clouds 10 1010 76 10000 4 290 11:39 05.10.2019
6741 Clouds 10 1010 76 10000 4 290 11:20 05.10.2019
6742 Clouds 9 1010 76 10000 2 240 10:55 05.10.2019
6743 Clouds 9 1010 76 10000 3 220 10:37 05.10.2019
6744 Clouds 8 1010 76 10000 3 230 10:18 05.10.2019
6745 Clouds 8 1009 75 10000 3 240 09:40 05.10.2019
6746 Clouds 8 1009 75 10000 3 240 09:22 05.10.2019
6747 Clouds 7 1009 81 10000 3 210 08:42 05.10.2019
6748 Clouds 7 1009 81 10000 3 210 08:22 05.10.2019
6749 Clouds 6 1009 87 10000 2 220 07:59 05.10.2019
6750 Clouds 6 1009 87 10000 2 190 07:38 05.10.2019
6751 Clouds 6 1009 87 10000 2 190 07:19 05.10.2019
6752 Clouds 5 1008 87 10000 1 0 06:50 05.10.2019
6753 Clouds 5 1008 86 10000 1 0 06:18 05.10.2019
6754 Clouds 4 1008 93 10000 2 210 04:44 05.10.2019
6755 Clear 5 1008 93 10000 3 110 03:30 05.10.2019
6756 Clouds 5 1008 86 10000 0.78 345.354 02:25 05.10.2019
6757 Clouds 6 1008 86 10000 2 330 01:25 05.10.2019
6758 Clouds 6 1009 86 10000 3 320 00:46 05.10.2019
6759 Clouds 6 1009 86 10000 3 320 00:27 05.10.2019
6760 Clear 6 1008 81 10000 3 310 23:55 04.10.2019
6761 Clear 6 1008 86 10000 2 330 23:37 04.10.2019
6762 Clear 6 1008 86 10000 2 330 23:18 04.10.2019
6763 Clouds 7 1008 81 10000 3 270 22:41 04.10.2019
6764 Clouds 7 1008 81 10000 3 270 22:23 04.10.2019
6765 Clouds 7 1008 75 10000 4 270 21:58 04.10.2019
6766 Clouds 7 1009 81 10000 3 270 21:40 04.10.2019
6767 Clouds 7 1009 81 10000 3 270 21:22 04.10.2019
6768 Clouds 7 1009 81 10000 3 270 20:58 04.10.2019
6769 Clouds 7 1008 81 10000 2 260 20:39 04.10.2019
6770 Clouds 7 1008 81 10000 2 260 20:39 04.10.2019
6771 -273 0 0 0 0 0 20:21 04.10.2019
6772 Clouds 7 1008 75 10000 3 280 19:55 04.10.2019
6773 Clouds 8 1008 81 10000 3 280 19:37 04.10.2019
6774 Clouds 8 1008 81 10000 4 290 19:18 04.10.2019
6775 Clouds 8 1008 81 10000 3 270 18:40 04.10.2019
6776 Clouds 9 1008 81 10000 3 270 18:20 04.10.2019
6777 Clouds 9 1008 81 10000 3 270 18:20 04.10.2019
6778 Clouds 9 1008 81 10000 4 280 17:58 04.10.2019
6779 Clouds 9 1008 81 10000 3 300 17:39 04.10.2019
6780 Clouds 9 1008 81 10000 3 300 17:20 04.10.2019
6781 Clouds 9 1007 76 10000 4 290 16:55 04.10.2019
6782 Clouds 9 1007 81 10000 4 280 16:37 04.10.2019
6783 Clouds 10 1007 81 10000 4 280 16:18 04.10.2019
6784 Clouds 10 1007 81 10000 6 290 15:55 04.10.2019
6785 Clouds 10 1007 81 10000 6 290 15:55 04.10.2019
6786 Clouds 10 1007 81 10000 5 270 15:37 04.10.2019
6787 Clouds 10 1007 81 10000 5 270 15:19 04.10.2019
6788 Clouds 10 1007 81 10000 5 270 15:19 04.10.2019
6789 Clouds 10 1006 76<